# Wetter Temperatur Luftdruck Luftfeuchtigkeit Sichtweite Windgeschwindigkeit Windrichtung Zeit
1 Clear 11 1014 71 10000 2.6 170 20:56 17.10.2019
2 Clear 11 1014 71 10000 2.6 170 20:56 17.10.2019
3 Clear 12 1014 71 10000 3.6 170 20:37 17.10.2019
4 Clear 12 1014 76 10000 3.6 150 20:18 17.10.2019
5 Clear 13 1014 76 10000 3.1 150 19:42 17.10.2019
6 Clear 14 1014 71 10000 2.1 110 19:21 17.10.2019
7 Clear 14 1014 71 10000 2.1 110 18:59 17.10.2019
8 Clear 15 1014 67 10000 1.5 0 18:39 17.10.2019
9 Clouds 15 977 77 0 1.34 133 18:21 17.10.2019
10 Clouds 16 1014 63 10000 2.1 250 17:55 17.10.2019
11 Clouds 16 1014 63 10000 2.1 250 17:55 17.10.2019
12 Clouds 16 1014 59 10000 2.6 260 17:37 17.10.2019
13 Clouds 17 1014 55 10000 2.1 240 17:19 17.10.2019
14 Clouds 17 1014 55 10000 3.6 260 16:42 17.10.2019
15 Clouds 17 1014 55 10000 3.1 230 16:19 17.10.2019
16 Clouds 18 1014 55 10000 3.1 230 15:59 17.10.2019
17 Clouds 18 1014 55 10000 2.1 250 15:41 17.10.2019
18 Clouds 18 1014 52 10000 3.6 230 15:20 17.10.2019
19 Clouds 18 1014 52 10000 3.6 230 14:58 17.10.2019
20 Rain 18 1014 48 10000 4.1 240 14:39 17.10.2019
21 Clouds 18 1014 52 10000 4.1 230 14:21 17.10.2019
22 Clouds 17 1014 54 0 2.34 201 13:42 17.10.2019
23 Clouds 17 1015 59 10000 4.1 190 13:21 17.10.2019
24 Clouds 17 1015 59 10000 4.1 190 12:59 17.10.2019
25 Clouds 16 1015 59 10000 4.6 190 12:40 17.10.2019
26 Clouds 16 1015 55 10000 5.1 180 12:20 17.10.2019
27 Clouds 16 1015 55 10000 5.1 180 11:57 17.10.2019
28 Clouds 16 1015 55 10000 5.1 180 11:39 17.10.2019
29 Clouds 15 1015 62 10000 4.6 180 11:19 17.10.2019
30 -273 0 0 0 0 0 10:54 17.10.2019
31 Clouds 15 1015 62 10000 4.6 180 10:54 17.10.2019
32 Rain 14 1015 62 10000 4.6 180 10:36 17.10.2019
33 Rain 13 1015 62 10000 4.6 170 10:18 17.10.2019
34 Rain 13 1015 62 10000 4.6 170 09:41 17.10.2019
35 Clouds 13 1014 62 10000 5.1 170 09:21 17.10.2019
36 Clouds 12 1014 62 10000 5.1 170 08:58 17.10.2019
37 Clouds 12 1014 62 10000 5.1 170 08:58 17.10.2019
38 Clouds 12 1014 66 10000 4.1 160 08:39 17.10.2019
39 Clouds 11 1014 66 10000 5.1 170 08:20 17.10.2019
40 Clouds 11 1014 66 10000 5.1 170 07:55 17.10.2019
41 Clouds 10 1014 66 10000 5.1 180 07:36 17.10.2019
42 Clouds 11 1014 62 10000 6.2 180 07:18 17.10.2019
43 Clouds 11 1014 62 10000 6.2 180 06:39 17.10.2019
44 Clouds 11 1014 62 10000 6.2 180 06:20 17.10.2019
45 Clouds 12 1014 66 10000 5.7 180 05:51 17.10.2019
46 Clouds 12 1014 66 10000 5.7 180 05:31 17.10.2019
47 Clouds 12 1013 66 10000 6.2 200 04:52 17.10.2019
48 Clouds 12 1013 66 10000 5.7 190 03:55 17.10.2019
49 Clouds 13 1013 67 10000 4.6 180 02:36 17.10.2019
50 Clouds 13 1014 67 10000 4.6 180 01:27 17.10.2019
51 Clouds 13 1014 67 10000 4.1 200 00:38 17.10.2019
52 Clouds 13 1014 67 10000 5.1 200 00:19 17.10.2019
53 Clouds 13 1014 71 10000 5.1 190 23:42 16.10.2019
54 Clouds 13 1014 71 10000 4.6 200 23:21 16.10.2019
55 Clouds 13 1014 71 10000 4.6 200 22:56 16.10.2019
56 Clouds 13 1014 71 10000 4.6 200 22:56 16.10.2019
57 Clouds 13 1014 71 10000 4.1 200 22:37 16.10.2019
58 Clouds 13 1014 67 10000 4.6 220 22:19 16.10.2019
59 Clouds 13 1014 67 10000 4.6 220 21:56 16.10.2019
60 Clouds 13 1014 62 10000 5.7 210 21:37 16.10.2019
61 Clouds 13 1013 66 10000 4.1 200 21:19 16.10.2019
62 Clouds 13 1013 66 10000 4.1 200 20:58 16.10.2019
63 Clouds 13 1013 66 10000 3.1 210 20:39 16.10.2019
64 Clouds 13 1013 66 10000 3.6 220 20:21 16.10.2019
65 Clouds 13 1013 66 10000 3.6 220 19:59 16.10.2019
66 Clouds 13 1013 66 10000 4.1 220 19:39 16.10.2019
67 Clouds 13 1013 66 10000 3.6 220 19:20 16.10.2019
68 Clouds 13 1013 66 10000 3.6 220 18:54 16.10.2019
69 Clouds 13 1013 66 10000 4.1 220 18:36 16.10.2019
70 Rain 13 1013 66 10000 3.6 230 18:18 16.10.2019
71 Rain 13 1013 66 10000 3.6 230 17:54 16.10.2019
72 Clouds 14 1013 58 10000 5.1 240 17:36 16.10.2019
73 Clouds 14 1012 54 10000 7.7 240 17:18 16.10.2019
74 Clouds 14 1012 58 10000 6.2 240 16:41 16.10.2019
75 Clouds 15 1013 67 10000 6.2 230 16:21 16.10.2019
76 Clouds 15 1013 67 10000 6.2 230 16:21 16.10.2019
77 Clouds 14 1013 67 10000 6.2 230 15:57 16.10.2019
78 Rain 15 1013 71 10000 6.7 230 15:38 16.10.2019
79 Rain 15 976 76 0 3.58 240 15:18 16.10.2019
80 Rain 15 1012 79 0 8.956 251 14:58 16.10.2019
81 Rain 14 1012 76 10000 6.7 240 14:38 16.10.2019
82 Rain 14 1012 67 10000 4.6 240 14:19 16.10.2019
83 Rain 14 1012 67 10000 4.6 240 13:57 16.10.2019
84 Rain 14 1012 67 10000 4.6 240 13:56 16.10.2019
85 Clouds 14 1012 67 10000 6.2 250 13:38 16.10.2019
86 Clouds 14 1012 67 10000 6.2 250 13:38 16.10.2019
87 Clouds 14 1012 67 10000 6.2 250 13:19 16.10.2019
88 Clouds 14 1012 67 10000 4.1 250 12:42 16.10.2019
89 Clouds 14 1012 67 10000 7.2 260 12:19 16.10.2019
90 Clouds 13 1012 71 10000 6.7 270 11:45 16.10.2019
91 Clouds 13 1011 76 10000 4.6 260 11:19 16.10.2019
92 Clouds 12 1011 81 10000 6.7 250 10:41 16.10.2019
93 Clouds 12 1011 81 10000 6.7 250 10:23 16.10.2019
94 Clouds 12 1011 76 10000 7.7 260 09:58 16.10.2019
95 Clouds 12 1010 81 10000 9.3 260 09:39 16.10.2019
96 Rain 12 1010 82 10000 7.7 240 09:21 16.10.2019
97 Rain 12 1009 93 10000 5.1 240 08:46 16.10.2019
98 Rain 13 1009 93 10000 5.1 240 08:26 16.10.2019
99 Rain 13 1009 93 10000 5.1 240 07:58 16.10.2019
100 Rain 13 1009 93 10000 4.1 250 07:40 16.10.2019
101 Rain 13 1008 82 10000 6.2 260 07:21 16.10.2019
102 Clouds 14 1008 77 10000 6.2 240 06:46 16.10.2019
103 Clouds 14 1008 77 10000 6.2 240 06:27 16.10.2019
104 Clouds 14 1007 82 10000 5.7 230 04:25 16.10.2019
105 Clouds 13 1005 87 10000 2.1 170 02:51 16.10.2019
106 Clouds 12 1005 87 10000 2.6 160 01:20 16.10.2019
107 Clouds 12 1005 87 10000 2.6 160 00:59 16.10.2019
108 Clouds 12 1005 87 10000 3.1 160 00:39 16.10.2019
109 Clouds 12 1005 87 10000 3.1 170 23:58 15.10.2019
110 Clouds 12 1005 87 10000 2.6 160 23:38 15.10.2019
111 Clouds 12 1005 87 10000 3.6 170 23:19 15.10.2019
112 Clouds 11 1005 87 10000 3.6 170 22:55 15.10.2019
113 Clouds 11 1005 87 10000 3.6 170 22:55 15.10.2019
114 Clouds 11 1005 87 10000 5.1 180 22:37 15.10.2019
115 Clouds 12 1005 82 10000 5.1 180 22:18 15.10.2019
116 Clouds 12 1005 82 10000 5.1 180 21:54 15.10.2019
117 Clouds 12 1006 82 10000 5.1 190 21:36 15.10.2019
118 Clouds 12 1005 76 10000 6.2 160 21:18 15.10.2019
119 Clouds 13 1005 76 10000 6.2 160 20:55 15.10.2019
120 Clouds 13 1006 76 10000 5.1 180 20:37 15.10.2019
121 Clouds 13 1006 76 10000 4.6 170 20:19 15.10.2019
122 Clouds 13 1006 76 10000 4.6 170 19:55 15.10.2019
123 Clouds 14 1006 82 10000 3.6 160 19:36 15.10.2019
124 Clouds 14 1006 77 10000 5.1 160 19:18 15.10.2019
125 Clouds 15 1005 77 10000 4.6 160 18:43 15.10.2019
126 Clouds 15 1005 77 10000 4.6 160 18:25 15.10.2019
127 Clear 16 1005 77 10000 4.6 150 17:55 15.10.2019
128 Clear 17 1006 72 10000 6.2 150 17:37 15.10.2019
129 Clear 17 1006 72 10000 6.2 150 17:37 15.10.2019
130 Clear 18 1006 72 10000 5.7 140 17:18 15.10.2019
131 Clear 18 1006 72 10000 6.7 150 16:45 15.10.2019
132 Clear 19 1006 72 10000 6.7 150 16:22 15.10.2019
133 Clear 19 1006 68 10000 6.7 140 15:58 15.10.2019
134 Clear 19 1006 63 10000 6.7 150 15:39 15.10.2019
135 Clouds 20 1006 63 10000 7.7 150 15:19 15.10.2019
136 Clouds 20 1006 63 10000 7.7 150 14:56 15.10.2019
137 Clouds 20 1007 63 10000 6.2 160 14:37 15.10.2019
138 Clouds 20 1007 63 10000 6.2 160 14:37 15.10.2019
139 Clouds 20 1007 63 10000 6.7 140 14:19 15.10.2019
140 Clouds 20 1007 63 10000 6.2 150 13:43 15.10.2019
141 Clouds 20 1007 63 10000 6.2 150 13:43 15.10.2019
142 Clouds 20 1008 68 10000 6.2 160 13:21 15.10.2019
143 Clouds 20 1008 68 10000 6.2 160 12:59 15.10.2019
144 Clouds 19 1008 63 10000 6.2 150 12:38 15.10.2019
145 Clouds 19 1008 68 10000 6.2 150 12:20 15.10.2019
146 Clouds 19 1008 68 10000 6.2 150 11:44 15.10.2019
147 Clouds 18 1009 68 10000 6.7 160 11:21 15.10.2019
148 Clouds 18 1009 68 10000 6.7 160 10:58 15.10.2019
149 Clear 17 1009 72 10000 5.7 170 10:39 15.10.2019
150 Clear 16 1009 77 10000 4.6 160 10:19 15.10.2019
151 Clear 16 1009 77 10000 4.6 160 09:57 15.10.2019
152 Clear 15 1009 77 10000 5.1 150 09:37 15.10.2019
153 Clear 14 1009 82 10000 5.7 150 09:19 15.10.2019
154 Clear 13 1009 87 0 5.7 160 08:41 15.10.2019
155 Clear 12 1009 87 10000 5.1 160 08:21 15.10.2019
156 Clear 11 1009 87 10000 5.1 160 07:56 15.10.2019
157 Clear 11 1009 87 10000 5.1 160 07:56 15.10.2019
158 Clear 11 1009 87 10000 5.1 160 07:56 15.10.2019
159 Clear 11 1009 87 10000 4.6 160 07:38 15.10.2019
160 Clear 11 1009 93 10000 4.1 160 07:19 15.10.2019
161 Clear 11 1009 87 10000 2.6 170 06:44 15.10.2019
162 Clear 11 1009 87 10000 2.6 170 06:25 15.10.2019
163 Clear 12 1010 93 10000 2.6 150 05:41 15.10.2019
164 Clear 12 1010 87 10000 2.6 170 05:22 15.10.2019
165 Clear 12 1010 87 10000 2.6 160 04:25 15.10.2019
166 Clear 13 1010 82 10000 4.6 140 03:37 15.10.2019
167 Clear 13 1010 82 10000 4.6 140 03:37 15.10.2019
168 Clear 14 1011 77 10000 4.1 140 02:24 15.10.2019
169 Clear 14 1011 77 10000 5.7 150 01:47 15.10.2019
170 Clear 14 1011 77 10000 4.6 150 01:19 15.10.2019
171 Clear 15 1012 77 10000 6.2 160 00:49 15.10.2019
172 Clear 15 1012 77 10000 8.2 160 00:21 15.10.2019
173 Clear 16 1012 72 10000 7.2 160 23:44 14.10.2019
174 Clear 16 1012 77 10000 6.2 160 23:20 14.10.2019
175 Clear 16 1012 77 10000 6.2 160 22:55 14.10.2019
176 Clear 16 1012 82 0 3.64 161.47 22:37 14.10.2019
177 Clear 16 1013 72 10000 6.2 160 22:18 14.10.2019
178 Clear 16 1013 72 10000 6.2 160 21:41 14.10.2019
179 Clear 16 1013 72 10000 6.2 160 21:22 14.10.2019
180 Clear 16 1013 72 10000 4.6 150 20:59 14.10.2019
181 Clear 16 1013 68 10000 5.1 150 20:40 14.10.2019
182 Clear 17 1013 68 10000 5.7 150 20:22 14.10.2019
183 Clear 17 1013 68 10000 5.7 150 19:59 14.10.2019
184 Clouds 17 1014 68 10000 5.1 150 19:41 14.10.2019
185 Clouds 17 1014 68 10000 5.1 150 19:23 14.10.2019
186 Clear 18 1014 72 10000 4.6 140 18:58 14.10.2019
187 Clear 19 1014 68 10000 4.6 150 18:39 14.10.2019
188 Clear 19 1014 64 10000 4.6 140 18:19 14.10.2019
189 Clear 20 1014 60 10000 3.6 130 17:57 14.10.2019
190 Clear 21 1014 60 10000 3.6 130 17:38 14.10.2019
191 Clear 21 1014 60 10000 3.6 130 17:38 14.10.2019
192 Clear 22 1014 60 10000 4.6 140 17:19 14.10.2019
193 Clear 23 1014 56 10000 5.7 140 16:43 14.10.2019
194 Clear 23 1014 56 10000 5.7 140 16:21 14.10.2019
195 Clear 23 1015 56 10000 4.1 140 15:43 14.10.2019
196 Clear 24 1015 56 10000 4.1 140 15:24 14.10.2019
197 Clear 24 1015 53 10000 3.6 130 14:58 14.10.2019
198 Clear 23 1015 53 10000 4.1 130 14:39 14.10.2019
199 Clear 23 1016 56 10000 3.6 140 14:20 14.10.2019
200 Clear 23 1016 56 10000 3.6 150 13:44 14.10.2019
201 Clear 23 1016 60 10000 4.1 150 13:22 14.10.2019
202 Clear 22 1016 60 10000 4.1 150 12:59 14.10.2019
203 Clear 22 1017 60 10000 4.1 140 12:40 14.10.2019
204 Clear 21 1016 64 10000 4.1 150 12:19 14.10.2019
205 Clear 20 1017 60 10000 3.1 140 11:46 14.10.2019
206 Clear 20 1017 60 10000 3.1 140 11:26 14.10.2019
207 Clear 20 1017 60 10000 3.1 140 11:26 14.10.2019
208 Clear 19 1017 63 10000 3.1 140 10:58 14.10.2019
209 Clear 18 1017 68 10000 3.1 140 10:38 14.10.2019
210 Clear 18 1017 67 10000 4.1 160 10:20 14.10.2019
211 Clear 17 1017 72 10000 3.6 160 09:55 14.10.2019
212 Clear 16 1017 72 10000 3.6 160 09:36 14.10.2019
213 Clear 15 1017 77 10000 3.1 180 09:18 14.10.2019
214 Clear 13 1016 82 10000 2.6 180 08:43 14.10.2019
215 Clear 13 1016 82 10000 1 0 08:22 14.10.2019
216 Clear 12 1016 82 10000 3.1 0 07:42 14.10.2019
217 Clear 12 1016 76 10000 2.6 160 07:19 14.10.2019
218 Clear 13 1015 76 10000 3.6 0 06:48 14.10.2019
219 Clear 13 1015 76 10000 4.1 150 06:20 14.10.2019
220 Clear 13 1015 76 10000 2.6 0 05:49 14.10.2019
221 Clear 14 1015 72 10000 2.6 170 04:48 14.10.2019
222 Clear 15 1015 72 10000 4.6 150 03:28 14.10.2019
223 Clear 15 1014 67 10000 6.2 160 02:49 14.10.2019
224 Clear 17 1014 68 10000 5.1 160 01:24 14.10.2019
225 Clear 17 1014 68 10000 5.1 160 00:58 14.10.2019
226 Clear 17 1014 72 10000 6.2 160 00:21 14.10.2019
227 Clear 17 1014 68 10000 5.7 160 23:45 13.10.2019
228 Clear 18 1014 68 10000 6.2 160 23:21 13.10.2019
229 Clear 18 1014 68 10000 6.2 160 22:59 13.10.2019
230 Clear 17 1014 68 10000 5.7 160 22:41 13.10.2019
231 Clear 18 1014 68 10000 6.2 160 22:21 13.10.2019
232 Clear 18 1014 68 10000 6.2 160 21:58 13.10.2019
233 Clear 18 1014 68 10000 6.7 150 21:38 13.10.2019
234 Clear 19 1014 68 10000 6.2 150 21:19 13.10.2019
235 Clear 19 1014 68 10000 6.2 150 20:58 13.10.2019
236 Clear 19 1014 68 10000 6.2 150 20:58 13.10.2019
237 Clear 19 1014 68 10000 6.2 150 20:58 13.10.2019
238 Clear 19 1014 68 10000 6.2 150 20:39 13.10.2019
239 Clear 19 1014 68 10000 6.2 150 20:39 13.10.2019
240 Clear 19 1014 68 10000 6.2 160 20:21 13.10.2019
241 Clear 19 1014 68 10000 6.2 160 20:21 13.10.2019
242 Clear 19 1014 68 10000 6.2 160 19:59 13.10.2019
243 Clear 19 1014 64 10000 4.6 150 19:39 13.10.2019
244 Clear 19 1014 64 10000 4.6 150 19:39 13.10.2019
245 Clear 18 1014 64 10000 5.1 150 19:21 13.10.2019
246 Clear 19 1014 64 10000 5.1 150 18:59 13.10.2019
247 Clear 19 1014 64 10000 5.1 150 18:59 13.10.2019
248 Clear 19 1014 64 10000 5.1 150 18:59 13.10.2019
249 Clear 19 1014 64 10000 5.1 150 18:58 13.10.2019
250 -273 0 0 0 0 0 18:58 13.10.2019
251 Clear 19 1014 68 10000 6.7 170 18:38 13.10.2019
252 Clear 19 1014 68 10000 6.7 170 18:38 13.10.2019
253 -273 0 0 0 0 0 18:19 13.10.2019
254 Clear 20 1014 64 10000 5.1 150 17:58 13.10.2019
255 Clear 21 1014 60 10000 5.7 150 17:39 13.10.2019
256 Clear 22 1014 60 10000 5.1 150 17:21 13.10.2019
257 Clear 23 1014 56 10000 4.6 140 16:43 13.10.2019
258 Clear 24 1014 56 10000 4.1 150 16:19 13.10.2019
259 -273 0 0 0 0 0 15:57 13.10.2019
260 Clear 24 1014 57 10000 4.1 150 15:39 13.10.2019
261 Clear 24 1015 50 10000 3.1 140 15:20 13.10.2019
262 Clear 25 1015 50 10000 3.1 140 14:57 13.10.2019
263 Clear 24 1015 53 10000 2.1 180 14:39 13.10.2019
264 Clouds 24 1015 57 10000 2.6 210 14:20 13.10.2019
265 Clouds 24 1015 57 10000 2.6 210 13:55 13.10.2019
266 Clouds 24 1015 57 10000 4.1 220 13:37 13.10.2019
267 Clouds 23 1015 57 10000 4.1 190 13:18 13.10.2019
268 Clouds 23 1015 56 10000 3.6 210 12:55 13.10.2019
269 Clouds 22 1015 56 10000 3.6 210 12:37 13.10.2019
270 Clear 22 1015 60 10000 4.6 210 12:18 13.10.2019
271 Clear 21 1015 64 10000 4.6 190 11:55 13.10.2019
272 Clear 21 1015 64 10000 4.6 190 11:37 13.10.2019
273 Clear 21 1015 64 10000 3.6 180 11:18 13.10.2019
274 Clear 20 1015 64 10000 4.1 180 10:41 13.10.2019
275 Clear 19 1015 72 10000 3.1 170 10:22 13.10.2019
276 Clear 17 1015 72 10000 3.6 150 09:41 13.10.2019
277 Clear 16 1015 72 10000 2.1 150 09:21 13.10.2019
278 Clear 15 1015 72 10000 2.1 150 08:58 13.10.2019
279 Clear 15 1015 72 10000 2.1 150 08:58 13.10.2019
280 Clear 15 1015 72 10000 4.6 170 08:38 13.10.2019
281 Clear 15 1014 72 10000 4.6 160 08:19 13.10.2019
282 Clear 14 1014 72 10000 5.1 160 07:46 13.10.2019
283 Clear 15 1014 67 10000 5.1 160 07:21 13.10.2019
284 Clear 15 1014 67 10000 3.6 170 06:41 13.10.2019
285 Clear 15 1014 67 10000 3.6 170 06:41 13.10.2019
286 Clear 16 1014 63 10000 5.1 180 05:46 13.10.2019
287 Clear 16 1014 63 10000 4.1 180 04:49 13.10.2019
288 Clear 16 1014 63 10000 4.1 180 04:29 13.10.2019
289 Clear 17 1014 63 10000 5.7 190 02:42 13.10.2019
290 Clear 17 1014 63 10000 5.1 190 01:54 13.10.2019
291 Clear 16 1014 63 10000 5.1 200 01:30 13.10.2019
292 Clear 16 1014 68 10000 5.1 200 00:49 13.10.2019
293 Clear 17 1014 68 10000 3.6 220 00:22 13.10.2019
294 Clear 17 1014 68 10000 3.6 220 23:57 12.10.2019
295 Rain 17 1014 68 10000 4.6 230 23:39 12.10.2019
296 Rain 17 1014 63 10000 4.6 200 23:20 12.10.2019
297 Rain 17 1014 63 10000 4.6 200 22:57 12.10.2019
298 Clear 17 1014 63 10000 3.6 190 22:38 12.10.2019
299 Clear 18 1014 63 10000 4.6 210 22:20 12.10.2019
300 Clear 18 1014 63 10000 4.6 210 21:55 12.10.2019
301 Clear 17 1014 63 10000 5.1 200 21:37 12.10.2019
302 Clear 17 1014 59 10000 4.1 190 21:18 12.10.2019
303 Clear 17 1014 55 10000 3.6 210 20:41 12.10.2019
304 Clear 17 1014 59 10000 4.1 220 20:23 12.10.2019
305 Clear 17 1014 63 10000 3.6 210 19:40 12.10.2019
306 Clear 17 1013 63 10000 4.1 220 19:22 12.10.2019
307 Clear 17 1013 52 10000 4.1 230 18:59 12.10.2019
308 Clear 17 1013 52 10000 4.1 230 18:40 12.10.2019
309 Clear 19 1013 49 10000 4.1 230 18:22 12.10.2019
310 Clear 21 1013 49 10000 5.1 240 17:44 12.10.2019
311 Clear 21 1012 46 10000 5.7 240 17:19 12.10.2019
312 Clear 22 1012 46 10000 6.2 240 16:55 12.10.2019
313 Clear 22 1012 46 10000 6.2 240 16:36 12.10.2019
314 Clear 22 1012 46 10000 6.2 240 16:36 12.10.2019
315 Clear 22 1012 46 10000 7.2 240 16:18 12.10.2019
316 Clear 22 1012 46 10000 5.7 240 15:44 12.10.2019
317 Clear 22 1012 46 10000 5.7 240 15:25 12.10.2019
318 Clear 22 1012 46 10000 5.7 240 14:55 12.10.2019
319 Clear 22 1012 46 10000 7.7 240 14:37 12.10.2019
320 Clear 22 1012 46 10000 7.2 240 14:18 12.10.2019
321 Clear 22 1013 46 10000 6.2 250 13:43 12.10.2019
322 Clear 22 1013 46 10000 6.2 250 13:43 12.10.2019
323 Clear 21 1013 46 10000 6.2 250 13:25 12.10.2019
324 Clear 20 1013 52 10000 4.6 240 12:40 12.10.2019
325 Clear 20 1013 56 10000 5.7 220 12:22 12.10.2019
326 Clear 20 1013 56 10000 5.7 220 11:59 12.10.2019
327 Clear 19 1013 59 10000 3.6 190 11:40 12.10.2019
328 Clear 18 1013 63 10000 4.1 190 11:22 12.10.2019
329 -273 0 0 0 0 0 10:56 12.10.2019
330 Clear 18 1013 67 10000 5.1 170 10:36 12.10.2019
331 Clear 16 1013 72 10000 5.1 180 10:18 12.10.2019
332 Clear 15 1012 71 10000 5.1 170 09:54 12.10.2019
333 Clear 15 1012 71 10000 5.1 170 09:36 12.10.2019
334 Clear 14 1013 76 10000 4.6 170 09:18 12.10.2019
335 Clear 14 1013 76 10000 4.6 170 09:18 12.10.2019
336 Clear 12 1013 81 10000 5.7 170 08:41 12.10.2019
337 Clear 12 1012 81 10000 5.1 170 08:20 12.10.2019
338 Clear 12 1012 81 10000 5.1 170 08:20 12.10.2019
339 Clear 12 1012 81 10000 5.1 170 08:20 12.10.2019
340 Clear 12 1012 81 10000 5.1 170 08:20 12.10.2019
341 Clear 12 1012 81 10000 4.1 170 07:35 12.10.2019
342 Clear 12 1012 81 10000 3.6 180 06:59 12.10.2019
343 Clear 12 1012 87 10000 5.7 170 05:49 12.10.2019
344 Clear 12 1012 87 10000 5.7 170 05:24 12.10.2019
345 Clear 12 1012 76 10000 4.1 170 04:26 12.10.2019
346 Clear 12 1012 76 10000 4.1 170 04:26 12.10.2019
347 Clear 12 1013 81 10000 2.6 160 03:41 12.10.2019
348 Clear 12 1013 76 10000 4.1 190 02:28 12.10.2019
349 Clear 13 1013 76 10000 3.1 180 01:30 12.10.2019
350 Clear 13 1013 71 10000 2.6 210 00:43 12.10.2019
351 Clear 13 1013 71 10000 2.6 210 00:19 12.10.2019
352 Clear 12 1013 76 10000 3.1 190 23:40 11.10.2019
353 Clear 12 1013 76 10000 3.1 190 23:40 11.10.2019
354 Clear 13 1013 71 10000 4.6 200 23:21 11.10.2019
355 Clear 13 1013 71 10000 4.6 200 22:59 11.10.2019
356 Clear 13 1013 76 10000 4.6 180 22:37 11.10.2019
357 Clear 13 1013 76 10000 4.6 180 22:37 11.10.2019
358 Clear 13 1013 76 10000 4.1 170 22:18 11.10.2019
359 Clear 13 1013 76 10000 5.7 180 21:40 11.10.2019
360 Clear 13 1013 76 10000 5.1 180 21:21 11.10.2019
361 Clear 13 1013 76 10000 5.1 180 20:55 11.10.2019
362 Clear 13 1014 71 10000 4.6 190 20:37 11.10.2019
363 Clouds 13 1014 71 10000 5.7 200 20:18 11.10.2019
364 Clouds 13 1014 71 10000 5.7 200 19:54 11.10.2019
365 Clouds 14 1014 67 10000 6.7 200 19:36 11.10.2019
366 Clouds 14 1014 67 10000 5.7 200 19:18 11.10.2019
367 Clouds 14 1015 72 10000 4.6 210 18:39 11.10.2019
368 Clouds 14 977 84 0 1.79 190 18:19 11.10.2019
369 Clouds 15 1015 67 10000 5.7 210 17:59 11.10.2019
370 Clouds 15 1015 63 10000 6.2 210 17:38 11.10.2019
371 Clouds 15 1015 63 10000 6.2 200 17:20 11.10.2019
372 Clouds 15 1015 63 10000 6.2 200 16:59 11.10.2019
373 Clouds 15 1015 63 10000 6.7 200 16:39 11.10.2019
374 Clear 16 1015 59 10000 5.7 210 16:19 11.10.2019
375 Clear 16 1015 59 10000 5.7 210 15:57 11.10.2019
376 Clear 16 1015 59 10000 6.7 220 15:37 11.10.2019
377 Clear 16 1015 55 10000 6.2 230 15:18 11.10.2019
378 Clouds 16 1015 59 10000 7.7 220 14:44 11.10.2019
379 Clouds 16 1015 59 10000 7.7 220 14:25 11.10.2019
380 Clouds 16 1016 59 10000 5.7 240 13:47 11.10.2019
381 Clouds 16 1016 59 10000 5.7 240 13:27 11.10.2019
382 Clouds 15 1017 63 10000 5.7 230 12:59 11.10.2019
383 Clouds 15 1017 59 10000 5.7 230 12:41 11.10.2019
384 Clouds 14 1017 62 10000 6.2 240 12:22 11.10.2019
385 Clouds 14 1017 62 10000 6.2 240 11:59 11.10.2019
386 Clouds 14 1017 71 10000 5.7 230 11:39 11.10.2019
387 Clouds 13 1017 67 10000 7.2 220 11:21 11.10.2019
388 Clear 13 1017 67 10000 7.2 220 10:56 11.10.2019
389 Clouds 13 1017 67 10000 7.2 220 10:56 11.10.2019
390 Clear 13 1017 67 10000 7.2 220 10:38 11.10.2019
391 Clear 13 1017 71 10000 8.2 210 10:20 11.10.2019
392 Clear 12 1017 71 10000 6.7 220 09:54 11.10.2019
393 Clear 12 1017 71 10000 6.7 220 09:54 11.10.2019
394 Clear 12 1017 71 10000 6.7 220 09:36 11.10.2019
395 Clear 11 1017 76 10000 7.2 200 09:18 11.10.2019
396 Clear 10 1017 76 10000 6.2 200 08:40 11.10.2019
397 Clear 9 1017 76 10000 6.2 200 08:21 11.10.2019
398 Clear 9 1017 76 10000 6.2 200 07:59 11.10.2019
399 Clear 9 1017 76 10000 6.7 210 07:40 11.10.2019
400 Clear 9 1017 76 10000 6.2 210 07:20 11.10.2019
401 Clear 8 1017 81 10000 5.7 210 06:44 11.10.2019
402 Clear 8 1018 81 10000 5.1 210 06:21 11.10.2019
403 Clear 9 1018 81 10000 5.1 220 05:37 11.10.2019
404 Clear 9 1018 81 10000 3.6 220 04:59 11.10.2019
405 Clear 9 1018 81 10000 4.1 220 04:24 11.10.2019
406 Clear 9 1018 76 10000 5.1 240 02:18 11.10.2019
407 Clear 10 1017 71 10000 4.6 240 00:43 11.10.2019
408 Clear 10 1017 71 10000 4.1 240 00:25 11.10.2019
409 Clear 10 1017 71 10000 4.6 240 23:43 10.10.2019
410 Clear 10 1017 71 10000 3.6 240 23:21 10.10.2019
411 Clear 10 1017 71 10000 4.1 230 22:57 10.10.2019
412 Clear 10 1017 71 10000 4.1 230 22:39 10.10.2019
413 Clear 10 1016 71 10000 4.6 230 22:20 10.10.2019
414 Clear 9 1016 71 10000 4.6 230 21:57 10.10.2019
415 Clear 9 1016 76 10000 4.6 230 21:38 10.10.2019
416 Clear 9 1016 76 10000 4.1 240 21:20 10.10.2019
417 Clear 10 1016 76 10000 4.1 240 20:42 10.10.2019
418 Clear 10 1016 76 10000 4.6 240 20:22 10.10.2019
419 Clear 10 1016 76 10000 4.6 240 20:22 10.10.2019
420 Clear 10 1016 76 10000 4.6 240 19:59 10.10.2019
421 Clear 10 1015 76 10000 4.6 240 19:41 10.10.2019
422 Rain 10 1015 76 10000 4.1 250 19:20 10.10.2019
423 Rain 11 1014 71 10000 3.6 300 18:57 10.10.2019
424 Rain 11 1014 71 10000 3.6 300 18:39 10.10.2019
425 Rain 11 977 90 0 3.13 222 18:20 10.10.2019
426 Clouds 12 1013 62 10000 4.6 270 17:55 10.10.2019
427 Clouds 12 1013 62 10000 4.6 270 17:36 10.10.2019
428 Clouds 13 1013 58 10000 5.7 280 17:18 10.10.2019
429 Rain 13 1013 58 10000 5.1 260 16:44 10.10.2019
430 Rain 13 1013 62 10000 6.2 270 16:26 10.10.2019
431 Clouds 13 1013 62 10000 5.1 280 15:54 10.10.2019
432 Clouds 13 1013 62 10000 5.1 280 15:36 10.10.2019
433 Clouds 13 1013 62 10000 5.1 280 15:36 10.10.2019
434 Clouds 13 1012 66 10000 6.2 290 15:18 10.10.2019
435 Rain 13 1012 66 10000 6.2 290 14:54 10.10.2019
436 Rain 13 1012 71 10000 4.6 300 14:36 10.10.2019
437 Rain 12 1012 71 10000 3.6 270 14:18 10.10.2019
438 Rain 12 1012 76 10000 5.1 270 13:41 10.10.2019
439 Rain 11 1011 81 10000 3.6 250 13:23 10.10.2019
440 Rain 11 1011 81 10000 3.6 250 12:57 10.10.2019
441 Rain 10 1011 81 10000 3.6 250 12:39 10.10.2019
442 Rain 10 1011 93 10000 3.6 230 12:20 10.10.2019
443 Rain 10 1011 93 10000 3.6 230 11:58 10.10.2019
444 Rain 10 1011 93 10000 3.1 230 11:38 10.10.2019
445 Rain 10 1011 87 10000 2.6 240 11:19 10.10.2019
446 Rain 9 1011 87 10000 3.1 230 10:44 10.10.2019
447 Rain 10 1011 81 10000 4.1 230 10:26 10.10.2019
448 Rain 10 1011 81 10000 4.1 230 09:58 10.10.2019
449 Clouds 10 1010 76 10000 3.6 210 09:39 10.10.2019
450 Clear 10 1010 76 10000 5.1 220 09:21 10.10.2019
451 Clear 10 1010 76 10000 5.1 220 08:57 10.10.2019
452 Clear 10 1010 76 10000 3.6 220 08:38 10.10.2019
453 Clear 9 1009 81 10000 4.1 230 08:18 10.10.2019
454 Clear 9 1009 76 10000 3.6 240 07:45 10.10.2019
455 Clear 9 1009 76 10000 5.1 240 07:22 10.10.2019
456 Clear 10 1009 81 10000 4.6 240 06:48 10.10.2019
457 Clear 10 1009 81 10000 4.6 240 06:29 10.10.2019
458 Clouds 10 1008 76 10000 5.1 250 05:28 10.10.2019
459 Clouds 10 1008 76 10000 5.1 240 04:48 10.10.2019
460 Clouds 11 1008 76 10000 5.1 240 04:26 10.10.2019
461 Clouds 11 1007 71 10000 5.7 230 01:46 10.10.2019
462 Clouds 11 1007 71 10000 5.7 230 01:26 10.10.2019
463 Clouds 11 1007 71 10000 4.6 230 01:00 10.10.2019
464 Clear 11 1007 71 10000 5.7 230 00:24 10.10.2019
465 Clouds 11 1007 76 10000 5.1 220 23:41 09.10.2019
466 Clouds 11 1007 76 10000 3.6 220 23:23 09.10.2019
467 Clouds 11 1007 76 10000 3.6 220 22:59 09.10.2019
468 Clouds 11 1007 71 10000 5.7 230 22:40 09.10.2019
469 Clouds 11 1007 71 10000 7.7 220 22:22 09.10.2019
470 Clouds 11 1007 66 10000 6.2 210 21:42 09.10.2019
471 Rain 11 1007 76 10000 6.7 210 21:21 09.10.2019
472 Rain 11 1007 76 10000 6.7 210 21:21 09.10.2019
473 Rain 12 1007 76 10000 6.7 210 20:58 09.10.2019
474 Clear 12 1007 66 10000 5.7 210 20:39 09.10.2019
475 Clear 12 1007 76 10000 5.1 200 20:21 09.10.2019
476 Clear 12 1007 76 10000 5.1 200 19:59 09.10.2019
477 Clear 12 1007 76 10000 5.1 200 19:59 09.10.2019
478 Clear 12 1007 76 10000 5.1 200 19:59 09.10.2019
479 Clear 12 1007 71 10000 5.1 200 19:40 09.10.2019
480 Clear 12 1007 71 10000 4.6 200 19:22 09.10.2019
481 Clear 12 1007 66 10000 4.6 210 18:39 09.10.2019
482 Clear 13 1007 71 10000 3.1 210 18:21 09.10.2019
483 Clear 13 1007 71 10000 3.1 210 17:58 09.10.2019
484 Clouds 13 1008 67 10000 3.1 210 17:40 09.10.2019
485 Clouds 13 1008 67 10000 4.6 220 17:22 09.10.2019
486 Clouds 13 1008 67 10000 4.6 220 16:57 09.10.2019
487 Clouds 14 1008 62 10000 3.6 230 16:39 09.10.2019
488 Clouds 14 1008 62 10000 2.6 240 16:20 09.10.2019
489 Clouds 14 1008 62 10000 2.6 240 16:20 09.10.2019
490 Clouds 14 1008 62 10000 2.6 240 15:56 09.10.2019
491 Clouds 15 1008 62 10000 3.1 260 15:37 09.10.2019
492 Clouds 15 1008 62 10000 3.1 260 15:37 09.10.2019
493 Clouds 14 1008 62 10000 3.1 260 15:18 09.10.2019
494 Clouds 15 1008 62 10000 3.1 270 14:45 09.10.2019
495 Clouds 15 1009 62 10000 5.1 230 14:19 09.10.2019
496 Clouds 15 1009 62 10000 5.1 230 14:00 09.10.2019
497 Clouds 15 1009 62 10000 3.1 240 13:38 09.10.2019
498 Clouds 15 1009 62 10000 3.1 240 13:38 09.10.2019
499 Clouds 15 1009 62 10000 4.6 250 13:19 09.10.2019
500 Clouds 15 1010 62 10000 4.6 260 12:55 09.10.2019
501 Clouds 15 1010 62 10000 4.6 260 12:37 09.10.2019
502 Clouds 15 1010 67 10000 5.1 240 12:18 09.10.2019
503 Clouds 14 1010 67 10000 5.1 250 11:40 09.10.2019
504 Rain 14 1011 71 10000 4.6 240 11:21 09.10.2019
505 Rain 13 1011 71 10000 4.6 240 10:59 09.10.2019
506 Rain 13 1011 71 10000 4.1 240 10:40 09.10.2019
507 Clear 12 1011 76 10000 4.1 240 10:19 09.10.2019
508 Clear 12 1011 76 10000 4.6 230 09:56 09.10.2019
509 Clear 11 1011 76 10000 4.6 230 09:38 09.10.2019
510 Clear 11 1011 76 10000 4.6 230 09:38 09.10.2019
511 Clear 11 1011 81 10000 4.6 230 09:18 09.10.2019
512 Rain 10 1011 81 10000 4.1 230 08:39 09.10.2019
513 Rain 10 1010 87 10000 3.6 220 08:20 09.10.2019
514 Rain 9 1010 93 10000 4.6 220 07:47 09.10.2019
515 Clear 9 1010 93 10000 4.6 220 07:25 09.10.2019
516 Rain 9 1010 87 10000 3.6 240 07:25 09.10.2019
517 Clear 9 1010 93 10000 4.6 220 07:25 09.10.2019
518 Rain 9 1010 87 10000 3.6 240 06:59 09.10.2019
519 Rain 9 1009 87 10000 2.6 260 06:41 09.10.2019
520 Rain 10 1009 93 10000 3.1 250 05:53 09.10.2019
521 Rain 10 1008 87 10000 3.6 250 05:18 09.10.2019
522 Rain 11 1007 93 10000 3.6 250 03:49 09.10.2019
523 Rain 11 1007 93 10000 1 0 02:35 09.10.2019
524 Rain 11 1007 93 10000 4.1 210 01:39 09.10.2019
525 Rain 11 1007 93 6000 3.1 220 01:19 09.10.2019
526 Rain 11 1007 93 10000 2.6 220 00:55 09.10.2019
527 Rain 11 1007 93 10000 2.6 220 00:37 09.10.2019
528 Rain 11 1007 100 10000 3.1 220 00:19 09.10.2019
529 Rain 11 1007 100 10000 3.1 210 23:39 08.10.2019
530 Rain 11 1007 100 10000 3.1 210 23:39 08.10.2019
531 Rain 11 1007 93 10000 4.1 200 23:18 08.10.2019
532 Rain 11 1007 93 10000 2.6 220 22:55 08.10.2019
533 Rain 11 1007 93 10000 2.6 220 22:37 08.10.2019
534 Rain 11 1007 100 10000 4.1 210 22:18 08.10.2019
535 Rain 11 1007 100 10000 4.1 210 21:56 08.10.2019
536 Rain 11 1007 100 10000 4.6 190 21:37 08.10.2019
537 Rain 11 1007 100 10000 4.1 210 21:18 08.10.2019
538 Rain 11 1008 100 10000 3.6 220 20:55 08.10.2019
539 Rain 11 1008 100 10000 3.6 220 20:37 08.10.2019
540 Rain 11 1008 93 10000 2.6 230 20:18 08.10.2019
541 Rain 11 1008 93 10000 2.6 230 19:55 08.10.2019
542 Rain 11 1007 93 10000 3.1 220 19:36 08.10.2019
543 Rain 11 1007 87 10000 4.6 220 19:18 08.10.2019
544 Clouds 11 1007 87 10000 4.1 230 18:45 08.10.2019
545 Clouds 11 1007 87 10000 4.1 230 18:25 08.10.2019
546 Clouds 11 1007 87 10000 4.1 230 17:58 08.10.2019
547 Rain 11 1008 87 10000 4.1 240 17:39 08.10.2019
548 Rain 12 1007 82 10000 4.1 230 17:20 08.10.2019
549 Rain 12 1007 82 10000 4.1 230 16:56 08.10.2019
550 Rain 12 1007 87 10000 4.1 230 16:37 08.10.2019
551 Rain 12 1008 87 10000 3.6 220 16:19 08.10.2019
552 Clouds 11 1008 93 10000 4.1 200 15:40 08.10.2019
553 Rain 11 1008 100 10000 3.1 200 15:20 08.10.2019
554 Rain 11 1008 100 10000 3.1 200 15:20 08.10.2019
555 Rain 11 1008 100 10000 3.1 200 14:57 08.10.2019
556 Rain 11 1008 100 4000 4.1 190 14:38 08.10.2019
557 Rain 10 1008 93 3500 5.1 190 14:20 08.10.2019
558 Rain 10 1008 93 3500 5.1 190 13:55 08.10.2019
559 Rain 10 1008 100 4800 5.7 180 13:37 08.10.2019
560 Rain 10 1008 100 4500 6.2 180 13:18 08.10.2019
561 Rain 10 1009 100 3600 5.7 170 12:42 08.10.2019
562 Rain 10 1009 100 5000 6.2 170 12:21 08.10.2019
563 Rain 10 1009 100 5000 6.2 170 11:59 08.10.2019
564 Rain 10 1009 93 7000 6.2 180 11:40 08.10.2019
565 Rain 9 1010 87 10000 5.7 180 11:21 08.10.2019
566 Rain 9 1010 87 10000 5.7 180 10:55 08.10.2019
567 Rain 9 1010 87 10000 5.1 170 10:36 08.10.2019
568 Rain 9 1010 93 10000 5.7 170 10:18 08.10.2019
569 Rain 10 1011 81 10000 5.7 180 09:41 08.10.2019
570 Clouds 10 1011 76 10000 6.2 190 09:23 08.10.2019
571 Clouds 9 1011 76 10000 6.2 190 08:57 08.10.2019
572 Clouds 9 1011 81 10000 5.7 180 08:39 08.10.2019
573 Clouds 8 1011 81 10000 6.2 180 08:21 08.10.2019
574 Clouds 8 1012 81 10000 5.1 170 07:41 08.10.2019
575 Clouds 8 1012 81 10000 5.1 180 07:20 08.10.2019
576 Clouds 8 1012 81 10000 5.1 180 07:20 08.10.2019
577 Clouds 7 1012 81 10000 4.6 170 06:47 08.10.2019
578 Clouds 7 1012 81 10000 4.6 170 06:26 08.10.2019
579 Clear 6 1013 81 10000 3.6 170 05:44 08.10.2019
580 Clear 5 1013 81 10000 3.6 170 05:24 08.10.2019
581 Clear 4 1015 86 10000 2.1 170 03:32 08.10.2019
582 Clear 4 1016 75 10000 3.1 170 02:46 08.10.2019
583 Clear 4 1016 75 10000 3.1 170 02:26 08.10.2019
584 Clear 3 1017 86 10000 3.6 170 01:42 08.10.2019
585 Clear 3 1017 86 10000 4.1 180 01:19 08.10.2019
586 Clear 3 1017 86 10000 1.5 160 00:38 08.10.2019
587 Clear 3 1018 80 10000 2.1 160 00:19 08.10.2019
588 Clear 2 1018 80 10000 1.5 190 23:39 07.10.2019
589 Clear 2 1018 80 10000 2.1 190 23:19 07.10.2019
590 Clear 2 1018 80 10000 1.5 190 22:55 07.10.2019
591 Clear 2 1018 80 10000 1.5 190 22:37 07.10.2019
592 Clear 2 1019 80 10000 1.5 200 22:19 07.10.2019
593 Clear 3 1019 80 10000 1.5 200 21:55 07.10.2019
594 Clouds 3 980 86 0 0.89 129 21:37 07.10.2019
595 Clear 3 981 86 0 0.45 162 21:18 07.10.2019
596 Clear 4 1019 66 10000 1.5 130 20:57 07.10.2019
597 Clear 3 980 68 0 1.02 154.622 20:38 07.10.2019
598 Clear 4 980 80 0 1.02 154.622 20:19 07.10.2019
599 Clear 5 980 66 0 1.02 154.622 19:56 07.10.2019
600 Clear 5 980 67 0 1.02 154.622 19:38 07.10.2019
601 Clear 5 980 67 0 1.02 154.622 19:38 07.10.2019
602 Clear 5 981 59 0 1.02 154.622 19:18 07.10.2019
603 Clear 6 1019 66 10000 0.5 0 18:55 07.10.2019
604 Clear 7 1019 57 10000 1.5 320 18:37 07.10.2019
605 Clouds 9 1019 53 10000 1.5 300 18:18 07.10.2019
606 Clouds 10 1019 53 10000 1 0 17:41 07.10.2019
607 Clouds 11 1019 40 10000 1.5 50 17:19 07.10.2019
608 Clouds 11 1019 40 10000 1.5 50 16:55 07.10.2019
609 Clouds 11 1019 43 10000 1 0 16:37 07.10.2019
610 Clouds 11 1019 43 10000 1.5 20 16:19 07.10.2019
611 Clouds 12 1019 43 10000 1.5 0 15:43 07.10.2019
612 Clouds 12 1019 43 10000 1.5 0 15:24 07.10.2019
613 Clouds 11 1020 50 10000 1.5 0 14:42 07.10.2019
614 -273 0 0 0 0 0 14:24 07.10.2019
615 -273 0 0 0 0 0 14:24 07.10.2019
616 Clouds 11 1020 50 10000 1 0 13:59 07.10.2019
617 Clouds 11 1020 53 10000 1 0 13:41 07.10.2019
618 Clouds 10 1020 53 10000 2.1 0 13:19 07.10.2019
619 Clouds 10 1020 53 10000 2.1 0 12:55 07.10.2019
620 Clouds 10 1020 50 10000 1.5 0 12:37 07.10.2019
621 Clouds 9 1020 62 10000 1 340 12:18 07.10.2019
622 Clear 9 1020 61 10000 1 0 11:56 07.10.2019
623 Clear 9 1020 61 10000 1 0 11:37 07.10.2019
624 Clear 8 1020 70 10000 1 0 11:18 07.10.2019
625 Clear 7 1020 70 10000 1.5 210 10:41 07.10.2019
626 Clear 5 1020 80 10000 2.1 230 10:20 07.10.2019
627 Clear 4 1019 86 10000 1.5 180 09:42 07.10.2019
628 Clear 3 1019 93 10000 0.5 0 09:23 07.10.2019
629 Clear 1 1019 93 10000 0.5 0 08:57 07.10.2019
630 Clear 1 1019 81 10000 1 100 08:39 07.10.2019
631 Clouds 0 980 92 0 0.48 129.111 08:19 07.10.2019
632 Clear 0 1019 86 10000 0.5 0 07:43 07.10.2019
633 Clouds -1 1020 94 0 0.48 129.111 07:25 07.10.2019
634 Clear 0 1018 80 10000 2.1 120 06:54 07.10.2019
635 Clear 0 1018 80 10000 2.1 120 06:34 07.10.2019
636 Clear 0 1018 80 10000 1 0 05:50 07.10.2019
637 Clear 0 1018 80 10000 1 70 05:24 07.10.2019
638 Clear 1 1018 80 10000 2.1 110 04:42 07.10.2019
639 Clear 2 1017 80 10000 2.1 100 03:45 07.10.2019
640 Clear 2 1017 80 10000 2.1 100 03:45 07.10.2019
641 Clear 2 1017 74 10000 1.5 100 03:23 07.10.2019
642 Clear 2 1017 86 10000 2.1 130 02:23 07.10.2019
643 Clear 2 1017 86 10000 2.1 130 01:57 07.10.2019
644 Clear 3 1017 86 10000 2.6 90 01:22 07.10.2019
645 Clear 4 1017 86 10000 2.6 80 00:45 07.10.2019
646 Clear 4 1016 86 10000 2.6 100 00:23 07.10.2019
647 Clear 4 1016 86 10000 2.6 100 23:59 06.10.2019
648 Clear 5 1016 80 10000 2.1 110 23:39 06.10.2019
649 Clear 4 1016 80 10000 3.1 100 23:18 06.10.2019
650 Clear 5 1016 80 10000 3.1 100 22:54 06.10.2019
651 Clear 5 1016 80 10000 2.6 90 22:36 06.10.2019
652 Clear 5 1016 75 10000 3.6 80 22:18 06.10.2019
653 -273 0 0 0 0 0 21:54 06.10.2019
654 Clear 6 1016 75 10000 4.1 70 21:36 06.10.2019
655 Clear 6 1016 75 10000 4.6 90 21:18 06.10.2019
656 Clear 6 1016 75 10000 4.1 80 20:54 06.10.2019
657 Clear 6 1016 75 10000 4.1 80 20:36 06.10.2019
658 Clear 6 1016 70 10000 4.1 80 20:18 06.10.2019
659 Clear 7 1016 70 10000 4.1 80 19:54 06.10.2019
660 Clear 7 1016 70 10000 4.1 80 19:36 06.10.2019
661 Clear 7 1017 75 10000 4.6 80 19:18 06.10.2019
662 Clear 7 1017 65 10000 4.6 80 18:54 06.10.2019
663 Clear 8 1017 65 10000 4.6 80 18:36 06.10.2019
664 Clear 8 1017 65 10000 4.1 70 18:18 06.10.2019
665 Clear 9 1017 61 10000 4.6 90 17:42 06.10.2019
666 Clear 9 1017 61 10000 4.1 90 17:20 06.10.2019
667 Clear 10 1017 61 10000 4.1 90 16:55 06.10.2019
668 Clear 10 1017 61 10000 4.1 90 16:55 06.10.2019
669 Clear 9 1017 61 10000 4.6 80 16:36 06.10.2019
670 Clear 9 1018 61 10000 5.7 80 16:18 06.10.2019
671 Clear 10 1018 61 10000 5.1 80 15:42 06.10.2019
672 Clear 10 1018 66 10000 4.1 80 15:19 06.10.2019
673 Clear 10 1018 66 10000 4.1 80 15:19 06.10.2019
674 Clear 10 1018 66 10000 4.1 80 15:19 06.10.2019
675 Clear 10 1018 66 10000 4.1 80 15:19 06.10.2019
676 Clouds 10 1019 66 10000 4.6 90 14:44 06.10.2019
677 Clouds 10 1019 66 10000 4.6 90 14:25 06.10.2019
678 Clouds 10 1019 70 10000 4.1 60 13:59 06.10.2019
679 Clouds 10 1019 66 10000 4.6 70 13:40 06.10.2019
680 Rain 10 1020 70 10000 3.6 80 13:21 06.10.2019
681 Rain 10 1020 70 10000 3.6 80 12:58 06.10.2019
682 Rain 9 1020 70 10000 3.6 120 12:39 06.10.2019
683 Clouds 9 1020 81 10000 3.6 120 12:21 06.10.2019
684 Clouds 9 1020 81 10000 3.6 120 11:59 06.10.2019
685 Clouds 8 1021 81 10000 3.1 80 11:40 06.10.2019
686 Clouds 8 1021 87 10000 2.1 120 11:21 06.10.2019
687 Clouds 7 1021 87 10000 2.1 120 10:55 06.10.2019
688 Clouds 7 1021 88 0 2.86 75.371 10:37 06.10.2019
689 Clouds 7 1021 93 8000 2.6 60 10:19 06.10.2019
690 Clouds 5 1021 87 7000 1.5 20 09:41 06.10.2019
691 Clouds 5 1021 93 6000 0.5 0 09:19 06.10.2019
692 Clouds 5 1021 93 6000 0.5 0 09:19 06.10.2019
693 Fog 4 1021 93 3000 1.5 110 08:48 06.10.2019
694 Fog 4 1021 93 3000 1.5 110 08:48 06.10.2019
695 Rain 4 1020 93 3000 1 0 08:22 06.10.2019
696 Rain 4 1020 93 3000 1 0 07:58 06.10.2019
697 Rain 4 1020 100 7000 0.5 140 07:39 06.10.2019
698 Clouds 4 1020 93 10000 1.5 150 06:50 06.10.2019
699 Clouds 5 1020 93 0 1.5 110 05:41 06.10.2019
700 Clouds 5 1020 93 10000 1 0 04:35 06.10.2019
701 Rain 5 1020 100 10000 1.5 310 02:53 06.10.2019
702 Clouds 6 1020 100 10000 1.5 310 02:30 06.10.2019
703 Clouds 5 1020 93 10000 0.5 0 01:48 06.10.2019
704 Clouds 5 1020 93 10000 0.5 0 01:30 06.10.2019
705 Clouds 6 1020 100 10000 2.1 310 00:59 06.10.2019
706 Rain 6 1020 100 10000 1.5 300 00:36 06.10.2019
707 Rain 6 1020 100 10000 1.5 330 00:18 06.10.2019
708 Rain 6 1020 100 10000 2.1 20 23:40 05.10.2019
709 Rain 6 1019 100 10000 1.5 20 23:19 05.10.2019
710 Rain 6 1019 100 10000 2.1 350 22:54 05.10.2019
711 Rain 6 1019 100 10000 2.1 350 22:54 05.10.2019
712 Rain 6 1019 100 10000 2.1 350 22:36 05.10.2019
713 Rain 6 1019 100 10000 3.1 360 22:18 05.10.2019
714 Rain 6 1019 93 10000 3.6 360 21:41 05.10.2019
715 Rain 7 1018 93 10000 4.1 360 21:22 05.10.2019
716 Rain 7 1018 93 10000 4.1 360 20:57 05.10.2019
717 Rain 7 1018 93 10000 3.6 10 20:39 05.10.2019
718 Clouds 7 1018 93 10000 4.6 10 20:19 05.10.2019
719 Rain 7 1018 93 10000 4.6 10 19:56 05.10.2019
720 Rain 7 1017 93 10000 4.6 10 19:36 05.10.2019
721 Rain 7 1016 93 10000 4.6 360 19:18 05.10.2019
722 Rain 7 1016 93 10000 4.6 360 18:55 05.10.2019
723 Rain 7 1016 93 10000 4.6 360 18:36 05.10.2019
724 Rain 7 1015 93 10000 3.6 350 18:18 05.10.2019
725 Rain 7 1015 93 10000 4.1 350 17:41 05.10.2019
726 Rain 7 1014 100 10000 4.6 360 17:21 05.10.2019
727 Rain 7 1014 100 10000 4.6 360 16:55 05.10.2019
728 Rain 7 1014 100 10000 4.6 360 16:37 05.10.2019
729 Rain 7 1013 100 10000 5.1 360 16:18 05.10.2019
730 Rain 8 1013 93 10000 5.7 360 15:55 05.10.2019
731 Rain 8 1013 93 10000 5.7 360 15:37 05.10.2019
732 Rain 8 1012 93 10000 5.7 360 15:18 05.10.2019
733 Rain 8 1011 93 10000 6.2 10 14:42 05.10.2019
734 Rain 8 1011 93 10000 6.2 360 14:23 05.10.2019
735 Rain 8 1010 93 10000 6.7 10 13:44 05.10.2019
736 Rain 8 1010 93 10000 6.7 10 13:26 05.10.2019
737 Rain 8 1009 93 10000 6.2 360 12:59 05.10.2019
738 Rain 8 1009 93 10000 5.1 360 12:41 05.10.2019
739 Rain 8 1008 93 10000 5.7 10 12:19 05.10.2019
740 Rain 8 1008 87 10000 7.2 20 11:41 05.10.2019
741 Rain 8 1008 87 10000 7.2 20 11:41 05.10.2019
742 Rain 8 1007 100 10000 6.2 20 11:20 05.10.2019
743 Rain 8 1006 100 9000 6.7 20 10:57 05.10.2019
744 Rain 8 1006 100 9000 6.7 20 10:57 05.10.2019
745 Rain 8 1006 100 9000 6.7 20 10:38 05.10.2019
746 Rain 8 1005 93 8000 7.2 30 10:20 05.10.2019
747 Rain 8 1004 93 6000 7.2 40 09:41 05.10.2019
748 Rain 8 1003 100 6000 6.2 40 09:23 05.10.2019
749 Rain 8 1002 100 4500 5.7 50 08:43 05.10.2019
750 Rain 8 1002 100 4000 4.1 60 08:24 05.10.2019
751 Rain 8 1002 100 4000 4.1 60 07:59 05.10.2019
752 Rain 8 1002 100 2700 1.5 110 07:40 05.10.2019
753 Rain 8 1002 100 3700 4.1 130 07:21 05.10.2019
754 Rain 8 1002 100 3700 4.1 130 06:56 05.10.2019
755 Rain 9 1002 100 4700 4.1 130 06:22 05.10.2019
756 Rain 9 1002 100 4800 4.1 160 05:20 05.10.2019
757 Rain 9 1003 100 6000 4.1 150 03:32 05.10.2019
758 Rain 8 1004 93 5000 4.6 150 02:29 05.10.2019
759 Rain 8 1004 93 10000 4.6 150 01:27 05.10.2019
760 Rain 8 1005 93 10000 4.6 150 00:49 05.10.2019
761 Rain 8 1005 93 10000 4.6 150 00:49 05.10.2019
762 Rain 8 1005 93 10000 4.6 150 00:28 05.10.2019
763 Rain 8 1005 93 6000 4.6 150 23:58 04.10.2019
764 Rain 8 1005 93 10000 4.6 150 23:40 04.10.2019
765 Rain 8 1005 93 10000 4.1 140 23:21 04.10.2019
766 Rain 8 1005 93 10000 4.1 140 22:56 04.10.2019
767 Rain 8 1006 93 10000 3.6 130 22:37 04.10.2019
768 Rain 8 1006 93 10000 3.6 130 22:37 04.10.2019
769 Rain 8 1006 93 10000 3.1 130 22:19 04.10.2019
770 Rain 8 1006 93 10000 3.1 130 22:19 04.10.2019
771 Rain 8 1006 93 9000 2.6 140 21:40 04.10.2019
772 Rain 8 1007 93 10000 2.6 140 21:22 04.10.2019
773 Rain 8 1007 93 10000 2.6 140 20:59 04.10.2019
774 Rain 9 1007 87 9000 2.6 140 20:41 04.10.2019
775 Rain 8 1007 93 9000 2.6 170 20:22 04.10.2019
776 Rain 9 1007 93 9000 2.6 170 19:56 04.10.2019
777 Rain 9 1007 87 9000 2.1 160 19:38 04.10.2019
778 Rain 9 1007 87 10000 1.5 190 19:20 04.10.2019
779 Rain 9 1007 87 10000 3.6 150 18:55 04.10.2019
780 Rain 10 1007 87 10000 3.6 150 18:36 04.10.2019
781 Rain 10 1007 81 10000 3.6 140 18:18 04.10.2019
782 Rain 11 1007 76 10000 4.1 170 17:40 04.10.2019
783 Rain 11 1007 87 10000 2.1 100 17:22 04.10.2019
784 Rain 11 1007 87 10000 2.1 100 16:58 04.10.2019
785 Clouds 12 1007 76 10000 1 60 16:39 04.10.2019
786 Rain 12 1008 76 10000 1 280 16:19 04.10.2019
787 Rain 12 1008 76 10000 1.5 290 15:56 04.10.2019
788 Rain 12 1008 76 10000 1.5 290 15:38 04.10.2019
789 Rain 12 1008 81 10000 2.6 250 15:19 04.10.2019
790 Rain 12 1008 76 10000 1.5 120 14:55 04.10.2019
791 Rain 12 1008 76 10000 1.5 120 14:37 04.10.2019
792 Rain 12 972 79 0 4.47 198 14:19 04.10.2019
793 Rain 12 1009 81 10000 3.6 130 13:44 04.10.2019
794 Rain 12 1010 66 10000 2.1 140 13:22 04.10.2019
795 Clouds 13 1010 66 10000 2.1 140 12:55 04.10.2019
796 Rain 12 1010 76 10000 1.5 130 12:36 04.10.2019
797 Clouds 12 1011 76 10000 1.5 180 12:18 04.10.2019
798 Clouds 11 1011 76 10000 1 170 11:42 04.10.2019
799 Clouds 11 1011 76 10000 1 170 11:42 04.10.2019
800 Clouds 11 1011 76 10000 1 170 11:42 04.10.2019
801 Clouds 11 1011 76 10000 1 170 11:42 04.10.2019
802 Clouds 11 1011 76 10000 1 170 11:42 04.10.2019
803 Clouds 11 1012 81 10000 2.1 190 11:21 04.10.2019
804 Clear 10 1012 76 10000 2.1 210 10:42 04.10.2019
805 Clear 10 1012 81 10000 2.1 210 10:21 04.10.2019
806 Clear 10 1012 81 10000 2.1 210 10:21 04.10.2019
807 Clear 10 1012 81 10000 2.1 210 09:58 04.10.2019
808 Clouds 9 1012 87 10000 2.1 190 09:40 04.10.2019
809 Clouds 9 1012 93 10000 2.1 190 09:22 04.10.2019
810 Clouds 9 1012 93 10000 1.5 210 08:45 04.10.2019
811 Clouds 9 1012 93 10000 1.5 210 08:26 04.10.2019
812 Clouds 8 1012 93 10000 1 210 07:47 04.10.2019
813 Clouds 8 1012 93 10000 1.5 220 07:24 04.10.2019
814 Clouds 8 1012 93 10000 1.5 220 06:58 04.10.2019
815 Clouds 8 1012 93 10000 1.5 200 06:39 04.10.2019
816 Clouds 8 1013 93 10000 1 0 06:20 04.10.2019
817 Clouds 8 1013 93 10000 1.5 240 05:21 04.10.2019
818 Clouds 8 1013 93 10000 1.5 260 04:38 04.10.2019
819 Rain 9 1013 93 10000 1.5 250 03:28 04.10.2019
820 Clouds 8 1014 93 10000 1.5 250 02:44 04.10.2019
821 Clouds 9 1014 93 10000 1.5 220 01:54 04.10.2019
822 Clouds 9 1014 93 10000 1.5 220 01:26 04.10.2019
823 Clouds 9 1014 93 10000 2.1 250 00:34 04.10.2019
824 Clouds 9 1015 93 10000 2.1 250 23:41 03.10.2019
825 Clouds 9 1015 93 10000 2.1 260 23:22 03.10.2019
826 Clouds 9 1015 93 10000 2.1 260 22:58 03.10.2019
827 Clouds 9 1015 93 10000 2.1 260 22:58 03.10.2019
828 Clouds 9 1015 81 10000 1.5 240 22:39 03.10.2019
829 Clouds 9 1015 81 10000 1.5 240 22:39 03.10.2019
830 Clouds 9 1015 81 10000 1.5 250 22:21 03.10.2019
831 Clouds 9 1015 81 10000 1.5 250 22:21 03.10.2019
832 Clouds 9 1015 81 10000 1.5 250 21:59 03.10.2019
833 Clear 9 1015 81 10000 2.1 240 21:40 03.10.2019
834 Clouds 9 1015 81 10000 1.5 260 21:20 03.10.2019
835 Clouds 9 1015 81 10000 1.5 260 20:58 03.10.2019
836 Clouds 9 1014 81 10000 1 0 20:40 03.10.2019
837 Clouds 9 1014 76 10000 1.5 310 20:21 03.10.2019
838 Clouds 9 1014 76 10000 1.5 310 19:57 03.10.2019
839 Clouds 9 1014 81 10000 1 0 19:39 03.10.2019
840 Clouds 10 1014 76 10000 1.5 320 19:20 03.10.2019
841 Clouds 9 1014 76 10000 1.5 320 19:20 03.10.2019
842 Clouds 10 1014 76 10000 1.5 320 18:56 03.10.2019
843 Clouds 10 1014 71 10000 2.1 330 18:38 03.10.2019
844 Clouds 10 1014 71 10000 2.1 330 18:38 03.10.2019
845 Clear 10 1014 76 10000 3.6 360 18:18 03.10.2019
846 Clouds 11 1013 62 10000 4.1 340 17:42 03.10.2019
847 Clouds 11 1013 62 10000 3.1 320 17:23 03.10.2019
848 Clouds 11 1013 62 10000 3.1 320 17:23 03.10.2019
849 Clouds 12 1013 62 10000 3.1 320 16:58 03.10.2019
850 Clouds 12 1013 66 10000 4.1 340 16:40 03.10.2019
851 Clouds 11 1013 66 10000 4.1 340 16:21 03.10.2019
852 Clouds 11 1013 66 10000 4.1 340 15:55 03.10.2019
853 Clouds 12 1013 66 10000 5.1 310 15:37 03.10.2019
854 Clouds 12 1013 66 10000 4.6 320 15:18 03.10.2019
855 Clouds 12 1013 66 10000 4.1 350 14:39 03.10.2019
856 Clouds 11 1013 66 10000 4.6 280 14:20 03.10.2019
857 Clouds 12 1013 66 10000 4.6 280 13:55 03.10.2019
858 Clouds 11 1013 71 10000 5.7 310 13:36 03.10.2019
859 Clouds 12 1013 71 10000 6.7 300 13:18 03.10.2019
860 Clouds 11 1013 71 10000 8.2 310 12:54 03.10.2019
861 Clouds 11 1013 71 10000 8.2 310 12:36 03.10.2019
862 Clouds 11 1013 71 10000 7.2 310 12:18 03.10.2019
863 Clouds 10 1013 76 10000 6.7 300 11:40 03.10.2019
864 -273 0 0 0 0 0 11:40 03.10.2019
865 Clouds 10 1013 76 10000 6.7 300 11:22 03.10.2019
866 Clouds 10 1013 76 10000 6.7 300 10:58 03.10.2019
867 -273 0 0 0 0 0 10:39 03.10.2019
868 Rain 9 1013 87 10000 6.2 290 10:39 03.10.2019
869 Clouds 9 1012 87 10000 6.2 290 10:18 03.10.2019
870 Clouds 9 1012 87 10000 6.2 290 09:57 03.10.2019
871 Clouds 8 1012 93 10000 4.6 280 09:38 03.10.2019
872 Rain 8 1012 93 10000 5.1 280 09:19 03.10.2019
873 Rain 8 1012 87 10000 5.7 290 08:43 03.10.2019
874 Rain 8 1012 87 10000 5.7 290 08:25 03.10.2019
875 Rain 7 1011 93 5000 6.2 270 07:56 03.10.2019
876 Rain 7 1011 93 5000 6.2 270 07:37 03.10.2019
877 Rain 7 1011 93 5000 6.2 270 07:37 03.10.2019
878 Rain 7 1010 93 5000 4.6 250 07:19 03.10.2019
879 Rain 7 1010 93 7000 5.7 250 06:45 03.10.2019
880 Rain 7 1010 81 10000 6.7 250 06:18 03.10.2019
881 Rain 7 1010 81 10000 6.2 250 05:38 03.10.2019
882 Rain 7 1011 75 10000 5.7 250 04:50 03.10.2019
883 Rain 7 1011 75 10000 5.7 250 04:25 03.10.2019
884 Clear 6 1011 81 10000 5.1 230 03:21 03.10.2019
885 Clear 6 1012 81 10000 3.6 240 02:33 03.10.2019
886 Clear 6 1012 81 10000 3.6 240 01:51 03.10.2019
887 Clear 6 1012 81 10000 3.6 240 01:32 03.10.2019
888 Clear 6 1012 87 10000 3.1 230 00:47 03.10.2019
889 Clear 6 1012 81 10000 3.1 240 00:18 03.10.2019
890 Clear 6 1012 87 10000 3.1 250 23:43 02.10.2019
891 Clear 6 1011 81 10000 2.6 250 23:21 02.10.2019
892 Clouds 7 1011 87 10000 3.1 260 22:44 02.10.2019
893 Clouds 7 1011 81 10000 2.6 240 22:21 02.10.2019
894 Clouds 7 1011 81 10000 2.6 240 21:56 02.10.2019
895 Clouds 7 1011 81 10000 2.6 240 21:56 02.10.2019
896 Clouds 7 1010 81 10000 2.1 230 21:38 02.10.2019
897 Clouds 7 1010 87 10000 2.6 250 21:20 02.10.2019
898 Clouds 7 1010 87 10000 2.6 250 20:57 02.10.2019
899 Clouds 7 1009 76 10000 2.1 250 20:38 02.10.2019
900 Clear 7 1009 76 10000 1.5 250 20:20 02.10.2019
901 Clouds 7 1009 81 10000 2.1 260 19:54 02.10.2019
902 Clear 7 1009 76 10000 1.5 250 19:54 02.10.2019
903 Clear 7 1009 76 10000 1.5 250 19:54 02.10.2019
904 Clouds 8 1009 81 10000 2.1 260 19:36 02.10.2019
905 Clouds 8 1009 81 10000 2.1 260 19:36 02.10.2019
906 Clouds 8 1009 76 10000 1.5 250 19:18 02.10.2019
907 Clouds 8 1008 71 10000 2.1 280 18:55 02.10.2019
908 Clouds 9 1008 71 10000 2.1 280 18:36 02.10.2019
909 Clouds 9 1008 76 10000 2.6 290 18:18 02.10.2019
910 Clouds 10 1008 76 10000 4.1 310 17:42 02.10.2019
911 -273 0 0 0 0 0 17:21 02.10.2019
912 Clouds 10 1008 81 10000 4.6 310 16:58 02.10.2019
913 Clouds 10 1008 81 10000 4.6 300 16:39 02.10.2019
914 Clouds 9 1008 81 10000 4.6 300 16:20 02.10.2019
915 Clouds 9 1007 93 10000 4.1 310 15:57 02.10.2019
916 Clouds 9 1007 87 10000 3.6 310 15:38 02.10.2019
917 Clouds 9 1007 87 10000 3.6 310 15:18 02.10.2019
918 Clouds 9 1007 87 10000 3.6 320 14:55 02.10.2019
919 Rain 9 1006 87 10000 3.6 310 14:36 02.10.2019
920 Rain 9 1006 87 10000 3.6 310 14:36 02.10.2019
921 Rain 9 1006 93 10000 3.6 320 14:18 02.10.2019
922 Rain 9 1006 93 10000 3.6 320 13:41 02.10.2019
923 Rain 9 1006 93 10000 2.1 330 13:22 02.10.2019
924 Rain 9 1005 93 10000 3.6 340 12:56 02.10.2019
925 Rain 9 1005 93 9000 4.1 340 12:37 02.10.2019
926 Rain 9 1005 93 9000 4.1 340 12:37 02.10.2019
927 Rain 9 1005 93 9000 4.1 340 12:18 02.10.2019
928 Rain 9 1004 93 6000 6.2 340 11:43 02.10.2019
929 Rain 9 1003 100 5000 6.7 350 11:21 02.10.2019
930 Rain 11 1002 100 5000 6.7 340 10:41 02.10.2019
931 Rain 11 1001 93 4500 5.1 310 10:20 02.10.2019
932 Rain 13 1000 82 10000 6.7 250 09:56 02.10.2019
933 Rain 13 999 77 10000 3.6 240 09:36 02.10.2019
934 Clouds 14 999 77 10000 3.6 240 09:18 02.10.2019
935 Clear 15 999 82 10000 4.6 240 08:42 02.10.2019
936 Clear 14 999 82 10000 5.1 230 08:22 02.10.2019
937 Clouds 14 999 82 10000 5.1 230 07:55 02.10.2019
938 Clouds 15 999 77 10000 5.1 220 07:37 02.10.2019
939 Clouds 15 999 77 10000 5.1 220 07:19 02.10.2019
940 Clouds 14 999 82 10000 4.6 220 06:31 02.10.2019
941 Clear 15 999 82 10000 4.6 220 05:52 02.10.2019
942 Clear 15 999 82 10000 5.1 220 05:23 02.10.2019
943 Clear 14 1000 82 10000 4.1 220 04:41 02.10.2019
944 Clear 14 1000 82 10000 5.7 220 03:51 02.10.2019
945 Clouds 14 1001 82 10000 5.1 220 02:39 02.10.2019
946 Clouds 14 1001 82 10000 5.1 220 02:21 02.10.2019
947 Clear 14 1001 93 10000 5.1 200 01:19 02.10.2019
948 Rain 14 1001 82 10000 5.1 190 00:42 02.10.2019
949 Rain 14 1001 82 10000 5.1 190 00:23 02.10.2019
950 Rain 15 1002 82 10000 6.2 240 23:42 01.10.2019
951 Rain 15 1002 82 10000 6.2 240 23:24 01.10.2019
952 Rain 16 1001 68 10000 5.7 230 22:58 01.10.2019
953 Clear 16 1001 72 10000 5.1 220 22:39 01.10.2019
954 Clear 16 1001 72 10000 5.1 220 22:18 01.10.2019
955 Clear 16 1001 72 10000 5.7 210 21:55 01.10.2019
956 Clear 17 1001 72 10000 5.1 210 21:36 01.10.2019
957 Clear 17 1001 72 10000 5.1 210 21:18 01.10.2019
958 Clear 17 1001 72 10000 4.6 220 20:54 01.10.2019
959 Clear 17 1001 72 10000 4.1 220 20:36 01.10.2019
960 Clear 17 1001 72 10000 4.1 220 20:18 01.10.2019
961 Clear 17 1001 72 10000 6.2 220 19:43 01.10.2019
962 -273 0 0 0 0 0 19:24 01.10.2019
963 Clear 17 1002 68 10000 5.7 230 18:58 01.10.2019
964 Clear 17 1001 68 10000 5.7 230 18:39 01.10.2019
965 Clear 18 1001 68 10000 5.7 230 18:21 01.10.2019
966 Clouds 18 1001 68 10000 8.2 230 17:55 01.10.2019
967 Clouds 19 1002 63 10000 8.2 230 17:36 01.10.2019
968 Clouds 18 1002 63 10000 8.2 230 17:18 01.10.2019
969 Clouds 19 1002 63 10000 7.7 240 16:54 01.10.2019
970 Clouds 19 1002 60 10000 8.7 240 16:36 01.10.2019
971 Clouds 19 1002 60 10000 8.7 240 16:18 01.10.2019
972 Clouds 20 1002 53 10000 9.3 240 15:42 01.10.2019
973 Clouds 20 1002 53 10000 9.3 240 15:21 01.10.2019
974 Clouds 20 1002 53 10000 7.2 230 14:41 01.10.2019
975 Clouds 20 1002 56 10000 7.7 240 14:20 01.10.2019
976 Clouds 20 1002 52 10000 7.2 230 13:57 01.10.2019
977 Clouds 20 1003 56 10000 7.2 230 13:38 01.10.2019
978 Clouds 20 1003 56 10000 7.2 230 13:19 01.10.2019
979 Clouds 20 1003 56 10000 7.2 230 12:57 01.10.2019
980 Clouds 20 1003 56 10000 7.2 230 12:57 01.10.2019
981 Clouds 19 1003 63 10000 8.2 210 12:38 01.10.2019
982 Clouds 18 1003 63 10000 8.2 210 12:18 01.10.2019
983 Clouds 18 1003 63 10000 7.7 200 11:57 01.10.2019
984 Clouds 17 1004 67 10000 6.7 190 11:37 01.10.2019
985 Clouds 17 1004 67 10000 6.7 190 11:18 01.10.2019
986 Clouds 17 1004 67 10000 6.7 190 11:18 01.10.2019
987 Clouds 16 1004 72 10000 6.2 190 10:49 01.10.2019
988 Clouds 15 1004 76 10000 6.7 190 10:29 01.10.2019
989 Clear 14 1005 82 10000 5.7 180 09:47 01.10.2019
990 Clear 14 1005 71 10000 5.1 170 09:27 01.10.2019
991 Rain 13 1006 76 10000 4.6 180 08:57 01.10.2019
992 Clouds 13 1006 76 10000 4.6 170 08:39 01.10.2019
993 Clouds 13 1006 76 10000 4.6 170 08:21 01.10.2019
994 Clear 12 1007 76 10000 4.6 170 07:43 01.10.2019
995 Clear 12 1008 76 10000 5.1 180 07:24 01.10.2019
996 Rain 11 1008 81 10000 5.7 190 06:46 01.10.2019
997 Rain 11 1008 81 10000 5.7 190 06:18 01.10.2019
998 Clear 11 1008 81 10000 4.1 210 05:45 01.10.2019
999 Clear 11 1009 76 10000 3.1 230 04:50 01.10.2019
1000 Clear 11 1010 76 10000 4.1 230 04:26 01.10.2019
1001 Clouds 11 1011 76 10000 3.1 240 02:26 01.10.2019
1002 Clouds 11 1011 76 10000 2.1 260 01:58 01.10.2019
1003 Clear 12 1011 71 10000 3.1 240 00:53 01.10.2019
1004 Clear 12 1011 76 10000 3.1 240 00:28 01.10.2019
1005 Clear 13 1011 71 10000 3.6 250 23:56 30.09.2019
1006 Clear 12 1011 71 10000 4.6 260 23:38 30.09.2019
1007 Clear 13 1011 71 10000 4.6 260 23:19 30.09.2019
1008 Clear 13 1011 71 10000 5.1 260 22:43 30.09.2019
1009 Clear 13 1011 76 10000 6.2 260 22:25 30.09.2019
1010 Clouds 13 1011 71 10000 6.2 260 21:58 30.09.2019
1011 Clouds 13 1010 71 10000 6.2 260 21:38 30.09.2019
1012 Clouds 13 1010 71 10000 6.2 260 21:19 30.09.2019
1013 Clouds 13 1010 71 10000 6.2 270 20:58 30.09.2019
1014 -273 0 0 0 0 0 20:39 30.09.2019
1015 Clouds 14 1010 71 10000 6.7 260 20:20 30.09.2019
1016 Clouds 14 1009 71 10000 5.7 260 19:57 30.09.2019
1017 Clouds 14 1009 62 10000 6.7 260 19:39 30.09.2019
1018 Clouds 14 1009 62 10000 6.7 260 19:19 30.09.2019
1019 Rain 15 1008 59 10000 7.7 270 18:57 30.09.2019
1020 -273 0 0 0 0 0 18:39 30.09.2019
1021 Rain 15 1008 59 10000 8.7 280 18:20 30.09.2019
1022 Clouds 15 1007 59 10000 7.7 270 17:43 30.09.2019
1023 Clouds 16 1007 67 10000 6.2 280 17:23 30.09.2019
1024 Clouds 16 1007 67 10000 7.7 300 16:58 30.09.2019
1025 Clouds 16 1007 67 10000 7.7 300 16:40 30.09.2019
1026 Clouds 16 1007 71 10000 7.7 300 16:19 30.09.2019
1027 Rain 16 1006 59 10000 7.2 290 15:58 30.09.2019
1028 Rain 16 1006 62 10000 9.8 290 15:38 30.09.2019
1029 Rain 16 1006 62 10000 9.8 290 15:19 30.09.2019
1030 Rain 17 1005 59 10000 9.3 280 14:58 30.09.2019
1031 Clouds 16 1005 63 10000 10.3 280 14:38 30.09.2019
1032 Clouds 16 1005 63 10000 10.3 280 14:19 30.09.2019
1033 Rain 15 1005 67 10000 11.3 270 13:58 30.09.2019
1034 Rain 15 1004 72 10000 8.7 280 13:39 30.09.2019
1035 Rain 15 1004 72 10000 8.7 280 13:20 30.09.2019
1036 Rain 14 1004 82 10000 9.3 280 12:44 30.09.2019
1037 Rain 15 1002 72 10000 12.3 270 12:23 30.09.2019
1038 Rain 15 1001 67 10000 9.8 270 11:57 30.09.2019
1039 Rain 15 1001 67 10000 9.8 270 11:57 30.09.2019
1040 Rain 15 1001 67 10000 11.8 260 11:39 30.09.2019
1041 Rain 15 1001 67 10000 11.8 260 11:19 30.09.2019
1042 -273 0 0 0 0 0 10:55 30.09.2019
1043 Rain 15 1000 67 10000 11.3 260 10:37 30.09.2019
1044 Rain 15 1000 67 10000 11.3 260 10:18 30.09.2019
1045 Clouds 15 998 72 10000 8.7 250 09:40 30.09.2019
1046 Clouds 15 999 67 10000 12.3 260 09:40 30.09.2019
1047 Clouds 15 998 72 10000 8.7 250 09:21 30.09.2019
1048 Clouds 15 998 72 10000 10.8 250 08:51 30.09.2019
1049 Rain 15 997 72 10000 9.8 250 08:33 30.09.2019
1050 Clouds 15 996 72 10000 8.2 240 07:58 30.09.2019
1051 Clouds 15 996 72 10000 8.2 240 07:39 30.09.2019
1052 Clouds 15 996 72 10000 8.2 240 07:18 30.09.2019
1053 Rain 15 996 72 10000 7.7 250 06:41 30.09.2019
1054 Clouds 16 996 72 10000 7.7 240 05:56 30.09.2019
1055 Clouds 16 996 72 10000 7.2 230 05:38 30.09.2019
1056 Rain 17 996 59 10000 7.7 230 02:51 30.09.2019
1057 Clouds 17 997 63 10000 7.2 230 02:20 30.09.2019
1058 -273 0 0 0 0 0 01:24 30.09.2019
1059 -273 0 0 0 0 0 01:24 30.09.2019
1060 Clouds 17 998 59 10000 5.1 230 00:37 30.09.2019
1061 Clouds 18 998 59 10000 5.1 230 00:19 30.09.2019
1062 Clear 18 999 59 10000 3.1 220 23:42 29.09.2019
1063 Clear 18 999 59 10000 3.1 220 23:21 29.09.2019
1064 Clear 18 999 59 10000 5.1 220 22:55 29.09.2019
1065 Clouds 18 1000 59 10000 5.7 220 22:36 29.09.2019
1066 Clouds 18 1000 59 10000 5.7 220 22:18 29.09.2019
1067 Rain 17 1000 72 10000 4.6 220 21:55 29.09.2019
1068 Rain 17 1000 63 10000 5.7 210 21:36 29.09.2019
1069 Rain 17 1000 63 10000 5.7 210 21:18 29.09.2019
1070 Clear 17 1001 63 10000 4.1 220 20:43 29.09.2019
1071 Clear 17 1001 63 10000 7.2 200 20:19 29.09.2019
1072 Clouds 17 1001 72 10000 7.7 190 19:58 29.09.2019
1073 Clear 17 1001 72 10000 5.7 180 19:37 29.09.2019
1074 Clear 17 1001 72 10000 5.7 180 19:19 29.09.2019
1075 Clear 16 1001 72 10000 5.7 180 19:19 29.09.2019
1076 Rain 16 1001 72 10000 7.2 180 18:55 29.09.2019
1077 Rain 16 1002 67 10000 6.2 190 18:37 29.09.2019
1078 Rain 16 1002 67 10000 6.2 190 18:19 29.09.2019
1079 Rain 17 1003 55 10000 7.2 200 17:55 29.09.2019
1080 Rain 17 1003 55 10000 7.2 200 17:55 29.09.2019
1081 Clouds 17 967 72 0 3.58 99 17:37 29.09.2019
1082 Clouds 18 1003 59 0 0.45 130 17:19 29.09.2019
1083 Clear 19 1004 45 10000 5.1 220 16:57 29.09.2019
1084 Clouds 19 1004 45 10000 7.2 220 16:39 29.09.2019
1085 Clouds 20 1004 45 10000 7.2 220 16:18 29.09.2019
1086 Clouds 20 1005 52 10000 6.2 190 15:41 29.09.2019
1087 Clouds 20 1005 52 10000 6.2 190 15:20 29.09.2019
1088 Clouds 19 1005 55 10000 6.2 190 14:59 29.09.2019
1089 Clouds 20 1005 55 10000 6.2 190 14:40 29.09.2019
1090 Clouds 19 1006 55 10000 5.7 190 14:20 29.09.2019
1091 Clear 19 1007 67 10000 5.1 170 13:58 29.09.2019
1092 Clear 18 1007 63 10000 6.7 200 13:40 29.09.2019
1093 Clear 18 1007 63 10000 6.7 200 13:19 29.09.2019
1094 Clear 17 1008 63 10000 6.2 200 12:58 29.09.2019
1095 Clear 17 1009 63 10000 6.2 200 12:39 29.09.2019
1096 Clear 17 1009 63 10000 6.2 200 12:21 29.09.2019
1097 Clouds 16 1009 67 10000 5.7 200 11:57 29.09.2019
1098 Rain 16 1010 67 10000 5.7 210 11:38 29.09.2019
1099 Rain 16 1010 67 10000 5.7 210 11:18 29.09.2019
1100 Rain 15 1010 72 10000 6.2 220 10:57 29.09.2019
1101 Rain 15 1010 72 10000 5.7 220 10:36 29.09.2019
1102 Rain 15 1010 72 10000 5.7 220 10:18 29.09.2019
1103 -273 0 0 0 0 0 09:45 29.09.2019
1104 Clear 15 1010 67 10000 6.7 220 09:21 29.09.2019
1105 Clear 14 1010 71 10000 5.7 210 08:59 29.09.2019
1106 Clear 13 1010 71 10000 4.6 210 08:39 29.09.2019
1107 Clear 13 1010 71 10000 4.6 210 08:20 29.09.2019
1108 Clear 13 1011 76 10000 4.6 220 07:43 29.09.2019
1109 Clear 13 1011 76 10000 4.6 220 07:24 29.09.2019
1110 Clear 13 1011 76 10000 4.6 220 07:24 29.09.2019
1111 -273 0 0 0 0 0 07:24 29.09.2019
1112 Clear 13 1011 71 10000 5.7 220 06:43 29.09.2019
1113 Clear 13 1012 71 10000 5.7 240 05:27 29.09.2019
1114 Clear 13 1012 71 10000 6.2 240 04:40 29.09.2019
1115 Clear 13 1012 71 10000 6.2 230 04:22 29.09.2019
1116 Clear 13 1013 72 10000 5.1 230 02:47 29.09.2019
1117 Clear 13 1013 72 10000 6.2 230 02:18 29.09.2019
1118 Clear 13 1013 76 10000 5.7 230 01:32 29.09.2019
1119 Clear 14 1013 72 10000 5.1 230 00:53 29.09.2019
1120 Clear 14 1013 72 10000 6.2 220 00:21 29.09.2019
1121 Clear 13 1013 72 10000 5.7 220 23:56 28.09.2019
1122 Clear 14 1013 72 10000 4.1 230 23:36 28.09.2019
1123 Clear 14 1013 72 10000 4.1 230 23:18 28.09.2019
1124 Clear 14 1013 72 10000 4.6 230 22:40 28.09.2019
1125 Clear 14 1013 72 10000 4.6 230 22:21 28.09.2019
1126 Clouds 14 1013 72 10000 5.1 220 21:57 28.09.2019
1127 Clouds 14 1013 72 10000 3.6 230 21:39 28.09.2019
1128 Clouds 14 1013 72 10000 3.6 230 21:21 28.09.2019
1129 Clouds 14 1013 67 10000 4.6 240 20:57 28.09.2019
1130 Clouds 14 1013 67 10000 4.6 240 20:57 28.09.2019
1131 Clear 14 1013 67 10000 5.1 230 20:38 28.09.2019
1132 Clear 14 1013 67 10000 5.1 230 20:18 28.09.2019
1133 Clouds 15 1013 67 10000 5.1 230 19:56 28.09.2019
1134 Clouds 14 1013 67 10000 5.1 230 19:56 28.09.2019
1135 Clouds 15 1012 67 10000 5.1 220 19:38 28.09.2019
1136 Clouds 15 1012 67 10000 5.1 220 19:19 28.09.2019
1137 Clouds 16 1012 63 10000 5.1 240 18:55 28.09.2019
1138 Clouds 16 1012 63 10000 5.1 240 18:37 28.09.2019
1139 Clouds 17 1012 63 10000 5.1 240 18:18 28.09.2019
1140 Clouds 17 1012 59 10000 6.2 240 17:55 28.09.2019
1141 Clouds 18 1012 59 10000 6.7 250 17:36 28.09.2019
1142 Clouds 18 1012 59 10000 6.7 250 17:18 28.09.2019
1143 Clouds 18 1012 55 10000 7.2 240 16:41 28.09.2019
1144 Clouds 19 1012 55 10000 7.2 250 16:23 28.09.2019
1145 Clouds 18 1012 55 10000 6.7 240 15:41 28.09.2019
1146 Clouds 19 1013 55 10000 6.7 250 15:23 28.09.2019
1147 Clouds 19 1013 55 10000 6.2 240 14:57 28.09.2019
1148 Clouds 19 1013 63 10000 6.7 250 14:38 28.09.2019
1149 Clouds 19 1013 63 10000 6.7 250 14:20 28.09.2019
1150 Clouds 19 1013 59 10000 6.2 250 13:56 28.09.2019
1151 Clouds 18 1013 63 10000 7.7 240 13:37 28.09.2019
1152 Clouds 18 1013 63 10000 7.7 240 13:37 28.09.2019
1153 Clouds 18 1013 63 10000 7.7 240 13:19 28.09.2019
1154 Clouds 18 1013 67 10000 5.7 250 12:44 28.09.2019
1155 Clouds 18 1013 67 10000 5.7 250 12:19 28.09.2019
1156 Clouds 17 1014 67 10000 5.7 240 11:55 28.09.2019
1157 Clouds 17 1013 72 10000 6.7 260 11:37 28.09.2019
1158 Clouds 17 1013 72 10000 6.7 260 11:18 28.09.2019
1159 Clouds 16 1013 72 10000 6.7 240 10:43 28.09.2019
1160 Clouds 16 1013 72 10000 6.7 240 10:20 28.09.2019
1161 Clear 16 1013 77 10000 5.1 230 09:57 28.09.2019
1162 Clear 15 1013 77 10000 4.6 240 09:39 28.09.2019
1163 Clear 14 1013 77 10000 4.6 240 09:18 28.09.2019
1164 Clear 13 1013 82 10000 5.1 220 08:46 28.09.2019
1165 Clear 12 1013 82 10000 5.7 220 08:28 28.09.2019
1166 Clear 12 1012 82 10000 5.1 230 07:45 28.09.2019
1167 Clear 12 1012 82 10000 5.1 230 07:45 28.09.2019
1168 Clear 12 1012 82 10000 3.1 220 07:23 28.09.2019
1169 Clear 11 1012 87 10000 1.5 160 06:55 28.09.2019
1170 Clear 11 1012 87 10000 3.6 210 06:32 28.09.2019
1171 Clear 11 1012 87 10000 3.6 200 05:57 28.09.2019
1172 Rain 11 1012 87 10000 3.1 200 05:24 28.09.2019
1173 Rain 11 1012 87 10000 3.6 190 04:41 28.09.2019
1174 Clear 11 1012 87 10000 3.6 200 03:59 28.09.2019
1175 Clear 12 1012 82 10000 3.1 230 03:25 28.09.2019
1176 Clear 12 1012 82 10000 4.1 230 02:57 28.09.2019
1177 Clear 12 1012 87 10000 4.1 220 02:35 28.09.2019
1178 Clear 12 1012 87 10000 2.6 220 01:51 28.09.2019
1179 Clouds 12 1012 92 0 6.72 234.948 01:27 28.09.2019
1180 Clouds 13 1011 87 10000 3.1 220 00:58 28.09.2019
1181 Clouds 13 1012 87 10000 2.6 230 00:38 28.09.2019
1182 Clouds 13 1012 87 10000 2.6 230 00:18 28.09.2019
1183 Clouds 13 1012 87 10000 4.1 220 23:38 27.09.2019
1184 Clouds 13 1012 87 10000 4.1 220 23:38 27.09.2019
1185 Clouds 14 1012 87 10000 4.1 220 23:19 27.09.2019
1186 Rain 14 1012 87 10000 1.5 180 22:47 27.09.2019
1187 Clouds 13 1011 93 10000 2.1 220 22:20 27.09.2019
1188 Clouds 13 1011 93 10000 2.1 220 22:20 27.09.2019
1189 Clouds 14 1011 93 10000 3.1 210 21:58 27.09.2019
1190 Clouds 14 1011 93 10000 3.1 220 21:39 27.09.2019
1191 Clouds 14 1011 93 10000 3.1 220 21:20 27.09.2019
1192 Clouds 14 1011 87 10000 2.6 220 20:58 27.09.2019
1193 Clouds 14 1011 87 10000 2.6 220 20:58 27.09.2019
1194 Clouds 14 974 92 0 2.24 296 20:40 27.09.2019
1195 Clouds 14 974 92 0 2.24 297 20:40 27.09.2019
1196 Clouds 14 1011 94 0 5.04 246.162 20:19 27.09.2019
1197 Clouds 14 1011 94 0 5.04 246.162 20:19 27.09.2019
1198 Clouds 14 1011 94 0 5.04 246.162 20:19 27.09.2019
1199 Clouds 14 1011 93 10000 2.6 290 19:57 27.09.2019
1200 Rain 14 1011 87 10000 3.6 230 19:38 27.09.2019
1201 Rain 14 1011 87 10000 3.6 230 19:19 27.09.2019
1202 Rain 15 1010 87 10000 5.1 240 18:42 27.09.2019
1203 Rain 15 1010 87 10000 5.1 240 18:23 27.09.2019
1204 Rain 15 1010 89 0 0.45 342 17:56 27.09.2019
1205 Rain 16 1010 88 10000 3.1 180 17:38 27.09.2019
1206 Rain 16 1010 88 10000 3.1 180 17:19 27.09.2019
1207 Rain 16 1010 88 10000 1 0 16:57 27.09.2019
1208 Rain 17 1010 88 10000 1.5 230 16:37 27.09.2019
1209 Rain 17 1010 88 10000 1.5 230 16:37 27.09.2019
1210 Rain 17 1010 88 10000 1.5 230 16:37 27.09.2019
1211 Rain 17 1010 88 10000 1.5 230 16:18 27.09.2019
1212 Rain 17 1010 88 10000 1.5 230 16:18 27.09.2019
1213 Rain 17 1010 88 10000 1.5 230 16:18 27.09.2019
1214 Rain 17 1010 88 10000 1.5 270 15:46 27.09.2019
1215 Rain 18 1010 77 10000 1 350 15:21 27.09.2019
1216 Clouds 18 1010 72 10000 2.6 270 14:59 27.09.2019
1217 Clouds 18 1010 72 10000 2.6 270 14:41 27.09.2019
1218 Rain 18 1010 72 10000 5.1 260 14:21 27.09.2019
1219 Clouds 18 1010 72 10000 5.1 230 13:58 27.09.2019
1220 Clouds 18 1011 72 10000 4.6 220 13:40 27.09.2019
1221 Clouds 18 1011 72 10000 4.6 220 13:21 27.09.2019
1222 Clouds 18 1011 72 10000 4.6 220 13:21 27.09.2019
1223 Clouds 18 1011 72 10000 4.6 220 13:21 27.09.2019
1224 Clouds 18 1011 77 10000 4.6 210 12:54 27.09.2019
1225 Clear 18 1011 82 10000 2.6 180 12:24 27.09.2019
1226 Clouds 18 1011 88 10000 3.1 190 11:59 27.09.2019
1227 Clouds 18 1011 88 10000 2.6 180 11:38 27.09.2019
1228 Clouds 17 1011 88 10000 2.6 180 11:20 27.09.2019
1229 Clouds 17 1011 93 10000 2.6 190 10:54 27.09.2019
1230 Clouds 17 1011 93 10000 3.6 190 10:36 27.09.2019
1231 Clouds 17 1011 93 10000 3.6 190 10:18 27.09.2019
1232 Clouds 16 1011 87 10000 5.1 190 09:41 27.09.2019
1233 Clouds 16 1011 87 10000 4.6 190 09:20 27.09.2019
1234 Drizzle 15 1012 93 10000 4.1 190 08:55 27.09.2019
1235 Drizzle 15 1012 93 10000 3.6 200 08:37 27.09.2019
1236 Drizzle 15 1012 93 10000 3.6 200 08:19 27.09.2019
1237 Rain 15 1012 93 10000 4.1 200 07:45 27.09.2019
1238 Rain 15 1012 93 10000 4.6 200 07:21 27.09.2019
1239 Clear 15 1012 100 10000 4.1 180 06:41 27.09.2019
1240 Clear 15 1012 100 10000 4.1 180 06:22 27.09.2019
1241 Clouds 15 1012 93 10000 3.6 180 05:49 27.09.2019
1242 Clouds 15 1012 93 10000 3.6 170 05:30 27.09.2019
1243 Rain 15 1012 100 5000 4.1 160 03:53 27.09.2019
1244 Clouds 15 1013 87 10000 2.6 160 01:58 27.09.2019
1245 Clouds 15 1013 87 10000 2.6 160 01:36 27.09.2019
1246 Clouds 15 1013 87 10000 3.1 150 00:55 27.09.2019
1247 Clouds 15 1013 87 10000 3.1 150 00:55 27.09.2019
1248 Rain 15 1013 87 10000 2.6 160 00:19 27.09.2019
1249 Rain 15 1013 87 10000 2.6 160 23:55 26.09.2019
1250 Rain 15 1014 87 10000 2.1 160 23:37 26.09.2019
1251 Rain 14 1014 87 10000 2.1 160 23:18 26.09.2019
1252 Clouds 15 1014 87 10000 2.1 160 22:55 26.09.2019
1253 Rain 15 1014 77 10000 4.1 200 22:37 26.09.2019
1254 Rain 15 1014 77 10000 4.1 200 22:18 26.09.2019
1255 -273 0 0 0 0 0 21:55 26.09.2019
1256 Clear 15 1013 72 10000 2.1 170 21:36 26.09.2019
1257 Clear 15 1013 72 10000 2.1 170 21:18 26.09.2019
1258 Clear 15 1013 72 10000 2.1 170 21:18 26.09.2019
1259 Clear 15 1013 72 10000 2.6 200 20:55 26.09.2019
1260 Clear 15 1013 67 10000 2.1 220 20:37 26.09.2019
1261 Clear 16 1013 67 10000 2.1 220 20:19 26.09.2019
1262 Clear 16 1013 63 10000 2.1 230 19:40 26.09.2019
1263 Clear 16 1013 63 10000 2.1 230 19:19 26.09.2019
1264 Rain 17 1012 77 0 3.8 207.71 18:58 26.09.2019
1265 Rain 17 976 77 0 3.8 207.71 18:39 26.09.2019
1266 Clear 18 1012 59 10000 2.6 240 18:21 26.09.2019
1267 Clouds 19 1013 52 10000 2.1 240 17:54 26.09.2019
1268 Clouds 19 1012 56 10000 3.1 230 17:36 26.09.2019
1269 Clouds 20 1012 56 10000 3.1 230 17:18 26.09.2019
1270 Clouds 20 1012 56 10000 2.6 250 16:39 26.09.2019
1271 Clouds 20 1012 56 10000 2.6 250 16:20 26.09.2019
1272 Clouds 20 1012 56 10000 4.1 0 15:58 26.09.2019
1273 Clouds 20 1012 59 10000 2.6 310 15:38 26.09.2019
1274 Clouds 20 1012 59 10000 2.6 310 15:19 26.09.2019
1275 Clouds 19 1012 63 10000 2.6 0 14:57 26.09.2019
1276 Clouds 19 1012 63 10000 2.6 0 14:57 26.09.2019
1277 Clouds 19 1012 63 10000 2.1 240 14:37 26.09.2019
1278 Clouds 19 1012 63 10000 2.1 240 14:37 26.09.2019
1279 Clouds 19 1012 63 10000 2.1 240 14:19 26.09.2019
1280 Clouds 19 1013 68 10000 3.1 240 13:41 26.09.2019
1281 Clouds 19 1013 68 10000 3.1 240 13:41 26.09.2019
1282 Clouds 19 1013 72 10000 3.1 240 13:20 26.09.2019
1283 Clouds 19 1013 72 10000 3.1 240 13:20 26.09.2019
1284 Clouds 18 1013 77 10000 3.6 230 12:59 26.09.2019
1285 Clouds 18 1013 72 10000 3.6 230 12:41 26.09.2019
1286 Clouds 18 1013 72 10000 3.6 230 12:41 26.09.2019
1287 Clouds 17 1013 72 10000 3.6 230 12:20 26.09.2019
1288 Clouds 17 1012 77 10000 3.1 250 11:42 26.09.2019
1289 Clouds 17 1012 77 10000 3.1 250 11:23 26.09.2019
1290 Clear 16 1012 72 10000 3.6 240 10:58 26.09.2019
1291 Clear 16 1012 72 10000 3.6 220 10:40 26.09.2019
1292 Clear 15 1012 72 10000 3.6 220 10:20 26.09.2019
1293 Clear 15 1012 72 10000 3.6 220 10:20 26.09.2019
1294 Clear 14 1012 82 10000 3.6 210 09:44 26.09.2019
1295 Clear 14 1011 76 10000 3.1 210 09:26 26.09.2019
1296 Clouds 13 1011 82 10000 3.1 210 08:58 26.09.2019
1297 Clouds 12 1011 87 10000 2.6 220 08:40 26.09.2019
1298 Clouds 12 1011 87 10000 2.6 220 08:22 26.09.2019
1299 Clouds 10 1011 87 10000 2.6 220 07:44 26.09.2019
1300 Clear 10 1010 87 10000 2.6 220 07:21 26.09.2019
1301 Clouds 10 1010 87 10000 3.1 220 06:47 26.09.2019
1302 Clouds 10 1010 87 10000 2.6 220 06:27 26.09.2019
1303 Clear 10 1010 87 10000 3.1 220 05:46 26.09.2019
1304 Clear 11 1010 87 10000 2.6 220 05:25 26.09.2019
1305 Clouds 10 1009 87 10000 2.6 220 03:18 26.09.2019
1306 Clouds 11 1009 82 10000 1.5 230 01:54 26.09.2019
1307 Clear 11 1009 82 10000 2.1 240 01:32 26.09.2019
1308 Clouds 11 1009 90 0 5.47 237.693 00:58 26.09.2019
1309 Clear 12 1008 76 10000 2.6 240 00:38 26.09.2019
1310 Clear 12 1008 76 10000 2.6 240 00:20 26.09.2019
1311 Clouds 12 1008 76 10000 2.6 240 23:42 25.09.2019
1312 Clouds 13 1008 76 10000 2.6 240 23:19 25.09.2019
1313 Clouds 13 1008 82 10000 3.1 240 22:54 25.09.2019
1314 Clouds 13 1008 76 10000 2.6 240 22:36 25.09.2019
1315 Clouds 13 1008 76 10000 2.6 240 22:18 25.09.2019
1316 Clear 13 1008 77 10000 3.1 230 21:55 25.09.2019
1317 Clear 13 1008 77 10000 3.1 220 21:36 25.09.2019
1318 Clear 13 1008 77 10000 3.1 220 21:18 25.09.2019
1319 Clear 13 1008 87 10000 1.5 210 20:55 25.09.2019
1320 Clear 13 1008 87 10000 1 150 20:37 25.09.2019
1321 Clear 13 1008 87 10000 1 150 20:18 25.09.2019
1322 Clouds 13 971 94 0 0.89 317 19:38 25.09.2019
1323 Clouds 14 971 94 0 3.71 225.709 19:20 25.09.2019
1324 Clouds 14 971 92 0 3.71 225.709 18:56 25.09.2019
1325 Clouds 14 971 90 0 3.71 225.709 18:37 25.09.2019
1326 Clouds 15 1007 77 10000 4.6 260 18:18 25.09.2019
1327 Clouds 15 1007 77 10000 4.6 260 18:18 25.09.2019
1328 Clouds 16 1007 82 10000 2.6 280 17:40 25.09.2019
1329 Clouds 16 1007 82 10000 2.6 280 17:21 25.09.2019
1330 Clouds 16 1007 87 10000 4.1 270 16:57 25.09.2019
1331 Clouds 16 1007 87 10000 4.1 270 16:57 25.09.2019
1332 Clouds 15 1007 87 10000 5.1 270 16:38 25.09.2019
1333 Clouds 15 1007 87 10000 5.1 270 16:19 25.09.2019
1334 Rain 16 1006 93 10000 4.6 270 15:55 25.09.2019
1335 Clouds 16 1006 93 10000 6.2 280 15:36 25.09.2019
1336 Clouds 16 1006 93 10000 6.2 280 15:18 25.09.2019
1337 Rain 16 1006 82 10000 2.6 230 14:41 25.09.2019
1338 Rain 16 1006 82 10000 2.6 230 14:22 25.09.2019
1339 Clouds 16 1006 82 10000 1.5 0 13:57 25.09.2019
1340 Clouds 16 1006 77 10000 2.1 230 13:39 25.09.2019
1341 Clouds 16 1006 77 10000 2.1 230 13:20 25.09.2019
1342 Clouds 17 1006 82 10000 3.1 200 12:44 25.09.2019
1343 Clouds 17 1006 82 10000 3.1 200 12:44 25.09.2019
1344 Clouds 16 1006 82 10000 1.5 140 12:25 25.09.2019
1345 Clouds 16 1006 87 10000 1.5 140 11:59 25.09.2019
1346 Clouds 16 1006 93 10000 1.5 140 11:40 25.09.2019
1347 Clouds 15 1006 93 10000 1.5 140 11:20 25.09.2019
1348 Rain 15 1007 93 6000 2.1 150 10:47 25.09.2019
1349 Rain 15 1007 93 8000 3.6 190 10:27 25.09.2019
1350 Rain 15 1006 93 10000 3.1 170 09:59 25.09.2019
1351 Rain 15 1006 93 10000 3.1 170 09:59 25.09.2019
1352 Rain 15 1006 93 10000 3.1 170 09:59 25.09.2019
1353 Rain 14 1006 93 10000 3.1 170 09:40 25.09.2019
1354 Clouds 14 1006 93 10000 2.6 150 09:22 25.09.2019
1355 Rain 14 1006 93 10000 2.6 160 08:57 25.09.2019
1356 Rain 14 1007 93 10000 2.6 170 08:39 25.09.2019
1357 Rain 14 1007 93 10000 2.6 170 08:19 25.09.2019
1358 Rain 14 1007 87 10000 2.1 180 07:40 25.09.2019
1359 Rain 13 1007 87 10000 2.1 180 07:22 25.09.2019
1360 Clear 13 1007 87 10000 2.6 180 06:55 25.09.2019
1361 Clear 13 1007 87 10000 2.1 160 06:33 25.09.2019
1362 Clear 13 1007 87 10000 3.1 170 05:43 25.09.2019
1363 Clear 13 1008 93 10000 2.6 180 04:58 25.09.2019
1364 Clear 14 1009 93 10000 2.6 180 02:32 25.09.2019
1365 Clear 14 1009 87 10000 3.1 180 01:29 25.09.2019
1366 Clear 14 1009 87 10000 2.6 170 00:38 25.09.2019
1367 Clear 14 1009 87 10000 2.6 170 00:20 25.09.2019
1368 Clear 14 1010 87 10000 2.1 170 23:42 24.09.2019
1369 Clear 14 1010 87 10000 2.1 170 23:22 24.09.2019
1370 Clear 14 1010 82 10000 1.5 160 22:57 24.09.2019
1371 Clear 14 1010 82 10000 2.1 150 22:38 24.09.2019
1372 Clear 14 1010 82 10000 2.1 150 22:18 24.09.2019
1373 Clear 14 1010 82 10000 2.1 150 22:18 24.09.2019
1374 Clear 14 1010 82 10000 3.1 160 21:55 24.09.2019
1375 Clear 14 1010 77 10000 2.6 140 21:37 24.09.2019
1376 Clear 15 1010 77 10000 2.6 140 21:18 24.09.2019
1377 Clear 15 1010 77 10000 2.6 150 20:56 24.09.2019
1378 Clear 15 1010 77 10000 2.6 150 20:56 24.09.2019
1379 Clear 15 1010 77 10000 3.1 140 20:38 24.09.2019
1380 Clear 16 1010 77 10000 3.1 140 20:19 24.09.2019
1381 Clear 16 1010 77 10000 1.5 130 19:42 24.09.2019
1382 Clear 17 1010 72 10000 1.5 110 19:20 24.09.2019
1383 Clear 17 1010 72 10000 1.5 110 19:20 24.09.2019
1384 Clouds 17 1011 72 10000 2.1 130 18:58 24.09.2019
1385 Clear 17 1011 68 10000 2.6 140 18:39 24.09.2019
1386 Clear 18 1011 68 10000 2.6 140 18:20 24.09.2019
1387 Clear 18 1011 68 10000 2.6 140 18:20 24.09.2019
1388 Clouds 18 1011 68 10000 2.6 130 17:57 24.09.2019
1389 Clear 19 1011 68 10000 2.6 120 17:38 24.09.2019
1390 Clear 19 1011 68 10000 2.6 120 17:19 24.09.2019
1391 Clear 19 1011 68 10000 2.6 160 16:42 24.09.2019
1392 Clouds 19 1012 68 10000 2.1 130 16:21 24.09.2019
1393 Clouds 19 1012 72 10000 1.5 160 15:59 24.09.2019
1394 Clouds 19 1012 72 10000 1.5 160 15:41 24.09.2019
1395 Clouds 19 1012 68 10000 2.1 210 15:22 24.09.2019
1396 Clouds 19 1013 68 10000 2.1 0 14:40 24.09.2019
1397 Clouds 18 1013 68 10000 2.1 0 14:19 24.09.2019
1398 Clouds 19 1013 72 10000 0.5 0 13:55 24.09.2019
1399 Clouds 19 1013 72 10000 0.5 0 13:55 24.09.2019
1400 Clouds 18 1014 77 10000 1 0 13:37 24.09.2019
1401 Clouds 18 1014 77 10000 1 0 13:18 24.09.2019
1402 Rain 17 1015 82 10000 1.5 260 12:39 24.09.2019
1403 Rain 17 1015 82 10000 1.5 260 12:19 24.09.2019
1404 Clouds 16 1015 82 10000 2.1 260 11:43 24.09.2019
1405 Clouds 16 1015 82 10000 2.1 260 11:43 24.09.2019
1406 Clouds 16 1015 82 10000 1.5 260 11:22 24.09.2019
1407 Clouds 16 1015 82 10000 2.6 270 10:58 24.09.2019
1408 Clouds 16 1015 87 10000 2.6 280 10:38 24.09.2019
1409 Clouds 16 1015 87 10000 2.6 280 10:19 24.09.2019
1410 Clouds 15 1015 87 10000 2.6 270 09:46 24.09.2019
1411 Clouds 15 1015 87 10000 1.5 260 09:27 24.09.2019
1412 Clouds 15 1014 87 8000 1.5 260 08:58 24.09.2019
1413 Clouds 14 1014 93 8000 1.5 240 08:40 24.09.2019
1414 Clouds 14 1014 93 8000 1.5 240 08:22 24.09.2019
1415 Clouds 14 1015 93 8000 1 0 07:57 24.09.2019
1416 Rain 14 1015 93 7000 1.5 260 07:38 24.09.2019
1417 Rain 14 1015 93 7000 1.5 260 07:19 24.09.2019
1418 Rain 14 1015 93 10000 2.6 250 06:37 24.09.2019
1419 Rain 14 1015 93 10000 2.6 250 06:19 24.09.2019
1420 Clouds 14 1015 87 10000 3.1 260 05:21 24.09.2019
1421 Clouds 14 1015 87 10000 2.1 250 03:46 24.09.2019
1422 Clouds 14 1015 87 10000 2.1 250 03:25 24.09.2019
1423 Clouds 14 1015 87 10000 2.6 270 02:44 24.09.2019
1424 Clouds 14 1015 87 10000 1.5 230 01:41 24.09.2019
1425 Clouds 13 1015 87 10000 2.6 270 00:42 24.09.2019
1426 Clouds 13 1015 87 10000 2.6 270 00:22 24.09.2019
1427 Clear 14 1015 82 10000 3.1 270 23:43 23.09.2019
1428 Clear 14 1015 82 10000 3.1 270 23:23 23.09.2019
1429 Clear 14 1015 72 10000 3.6 260 22:56 23.09.2019
1430 Clear 14 1015 63 10000 2.6 220 22:37 23.09.2019
1431 Clear 14 1015 63 10000 2.6 220 22:18 23.09.2019
1432 Clear 15 1015 59 10000 1.5 180 21:54 23.09.2019
1433 Clear 15 1015 55 10000 1 160 21:36 23.09.2019
1434 Clear 15 1015 55 10000 1 160 21:18 23.09.2019
1435 Clear 15 1014 55 10000 2.1 180 20:40 23.09.2019
1436 Clear 15 1014 55 10000 2.1 180 20:19 23.09.2019
1437 Clear 16 1014 52 10000 2.1 180 19:55 23.09.2019
1438 Clear 16 1014 52 10000 2.1 180 19:55 23.09.2019
1439 Clear 16 1014 52 10000 1 160 19:37 23.09.2019
1440 Clear 17 1014 52 10000 1 160 19:19 23.09.2019
1441 Clear 17 1014 52 10000 1 160 19:19 23.09.2019
1442 Clear 18 1013 45 10000 1 20 18:42 23.09.2019
1443 Clear 19 1013 45 10000 1 20 18:20 23.09.2019
1444 Clear 20 1013 43 10000 1.5 30 17:59 23.09.2019
1445 Clear 20 1013 40 10000 1.5 10 17:39 23.09.2019
1446 Clear 20 1013 40 10000 1.5 10 17:20 23.09.2019
1447 Clear 20 1013 37 10000 1 0 16:58 23.09.2019
1448 Clear 21 1013 43 10000 1.5 0 16:37 23.09.2019
1449 Clear 21 1013 43 10000 1.5 0 16:19 23.09.2019
1450 Clear 21 1013 40 10000 2.1 60 15:57 23.09.2019
1451 Clear 21 1013 42 10000 2.6 110 15:38 23.09.2019
1452 Clear 21 1013 42 10000 2.6 110 15:19 23.09.2019
1453 Clear 21 1013 45 10000 3.6 120 14:40 23.09.2019
1454 Clear 21 1013 45 10000 3.6 120 14:21 23.09.2019
1455 Clear 21 1013 42 10000 3.6 150 13:59 23.09.2019
1456 Clear 20 1013 45 10000 3.6 140 13:39 23.09.2019
1457 Clear 20 1013 45 10000 3.6 140 13:19 23.09.2019
1458 Clear 20 1013 48 10000 4.6 150 12:59 23.09.2019
1459 Clear 20 1013 45 10000 5.7 130 12:40 23.09.2019
1460 Clear 20 1013 45 10000 5.7 130 12:21 23.09.2019
1461 Clear 19 1013 45 10000 5.1 120 11:45 23.09.2019
1462 Clear 19 1013 45 10000 5.1 120 11:45 23.09.2019
1463 Clear 18 1013 45 10000 4.6 160 11:26 23.09.2019
1464 Clear 18 1013 48 10000 3.1 150 10:57 23.09.2019
1465 Clouds 17 976 65 0 2.1 188.5 10:39 23.09.2019
1466 Clear 16 1013 51 10000 4.6 160 10:20 23.09.2019
1467 Clear 16 1013 51 10000 4.6 160 10:20 23.09.2019
1468 Clear 14 1013 58 10000 4.6 150 09:40 23.09.2019
1469 Clear 13 1013 58 10000 4.6 150 09:21 23.09.2019
1470 Clear 12 1012 58 10000 4.6 160 08:58 23.09.2019
1471 Clear 11 1012 54 10000 3.6 150 08:38 23.09.2019
1472 Clear 9 1012 54 10000 3.6 150 08:18 23.09.2019
1473 Clear 9 1012 58 10000 4.1 150 07:33 23.09.2019
1474 Clear 9 1012 58 10000 4.1 150 06:53 23.09.2019
1475 Clear 8 1012 58 10000 3.6 150 06:20 23.09.2019
1476 Clouds 7 1012 80 0 2.02 174.405 05:28 23.09.2019
1477 Clouds 7 975 68 0 1.34 49 04:56 23.09.2019
1478 Clear 8 1012 62 10000 2.6 160 03:59 23.09.2019
1479 Clouds 9 974 67 0 1.79 96 01:25 23.09.2019
1480 Clear 11 1012 54 10000 4.1 140 00:38 23.09.2019
1481 Clear 11 1012 54 10000 4.1 140 00:18 23.09.2019
1482 Clear 11 1012 51 10000 3.6 130 23:40 22.09.2019
1483 Clear 12 1012 51 10000 3.6 130 23:21 22.09.2019
1484 Clear 12 1012 51 10000 2.6 120 22:55 22.09.2019
1485 Clear 12 1012 48 10000 2.6 110 22:37 22.09.2019
1486 Clear 13 1012 48 10000 2.6 110 22:19 22.09.2019
1487 Clear 13 1012 51 10000 3.1 120 21:43 22.09.2019
1488 Clear 14 1012 51 10000 3.1 120 21:21 22.09.2019
1489 Clear 14 1012 51 10000 3.1 120 20:45 22.09.2019
1490 Clear 15 1012 48 10000 3.6 120 20:27 22.09.2019
1491 Clear 15 1012 45 10000 3.1 120 19:59 22.09.2019
1492 Clear 15 1012 45 10000 3.1 120 19:59 22.09.2019
1493 Clear 16 1012 42 10000 3.1 120 19:41 22.09.2019
1494 Clear 17 1012 42 10000 3.1 120 19:21 22.09.2019
1495 Clear 17 1012 42 10000 3.1 120 19:21 22.09.2019
1496 Clear 17 1012 40 10000 3.6 130 18:57 22.09.2019
1497 Clear 18 1012 37 10000 4.1 130 18:38 22.09.2019
1498 Clear 19 1012 37 10000 4.1 130 18:18 22.09.2019
1499 Clear 20 1012 37 10000 4.6 120 17:56 22.09.2019
1500 Clear 21 1012 35 10000 5.1 120 17:37 22.09.2019
1501 Clear 21 1012 35 10000 5.1 120 17:18 22.09.2019
1502 Clear 22 1012 35 10000 5.7 130 16:42 22.09.2019
1503 Clear 22 1012 33 10000 5.1 130 16:23 22.09.2019
1504 Clear 22 1012 33 10000 4.1 140 15:47 22.09.2019
1505 Clear 22 1013 33 10000 5.7 130 15:28 22.09.2019
1506 Clear 22 1013 33 10000 6.2 140 14:59 22.09.2019
1507 Clear 22 1013 35 10000 6.2 140 14:40 22.09.2019
1508 Clear 22 1013 35 10000 6.2 140 14:22 22.09.2019
1509 Clear 22 1013 37 10000 5.1 140 13:55 22.09.2019
1510 Clear 22 1014 37 10000 5.1 150 13:36 22.09.2019
1511 Clear 21 1014 37 10000 5.1 150 13:18 22.09.2019
1512 Clear 21 1014 42 10000 7.2 150 12:42 22.09.2019
1513 Clear 20 1014 42 10000 7.2 150 12:22 22.09.2019
1514 Clear 20 1015 42 10000 5.1 140 11:56 22.09.2019
1515 Clear 19 1015 42 10000 7.2 140 11:38 22.09.2019
1516 Clear 19 1015 42 10000 7.2 140 11:19 22.09.2019
1517 Clear 18 1015 45 10000 6.2 140 10:44 22.09.2019
1518 Clear 17 1015 48 10000 7.2 150 10:20 22.09.2019
1519 Clear 16 1015 51 10000 7.7 150 09:57 22.09.2019
1520 Clear 16 1015 51 10000 6.2 150 09:38 22.09.2019
1521 Clear 15 1015 51 10000 6.2 150 09:19 22.09.2019
1522 Clear 13 1016 54 10000 5.7 150 08:44 22.09.2019
1523 Clear 12 1015 58 10000 5.7 150 08:24 22.09.2019
1524 Clear 11 1016 58 10000 5.7 150 07:54 22.09.2019
1525 Clear 10 1016 58 10000 5.7 150 07:36 22.09.2019
1526 Clear 9 1016 58 10000 5.7 150 07:18 22.09.2019
1527 Clear 10 1016 58 10000 4.6 150 06:46 22.09.2019
1528 Clear 9 1016 58 10000 4.6 140 05:23 22.09.2019
1529 Clear 10 1017 54 10000 5.1 140 03:31 22.09.2019
1530 Clear 11 1018 58 10000 4.6 150 02:37 22.09.2019
1531 Clear 10 1018 58 10000 4.6 150 02:18 22.09.2019
1532 Clear 10 1018 74 0 2.38 154.123 00:58 22.09.2019
1533 Clear 10 981 68 0 2.68 104 00:33 22.09.2019
1534 Clear 11 1019 62 10000 4.1 160 23:57 21.09.2019
1535 Clear 11 1019 71 10000 2.1 140 23:39 21.09.2019
1536 Clear 11 1019 71 10000 2.1 140 23:19 21.09.2019
1537 Clear 10 1018 93 0 2.54 163.844 22:39 21.09.2019
1538 Clear 11 1019 54 10000 3.6 150 22:21 21.09.2019
1539 Clear 12 1020 54 10000 2.6 160 21:42 21.09.2019
1540 Clear 12 1020 54 10000 2.6 150 21:20 21.09.2019
1541 Clear 13 1020 54 10000 2.1 150 20:59 21.09.2019
1542 Clear 13 1020 51 10000 2.1 140 20:38 21.09.2019
1543 Clear 14 1020 51 10000 2.1 140 20:19 21.09.2019
1544 Clear 14 1020 51 10000 2.1 140 20:19 21.09.2019
1545 Clear 15 1020 48 10000 2.6 130 19:47 21.09.2019
1546 Clear 16 1020 45 10000 3.1 130 19:23 21.09.2019
1547 Clear 17 1020 45 10000 3.1 130 18:55 21.09.2019
1548 Clear 17 1020 42 10000 3.6 110 18:37 21.09.2019
1549 Clear 19 1020 42 10000 3.6 110 18:18 21.09.2019
1550 Clear 21 1021 40 10000 2.6 110 17:40 21.09.2019
1551 Clear 21 1021 40 10000 2.6 110 17:21 21.09.2019
1552 Clear 21 1021 37 10000 2.6 110 16:43 21.09.2019
1553 Clear 21 1021 37 10000 2.1 0 16:24 21.09.2019
1554 Clear 20 1022 40 10000 2.6 200 15:56 21.09.2019
1555 Clear 21 1022 40 10000 2.6 220 15:38 21.09.2019
1556 Clear 21 1022 40 10000 2.6 220 15:19 21.09.2019
1557 Clear 21 1022 40 10000 1.5 0 14:43 21.09.2019
1558 Clear 21 1022 40 10000 1.5 0 14:43 21.09.2019
1559 Clear 21 1023 40 10000 2.1 170 14:24 21.09.2019
1560 Clear 20 1023 42 10000 3.1 220 13:42 21.09.2019
1561 Clear 20 1023 45 10000 3.1 200 13:23 21.09.2019
1562 Clear 19 1024 42 10000 1.5 0 12:57 21.09.2019
1563 Clear 19 1024 42 10000 1 0 12:39 21.09.2019
1564 Clear 18 1024 42 10000 1 0 12:20 21.09.2019
1565 Clear 17 1024 51 10000 1 0 11:51 21.09.2019
1566 Clear 17 1024 58 10000 1.5 40 11:25 21.09.2019
1567 Clear 15 1025 58 0 1 0 10:56 21.09.2019
1568 Clear 15 1025 66 10000 1.5 170 10:38 21.09.2019
1569 Clear 14 1025 66 10000 1.5 170 10:20 21.09.2019
1570 Clear 12 1025 76 10000 2.6 170 09:55 21.09.2019
1571 Clear 11 1025 81 10000 1 0 09:37 21.09.2019
1572 Clear 10 1025 81 10000 1 0 09:18 21.09.2019
1573 Clear 8 1025 87 10000 1 0 08:43 21.09.2019
1574 Clear 7 1024 93 10000 1 0 08:43 21.09.2019
1575 Clear 5 1025 93 10000 1.5 150 07:59 21.09.2019
1576 Clear 4 1024 93 10000 2.1 150 07:40 21.09.2019
1577 Clear 4 1024 93 10000 2.1 150 07:20 21.09.2019
1578 Clear 4 1025 93 10000 2.1 190 06:36 21.09.2019
1579 Clear 4 1025 93 10000 3.1 190 05:51 21.09.2019
1580 Clear 4 1025 93 10000 1 0 04:40 21.09.2019
1581 Clear 4 1026 93 10000 2.1 190 03:35 21.09.2019
1582 Clear 5 1026 87 10000 3.1 190 02:25 21.09.2019
1583 Clear 5 1027 91 0 2.31 176.331 01:49 21.09.2019
1584 Clear 5 1027 90 0 2.31 176.331 01:26 21.09.2019
1585 Clear 6 1027 81 10000 1 180 00:26 21.09.2019
1586 Clear 6 988 87 0 0.45 140 23:58 20.09.2019
1587 Clear 6 1027 88 0 1.88 195.351 23:30 20.09.2019
1588 Clear 6 1027 87 0 1.88 195.351 22:59 20.09.2019
1589 Clear 6 989 86 0 0.45 131 22:38 20.09.2019
1590 Clear 7 1027 84 0 1.88 195.351 22:20 20.09.2019
1591 Clear 7 989 85 0 1.88 195.351 21:55 20.09.2019
1592 Clear 8 989 84 0 1.88 195.351 21:37 20.09.2019
1593 Clouds 8 989 83 0 0.56 288.82 21:18 20.09.2019
1594 Clouds 9 1028 78 0 0.76 270.835 20:42 20.09.2019
1595 Clouds 9 989 78 0 0.76 270.835 20:21 20.09.2019
1596 Clouds 9 989 78 0 0.76 270.835 20:21 20.09.2019
1597 Clear 11 1027 58 10000 1 310 19:59 20.09.2019
1598 Clear 11 1027 54 10000 1.5 290 19:40 20.09.2019
1599 Clear 12 1027 54 10000 1.5 290 19:20 20.09.2019
1600 Clear 14 1027 47 10000 3.1 300 18:40 20.09.2019
1601 Clear 15 1027 47 10000 3.1 300 18:21 20.09.2019
1602 Clear 15 1027 47 10000 3.1 310 17:59 20.09.2019
1603 Clear 16 1027 47 10000 3.1 310 17:41 20.09.2019
1604 Clear 16 1027 47 10000 3.1 310 17:23 20.09.2019
1605 Clear 16 1027 47 10000 3.1 280 16:43 20.09.2019
1606 Clear 16 1027 47 10000 3.1 280 16:21 20.09.2019
1607 Clouds 16 1028 47 10000 5.1 310 15:58 20.09.2019
1608 Clouds 16 1028 47 10000 4.6 310 15:39 20.09.2019
1609 Clouds 16 1028 47 10000 4.6 310 15:21 20.09.2019
1610 Clouds 15 1028 50 10000 4.1 300 14:42 20.09.2019
1611 Clouds 15 1028 58 10000 4.1 310 14:19 20.09.2019
1612 Clouds 15 1028 58 10000 4.1 310 14:19 20.09.2019
1613 Clouds 15 1028 58 10000 4.1 310 13:48 20.09.2019
1614 Clouds 14 1029 58 10000 3.6 270 13:28 20.09.2019
1615 Clouds 14 1029 58 10000 3.6 270 12:58 20.09.2019
1616 Clouds 14 1029 58 10000 4.1 280 12:37 20.09.2019
1617 Clouds 14 1029 58 10000 4.1 280 12:19 20.09.2019
1618 Clouds 14 1029 58 10000 4.1 280 12:19 20.09.2019
1619 Clouds 14 1029 58 10000 4.1 280 12:19 20.09.2019
1620 Clouds 13 1029 62 10000 3.1 310 11:50 20.09.2019
1621 Clouds 12 1029 66 10000 3.6 270 11:22 20.09.2019
1622 Clear 12 1029 66 10000 3.1 270 10:57 20.09.2019
1623 Clouds 11 1029 71 10000 3.6 250 10:39 20.09.2019
1624 Clouds 10 1029 71 10000 3.6 250 10:19 20.09.2019
1625 Clear 9 1029 75 10000 3.6 250 09:38 20.09.2019
1626 Clear 7 1029 75 10000 3.6 250 09:18 20.09.2019
1627 Clouds 6 1028 86 10000 2.6 250 08:43 20.09.2019
1628 Clouds 6 1029 81 10000 2.6 250 08:43 20.09.2019
1629 Clouds 5 1028 86 10000 2.6 250 08:25 20.09.2019
1630 Clear 4 1028 86 10000 3.1 230 07:49 20.09.2019
1631 Clear 3 1028 93 10000 2.6 230 07:29 20.09.2019
1632 Clear 3 1028 93 10000 3.6 220 06:48 20.09.2019
1633 Clear 3 1028 86 10000 3.1 230 06:30 20.09.2019
1634 Clear 3 1028 86 10000 3.1 230 06:30 20.09.2019
1635 Clear 3 1028 86 10000 2.6 220 05:58 20.09.2019
1636 Clear 3 1028 86 10000 2.6 220 05:58 20.09.2019
1637 Clear 3 1028 86 10000 2.6 220 04:28 20.09.2019
1638 Clear 3 1028 86 10000 2.1 220 03:26 20.09.2019
1639 Clouds 4 990 88 0 3.05 229.101 01:50 20.09.2019
1640 Clear 4 1029 81 10000 3.1 220 01:31 20.09.2019
1641 Clear 5 1029 75 10000 2.1 240 00:33 20.09.2019
1642 Clouds 5 1029 87 0 1.91 261.007 23:46 19.09.2019
1643 Clouds 5 1029 86 0 1.91 261.007 23:27 19.09.2019
1644 Clouds 5 1029 85 0 1.91 261.007 22:59 19.09.2019
1645 Clouds 6 990 86 0 1.91 261.007 22:39 19.09.2019
1646 Clouds 6 990 86 0 0.45 215 22:21 19.09.2019
1647 Clouds 6 1029 81 0 1.91 261.007 21:57 19.09.2019
1648 Clouds 7 990 85 0 1.91 261.007 21:38 19.09.2019
1649 Clouds 7 990 83 0 0.45 235 21:19 19.09.2019
1650 Clear 8 1028 57 10000 1.5 250 20:43 19.09.2019
1651 Clear 9 1028 57 10000 1.5 260 20:23 19.09.2019
1652 Clear 10 1028 54 10000 1.5 260 19:58 19.09.2019
1653 Clouds 10 989 73 0 2.9 277.599 19:39 19.09.2019
1654 Clear 11 1028 54 10000 1.5 270 19:21 19.09.2019
1655 Clear 11 1027 50 10000 2.6 300 18:58 19.09.2019
1656 Clear 12 1027 50 10000 3.1 290 18:40 19.09.2019
1657 Clear 13 1027 50 10000 3.1 290 18:21 19.09.2019
1658 Clear 14 1027 47 10000 4.6 300 17:42 19.09.2019
1659 Clear 14 1027 47 10000 4.6 300 17:24 19.09.2019
1660 Clear 14 1027 47 10000 4.1 300 16:59 19.09.2019
1661 Clear 14 1027 47 10000 4.1 300 16:59 19.09.2019
1662 Clouds 14 1027 47 10000 4.6 310 16:40 19.09.2019
1663 Clouds 14 1027 47 10000 4.6 310 16:19 19.09.2019
1664 Clouds 14 1027 54 10000 4.6 310 15:40 19.09.2019
1665 Clouds 14 1027 54 10000 4.6 310 15:40 19.09.2019
1666 Clouds 14 1027 54 10000 4.6 310 15:21 19.09.2019
1667 Clouds 15 1028 54 10000 5.1 300 14:58 19.09.2019
1668 Rain 15 989 61 0 1.34 300 14:38 19.09.2019
1669 Clouds 14 1028 58 10000 4.6 310 14:20 19.09.2019
1670 Clouds 14 1028 62 10000 5.1 300 13:40 19.09.2019
1671 Clouds 14 1028 62 10000 5.1 300 13:40 19.09.2019
1672 Clouds 14 1028 62 10000 5.1 300 13:40 19.09.2019
1673 Clouds 14 1028 62 10000 5.1 300 13:21 19.09.2019
1674 Clouds 13 1028 66 10000 4.6 300 12:58 19.09.2019
1675 Clouds 13 1028 71 10000 4.6 300 12:36 19.09.2019
1676 Clouds 13 1028 71 10000 4.6 300 12:18 19.09.2019
1677 Rain 12 1028 70 0 5.08 308.554 11:41 19.09.2019
1678 Clouds 11 1027 76 10000 4.6 320 11:21 19.09.2019
1679 Clouds 11 1027 76 10000 4.6 290 10:58 19.09.2019
1680 Clouds 11 1027 76 10000 4.6 290 10:58 19.09.2019
1681 Clouds 11 1027 81 10000 3.6 300 10:38 19.09.2019
1682 Clouds 10 1027 81 10000 3.6 300 10:20 19.09.2019
1683 Clouds 10 1027 76 10000 4.1 300 09:55 19.09.2019
1684 Clouds 10 1027 76 10000 4.1 300 09:55 19.09.2019
1685 Clouds 10 1027 76 10000 4.1 300 09:55 19.09.2019
1686 Clouds 10 1027 76 10000 4.1 300 09:55 19.09.2019
1687 Clear 9 1026 81 10000 3.1 280 09:36 19.09.2019
1688 Clear 9 1026 81 10000 3.1 280 09:18 19.09.2019
1689 Clouds 8 1026 81 10000 3.1 270 08:48 19.09.2019
1690 Clear 8 1026 81 10000 2.6 270 08:22 19.09.2019
1691 Clear 7 1026 87 10000 3.1 290 07:43 19.09.2019
1692 Clouds 7 1026 75 10000 3.1 280 07:22 19.09.2019
1693 Clear 6 1025 81 10000 2.6 270 06:51 19.09.2019
1694 Clear 6 1025 75 10000 2.6 260 06:32 19.09.2019
1695 Clear 6 1025 75 10000 2.6 270 05:53 19.09.2019
1696 Clear 6 1025 81 10000 3.1 270 05:33 19.09.2019
1697 Clear 5 1025 81 10000 2.6 260 03:55 19.09.2019
1698 Clear 5 1025 81 10000 2.1 280 03:19 19.09.2019
1699 Clear 7 1024 81 10000 3.1 290 01:34 19.09.2019
1700 Clear 7 1024 76 10000 3.6 290 00:53 19.09.2019
1701 Clear 7 1024 76 10000 3.1 290 00:26 19.09.2019
1702 Clear 7 1024 76 10000 3.1 290 00:26 19.09.2019
1703 Clear 8 1024 71 10000 3.6 300 23:57 18.09.2019
1704 Clear 8 1024 76 10000 3.1 290 23:36 18.09.2019
1705 Clear 8 1024 76 10000 3.1 290 23:18 18.09.2019
1706 Clear 8 1023 70 10000 3.1 280 22:38 18.09.2019
1707 Clear 9 1023 70 10000 3.1 280 22:19 18.09.2019
1708 Clear 9 1023 66 10000 3.6 290 21:57 18.09.2019
1709 Clear 9 1023 66 10000 3.1 290 21:39 18.09.2019
1710 Clear 9 1023 66 10000 3.1 290 21:18 18.09.2019
1711 Clear 10 1023 62 10000 3.1 300 20:57 18.09.2019
1712 Clear 10 1023 62 10000 3.1 300 20:57 18.09.2019
1713 Clear 10 1023 58 10000 4.1 290 20:39 18.09.2019
1714 Clear 10 1023 58 10000 4.1 290 20:20 18.09.2019
1715 Clear 10 1023 58 10000 4.1 290 20:20 18.09.2019
1716 Clouds 10 1022 58 10000 3.6 300 19:56 18.09.2019
1717 Clouds 11 1022 58 10000 3.6 290 19:37 18.09.2019
1718 Clouds 11 1022 58 10000 3.6 290 19:18 18.09.2019
1719 Clouds 12 1022 58 10000 4.6 290 19:18 18.09.2019
1720 Clouds 12 1022 58 10000 4.6 290 18:54 18.09.2019
1721 Clouds 13 1022 62 10000 3.1 280 18:36 18.09.2019
1722 Clouds 13 1022 62 10000 3.1 280 18:18 18.09.2019
1723 Clear 14 1022 58 10000 5.1 280 17:54 18.09.2019
1724 Clear 14 1022 58 10000 4.1 290 17:36 18.09.2019
1725 Clear 14 1022 58 10000 4.1 290 17:18 18.09.2019
1726 Clouds 15 1022 54 10000 6.2 300 16:43 18.09.2019
1727 Clouds 14 1023 58 10000 5.7 320 16:22 18.09.2019
1728 Clouds 14 1023 62 10000 4.6 300 15:59 18.09.2019
1729 Clouds 14 1023 62 10000 4.6 300 15:59 18.09.2019
1730 Clouds 14 1023 62 10000 4.6 300 15:59 18.09.2019
1731 Clouds 14 1023 62 10000 4.6 300 15:59 18.09.2019
1732 Clouds 14 1023 71 10000 4.6 280 15:40 18.09.2019
1733 Clouds 13 1023 71 10000 4.6 280 15:20 18.09.2019
1734 Clouds 14 1023 71 10000 3.6 290 14:58 18.09.2019
1735 Clouds 14 1023 76 10000 4.1 290 14:40 18.09.2019
1736 Clouds 14 1023 76 10000 4.1 290 14:22 18.09.2019
1737 Clouds 14 1023 76 10000 4.1 290 14:22 18.09.2019
1738 Clouds 13 1023 81 10000 4.1 310 13:59 18.09.2019
1739 Clouds 13 1023 81 10000 4.1 310 13:59 18.09.2019
1740 Clouds 13 1023 66 10000 4.6 300 13:39 18.09.2019
1741 Clouds 13 1023 66 10000 4.6 300 13:18 18.09.2019
1742 Clouds 13 1023 66 10000 5.1 280 12:47 18.09.2019
1743 Clouds 13 1023 66 10000 5.7 290 12:29 18.09.2019
1744 Clouds 12 1023 71 10000 4.6 280 11:55 18.09.2019
1745 Clouds 12 1023 76 10000 4.6 280 11:37 18.09.2019
1746 Clouds 12 1023 76 10000 4.6 280 11:18 18.09.2019
1747 Clouds 11 1023 81 10000 4.6 270 10:40 18.09.2019
1748 Clouds 11 1023 81 10000 4.6 270 10:21 18.09.2019
1749 Clouds 10 1022 81 10000 4.6 270 09:58 18.09.2019
1750 Clouds 10 1022 81 10000 4.1 280 09:38 18.09.2019
1751 Clouds 9 1022 81 10000 4.1 280 09:20 18.09.2019
1752 Clouds 9 1021 87 10000 3.1 250 08:42 18.09.2019
1753 Clouds 8 1021 87 10000 3.1 250 08:24 18.09.2019
1754 Clouds 8 1021 93 10000 3.1 280 07:57 18.09.2019
1755 Clouds 7 1021 87 10000 3.6 280 07:39 18.09.2019
1756 Clouds 7 1021 87 10000 3.6 280 07:21 18.09.2019
1757 Clouds 7 1020 87 10000 2.6 270 06:40 18.09.2019
1758 Clouds 7 1020 87 10000 3.1 290 05:50 18.09.2019
1759 Clouds 8 1020 81 10000 4.6 300 04:52 18.09.2019
1760 Clouds 8 1019 87 10000 3.6 280 03:19 18.09.2019
1761 Rain 8 1019 87 10000 5.1 310 02:29 18.09.2019
1762 Clear 9 1018 76 0 6.2 290 01:21 18.09.2019
1763 Clear 9 1018 76 10000 5.1 280 00:49 18.09.2019
1764 Clear 9 1018 76 10000 5.7 280 00:21 18.09.2019
1765 Clear 9 1017 66 10000 6.2 290 23:45 17.09.2019
1766 Clear 9 1017 71 10000 5.7 290 23:22 17.09.2019
1767 Clear 10 1017 66 10000 7.2 300 22:43 17.09.2019
1768 Clear 10 1017 66 10000 7.2 300 22:24 17.09.2019
1769 Clouds 10 1016 71 10000 5.1 280 21:55 17.09.2019
1770 Clouds 10 1016 81 10000 3.6 280 21:37 17.09.2019
1771 Clouds 11 1016 81 10000 3.6 280 21:19 17.09.2019
1772 Clouds 11 1016 81 10000 4.1 310 20:58 17.09.2019
1773 Clouds 11 1015 81 10000 5.1 290 20:40 17.09.2019
1774 Clouds 11 1015 81 10000 5.1 290 20:40 17.09.2019
1775 Clouds 11 1015 81 10000 5.1 290 20:22 17.09.2019
1776 Clouds 11 1015 81 10000 5.1 290 20:22 17.09.2019
1777 Clouds 11 1015 81 10000 5.1 280 19:58 17.09.2019
1778 Rain 11 1014 81 10000 6.2 280 19:39 17.09.2019
1779 Rain 11 1014 81 10000 8.2 280 19:20 17.09.2019
1780 Rain 11 1014 81 10000 6.2 280 19:20 17.09.2019
1781 Rain 11 1014 81 10000 8.2 280 18:57 17.09.2019
1782 Rain 11 1014 93 10000 6.7 290 18:39 17.09.2019
1783 Rain 12 1014 93 10000 6.7 290 18:21 17.09.2019
1784 Clouds 13 1014 67 10000 6.7 290 17:46 17.09.2019
1785 Clouds 15 1014 67 10000 6.7 290 17:20 17.09.2019
1786 Clouds 15 1013 51 10000 7.2 280 16:59 17.09.2019
1787 Clouds 15 1014 54 10000 7.7 270 16:40 17.09.2019
1788 Clouds 15 1014 54 10000 7.7 270 16:22 17.09.2019
1789 Clouds 16 1014 51 10000 7.7 270 15:54 17.09.2019
1790 Clouds 16 1014 55 10000 7.7 270 15:36 17.09.2019
1791 Clouds 16 1014 55 10000 7.7 270 15:18 17.09.2019
1792 Clouds 15 1015 62 10000 7.7 270 14:54 17.09.2019
1793 Clouds 15 1015 58 10000 6.2 270 14:36 17.09.2019
1794 Clouds 15 1015 58 10000 6.2 270 14:18 17.09.2019
1795 Clouds 15 1016 62 10000 6.7 280 13:41 17.09.2019
1796 Clouds 15 1016 62 10000 6.7 280 13:22 17.09.2019
1797 Clouds 15 1016 62 10000 5.1 280 12:54 17.09.2019
1798 Clouds 14 1016 62 10000 6.2 270 12:36 17.09.2019
1799 Clouds 14 1016 62 10000 6.2 270 12:18 17.09.2019
1800 Clouds 14 1016 71 10000 4.6 290 11:41 17.09.2019
1801 Clouds 14 1016 71 10000 4.6 290 11:19 17.09.2019
1802 Clouds 13 1017 81 10000 5.1 270 10:42 17.09.2019
1803 Clouds 13 1017 81 10000 5.1 270 10:23 17.09.2019
1804 Clouds 13 1017 81 10000 5.1 270 09:59 17.09.2019
1805 Clouds 12 1017 93 10000 3.6 270 09:40 17.09.2019
1806 Clouds 12 1017 93 10000 3.6 270 09:40 17.09.2019
1807 Clouds 12 1017 93 10000 3.6 270 09:20 17.09.2019
1808 Clouds 12 1017 93 10000 3.6 270 09:20 17.09.2019
1809 Clouds 11 1017 93 8000 3.1 260 08:45 17.09.2019
1810 Clouds 11 1017 93 7000 3.1 260 08:25 17.09.2019
1811 Clouds 11 1017 93 7000 2.1 260 07:56 17.09.2019
1812 Clouds 11 1017 93 6000 1.5 270 07:38 17.09.2019
1813 Clouds 11 1017 93 6000 1.5 270 07:19 17.09.2019
1814 Clouds 11 1017 87 7000 2.1 270 06:45 17.09.2019
1815 Clouds 11 1017 93 8000 2.6 290 06:19 17.09.2019
1816 Clouds 11 1017 93 8000 2.6 290 06:19 17.09.2019
1817 Mist 11 1017 93 5000 3.1 290 05:38 17.09.2019
1818 Mist 11 1017 100 4800 2.6 280 04:28 17.09.2019
1819 Clouds 11 1017 100 6000 2.6 270 02:57 17.09.2019
1820 Clouds 11 1018 100 8000 2.1 260 02:38 17.09.2019
1821 Clouds 11 1018 100 10000 2.1 270 01:24 17.09.2019
1822 Clouds 11 1018 100 10000 2.1 280 00:33 17.09.2019
1823 Clouds 11 1018 100 10000 1.5 280 23:39 16.09.2019
1824 Clouds 11 1018 100 10000 1.5 280 23:19 16.09.2019
1825 -273 0 0 0 0 0 22:56 16.09.2019
1826 Rain 11 1018 93 10000 1.5 270 22:37 16.09.2019
1827 Rain 11 1018 93 10000 1.5 270 22:19 16.09.2019
1828 Rain 12 1018 93 3800 2.1 290 21:40 16.09.2019
1829 Rain 12 1018 93 3800 2.1 290 21:22 16.09.2019
1830 Rain 12 1018 100 6000 2.6 320 20:59 16.09.2019
1831 Rain 12 1017 100 3200 2.1 300 20:40 16.09.2019
1832 Rain 12 1017 100 3200 2.1 300 20:20 16.09.2019
1833 Rain 12 1018 93 3200 2.1 320 19:57 16.09.2019
1834 Rain 12 1017 100 3200 1.5 330 19:38 16.09.2019
1835 Rain 12 1017 100 3200 1.5 330 19:19 16.09.2019
1836 Rain 13 1017 100 4500 1.5 350 18:46 16.09.2019
1837 Rain 13 1017 93 6000 3.6 350 18:27 16.09.2019
1838 Rain 14 1017 93 5000 2.6 330 17:57 16.09.2019
1839 Rain 14 1017 93 5000 2.6 330 17:57 16.09.2019
1840 Rain 14 1017 93 5000 2.6 320 17:38 16.09.2019
1841 Rain 14 1017 93 5000 2.6 320 17:20 16.09.2019
1842 Rain 15 1017 87 10000 2.1 330 16:54 16.09.2019
1843 Rain 15 1017 82 10000 2.6 340 16:36 16.09.2019
1844 Rain 15 1017 82 10000 2.6 340 16:18 16.09.2019
1845 Clouds 15 1018 77 10000 2.6 320 15:54 16.09.2019
1846 Rain 15 1018 77 10000 2.1 330 15:36 16.09.2019
1847 Rain 16 1018 77 10000 2.1 330 15:18 16.09.2019
1848 Clouds 16 1018 72 10000 2.1 290 14:40 16.09.2019
1849 Clouds 17 1018 72 10000 2.1 290 14:22 16.09.2019
1850 Clouds 17 1019 67 10000 3.1 260 13:57 16.09.2019
1851 Clouds 16 1019 67 10000 3.6 260 13:38 16.09.2019
1852 Clouds 16 1019 67 10000 3.6 260 13:19 16.09.2019
1853 Clouds 16 1019 72 10000 2.6 260 12:42 16.09.2019
1854 Clouds 16 1019 72 10000 2.6 260 12:24 16.09.2019
1855 Rain 16 1019 72 10000 2.6 280 11:55 16.09.2019
1856 Clouds 15 1020 72 10000 2.1 260 11:37 16.09.2019
1857 Clouds 15 1020 72 10000 2.1 260 11:19 16.09.2019
1858 Clouds 15 1020 77 10000 2.1 360 10:38 16.09.2019
1859 Clouds 15 1020 77 10000 2.1 360 10:19 16.09.2019
1860 Clouds 14 1020 82 10000 2.1 310 09:57 16.09.2019
1861 Clouds 14 1020 82 10000 1.5 310 09:38 16.09.2019
1862 Clouds 14 1020 82 10000 1.5 310 09:19 16.09.2019
1863 Clouds 14 1020 82 10000 1 0 08:44 16.09.2019
1864 Clouds 14 1020 82 10000 1 0 08:25 16.09.2019
1865 Clouds 14 1019 76 10000 1.5 320 07:56 16.09.2019
1866 Clouds 14 1020 76 10000 1.5 310 07:37 16.09.2019
1867 Clouds 14 1019 82 10000 2.6 340 07:18 16.09.2019
1868 Clouds 14 1019 82 10000 2.6 340 06:44 16.09.2019
1869 Clouds 14 1019 87 10000 2.1 340 06:26 16.09.2019
1870 Clouds 14 1019 82 10000 2.1 350 05:46 16.09.2019
1871 Clouds 14 1019 72 10000 2.6 310 05:26 16.09.2019
1872 Clouds 14 1019 62 10000 2.1 250 04:33 16.09.2019
1873 Clear 13 1019 48 10000 3.1 270 01:57 16.09.2019
1874 Clear 13 1019 58 10000 2.6 240 00:44 16.09.2019
1875 Clear 14 1019 55 10000 2.6 230 00:25 16.09.2019
1876 Clear 13 1019 63 10000 2.6 230 23:42 15.09.2019
1877 Clear 14 1019 63 10000 2.6 230 23:21 15.09.2019
1878 Clear 14 1019 59 10000 2.6 230 22:56 15.09.2019
1879 Clouds 14 982 74 0 0.89 200 22:36 15.09.2019
1880 Clouds 14 982 74 0 4.47 249.354 22:18 15.09.2019
1881 Clear 15 1019 48 10000 2.6 260 21:55 15.09.2019
1882 Clear 15 1019 48 10000 2.6 260 21:55 15.09.2019
1883 Clear 15 1019 48 10000 2.6 260 21:55 15.09.2019
1884 Clear 16 1019 48 10000 1.5 260 21:37 15.09.2019
1885 Clear 16 1019 48 10000 1.5 260 21:18 15.09.2019
1886 Clear 17 1019 45 10000 1.5 260 20:43 15.09.2019
1887 Clear 18 1019 43 10000 1.5 270 20:25 15.09.2019
1888 Clear 18 1018 43 10000 2.1 260 19:47 15.09.2019
1889 Clear 20 1019 40 10000 2.1 270 19:26 15.09.2019
1890 Clear 21 1019 38 10000 2.6 260 18:55 15.09.2019
1891 Clear 21 1019 40 10000 3.1 270 18:36 15.09.2019
1892 Clear 23 1019 40 10000 3.1 270 18:18 15.09.2019
1893 Clear 24 1019 36 10000 5.7 270 17:41 15.09.2019
1894 Clear 24 1019 36 10000 5.7 270 17:22 15.09.2019
1895 Clear 24 1019 33 10000 4.6 270 16:57 15.09.2019
1896 Clear 24 1020 33 10000 4.6 260 16:38 15.09.2019
1897 Clear 25 1020 33 10000 4.6 260 16:20 15.09.2019
1898 Clear 25 1020 36 10000 5.7 270 15:55 15.09.2019
1899 Clear 24 1020 36 10000 5.1 270 15:36 15.09.2019
1900 Clear 24 1020 36 10000 5.1 270 15:18 15.09.2019
1901 Clear 24 1021 38 10000 5.7 260 14:42 15.09.2019
1902 Clear 24 1021 41 10000 5.7 270 14:23 15.09.2019
1903 Clear 24 1022 43 10000 5.7 290 13:55 15.09.2019
1904 Clear 23 1022 43 10000 5.7 270 13:37 15.09.2019
1905 Clear 24 1022 43 10000 5.7 270 13:18 15.09.2019
1906 Clouds 23 1022 49 10000 5.7 270 12:42 15.09.2019
1907 Clouds 23 1022 49 10000 5.7 270 12:23 15.09.2019
1908 Clouds 22 1023 56 10000 5.7 270 11:56 15.09.2019
1909 Clouds 22 1023 56 10000 4.6 270 11:38 15.09.2019
1910 Clouds 21 1023 56 10000 4.6 270 11:19 15.09.2019
1911 Clouds 20 1023 63 10000 4.1 230 10:42 15.09.2019
1912 Clear 19 1023 63 10000 3.6 210 10:22 15.09.2019
1913 Clear 17 1023 67 10000 3.6 200 09:58 15.09.2019
1914 Clear 17 1023 76 10000 4.6 190 09:37 15.09.2019
1915 Clear 14 1024 76 10000 4.6 190 09:19 15.09.2019
1916 Clear 14 1024 76 10000 4.6 190 08:45 15.09.2019
1917 Clear 12 1024 81 10000 4.1 180 08:26 15.09.2019
1918 Clear 10 1024 81 10000 2.1 150 07:48 15.09.2019
1919 Clear 10 1024 93 10000 2.1 150 07:26 15.09.2019
1920 Clear 10 1025 93 10000 2.1 170 06:39 15.09.2019
1921 Clear 8 1027 87 10000 1 160 03:25 15.09.2019
1922 Clear 7 1027 93 10000 1 0 02:32 15.09.2019
1923 Clear 8 1028 81 10000 1 0 01:39 15.09.2019
1924 Clear 8 1028 81 10000 1 0 01:39 15.09.2019
1925 Clear 8 1028 81 10000 1 0 01:19 15.09.2019
1926 Clear 8 1029 81 10000 2.6 160 00:41 15.09.2019
1927 Clear 8 1029 81 10000 2.6 160 00:21 15.09.2019
1928 Clouds 9 1029 86 0 1.31 150.657 23:58 14.09.2019
1929 Clouds 9 1029 86 0 1.31 150.657 23:58 14.09.2019
1930 Clouds 9 991 80 0 1.31 150.657 23:39 14.09.2019
1931 Clouds 9 1029 83 0 1.31 150.657 23:21 14.09.2019
1932 Clouds 9 1029 83 0 1.31 150.657 23:21 14.09.2019
1933 Clouds 9 1029 82 0 1.31 150.657 22:59 14.09.2019
1934 Clouds 9 991 83 0 1.31 150.657 22:40 14.09.2019
1935 Clouds 10 992 78 0 1.31 150.657 22:20 14.09.2019
1936 Clouds 10 992 78 0 1.31 150.657 21:55 14.09.2019
1937 Clouds 11 992 73 0 1.31 150.657 21:36 14.09.2019
1938 Clouds 11 992 73 0 1.31 150.657 21:36 14.09.2019
1939 Clouds 11 992 73 0 1.31 150.657 21:36 14.09.2019
1940 Clouds 11 992 68 0 1.14 60.823 21:18 14.09.2019
1941 Clouds 12 992 68 0 0.93 62.967 20:40 14.09.2019
1942 Clouds 12 992 68 0 0.93 62.967 20:40 14.09.2019
1943 Clouds 13 1030 71 0 0.93 62.967 20:22 14.09.2019
1944 Clouds 13 1030 69 0 0.93 62.967 19:59 14.09.2019
1945 Clouds 13 1030 69 0 0.93 62.967 19:59 14.09.2019
1946 Clouds 14 992 67 0 0.93 62.967 19:40 14.09.2019
1947 Clear 15 1030 48 10000 1.5 10 19:20 14.09.2019
1948 Clear 17 1030 39 10000 2.1 330 18:42 14.09.2019
1949 Clear 18 1030 39 10000 2.1 330 18:22 14.09.2019
1950 Clear 18 1031 39 10000 1 0 17:59 14.09.2019
1951 Clear 19 1031 39 10000 2.1 240 17:39 14.09.2019
1952 Clear 19 1031 39 10000 2.1 240 17:21 14.09.2019
1953 Clear 19 1031 39 10000 2.1 240 17:21 14.09.2019
1954 Clear 19 1031 39 10000 2.1 240 17:21 14.09.2019
1955 Clear 19 1031 39 10000 1 0 16:46 14.09.2019
1956 Clear 19 1032 39 10000 2.6 360 16:24 14.09.2019
1957 Clear 19 1032 34 10000 1.5 0 15:56 14.09.2019
1958 Clear 19 1032 34 10000 1.5 0 15:56 14.09.2019
1959 Clear 19 1032 39 10000 1 0 15:38 14.09.2019
1960 Clear 19 1032 39 10000 1 0 15:19 14.09.2019
1961 Clouds 19 1033 42 10000 2.1 0 14:43 14.09.2019
1962 Clouds 19 1033 42 10000 2.1 0 14:19 14.09.2019
1963 Clouds 19 1033 42 10000 2.1 0 14:19 14.09.2019
1964 Clouds 18 1033 48 10000 3.1 350 13:48 14.09.2019
1965 Clouds 18 1033 42 10000 2.1 0 13:23 14.09.2019
1966 Clouds 18 1034 48 10000 2.6 360 12:59 14.09.2019
1967 Clouds 17 1034 48 10000 3.1 360 12:38 14.09.2019
1968 Clouds 18 1034 48 10000 3.1 360 12:18 14.09.2019
1969 Clouds 17 1034 51 10000 1.5 0 11:40 14.09.2019
1970 Clouds 17 1034 51 10000 1.5 0 11:19 14.09.2019
1971 Clouds 16 1034 62 10000 2.1 110 10:39 14.09.2019
1972 Clouds 16 1034 62 10000 2.1 110 10:20 14.09.2019
1973 Clear 14 1034 67 0 2.1 110 09:57 14.09.2019
1974 Clouds 14 1034 67 10000 1 0 09:39 14.09.2019
1975 Clouds 13 1034 67 10000 1 0 09:19 14.09.2019
1976 Clouds 12 1034 76 10000 1.24 21.844 08:47 14.09.2019
1977 Clouds 11 1034 76 10000 0.5 110 08:25 14.09.2019
1978 Clear 10 1034 87 10000 1 40 07:48 14.09.2019
1979 Clear 10 1034 87 10000 1 40 07:48 14.09.2019
1980 Clouds 9 1034 81 10000 0.5 20 07:28 14.09.2019
1981 Clouds 10 1034 81 10000 1 320 06:52 14.09.2019
1982 Clouds 10 1033 81 10000 0.5 0 06:31 14.09.2019
1983 Clouds 12 1033 81 10000 2.6 350 05:27 14.09.2019
1984 Clouds 12 1033 71 10000 1 0 03:46 14.09.2019
1985 Clear 13 1033 71 10000 2.1 70 02:55 14.09.2019
1986 Clear 14 1033 76 10000 1.5 10 01:59 14.09.2019
1987 Clear 14 1033 67 10000 2.1 30 01:39 14.09.2019
1988 Clear 14 1033 67 10000 2.1 30 01:18 14.09.2019
1989 Clouds 14 1033 77 10000 2.1 10 00:39 14.09.2019
1990 Clouds 15 1033 77 10000 2.1 10 00:21 14.09.2019
1991 Clouds 15 1033 72 10000 2.1 350 23:54 13.09.2019
1992 Clouds 15 1032 72 10000 2.1 360 23:36 13.09.2019
1993 Clouds 15 1032 72 10000 2.1 360 23:18 13.09.2019
1994 Clouds 16 1032 72 10000 3.1 20 22:39 13.09.2019
1995 Clouds 16 1032 72 10000 3.1 20 22:20 13.09.2019
1996 Clouds 16 1031 77 10000 2.6 360 21:56 13.09.2019
1997 Clouds 17 1031 72 10000 1.5 360 21:38 13.09.2019
1998 Clouds 17 1031 72 10000 1.5 360 21:19 13.09.2019
1999 Clouds 17 1031 72 10000 2.1 350 20:57 13.09.2019
2000 Clouds 17 1031 72 10000 2.6 360 20:37 13.09.2019
2001 Clouds 17 1031 72 10000 2.6 360 20:18 13.09.2019
2002 Clouds 17 1030 72 10000 3.6 350 19:44 13.09.2019
2003 Clouds 19 1030 68 10000 4.1 350 19:22 13.09.2019
2004 Clouds 19 1029 68 10000 4.1 290 18:59 13.09.2019
2005 Clouds 20 1029 64 10000 5.1 260 18:38 13.09.2019
2006 Clouds 20 1029 64 10000 5.1 260 18:38 13.09.2019
2007 Clouds 20 1029 64 10000 5.1 260 18:19 13.09.2019
2008 Rain 21 1029 71 0 4.19 320.907 17:44 13.09.2019
2009 Clouds 21 1029 64 10000 4.6 270 17:22 13.09.2019
2010 Clouds 21 1029 64 10000 4.6 280 16:59 13.09.2019
2011 Clouds 21 1029 64 10000 4.6 280 16:59 13.09.2019
2012 Clouds 21 1029 68 10000 4.1 280 16:40 13.09.2019
2013 Clouds 21 1029 68 10000 4.1 280 16:19 13.09.2019
2014 Clouds 21 1029 68 10000 6.2 300 15:42 13.09.2019
2015 Clouds 21 1029 68 10000 6.2 300 15:24 13.09.2019
2016 Clouds 20 1029 68 10000 6.2 290 14:56 13.09.2019
2017 Clouds 21 1029 68 10000 3.6 280 14:37 13.09.2019
2018 Clouds 21 1029 68 10000 3.6 280 14:37 13.09.2019
2019 Clouds 20 1029 68 10000 3.6 280 14:19 13.09.2019
2020 Clouds 21 1029 64 10000 4.1 280 13:44 13.09.2019
2021 Clouds 21 1029 64 10000 4.1 280 13:22 13.09.2019
2022 Clouds 21 1029 68 10000 5.1 280 12:46 13.09.2019
2023 Clouds 21 1029 68 10000 4.6 260 12:25 13.09.2019
2024 Clouds 20 1029 68 10000 4.6 260 11:57 13.09.2019
2025 Clouds 20 1029 68 10000 4.1 270 11:21 13.09.2019
2026 Clouds 19 1029 72 10000 3.6 260 10:59 13.09.2019
2027 Clouds 19 1029 72 10000 3.1 250 10:37 13.09.2019
2028 Clouds 19 1029 72 10000 3.1 250 10:18 13.09.2019
2029 Clouds 18 1029 72 10000 4.1 260 09:43 13.09.2019
2030 Clear 18 1029 72 10000 3.6 240 09:23 13.09.2019
2031 Clear 17 1028 77 10000 3.1 220 08:58 13.09.2019
2032 Clouds 17 1028 77 10000 3.6 240 08:40 13.09.2019
2033 Clouds 16 1028 77 10000 3.6 240 08:20 13.09.2019
2034 Clouds 16 1028 77 10000 3.6 240 08:20 13.09.2019
2035 Clouds 15 1028 82 10000 3.1 240 07:44 13.09.2019
2036 Clouds 15 1028 82 10000 3.1 240 07:26 13.09.2019
2037 Clear 14 1028 77 10000 3.1 240 06:41 13.09.2019
2038 Clouds 17 1028 77 10000 3.1 230 05:43 13.09.2019
2039 Clear 16 1028 82 10000 3.1 220 04:39 13.09.2019
2040 Clear 14 1028 82 10000 3.1 210 03:38 13.09.2019
2041 Clear 14 1029 82 10000 3.1 200 02:20 13.09.2019
2042 Clear 14 1029 82 10000 3.1 200 01:42 13.09.2019
2043 Clear 14 1029 82 10000 3.1 200 01:21 13.09.2019
2044 Clear 14 1029 77 10000 3.6 210 00:37 13.09.2019
2045 Clear 14 1029 77 10000 3.1 200 23:58 12.09.2019
2046 Clear 14 1029 82 10000 3.1 210 23:35 12.09.2019
2047 Clear 14 1029 82 10000 3.1 200 22:59 12.09.2019
2048 Clear 14 1028 82 10000 4.1 190 22:41 12.09.2019
2049 Clear 14 1028 82 10000 4.1 190 22:23 12.09.2019
2050 Clear 15 1029 82 10000 2.6 200 21:57 12.09.2019
2051 Clear 15 1029 77 10000 2.6 210 21:37 12.09.2019
2052 Clear 15 1029 77 10000 2.6 210 21:19 12.09.2019
2053 Clear 15 1029 77 10000 2.6 210 21:19 12.09.2019
2054 Clear 16 1028 77 10000 2.6 220 20:55 12.09.2019
2055 Clouds 16 991 88 0 0.45 200 20:37 12.09.2019
2056 Clouds 17 1028 72 10000 2.1 230 20:19 12.09.2019
2057 Clouds 18 1028 64 10000 2.1 250 19:41 12.09.2019
2058 Clouds 19 1028 64 10000 2.1 250 19:20 12.09.2019
2059 Clouds 19 1028 60 10000 3.1 270 18:58 12.09.2019
2060 Clouds 20 1028 60 10000 2.6 260 18:37 12.09.2019
2061 Clouds 20 1028 60 10000 2.6 260 18:18 12.09.2019
2062 Clouds 20 1028 60 10000 3.1 270 17:56 12.09.2019
2063 Clouds 20 1028 56 10000 4.6 280 17:38 12.09.2019
2064 Clouds 21 1028 56 10000 4.6 280 17:19 12.09.2019
2065 Clouds 21 1028 60 10000 4.6 290 16:41 12.09.2019
2066 Clouds 22 1028 60 10000 4.6 290 16:21 12.09.2019
2067 Clouds 21 1029 64 10000 4.1 280 15:45 12.09.2019
2068 Clouds 21 1028 68 10000 4.1 230 15:27 12.09.2019
2069 Clouds 21 1029 68 10000 3.6 240 14:58 12.09.2019
2070 Rain 21 990 69 0 3.13 202 14:40 12.09.2019
2071 Rain 21 990 69 0 3.13 202 14:40 12.09.2019
2072 Clouds 20 1029 68 10000 3.6 250 14:21 12.09.2019
2073 Clouds 20 1029 68 10000 3.6 250 13:39 12.09.2019
2074 Clouds 19 1029 68 10000 3.6 250 13:21 12.09.2019
2075 Clouds 18 1029 72 10000 3.6 270 12:49 12.09.2019
2076 Clouds 18 1029 72 10000 4.1 270 12:20 12.09.2019
2077 Clouds 18 1029 72 10000 4.1 270 12:20 12.09.2019
2078 Clouds 18 1029 77 10000 4.1 270 11:59 12.09.2019
2079 Clouds 18 1028 77 10000 3.6 270 11:40 12.09.2019
2080 Clouds 17 1028 77 10000 3.6 270 11:21 12.09.2019
2081 Clouds 17 1028 77 10000 4.1 240 10:56 12.09.2019
2082 Clouds 17 1028 77 10000 4.1 240 10:37 12.09.2019
2083 Clouds 17 1028 77 10000 4.1 240 10:37 12.09.2019
2084 Clouds 16 1028 77 10000 4.1 240 10:18 12.09.2019
2085 Clouds 16 1027 77 10000 2.6 240 09:43 12.09.2019
2086 Clouds 15 1027 77 10000 2.6 240 09:20 12.09.2019
2087 Clouds 14 1027 77 10000 2.6 250 08:45 12.09.2019
2088 Clouds 14 1027 72 10000 3.1 250 08:25 12.09.2019
2089 Clouds 13 1027 67 10000 3.6 250 07:56 12.09.2019
2090 Clouds 13 1026 67 10000 2.1 260 07:38 12.09.2019
2091 Clouds 13 1026 67 10000 2.6 240 07:18 12.09.2019
2092 Clouds 13 1026 67 10000 2.6 240 06:46 12.09.2019
2093 Clear 13 1026 67 10000 3.1 220 06:19 12.09.2019
2094 Clear 12 1026 67 10000 3.1 220 05:47 12.09.2019
2095 Clear 12 1026 71 10000 2.6 230 05:27 12.09.2019
2096 Clear 12 1025 58 10000 3.1 230 04:31 12.09.2019
2097 Clear 12 1024 67 10000 2.6 220 01:47 12.09.2019
2098 Clear 12 1024 67 10000 2.6 220 01:28 12.09.2019
2099 Clear 11 1024 67 10000 2.6 210 00:50 12.09.2019
2100 Clear 12 1024 67 10000 2.6 220 00:31 12.09.2019
2101 Clear 12 1024 71 10000 3.1 210 23:57 11.09.2019
2102 Clear 12 1024 71 10000 3.1 200 23:37 11.09.2019
2103 Clear 12 1024 71 10000 3.1 200 23:19 11.09.2019
2104 Clear 13 1024 71 10000 3.6 200 22:55 11.09.2019
2105 Clear 13 1024 67 10000 3.1 200 22:37 11.09.2019
2106 Clear 13 1024 67 10000 3.1 200 22:18 11.09.2019
2107 Clear 13 1024 67 10000 3.1 200 22:18 11.09.2019
2108 Clouds 14 986 77 0 0.89 202 21:41 11.09.2019
2109 Clouds 14 1023 73 0 3.46 218.088 21:23 11.09.2019
2110 Clouds 14 986 74 0 0.89 188 20:57 11.09.2019
2111 Clouds 15 986 73 0 0.45 143 20:38 11.09.2019
2112 Clouds 16 1023 73 0 3.42 213.114 20:19 11.09.2019
2113 Clear 17 1023 48 10000 0.5 0 19:58 11.09.2019
2114 Clouds 17 985 60 0 3.42 213.114 19:39 11.09.2019
2115 Clouds 17 985 60 0 3.42 213.114 19:39 11.09.2019
2116 Clouds 17 985 60 0 3.42 213.114 19:39 11.09.2019
2117 Clear 18 1022 45 10000 1.5 300 19:19 11.09.2019
2118 Clear 18 1022 40 10000 3.1 300 18:56 11.09.2019
2119 Clear 19 1022 35 10000 2.6 280 18:38 11.09.2019
2120 Clear 21 1022 35 10000 2.6 280 18:19 11.09.2019
2121 Clear 21 1022 37 10000 2.6 260 17:55 11.09.2019
2122 Clear 22 1022 35 10000 3.1 280 17:37 11.09.2019
2123 Clear 22 1022 35 10000 3.1 280 17:18 11.09.2019
2124 Clear 22 1022 35 10000 2.1 0 16:42 11.09.2019
2125 Clear 22 1022 35 10000 2.1 0 16:23 11.09.2019
2126 Clear 22 1022 37 10000 3.6 290 15:47 11.09.2019
2127 Clear 22 1022 37 10000 3.1 230 15:24 11.09.2019
2128 Clear 22 1023 40 10000 1.5 0 14:59 11.09.2019
2129 Clear 22 1023 37 10000 2.6 0 14:41 11.09.2019
2130 Clear 22 1023 37 10000 2.6 0 14:21 11.09.2019
2131 Clear 21 1023 40 10000 3.1 200 13:59 11.09.2019
2132 Clear 21 1023 42 10000 1.5 0 13:37 11.09.2019
2133 -273 0 0 0 0 0 13:19 11.09.2019
2134 Clouds 20 1023 42 10000 2.1 210 12:43 11.09.2019
2135 Clouds 20 1023 42 10000 2.1 210 12:22 11.09.2019
2136 Clouds 20 1023 47 0 1.01 147.394 11:58 11.09.2019
2137 Clouds 19 1024 55 10000 1.5 170 11:39 11.09.2019
2138 Clouds 19 1024 55 10000 1.5 170 11:39 11.09.2019
2139 Clouds 18 1024 55 10000 1.5 170 11:21 11.09.2019
2140 Clear 18 1024 62 10000 1.5 180 10:55 11.09.2019
2141 Clear 17 1023 67 10000 1.5 200 10:37 11.09.2019
2142 Clear 16 1023 67 10000 1.5 200 10:18 11.09.2019
2143 Clouds 14 985 70 0 0.89 109 09:38 11.09.2019
2144 Clear 12 1023 81 10000 1 0 09:19 11.09.2019
2145 Clear 10 1023 87 10000 2.6 200 08:42 11.09.2019
2146 Clear 9 1023 93 10000 2.6 200 08:22 11.09.2019
2147 Clear 8 1023 100 10000 1.5 190 07:59 11.09.2019
2148 Clear 7 1022 93 10000 0.5 0 07:39 11.09.2019
2149 Clear 7 1022 93 10000 0.5 0 07:21 11.09.2019
2150 Clear 7 1022 93 10000 1.5 180 06:46 11.09.2019
2151 Clear 6 1022 93 10000 1.5 150 06:24 11.09.2019
2152 Clear 6 1021 100 10000 1 0 05:36 11.09.2019
2153 Clear 7 1021 100 10000 2.6 190 04:59 11.09.2019
2154 Clear 7 1021 93 10000 3.1 180 04:22 11.09.2019
2155 Clear 7 1021 93 10000 3.6 190 03:29 11.09.2019
2156 Clear 8 1021 93 10000 2.6 190 02:37 11.09.2019
2157 Clear 8 983 87 0 0.89 186 01:42 11.09.2019
2158 Clear 8 1021 93 10000 2.1 180 00:46 11.09.2019
2159 Clouds 8 983 86 0 0.89 141 00:20 11.09.2019
2160 Clouds 9 983 85 0 0.45 128 23:41 10.09.2019
2161 Clouds 9 983 87 0 0.89 119 23:22 10.09.2019
2162 Clouds 9 1021 88 0 2.17 188.328 22:59 10.09.2019
2163 Clouds 10 983 85 0 0.89 143 22:41 10.09.2019
2164 Clouds 10 983 86 0 0.45 183 22:19 10.09.2019
2165 Clouds 10 983 86 0 0.45 183 22:19 10.09.2019
2166 Clouds 10 982 85 0 0.45 174 21:55 10.09.2019
2167 Clouds 10 983 83 0 0.89 138 21:37 10.09.2019
2168 Clouds 11 982 83 0 0.45 130 21:18 10.09.2019
2169 Clouds 11 982 78 0 1.24 255.784 20:57 10.09.2019
2170 Clouds 12 982 75 0 0.45 283.262 20:38 10.09.2019
2171 Clouds 13 1019 79 0 0.45 283.262 20:19 10.09.2019
2172 Clouds 13 1019 79 0 0.45 283.262 20:19 10.09.2019
2173 Clouds 13 1018 90 0 0.45 283.262 19:56 10.09.2019
2174 Clear 15 1019 55 10000 1.5 280 19:37 10.09.2019
2175 Clear 16 1019 55 10000 1.5 280 19:19 10.09.2019
2176 Clear 17 1019 55 10000 2.6 280 18:55 10.09.2019
2177 Clear 17 1018 48 10000 3.6 270 18:37 10.09.2019
2178 Clear 18 1018 48 10000 3.6 270 18:18 10.09.2019
2179 Clear 18 1018 48 10000 3.6 260 17:42 10.09.2019
2180 Clear 18 1018 48 10000 3.6 260 17:21 10.09.2019
2181 Clear 18 1018 48 10000 3.6 270 16:58 10.09.2019
2182 Clear 18 1018 51 10000 3.6 260 16:39 10.09.2019
2183 Clear 18 1018 51 10000 3.6 260 16:20 10.09.2019
2184 Clouds 18 1018 51 10000 3.6 260 15:57 10.09.2019
2185 Clouds 18 1017 48 10000 5.1 250 15:39 10.09.2019
2186 Clouds 18 1017 48 10000 5.1 250 15:20 10.09.2019
2187 Clouds 17 1017 51 10000 5.7 250 14:41 10.09.2019
2188 Clouds 17 1017 51 10000 5.7 250 14:23 10.09.2019
2189 Clouds 17 1017 55 10000 5.1 270 13:54 10.09.2019
2190 Clouds 17 1017 55 10000 5.7 270 13:36 10.09.2019
2191 Clouds 17 1017 55 10000 5.7 270 13:36 10.09.2019
2192 Clouds 17 1017 55 10000 5.7 270 13:18 10.09.2019
2193 Clouds 17 1017 63 10000 6.2 270 12:42 10.09.2019
2194 Clouds 17 1017 63 10000 6.2 270 12:24 10.09.2019
2195 Clouds 17 1017 67 10000 5.7 270 11:56 10.09.2019
2196 Clouds 16 1017 67 10000 5.1 250 11:38 10.09.2019
2197 Clouds 16 1017 67 10000 5.1 250 11:20 10.09.2019
2198 Clear 15 1017 76 10000 4.1 260 10:39 10.09.2019
2199 Clear 15 1017 76 10000 4.1 260 10:19 10.09.2019
2200 Clear 15 1017 76 10000 4.1 260 10:19 10.09.2019
2201 Clouds 14 1016 82 10000 4.6 260 09:55 10.09.2019
2202 Clouds 13 1016 82 10000 4.1 250 09:37 10.09.2019
2203 Clouds 13 1016 82 10000 4.1 250 09:18 10.09.2019
2204 Clouds 12 1015 87 10000 3.1 230 08:43 10.09.2019
2205 Clouds 11 1015 87 10000 3.6 240 08:24 10.09.2019
2206 Clouds 11 1015 87 10000 4.1 240 07:44 10.09.2019
2207 Clouds 10 1015 87 10000 4.1 240 07:26 10.09.2019
2208 Clouds 10 1015 87 10000 4.1 240 07:26 10.09.2019
2209 Clear 10 1014 87 10000 4.1 250 06:53 10.09.2019
2210 Clear 10 1014 93 10000 4.1 230 06:35 10.09.2019
2211 Clouds 11 1014 87 10000 3.6 250 05:24 10.09.2019
2212 Clouds 11 1013 93 10000 3.6 260 03:51 10.09.2019
2213 Clouds 12 1013 93 10000 4.1 260 02:23 10.09.2019
2214 Clouds 12 1013 93 10000 4.1 260 02:23 10.09.2019
2215 Clouds 12 1013 93 10000 4.1 260 02:23 10.09.2019
2216 Clouds 11 1013 93 10000 2.6 270 01:57 10.09.2019
2217 Clouds 12 1013 93 10000 2.6 270 01:57 10.09.2019
2218 Clouds 11 1013 93 10000 3.1 270 01:39 10.09.2019
2219 Clouds 11 1013 93 10000 3.1 280 00:54 10.09.2019
2220 Rain 11 1013 93 10000 3.6 270 00:25 10.09.2019
2221 Rain 11 1012 93 10000 4.6 270 23:47 09.09.2019
2222 Rain 11 1012 93 10000 4.6 270 23:20 09.09.2019
2223 Rain 11 1012 93 10000 4.6 270 22:57 09.09.2019
2224 Rain 11 1012 100 8000 5.1 280 22:39 09.09.2019
2225 Rain 11 1012 100 8000 5.1 280 22:20 09.09.2019
2226 Rain 11 1012 100 9000 5.7 290 21:58 09.09.2019
2227 Rain 11 1011 93 9000 7.7 310 21:39 09.09.2019
2228 Rain 11 1011 93 9000 7.7 310 21:20 09.09.2019
2229 Rain 12 1011 93 8000 7.7 300 20:57 09.09.2019
2230 Rain 12 1010 93 6000 7.2 300 20:37 09.09.2019
2231 Rain 12 1010 93 6000 7.2 300 20:19 09.09.2019
2232 Rain 12 1010 93 4000 7.2 300 19:58 09.09.2019
2233 Rain 12 1010 93 4000 7.2 300 19:39 09.09.2019
2234 Rain 12 1009 100 6000 6.2 290 19:19 09.09.2019
2235 Rain 12 1009 100 6000 6.2 290 18:58 09.09.2019
2236 Rain 12 1009 100 4800 6.7 290 18:40 09.09.2019
2237 Rain 12 1009 100 4800 6.7 290 18:21 09.09.2019
2238 Rain 13 1008 100 6000 4.1 300 17:58 09.09.2019
2239 Rain 13 1008 93 3200 3.1 280 17:40 09.09.2019
2240 Rain 13 1008 93 3200 3.1 280 17:21 09.09.2019
2241 -273 0 0 0 0 0 16:56 09.09.2019
2242 Rain 13 1008 93 7000 2.1 280 16:38 09.09.2019
2243 Rain 13 1008 93 7000 2.1 280 16:38 09.09.2019
2244 Rain 14 1008 93 7000 2.1 280 16:20 09.09.2019
2245 Rain 14 1008 93 6000 2.1 290 15:56 09.09.2019
2246 Rain 13 1008 93 6000 2.1 290 15:56 09.09.2019
2247 Rain 13 1008 93 6000 2.1 290 15:56 09.09.2019
2248 Rain 13 1008 93 3500 1.5 280 15:37 09.09.2019
2249 Rain 13 1008 93 3500 1.5 280 15:37 09.09.2019
2250 Rain 13 1008 93 3500 1.5 280 15:18 09.09.2019
2251 Rain 13 1008 100 4500 2.6 330 14:55 09.09.2019
2252 Rain 13 1008 100 5000 2.6 350 14:37 09.09.2019
2253 Rain 13 1008 100 5000 2.6 350 14:19 09.09.2019
2254 Rain 13 1008 100 5000 2.6 350 14:19 09.09.2019
2255 Rain 13 1008 93 7000 3.1 350 13:44 09.09.2019
2256 Rain 13 1008 93 7000 3.1 350 13:20 09.09.2019
2257 Rain 13 1008 93 7000 2.6 360 12:58 09.09.2019
2258 Rain 13 1008 93 7000 2.6 350 12:38 09.09.2019
2259 Rain 13 1008 93 7000 2.6 350 12:20 09.09.2019
2260 Rain 13 1009 100 5000 2.6 350 11:47 09.09.2019
2261 Rain 13 1009 100 5000 2.6 350 11:47 09.09.2019
2262 Drizzle 13 1009 100 5000 2.6 350 11:23 09.09.2019
2263 Rain 13 1009 100 3000 2.1 340 10:59 09.09.2019
2264 Rain 12 1009 100 2000 3.1 360 10:41 09.09.2019
2265 Rain 12 1009 100 2000 3.1 360 10:21 09.09.2019
2266 Rain 12 1009 100 6000 3.6 360 09:57 09.09.2019
2267 Rain 12 1009 100 6000 4.1 360 09:38 09.09.2019
2268 Rain 12 1009 100 6000 4.1 360 09:19 09.09.2019
2269 Rain 12 1010 100 4000 3.1 360 08:39 09.09.2019
2270 Rain 12 1010 100 2300 2.6 20 08:20 09.09.2019
2271 Rain 12 1010 100 2300 2.6 20 07:47 09.09.2019
2272 Rain 12 1010 100 3800 3.6 20 07:23 09.09.2019
2273 Rain 12 1011 100 3500 3.6 20 06:58 09.09.2019
2274 Rain 12 1011 100 6000 3.1 20 06:40 09.09.2019
2275 Rain 12 1012 100 10000 3.1 20 04:56 09.09.2019
2276 Rain 12 1013 93 10000 3.1 30 02:59 09.09.2019
2277 Rain 12 1014 93 10000 3.1 30 02:39 09.09.2019
2278 Rain 13 1015 87 10000 2.1 30 00:50 09.09.2019
2279 Rain 13 1015 87 10000 2.1 30 00:22 09.09.2019
2280 Rain 13 1016 82 10000 0.5 0 23:46 08.09.2019
2281 Rain 13 1016 82 10000 0.5 0 23:26 08.09.2019
2282 Rain 14 1016 77 10000 2.1 100 22:57 08.09.2019
2283 Rain 14 1016 72 10000 2.6 90 22:38 08.09.2019
2284 Rain 14 1016 72 10000 2.6 110 22:20 08.09.2019
2285 Rain 14 1016 72 10000 2.6 110 21:57 08.09.2019
2286 Rain 14 1016 63 10000 3.1 80 21:38 08.09.2019
2287 Rain 15 1016 63 10000 3.1 80 21:20 08.09.2019
2288 Clouds 15 1016 55 10000 4.1 70 20:40 08.09.2019
2289 Clouds 16 1016 55 10000 4.1 70 20:22 08.09.2019
2290 Clouds 16 1016 52 10000 3.6 60 19:59 08.09.2019
2291 Clouds 16 1016 52 10000 3.6 60 19:39 08.09.2019
2292 Clouds 16 1016 52 10000 3.6 60 19:21 08.09.2019
2293 Clear 17 1016 52 10000 3.6 50 18:58 08.09.2019
2294 Clear 17 1016 52 10000 4.1 60 18:39 08.09.2019
2295 Clear 17 1016 52 10000 4.1 60 18:19 08.09.2019
2296 Clear 18 1016 45 10000 3.6 60 17:57 08.09.2019
2297 Clear 18 1016 45 10000 2.6 50 17:37 08.09.2019
2298 Clouds 18 1016 45 10000 2.6 40 17:18 08.09.2019
2299 Clouds 19 1016 45 10000 2.6 40 16:54 08.09.2019
2300 Clouds 19 1016 45 10000 3.1 40 16:36 08.09.2019
2301 Clouds 19 1017 45 10000 2.1 70 16:18 08.09.2019
2302 Clouds 19 1017 52 10000 1.5 50 15:41 08.09.2019
2303 Clouds 19 1017 52 10000 1.5 50 15:22 08.09.2019
2304 Clouds 19 1017 48 10000 1.5 0 14:59 08.09.2019
2305 Clouds 19 1017 52 10000 2.1 0 14:39 08.09.2019
2306 Clouds 19 1017 52 10000 2.1 0 14:21 08.09.2019
2307 Clouds 19 1017 48 10000 2.1 10 13:57 08.09.2019
2308 Clouds 19 1017 52 10000 1.5 0 13:38 08.09.2019
2309 Clouds 19 1017 52 10000 1.5 0 13:20 08.09.2019
2310 Clouds 18 1018 52 10000 1.5 0 12:54 08.09.2019
2311 Clouds 18 1018 52 10000 2.1 90 12:36 08.09.2019
2312 Clouds 18 1018 52 10000 2.1 90 12:18 08.09.2019
2313 Clouds 17 1018 59 10000 1 0 11:54 08.09.2019
2314 Clear 17 1018 63 10000 2.1 120 11:36 08.09.2019
2315 Clear 17 1018 63 10000 2.1 120 11:18 08.09.2019
2316 Clear 15 1018 76 10000 1.5 220 10:41 08.09.2019
2317 Clear 15 1018 76 10000 1.5 220 10:22 08.09.2019
2318 Clear 14 1018 76 10000 1.5 250 09:55 08.09.2019
2319 Clear 14 1018 76 10000 1.5 250 09:55 08.09.2019
2320 Clear 13 1018 87 10000 2.1 190 09:37 08.09.2019
2321 Clear 13 1018 87 10000 2.1 190 09:37 08.09.2019
2322 Clear 12 1018 87 10000 2.1 190 09:19 08.09.2019
2323 Clear 12 1018 93 10000 2.1 190 09:19 08.09.2019
2324 Clear 10 1018 100 10000 2.1 190 08:39 08.09.2019
2325 Clear 10 1018 100 10000 2.1 190 08:19 08.09.2019
2326 Clear 9 1018 100 10000 1 0 07:42 08.09.2019
2327 Clear 8 1018 100 10000 1 0 07:21 08.09.2019
2328 Clear 9 1018 93 10000 2.1 200 06:57 08.09.2019
2329 Clear 9 1018 93 10000 2.1 200 06:34 08.09.2019
2330 Clear 10 1018 100 10000 1 130 05:40 08.09.2019
2331 Clear 10 1018 93 10000 1.5 170 04:59 08.09.2019
2332 Clear 10 1018 93 10000 1.5 170 03:23 08.09.2019
2333 Clear 10 1018 93 10000 1 160 02:48 08.09.2019
2334 Clear 11 1018 87 10000 1 130 01:54 08.09.2019
2335 Clear 11 1018 93 10000 0.5 0 01:29 08.09.2019
2336 Clear 11 1018 93 10000 1.5 300 00:49 08.09.2019
2337 Clear 11 1018 93 10000 1.5 190 00:30 08.09.2019
2338 Clear 10 1018 93 10000 1 160 23:58 07.09.2019
2339 Clouds 10 981 92 0 0.89 191 23:37 07.09.2019
2340 Clouds 10 981 96 0 0.89 198 23:19 07.09.2019
2341 Clouds 11 1018 91 0 1.83 195.313 22:44 07.09.2019
2342 Clouds 11 981 93 0 0.89 120 22:25 07.09.2019
2343 Clouds 11 1018 90 0 1.83 195.313 21:59 07.09.2019
2344 Clouds 12 981 93 0 0.45 143 21:39 07.09.2019
2345 Clouds 12 1018 89 0 2.64 113.412 21:21 07.09.2019
2346 Clear 12 1018 76 10000 0.5 0 20:41 07.09.2019
2347 Clear 13 1018 76 10000 0.5 0 20:22 07.09.2019
2348 Clouds 13 1018 76 10000 1 0 19:57 07.09.2019
2349 Clouds 14 1018 67 10000 1 0 19:38 07.09.2019
2350 Clouds 14 1018 67 10000 1 0 19:20 07.09.2019
2351 Clouds 14 1018 67 10000 1 0 18:59 07.09.2019
2352 Clouds 15 1018 67 10000 2.1 110 18:40 07.09.2019
2353 Clouds 15 1018 67 10000 2.1 110 18:21 07.09.2019
2354 Rain 15 1018 67 10000 1 0 17:59 07.09.2019
2355 Rain 15 1018 72 10000 1 0 17:39 07.09.2019
2356 Rain 15 1018 72 10000 1 0 17:19 07.09.2019
2357 Rain 15 1018 72 10000 1 0 17:19 07.09.2019
2358 Rain 15 1018 77 10000 1 0 16:59 07.09.2019
2359 Rain 15 1018 77 10000 1 0 16:59 07.09.2019
2360 Rain 15 1018 77 10000 1 0 16:40 07.09.2019
2361 Rain 15 1018 77 10000 1.5 290 16:19 07.09.2019
2362 Clouds 15 1018 77 10000 1.5 290 15:47 07.09.2019
2363 Rain 15 1018 82 10000 1 0 15:26 07.09.2019
2364 Rain 15 1018 82 10000 1 0 14:57 07.09.2019
2365 Rain 15 1018 87 10000 1 0 14:37 07.09.2019
2366 Rain 15 1018 82 10000 1.5 260 14:19 07.09.2019
2367 Rain 15 1018 82 10000 1.5 260 13:57 07.09.2019
2368 Drizzle 15 1018 82 10000 0.5 0 13:39 07.09.2019
2369 Drizzle 15 1018 82 10000 0.5 0 13:39 07.09.2019
2370 Drizzle 15 1018 82 10000 0.5 0 13:21 07.09.2019
2371 Rain 15 1019 87 10000 0.5 290 12:44 07.09.2019
2372 Rain 14 1019 87 10000 0.5 290 12:25 07.09.2019
2373 Rain 14 1019 82 10000 1 0 11:57 07.09.2019
2374 Rain 14 1019 87 10000 1.5 180 11:39 07.09.2019
2375 Rain 14 1019 87 10000 1.5 180 11:19 07.09.2019
2376 Rain 14 1019 87 10000 1.5 180 10:40 07.09.2019
2377 Rain 14 1019 87 10000 1.5 180 10:40 07.09.2019
2378 Rain 14 1019 87 10000 1.5 180 10:21 07.09.2019
2379 Rain 14 1018 87 10000 2.1 150 09:56 07.09.2019
2380 Rain 13 1018 87 10000 1.5 230 09:37 07.09.2019
2381 Rain 13 1018 87 10000 1.5 230 09:19 07.09.2019
2382 Rain 13 1018 82 10000 1.5 160 08:44 07.09.2019
2383 Rain 13 1018 82 10000 1.5 160 08:25 07.09.2019
2384 Rain 13 1018 82 10000 1.5 210 07:46 07.09.2019
2385 Rain 12 1018 82 10000 1.5 210 07:27 07.09.2019
2386 Rain 12 1018 76 10000 2.1 210 06:50 07.09.2019
2387 Rain 12 1018 76 10000 2.1 170 06:20 07.09.2019
2388 Rain 13 1019 67 10000 3.6 170 04:49 07.09.2019
2389 Clear 13 1018 62 10000 2.6 170 04:23 07.09.2019
2390 Clear 13 1019 62 10000 1.5 140 02:49 07.09.2019
2391 Clear 13 1019 62 10000 1.5 150 02:20 07.09.2019
2392 Clear 13 1020 58 10000 1 0 01:26 07.09.2019
2393 Clear 13 1020 54 10000 2.6 150 00:42 07.09.2019
2394 Clear 13 1020 54 10000 2.6 150 00:19 07.09.2019
2395 Clear 13 1021 54 10000 1.5 150 23:41 06.09.2019
2396 Clear 13 1021 54 10000 1.5 150 23:22 06.09.2019
2397 Clear 13 1021 54 10000 1.5 150 23:22 06.09.2019
2398 Clear 13 1021 54 10000 2.1 120 22:58 06.09.2019
2399 Clear 13 1021 51 10000 2.1 120 22:39 06.09.2019
2400 Clear 13 1021 51 10000 2.1 110 22:19 06.09.2019
2401 Clear 13 1021 51 10000 2.1 110 21:58 06.09.2019
2402 Clear 13 1021 51 10000 2.1 110 21:58 06.09.2019
2403 Clear 13 1021 51 10000 2.1 110 21:58 06.09.2019
2404 Clear 13 1021 48 10000 1 70 21:39 06.09.2019
2405 Clear 13 1021 48 10000 1 70 21:21 06.09.2019
2406 Clear 14 1021 51 10000 1 40 20:58 06.09.2019
2407 Clear 14 1021 48 10000 1 0 20:39 06.09.2019
2408 Clear 15 1021 48 10000 1 0 20:21 06.09.2019
2409 Clear 15 1021 48 10000 1 0 20:21 06.09.2019
2410 Clear 16 1021 45 10000 1 0 19:57 06.09.2019
2411 Clear 16 1021 42 10000 1 0 19:39 06.09.2019
2412 Clear 17 1021 37 10000 1.5 140 19:20 06.09.2019
2413 Clear 18 1021 34 10000 1 0 18:47 06.09.2019
2414 Clear 19 1021 34 10000 1 0 18:27 06.09.2019
2415 Clear 19 1022 37 10000 1.5 0 17:59 06.09.2019
2416 Clear 19 1022 37 10000 1.5 0 17:59 06.09.2019
2417 Clear 19 1022 37 10000 0.5 0 17:38 06.09.2019
2418 Clear 19 1022 37 10000 0.5 0 17:19 06.09.2019
2419 Clear 19 1022 37 10000 2.1 0 16:42 06.09.2019
2420 Clear 19 1022 37 10000 2.1 0 16:19 06.09.2019
2421 Clear 20 1023 34 10000 1.5 0 15:59 06.09.2019
2422 Clear 19 1023 39 10000 1 0 15:39 06.09.2019
2423 Clear 19 1023 39 10000 1 0 15:21 06.09.2019
2424 Clouds 19 1024 45 10000 2.1 0 14:40 06.09.2019
2425 Clouds 18 1024 45 10000 2.1 0 14:19 06.09.2019
2426 Clouds 18 1024 45 10000 1 0 13:44 06.09.2019
2427 Clouds 17 1024 45 10000 1 0 13:22 06.09.2019
2428 Clouds 17 1025 48 10000 1.5 0 12:56 06.09.2019
2429 Clouds 17 1025 48 10000 2.6 330 12:36 06.09.2019
2430 Clouds 16 1025 51 10000 2.1 0 12:18 06.09.2019
2431 Clouds 16 1025 54 10000 1.5 310 11:40 06.09.2019
2432 Clouds 16 1025 54 10000 1.5 310 11:22 06.09.2019
2433 Clouds 15 1026 58 10000 2.1 0 10:56 06.09.2019
2434 Clouds 14 1025 66 10000 2.6 350 10:38 06.09.2019
2435 Clouds 14 1025 66 10000 2.6 350 10:18 06.09.2019
2436 Clear 13 1026 71 10000 2.6 320 09:38 06.09.2019
2437 Clear 12 1026 71 10000 2.6 320 09:20 06.09.2019
2438 Clear 11 1025 81 10000 2.6 310 08:55 06.09.2019
2439 Clear 11 1025 81 10000 2.6 310 08:55 06.09.2019
2440 Clear 11 1025 81 10000 1.5 240 08:37 06.09.2019
2441 Clear 10 1025 81 10000 1.5 240 08:18 06.09.2019
2442 Clear 8 1025 81 10000 2.1 260 07:44 06.09.2019
2443 Clear 8 1025 81 10000 2.1 260 07:25 06.09.2019
2444 Clear 8 1025 81 10000 2.1 260 07:25 06.09.2019
2445 Clear 8 1025 81 10000 1.5 260 06:53 06.09.2019
2446 Clear 8 1024 81 10000 1 0 05:58 06.09.2019
2447 Clear 9 1024 81 10000 1 0 04:58 06.09.2019
2448 Clear 9 1024 76 10000 2.1 300 04:38 06.09.2019
2449 Clouds 10 1024 76 10000 2.1 280 03:39 06.09.2019
2450 Clear 12 1023 71 10000 3.6 290 01:51 06.09.2019
2451 Clear 13 1022 62 10000 3.6 310 00:32 06.09.2019
2452 Clear 14 1021 58 10000 4.6 320 23:44 05.09.2019
2453 Clear 14 1021 58 10000 4.6 320 23:24 05.09.2019
2454 Clear 14 1021 58 10000 3.1 320 22:55 05.09.2019
2455 Clear 14 1021 58 10000 3.1 320 22:55 05.09.2019
2456 Clear 14 1020 54 10000 4.1 320 22:37 05.09.2019
2457 Clear 14 1020 54 10000 4.1 320 22:19 05.09.2019
2458 Clear 14 1020 51 10000 1.5 290 21:56 05.09.2019
2459 Clear 15 1019 48 10000 1.5 300 21:37 05.09.2019
2460 Clear 15 1019 48 10000 1.5 300 21:19 05.09.2019
2461 Clear 15 1019 45 10000 1.5 300 20:55 05.09.2019
2462 Clear 16 1019 42 10000 2.6 290 20:36 05.09.2019
2463 Clear 16 1019 42 10000 2.6 290 20:18 05.09.2019
2464 Clear 18 1018 39 10000 3.1 290 19:42 05.09.2019
2465 Clear 18 1018 39 10000 3.6 290 19:23 05.09.2019
2466 Clear 19 1018 39 10000 3.6 290 18:57 05.09.2019
2467 Clear 19 1018 39 10000 3.6 290 18:57 05.09.2019
2468 Clear 19 1018 40 10000 6.2 280 18:39 05.09.2019
2469 Clear 20 1017 40 10000 6.2 260 18:19 05.09.2019
2470 Clear 20 1017 37 10000 6.2 290 17:43 05.09.2019
2471 Clear 21 1017 37 10000 6.2 290 17:24 05.09.2019
2472 Clear 21 1017 37 10000 5.7 310 16:58 05.09.2019
2473 Clear 21 1017 37 10000 5.7 310 16:58 05.09.2019
2474 Clear 21 1016 37 10000 5.7 290 16:40 05.09.2019
2475 Clear 21 1016 37 10000 6.7 300 16:20 05.09.2019
2476 Clear 21 1016 37 10000 6.7 300 15:57 05.09.2019
2477 Clear 21 1016 35 10000 6.2 270 15:38 05.09.2019
2478 Clear 21 1016 35 10000 6.2 270 15:18 05.09.2019
2479 Clear 21 1016 35 10000 6.2 270 15:18 05.09.2019
2480 Clouds 21 1016 45 10000 6.2 290 14:43 05.09.2019
2481 Clouds 20 1016 45 10000 6.2 290 14:22 05.09.2019
2482 Clouds 20 1016 59 10000 5.1 280 13:44 05.09.2019
2483 Clouds 20 1016 59 10000 5.1 280 13:23 05.09.2019
2484 Clouds 20 1016 59 10000 4.6 260 12:59 05.09.2019
2485 Clouds 19 1016 68 10000 3.6 240 12:41 05.09.2019
2486 Clouds 20 1016 68 10000 3.6 240 12:41 05.09.2019
2487 Clouds 18 1016 68 10000 3.6 240 12:22 05.09.2019
2488 Clouds 17 1015 82 10000 3.1 220 11:44 05.09.2019
2489 Clouds 17 1015 82 10000 3.1 220 11:20 05.09.2019
2490 Clouds 16 979 86 0 1.34 209 10:57 05.09.2019
2491 Clouds 16 1015 82 0 4.29 277.407 10:37 05.09.2019
2492 Clouds 16 1015 83 0 4.29 277.407 10:18 05.09.2019
2493 Drizzle 16 1015 82 10000 2.6 270 09:41 05.09.2019
2494 Drizzle 15 1015 82 10000 2.6 270 09:21 05.09.2019
2495 Clouds 15 1015 72 10000 2.1 260 08:56 05.09.2019
2496 Clouds 15 1014 77 10000 2.6 270 08:38 05.09.2019
2497 Clouds 15 1014 77 10000 2.6 270 08:19 05.09.2019
2498 Clear 14 1014 77 10000 2.1 250 07:44 05.09.2019
2499 Clear 13 1014 77 10000 2.1 250 07:24 05.09.2019
2500 Clear 13 1014 77 10000 1.5 240 06:46 05.09.2019
2501 Clear 13 1014 77 10000 1.5 240 06:26 05.09.2019
2502 Clear 13 1013 72 10000 1.5 260 05:46 05.09.2019
2503 Clear 13 1013 72 10000 1.5 260 05:27 05.09.2019
2504 Clear 14 1013 63 10000 2.6 280 04:30 05.09.2019
2505 Clear 14 1013 59 10000 2.6 270 03:52 05.09.2019
2506 Clear 15 1012 59 10000 3.1 210 02:58 05.09.2019
2507 Clear 15 1012 55 10000 3.1 220 02:30 05.09.2019
2508 Clear 15 1012 55 10000 2.6 230 01:57 05.09.2019
2509 Clear 15 1012 45 10000 3.6 230 00:58 05.09.2019
2510 Clear 16 1012 45 10000 3.6 230 00:39 05.09.2019
2511 Clear 17 1012 48 10000 4.1 210 00:19 05.09.2019
2512 Clear 17 1012 48 10000 4.1 170 23:41 04.09.2019
2513 Clear 17 1012 48 10000 4.1 170 23:41 04.09.2019
2514 Clear 16 1012 48 10000 4.1 170 23:22 04.09.2019
2515 Clear 16 1012 48 10000 4.6 180 22:49 04.09.2019
2516 Clear 16 1013 45 10000 4.6 180 22:21 04.09.2019
2517 Clear 17 1013 45 10000 3.6 170 21:58 04.09.2019
2518 Clear 18 1012 43 10000 3.6 170 21:38 04.09.2019
2519 Clear 18 1012 40 10000 1.5 170 21:19 04.09.2019
2520 Clear 19 1012 40 10000 1.5 170 20:55 04.09.2019
2521 Clear 20 1012 37 10000 4.6 180 20:37 04.09.2019
2522 Clear 20 1012 50 0 3.01 212.171 20:18 04.09.2019
2523 Clear 21 1012 35 10000 4.1 170 19:43 04.09.2019
2524 Clear 22 1012 35 10000 4.1 170 19:23 04.09.2019
2525 Clear 23 1012 33 10000 6.2 170 18:55 04.09.2019
2526 Clear 24 1013 31 10000 5.7 160 18:36 04.09.2019
2527 Clear 25 1013 31 10000 5.7 180 18:18 04.09.2019
2528 Clear 26 1014 29 10000 5.7 180 17:41 04.09.2019
2529 Clear 26 1014 29 10000 5.7 180 17:22 04.09.2019
2530 Clear 26 1014 29 10000 6.2 200 16:56 04.09.2019
2531 Clear 26 1014 29 10000 5.7 180 16:38 04.09.2019
2532 Clear 27 1014 29 10000 5.7 180 16:19 04.09.2019
2533 Clear 26 1015 27 10000 5.7 170 15:41 04.09.2019
2534 Clear 26 1015 27 10000 5.7 170 15:22 04.09.2019
2535 Clear 26 1016 27 10000 4.1 200 14:58 04.09.2019
2536 Clear 26 1016 29 10000 6.2 180 14:39 04.09.2019
2537 Clear 26 1016 29 10000 6.2 180 14:39 04.09.2019
2538 Clear 26 1016 29 10000 6.2 180 14:21 04.09.2019
2539 Clear 25 1016 29 10000 4.1 190 14:00 04.09.2019
2540 Clear 25 1017 31 10000 4.6 170 13:39 04.09.2019
2541 Clear 25 1017 33 10000 3.6 150 13:21 04.09.2019
2542 Clear 25 1018 33 10000 3.6 220 12:45 04.09.2019
2543 Clear 24 1018 33 10000 3.6 220 12:26 04.09.2019
2544 Clear 24 1018 38 10000 3.1 200 11:58 04.09.2019
2545 Clear 23 1019 43 10000 3.6 150 11:39 04.09.2019
2546 Clear 23 1019 43 10000 3.6 150 11:21 04.09.2019
2547 Clear 22 1019 45 10000 2.6 140 10:56 04.09.2019
2548 Clear 21 1019 52 10000 3.1 160 10:38 04.09.2019
2549 Clear 21 1019 52 10000 3.1 160 10:38 04.09.2019
2550 Clear 21 1019 52 10000 3.1 160 10:19 04.09.2019
2551 Clear 19 1019 62 0 3.79 201.838 09:45 04.09.2019
2552 Clear 17 1020 63 10000 2.1 120 09:21 04.09.2019
2553 Clear 14 1020 81 10000 1 0 08:43 04.09.2019
2554 Clear 13 1020 81 10000 1 0 08:24 04.09.2019
2555 Clear 11 1020 81 10000 1 170 08:00 04.09.2019
2556 Clear 11 1020 81 10000 1.5 150 07:40 04.09.2019
2557 Clear 11 1020 81 10000 1.5 150 07:22 04.09.2019
2558 Clear 11 1021 93 10000 2.1 180 06:39 04.09.2019
2559 Clear 10 1021 87 10000 2.1 180 04:56 04.09.2019
2560 Clear 10 1022 81 10000 1.5 190 04:25 04.09.2019
2561 Clear 11 1022 76 10000 2.1 210 03:39 04.09.2019
2562 Clear 12 1022 67 10000 1 200 01:21 04.09.2019
2563 Clouds 12 985 74 0 2.33 199.838 00:50 04.09.2019
2564 Clouds 12 985 73 0 2.33 199.838 00:31 04.09.2019
2565 Clear 13 985 70 0 3.02 244.462 23:54 03.09.2019
2566 Clear 13 1022 55 10000 3.02 244.462 23:27 03.09.2019
2567 Clear 13 1022 71 0 3.02 244.462 22:57 03.09.2019
2568 Clear 13 985 66 0 3.02 244.462 22:39 03.09.2019
2569 Clear 14 1022 48 10000 0.5 0 22:21 03.09.2019
2570 Clear 14 1022 55 10000 0.5 0 21:56 03.09.2019
2571 Clear 15 1022 55 10000 1 0 21:36 03.09.2019
2572 Clear 15 1022 55 10000 1 0 21:18 03.09.2019
2573 Clear 16 1022 45 10000 1 0 20:42 03.09.2019
2574 Clear 17 1022 45 10000 1 0 20:24 03.09.2019
2575 Clear 16 1022 42 10000 1.5 130 19:56 03.09.2019
2576 Clear 18 1022 42 10000 1.5 70 19:38 03.09.2019
2577 Clear 20 1022 40 10000 2.1 10 19:18 03.09.2019
2578 Clear 21 1022 37 10000 2.6 360 18:45 03.09.2019
2579 Clear 21 1022 37 10000 2.6 360 18:27 03.09.2019
2580 Clear 22 1022 37 10000 3.1 360 17:59 03.09.2019
2581 Clear 22 1022 33 10000 4.6 290 17:40 03.09.2019
2582 Clear 23 1022 33 10000 4.6 290 17:20 03.09.2019
2583 Clear 23 1022 28 10000 4.6 290 16:58 03.09.2019
2584 Clear 23 1022 30 10000 5.1 260 16:38 03.09.2019
2585 Clear 23 1022 30 10000 5.1 260 16:20 03.09.2019
2586 Clear 23 1022 30 10000 5.1 260 16:20 03.09.2019
2587 Clear 23 1022 30 10000 5.7 240 15:41 03.09.2019
2588 Clear 23 1022 30 10000 5.7 240 15:21 03.09.2019
2589 Clear 22 1023 35 10000 3.6 0 14:58 03.09.2019
2590 Clear 23 1023 33 10000 4.6 260 14:40 03.09.2019
2591 Clear 22 1023 33 10000 4.6 260 14:20 03.09.2019
2592 Clear 22 1023 33 10000 4.1 270 13:57 03.09.2019
2593 Clear 22 1023 33 10000 4.6 250 13:37 03.09.2019
2594 Clear 22 1023 33 10000 4.6 250 13:37 03.09.2019
2595 Clear 22 1023 33 10000 4.6 250 13:19 03.09.2019
2596 Clear 22 1023 33 10000 4.6 250 13:19 03.09.2019
2597 Clear 22 1023 33 10000 4.6 250 12:56 03.09.2019
2598 Clear 22 1023 35 10000 5.1 230 12:38 03.09.2019
2599 Clouds 21 1024 37 10000 3.6 240 12:19 03.09.2019
2600 Clear 20 1024 42 10000 4.1 230 11:41 03.09.2019
2601 Clear 20 1024 42 10000 4.1 230 11:22 03.09.2019
2602 Clear 20 1024 48 10000 3.1 200 10:56 03.09.2019
2603 Clear 19 987 48 0 2.24 215 10:38 03.09.2019
2604 Clear 18 1024 55 10000 3.1 200 10:19 03.09.2019
2605 Clear 16 987 56 0 2.68 226 09:44 03.09.2019
2606 Clear 15 1024 66 10000 3.1 200 09:25 03.09.2019
2607 Clear 12 1024 71 10000 3.1 200 08:55 03.09.2019
2608 Clear 11 1024 71 10000 3.6 180 08:36 03.09.2019
2609 Clear 11 1024 71 10000 3.6 180 08:18 03.09.2019
2610 Clear 10 1024 81 10000 3.1 170 07:40 03.09.2019
2611 Clear 10 1024 81 10000 3.1 170 07:40 03.09.2019
2612 Clear 9 1024 81 10000 3.1 170 07:22 03.09.2019
2613 Clear 8 1024 87 10000 4.1 200 06:44 03.09.2019
2614 Clear 7 1024 81 10000 3.1 200 05:53 03.09.2019
2615 Clear 8 1024 76 10000 2.1 200 03:36 03.09.2019
2616 Clear 8 1024 71 10000 2.6 220 02:44 03.09.2019
2617 Clear 8 1024 71 10000 2.6 220 02:23 03.09.2019
2618 Clear 9 1024 71 10000 2.1 230 01:50 03.09.2019
2619 Clear 9 1024 71 10000 2.1 230 01:32 03.09.2019
2620 Clouds 9 987 78 0 2.17 217.694 00:43 03.09.2019
2621 Clouds 10 987 77 0 1.36 255.338 00:23 03.09.2019
2622 Clouds 10 987 77 0 1.36 255.338 00:23 03.09.2019
2623 Clouds 11 987 76 0 1.36 255.338 23:40 02.09.2019
2624 Clouds 11 987 74 0 1.36 255.338 23:20 02.09.2019
2625 Clouds 11 987 74 0 1.36 255.338 23:20 02.09.2019
2626 Clouds 11 1023 66 0 1.36 255.338 22:56 02.09.2019
2627 Clear 12 1023 51 10000 1.5 290 22:38 02.09.2019
2628 Clear 12 1023 51 10000 1.5 290 22:38 02.09.2019
2629 Clear 12 1023 51 10000 1.5 290 22:20 02.09.2019
2630 Clear 12 1023 51 10000 1.5 300 21:57 02.09.2019
2631 Clear 13 1023 44 10000 1.5 330 21:39 02.09.2019
2632 Clear 14 1023 44 10000 1.5 330 21:20 02.09.2019
2633 Clear 14 1022 44 10000 2.1 320 20:58 02.09.2019
2634 Clear 16 1022 45 10000 1.5 300 20:39 02.09.2019
2635 Clear 16 1022 45 10000 1.5 300 20:18 02.09.2019
2636 Clear 17 1022 45 10000 1.5 300 19:56 02.09.2019
2637 Clear 17 1022 42 10000 1.5 310 19:38 02.09.2019
2638 Clear 18 1021 39 10000 2.6 310 19:19 02.09.2019
2639 Clear 19 1021 37 10000 3.6 300 18:40 02.09.2019
2640 Clear 19 1021 34 10000 4.6 310 18:22 02.09.2019
2641 Clear 20 1021 34 10000 4.6 310 17:58 02.09.2019
2642 Clear 20 1021 30 10000 5.1 340 17:39 02.09.2019
2643 Clear 21 1021 30 10000 5.1 340 17:20 02.09.2019
2644 Clear 21 1021 32 10000 3.6 290 16:58 02.09.2019
2645 Clear 21 1021 37 10000 5.1 310 16:36 02.09.2019
2646 Clear 21 1021 37 10000 5.1 310 16:18 02.09.2019
2647 Clouds 20 1021 40 10000 4.6 310 15:44 02.09.2019
2648 Clouds 20 1021 40 10000 4.6 310 15:22 02.09.2019
2649 Clouds 20 1021 42 10000 1.5 0 14:56 02.09.2019
2650 Clouds 19 1021 48 10000 4.6 310 14:37 02.09.2019
2651 Clouds 19 1021 48 10000 4.6 310 14:19 02.09.2019
2652 Clouds 18 1021 55 10000 2.6 270 13:54 02.09.2019
2653 Clouds 18 1021 55 10000 1 0 13:36 02.09.2019
2654 Clouds 18 1021 59 10000 2.1 320 13:18 02.09.2019
2655 Clouds 18 1021 59 10000 3.1 320 12:41 02.09.2019
2656 Clouds 17 1021 59 10000 3.1 320 12:23 02.09.2019
2657 Clouds 17 1021 59 10000 4.6 310 11:58 02.09.2019
2658 Clouds 17 1021 63 10000 4.6 310 11:38 02.09.2019
2659 Clouds 17 1021 63 10000 4.6 310 11:19 02.09.2019
2660 Clouds 17 1021 72 10000 3.1 310 10:55 02.09.2019
2661 Clouds 16 1021 77 10000 3.6 300 10:36 02.09.2019
2662 Clouds 16 1021 77 10000 3.6 300 10:36 02.09.2019
2663 Clouds 16 1020 77 10000 3.1 320 10:18 02.09.2019
2664 Clouds 15 1020 77 10000 3.1 300 09:42 02.09.2019
2665 Clouds 15 1020 77 10000 3.1 300 09:21 02.09.2019
2666 Clouds 15 1019 82 10000 2.1 290 08:44 02.09.2019
2667 Clouds 14 1019 82 10000 2.1 290 08:23 02.09.2019
2668 Clouds 14 1019 82 10000 2.6 280 07:58 02.09.2019
2669 Clouds 14 1019 82 10000 2.6 290 07:39 02.09.2019
2670 Clouds 14 1019 82 10000 2.6 290 07:21 02.09.2019
2671 Clouds 14 1019 82 10000 2.1 310 06:43 02.09.2019
2672 Clouds 14 1019 77 10000 1.5 300 05:54 02.09.2019
2673 Clouds 14 1019 77 10000 1.5 300 05:54 02.09.2019
2674 Clouds 14 1019 77 10000 1.5 300 05:54 02.09.2019
2675 Clouds 15 1018 72 10000 3.6 320 05:27 02.09.2019
2676 Clouds 15 1018 67 10000 3.6 310 04:53 02.09.2019
2677 Clouds 16 1017 77 10000 3.1 280 02:42 02.09.2019
2678 Clouds 16 1016 77 10000 3.1 280 01:43 02.09.2019
2679 Clear 17 1016 72 10000 2.6 280 00:47 02.09.2019
2680 Clear 16 1016 72 10000 2.6 280 00:28 02.09.2019
2681 Clear 17 1015 72 10000 5.7 300 23:41 01.09.2019
2682 Clear 17 1015 72 10000 5.7 300 23:21 01.09.2019
2683 Rain 18 1015 82 10000 1.5 290 22:57 01.09.2019
2684 Clouds 18 1015 72 10000 1.5 250 22:39 01.09.2019
2685 Clouds 18 1015 72 10000 1.5 250 22:19 01.09.2019
2686 Clouds 18 1015 72 10000 1.5 250 22:19 01.09.2019
2687 Rain 18 1014 77 10000 1.5 250 21:57 01.09.2019
2688 Clouds 19 1014 77 10000 1.5 240 21:37 01.09.2019
2689 Clear 19 1014 82 10000 1.5 240 21:19 01.09.2019
2690 Clear 19 1014 82 10000 1.5 240 20:56 01.09.2019
2691 Clear 20 1014 82 10000 1.5 240 20:36 01.09.2019
2692 Clouds 20 1013 88 10000 2.6 290 20:18 01.09.2019
2693 Clouds 20 1013 88 10000 2.6 290 19:56 01.09.2019
2694 Rain 20 1013 83 10000 3.6 310 19:37 01.09.2019
2695 Rain 21 1012 83 10000 2.6 270 19:18 01.09.2019
2696 Rain 21 1012 88 10000 1.5 220 18:42 01.09.2019
2697 Rain 22 1012 88 10000 1.5 220 18:24 01.09.2019
2698 Rain 22 1012 83 10000 3.1 270 17:55 01.09.2019
2699 Rain 22 1011 88 10000 4.6 220 17:37 01.09.2019
2700 Rain 22 1011 78 10000 5.1 180 17:18 01.09.2019
2701 Clear 23 1010 64 10000 3.6 180 16:39 01.09.2019
2702 Rain 23 1010 64 10000 3.6 180 16:19 01.09.2019
2703 Clouds 22 1011 78 10000 3.6 170 15:47 01.09.2019
2704 Clouds 25 1011 78 10000 3.6 170 15:29 01.09.2019
2705 Clouds 25 1011 78 10000 3.6 170 15:29 01.09.2019
2706 Clouds 26 1011 73 10000 3.6 190 14:57 01.09.2019
2707 Thunderstorm 26 1011 50 10000 5.7 220 14:38 01.09.2019
2708 Thunderstorm 28 1011 50 10000 5.7 220 14:20 01.09.2019
2709 Thunderstorm 27 1010 45 10000 4.6 260 13:54 01.09.2019
2710 Thunderstorm 29 1010 42 10000 4.1 280 13:36 01.09.2019
2711 Clear 29 1010 45 10000 4.6 280 13:18 01.09.2019
2712 Clear 29 1010 42 10000 3.6 280 12:41 01.09.2019
2713 Clear 29 1010 42 10000 3.6 280 12:22 01.09.2019
2714 Clouds 29 1010 48 10000 2.6 270 11:41 01.09.2019
2715 Clouds 29 1010 48 10000 2.6 270 11:41 01.09.2019
2716 Clear 28 1010 48 10000 2.6 0 11:20 01.09.2019
2717 Clear 28 1010 48 10000 2.6 0 10:59 01.09.2019
2718 Clear 28 1010 54 10000 3.6 170 10:41 01.09.2019
2719 Clear 27 1010 54 10000 3.6 170 10:21 01.09.2019
2720 Clear 26 1010 60 10000 3.6 180 09:43 01.09.2019
2721 Clear 24 1010 60 10000 3.6 180 09:25 01.09.2019
2722 Clear 23 1010 64 10000 1.5 160 08:45 01.09.2019
2723 Clear 22 1010 64 10000 1.5 160 08:24 01.09.2019
2724 Clear 21 1010 68 10000 1.5 0 07:56 01.09.2019
2725 Clear 20 1010 68 10000 1 0 07:38 01.09.2019
2726 Clear 20 1010 68 10000 1 0 07:38 01.09.2019
2727 Clear 19 1010 68 10000 1 0 06:59 01.09.2019
2728 Clouds 19 1009 77 0 3.81 225.978 06:34 01.09.2019
2729 Clear 19 1010 68 10000 3.1 190 05:57 01.09.2019
2730 Clear 19 1010 68 10000 3.1 190 05:57 01.09.2019
2731 Clear 19 1010 64 10000 5.1 160 04:32 01.09.2019
2732 Clear 20 1010 60 10000 4.1 160 03:43 01.09.2019
2733 Clear 20 1010 57 10000 4.1 160 02:58 01.09.2019
2734 Clear 21 1010 57 10000 4.1 150 02:28 01.09.2019
2735 Clear 21 1011 57 10000 4.1 150 01:51 01.09.2019
2736 Clear 21 1011 57 10000 3.6 150 01:24 01.09.2019
2737 Clear 21 1011 60 10000 3.6 150 00:47 01.09.2019
2738 Clear 21 1011 60 10000 3.6 150 00:23 01.09.2019
2739 Clear 21 1012 60 10000 2.6 170 23:55 31.08.2019
2740 Clear 21 1012 57 10000 1 0 23:36 31.08.2019
2741 Clear 21 1012 57 10000 1 0 23:18 31.08.2019
2742 Clear 21 1013 53 10000 2.1 130 22:44 31.08.2019
2743 Clear 22 1013 53 10000 2.1 130 22:26 31.08.2019
2744 Clear 22 1013 47 10000 2.1 130 21:58 31.08.2019
2745 Clouds 22 977 62 0 3.04 162.323 21:39 31.08.2019
2746 Clear 23 977 61 0 0.89 105 21:21 31.08.2019
2747 Clear 24 1012 63 0 1.79 126.492 20:50 31.08.2019
2748 Clear 24 1012 61 0 1.79 126.492 20:31 31.08.2019
2749 Clear 26 1013 39 10000 3.6 130 19:59 31.08.2019
2750 Clear 26 1013 39 10000 3.6 130 19:40 31.08.2019
2751 Clear 28 1013 39 10000 3.6 130 19:21 31.08.2019
2752 Clear 29 1013 37 10000 4.6 140 18:41 31.08.2019
2753 Clear 30 1013 37 10000 4.6 140 18:21 31.08.2019
2754 Clear 30 1014 38 10000 5.7 150 17:58 31.08.2019
2755 Clear 30 1014 38 10000 4.1 140 17:37 31.08.2019
2756 Clear 31 1014 38 10000 4.1 140 17:19 31.08.2019
2757 Clear 31 1015 38 10000 5.1 130 16:59 31.08.2019
2758 Clear 31 1015 38 10000 4.1 140 16:41 31.08.2019
2759 Clear 31 1015 38 10000 4.1 140 16:21 31.08.2019
2760 Clear 31 1015 38 10000 4.1 140 15:59 31.08.2019
2761 Clear 31 1016 35 10000 4.6 150 15:38 31.08.2019
2762 Clear 31 1016 35 10000 4.6 150 15:38 31.08.2019
2763 Clear 31 1016 35 10000 4.6 150 15:18 31.08.2019
2764 Clear 30 1017 40 10000 5.1 140 14:42 31.08.2019
2765 Clear 31 1017 40 10000 5.1 140 14:24 31.08.2019
2766 Clear 31 1017 37 10000 4.6 140 13:57 31.08.2019
2767 Clear 30 1017 40 10000 4.6 160 13:37 31.08.2019
2768 Clear 30 1017 40 10000 3.6 140 13:18 31.08.2019
2769 Clear 30 1018 39 10000 4.1 130 12:42 31.08.2019
2770 Clear 30 1018 39 10000 4.1 130 12:42 31.08.2019
2771 Clear 30 1018 39 10000 4.1 130 12:21 31.08.2019
2772 Clear 29 1018 42 10000 4.6 120 11:59 31.08.2019
2773 Clear 29 1018 48 10000 4.1 170 11:41 31.08.2019
2774 Clear 29 1018 48 10000 4.1 170 11:41 31.08.2019
2775 Clear 29 1018 48 10000 4.1 170 11:23 31.08.2019
2776 Clear 28 1019 54 10000 3.1 150 10:55 31.08.2019
2777 Clear 27 1019 54 10000 3.6 150 10:36 31.08.2019
2778 Clear 26 1019 64 10000 3.1 150 10:18 31.08.2019
2779 Clear 24 1019 69 10000 2.6 150 09:40 31.08.2019
2780 Clear 23 1019 69 10000 2.6 150 09:21 31.08.2019
2781 Clear 22 1019 73 10000 3.1 150 08:57 31.08.2019
2782 Clear 20 1019 82 10000 3.6 150 08:38 31.08.2019
2783 Clear 19 1019 82 10000 3.6 150 08:19 31.08.2019
2784 Clear 19 1019 88 10000 3.6 150 07:38 31.08.2019
2785 Clear 17 1019 88 10000 3.6 150 07:18 31.08.2019
2786 Clear 16 1019 93 10000 3.1 150 06:27 31.08.2019
2787 Clear 16 1019 88 10000 3.1 150 05:54 31.08.2019
2788 Clear 17 1020 77 10000 0.5 0 05:28 31.08.2019
2789 Clear 17 1020 88 10000 4.1 150 04:29 31.08.2019
2790 Clear 18 1020 88 10000 3.6 150 03:42 31.08.2019
2791 Clear 18 1020 82 10000 2.6 150 02:22 31.08.2019
2792 Clear 18 1020 88 10000 2.1 150 01:47 31.08.2019
2793 Clear 18 1021 88 10000 1 90 01:29 31.08.2019
2794 Clear 19 1021 83 10000 0.5 0 00:47 31.08.2019
2795 Clear 19 1021 83 10000 0.5 0 00:27 31.08.2019
2796 Clear 19 1021 83 10000 0.5 0 00:27 31.08.2019
2797 Clear 19 1021 83 10000 1 0 23:50 30.08.2019
2798 Clear 20 1021 78 10000 0.5 0 23:20 30.08.2019
2799 Clear 20 1021 78 10000 1.5 170 22:59 30.08.2019
2800 Clear 20 1021 73 10000 1.5 130 22:39 30.08.2019
2801 Rain 20 1020 86 0 0.58 358.608 22:21 30.08.2019
2802 Rain 20 985 87 0 0.35 241.104 21:57 30.08.2019
2803 Rain 21 985 82 0 0.35 241.104 21:37 30.08.2019
2804 Clouds 21 985 85 0 1.12 16.763 21:18 30.08.2019
2805 Clouds 21 985 92 0 1.12 16.763 20:56 30.08.2019
2806 Clouds 22 985 88 0 1.12 16.763 20:38 30.08.2019
2807 Clouds 22 985 90 0 1.12 16.763 20:19 30.08.2019
2808 Clouds 22 985 90 0 1.12 16.763 20:19 30.08.2019
2809 -273 0 0 0 0 0 19:55 30.08.2019
2810 Clear 23 1021 54 10000 1 0 19:36 30.08.2019
2811 Clear 24 1021 54 10000 2.6 210 19:18 30.08.2019
2812 Clouds 24 1021 54 10000 1.5 240 18:44 30.08.2019
2813 Clouds 26 1021 54 10000 1.5 240 18:24 30.08.2019
2814 Clouds 26 1021 54 10000 1.5 240 18:24 30.08.2019
2815 Clouds 27 1021 51 10000 1.5 220 17:57 30.08.2019
2816 Rain 26 1021 54 10000 3.1 210 17:39 30.08.2019
2817 Thunderstorm 27 1021 45 10000 4.1 200 17:19 30.08.2019
2818 Thunderstorm 27 1021 45 10000 4.1 200 17:19 30.08.2019
2819 Thunderstorm 27 1021 45 10000 4.1 200 16:56 30.08.2019
2820 Clouds 27 1021 48 10000 2.6 150 16:38 30.08.2019
2821 Clouds 27 1021 48 10000 2.6 150 16:19 30.08.2019
2822 Clouds 27 1021 40 10000 2.1 0 15:39 30.08.2019
2823 Clouds 28 1022 38 10000 2.1 0 15:20 30.08.2019
2824 Clear 29 1022 40 10000 2.1 0 14:45 30.08.2019
2825 Clear 29 1022 40 10000 2.1 0 14:26 30.08.2019
2826 Clear 29 1022 40 10000 2.1 0 14:26 30.08.2019
2827 Clear 30 1022 40 10000 2.6 0 13:57 30.08.2019
2828 Clear 29 1022 45 10000 1.5 0 13:39 30.08.2019
2829 Clear 29 1022 45 10000 1.5 0 13:20 30.08.2019
2830 Clouds 30 986 55 0 1.48 18.692 12:45 30.08.2019
2831 Clouds 30 986 55 0 1.48 18.692 12:45 30.08.2019
2832 Clouds 28 1023 54 10000 1 0 12:25 30.08.2019
2833 Clear 27 1023 57 10000 1.5 0 11:57 30.08.2019
2834 Clear 27 1023 57 10000 1 0 11:39 30.08.2019
2835 Clear 27 1023 57 10000 1 0 11:39 30.08.2019
2836 Clear 26 1023 57 10000 1 0 11:21 30.08.2019
2837 Clear 25 1023 69 10000 1 0 10:37 30.08.2019
2838 Clear 24 1023 69 10000 1 0 10:19 30.08.2019
2839 Clear 23 1023 73 10000 1.5 280 09:55 30.08.2019
2840 Clear 22 1023 77 10000 1.5 270 09:36 30.08.2019
2841 Clear 21 1022 88 10000 0.5 0 09:18 30.08.2019
2842 Clear 19 1023 88 10000 1 0 08:43 30.08.2019
2843 Clear 18 1023 88 10000 1 0 08:23 30.08.2019
2844 Fog 17 1022 93 10000 2.1 200 07:46 30.08.2019
2845 Fog 16 1022 93 10000 2.1 200 07:26 30.08.2019
2846 Fog 16 1022 93 10000 2.1 200 06:58 30.08.2019
2847 Fog 16 1022 93 10000 2.6 190 06:40 30.08.2019
2848 Fog 16 1022 93 10000 2.6 190 06:20 30.08.2019
2849 Fog 16 1021 100 3500 0.5 0 05:28 30.08.2019
2850 Clear 16 1021 100 10000 1.5 220 03:57 30.08.2019
2851 Clear 17 1021 93 10000 1 0 03:37 30.08.2019
2852 Clear 17 1021 93 10000 1 0 03:37 30.08.2019
2853 Clear 17 1021 93 10000 2.1 160 02:41 30.08.2019
2854 Clear 17 1021 88 10000 2.6 170 01:51 30.08.2019
2855 Clear 18 1021 93 10000 2.1 190 00:55 30.08.2019
2856 Clear 18 1021 88 10000 1.5 180 00:23 30.08.2019
2857 Clear 19 1021 88 10000 1.5 180 23:48 29.08.2019
2858 Clear 19 1020 88 10000 1 0 23:23 29.08.2019
2859 Clear 19 1020 88 10000 1 0 23:23 29.08.2019
2860 Clear 19 1020 88 10000 1 0 22:58 29.08.2019
2861 Clear 19 1020 83 10000 1.5 190 22:38 29.08.2019
2862 Clear 19 1020 83 10000 1.5 200 22:20 29.08.2019
2863 Clear 20 1020 78 10000 1.5 180 21:42 29.08.2019
2864 Clear 21 1020 78 10000 1.5 180 21:22 29.08.2019
2865 Clear 21 1020 73 10000 1.5 210 20:59 29.08.2019
2866 Clear 21 1020 73 10000 1.5 210 20:59 29.08.2019
2867 Clear 22 1020 73 10000 1.5 210 20:41 29.08.2019
2868 Clear 23 1020 64 10000 1.5 240 20:20 29.08.2019
2869 Clear 23 1019 64 10000 1.5 260 19:57 29.08.2019
2870 Clear 24 1019 54 10000 0.5 0 19:38 29.08.2019
2871 Clear 24 1019 54 10000 0.5 0 19:20 29.08.2019
2872 Clear 25 1019 54 10000 1 320 18:41 29.08.2019
2873 Clear 26 1019 47 10000 1 0 18:20 29.08.2019
2874 Clear 27 1019 47 10000 1.5 360 17:56 29.08.2019
2875 Clear 28 1019 47 10000 1.5 360 17:37 29.08.2019
2876 Clear 27 1019 50 10000 3.1 330 17:19 29.08.2019
2877 Clear 27 1019 51 10000 4.1 330 16:55 29.08.2019
2878 Clear 27 1019 51 10000 4.1 330 16:36 29.08.2019
2879 Clouds 28 1019 45 10000 3.1 300 16:18 29.08.2019
2880 Clouds 28 1019 45 10000 6.2 310 15:38 29.08.2019
2881 Clouds 27 1019 45 10000 6.2 310 15:20 29.08.2019
2882 Clouds 28 1018 42 10000 6.2 350 14:50 29.08.2019
2883 Clouds 28 1018 40 10000 5.7 320 14:23 29.08.2019
2884 Clouds 30 1018 42 10000 6.7 310 13:59 29.08.2019
2885 Clouds 30 1018 40 10000 5.7 330 13:39 29.08.2019
2886 Clouds 30 1018 40 10000 5.7 330 13:20 29.08.2019
2887 Clouds 29 1018 37 10000 3.1 330 12:59 29.08.2019
2888 Clear 29 1018 42 10000 2.1 0 12:39 29.08.2019
2889 Clear 29 1018 42 10000 2.1 0 12:21 29.08.2019
2890 Clear 29 1017 48 10000 2.1 240 11:59 29.08.2019
2891 Clear 29 1017 51 10000 2.6 210 11:39 29.08.2019
2892 Clear 28 1017 54 10000 2.1 220 11:19 29.08.2019
2893 Clouds 28 1016 56 0 1.95 274.272 10:45 29.08.2019
2894 Clear 26 1017 64 10000 2.1 220 10:25 29.08.2019
2895 Clear 25 1017 64 10000 3.1 190 09:56 29.08.2019
2896 Clear 24 1017 73 10000 3.1 200 09:38 29.08.2019
2897 Clear 23 1017 73 10000 3.1 200 09:18 29.08.2019
2898 Clear 22 1017 82 10000 2.6 210 08:41 29.08.2019
2899 Clear 21 1017 82 10000 2.6 210 08:22 29.08.2019
2900 Clear 20 1017 88 10000 1.5 200 07:52 29.08.2019
2901 Clear 19 1016 82 10000 1 160 07:30 29.08.2019
2902 Clear 19 1016 82 10000 1 140 06:54 29.08.2019
2903 Clear 18 1016 82 10000 0.5 0 06:33 29.08.2019
2904 Clear 18 1016 82 10000 1 0 05:51 29.08.2019
2905 Clear 19 1016 73 10000 1 90 04:52 29.08.2019
2906 Clear 19 1016 77 10000 1.5 160 04:30 29.08.2019
2907 Clear 19 1016 68 10000 1.5 190 03:54 29.08.2019
2908 Clear 20 1016 77 10000 1.5 160 01:54 29.08.2019
2909 Clear 20 1016 73 10000 3.1 170 01:34 29.08.2019
2910 Clear 20 1016 73 10000 3.1 180 00:47 29.08.2019
2911 Clear 20 1016 73 10000 3.1 180 00:21 29.08.2019
2912 Clear 20 1015 68 10000 2.1 200 23:57 28.08.2019
2913 Clear 21 1015 64 10000 1.5 180 23:38 28.08.2019
2914 Clear 21 1015 64 10000 1.5 180 23:19 28.08.2019
2915 Clear 21 1016 73 10000 1.5 170 22:56 28.08.2019
2916 Clear 21 1016 60 10000 0.5 0 22:37 28.08.2019
2917 Clear 22 1016 60 10000 0.5 0 22:18 28.08.2019
2918 Clear 23 1016 61 10000 3.1 340 21:41 28.08.2019
2919 Clear 23 1016 61 10000 3.1 340 21:22 28.08.2019
2920 Clear 24 1015 61 10000 1 0 20:56 28.08.2019
2921 Clear 25 1015 61 10000 1.5 220 20:38 28.08.2019
2922 Clear 26 1015 57 10000 1 0 20:20 28.08.2019
2923 Clear 26 1015 57 10000 1 0 19:42 28.08.2019
2924 Clear 27 1015 57 10000 1 0 19:22 28.08.2019
2925 Clear 28 1015 54 10000 2.1 140 18:57 28.08.2019
2926 Clear 28 1015 48 10000 1.5 150 18:37 28.08.2019
2927 Clouds 29 1015 47 9000 3.6 130 18:19 28.08.2019
2928 Clouds 29 979 58 0 0.89 204 17:38 28.08.2019
2929 Thunderstorm 29 1015 51 9000 4.1 150 17:19 28.08.2019
2930 Clouds 29 1014 53 0 4.13 192.506 16:45 28.08.2019
2931 Clouds 30 1015 45 10000 4.6 150 16:23 28.08.2019
2932 Clouds 29 1015 42 10000 1.5 190 15:59 28.08.2019
2933 Clear 30 1015 40 10000 3.1 200 15:38 28.08.2019
2934 Clear 30 1015 40 10000 2.1 160 15:20 28.08.2019
2935 Clear 30 1015 40 10000 2.1 160 14:57 28.08.2019
2936 Clear 30 1016 45 10000 2.1 160 14:39 28.08.2019
2937 Clear 31 1016 45 10000 2.1 160 14:20 28.08.2019
2938 Clear 30 1016 45 10000 2.6 160 13:58 28.08.2019
2939 Clear 30 1016 45 10000 2.1 0 13:38 28.08.2019
2940 Clear 30 1016 45 10000 2.1 0 13:19 28.08.2019
2941 Clouds 30 1016 45 10000 1.5 0 12:42 28.08.2019
2942 Clouds 30 1016 45 10000 1.5 0 12:24 28.08.2019
2943 Clouds 29 1016 48 10000 2.1 0 11:57 28.08.2019
2944 Clouds 29 1016 54 10000 2.6 210 11:38 28.08.2019
2945 Clouds 28 1016 54 10000 2.6 210 11:20 28.08.2019
2946 -273 0 0 0 0 0 10:55 28.08.2019
2947 Clear 28 1016 61 10000 2.6 210 10:37 28.08.2019
2948 Clear 27 1016 61 10000 2.6 210 10:18 28.08.2019
2949 Clear 25 1017 69 10000 3.6 160 09:41 28.08.2019
2950 Clear 25 1017 69 10000 3.6 160 09:41 28.08.2019
2951 Clear 24 1017 69 10000 3.6 160 09:20 28.08.2019
2952 Clear 22 1017 78 10000 4.1 150 08:40 28.08.2019
2953 Clear 22 1017 73 10000 4.1 150 08:21 28.08.2019
2954 Clear 21 1017 73 10000 4.1 150 07:57 28.08.2019
2955 Clear 20 1016 77 10000 4.1 150 07:36 28.08.2019
2956 Clear 19 1016 77 10000 4.1 150 07:18 28.08.2019
2957 Clear 19 1016 77 10000 4.1 150 06:40 28.08.2019
2958 Clear 19 1017 77 10000 4.1 160 05:47 28.08.2019
2959 Clear 20 1017 73 10000 3.6 150 03:55 28.08.2019
2960 Clear 20 1017 73 10000 3.6 150 01:56 28.08.2019
2961 Clear 20 1017 78 10000 3.6 150 01:30 28.08.2019
2962 Clear 21 1017 78 10000 2.6 160 00:43 28.08.2019
2963 Clear 21 1017 78 10000 2.6 160 00:21 28.08.2019
2964 Clear 21 1017 64 10000 3.1 150 23:43 27.08.2019
2965 Clear 22 1017 64 10000 3.1 150 23:22 27.08.2019
2966 Clear 22 1017 64 10000 3.1 150 23:22 27.08.2019
2967 Clear 22 1017 64 10000 2.6 160 22:57 27.08.2019
2968 Clear 22 1017 64 10000 2.1 170 22:38 27.08.2019
2969 Clouds 22 981 76 0 0.89 122 22:20 27.08.2019
2970 Clear 22 1017 61 10000 2.1 150 21:56 27.08.2019
2971 Clouds 23 1016 76 0 3.11 173.546 21:37 27.08.2019
2972 Clear 23 1017 57 10000 2.1 130 21:18 27.08.2019
2973 Clear 24 1017 57 10000 2.1 160 20:55 27.08.2019
2974 Clear 25 1017 54 10000 2.6 140 20:37 27.08.2019
2975 Clear 25 1017 51 10000 3.1 150 20:18 27.08.2019
2976 Clear 26 1017 48 10000 4.6 170 19:42 27.08.2019
2977 Clear 26 1017 48 10000 4.6 170 19:24 27.08.2019
2978 Clear 27 1017 48 10000 4.6 170 18:55 27.08.2019
2979 Clear 28 1017 45 10000 4.6 170 18:36 27.08.2019
2980 Clear 28 1017 45 10000 4.6 170 18:36 27.08.2019
2981 Clear 28 1017 45 10000 4.6 160 18:18 27.08.2019
2982 Clear 29 1017 45 10000 5.1 160 17:43 27.08.2019
2983 Clear 29 1017 45 10000 5.1 160 17:24 27.08.2019
2984 Clear 29 1017 45 10000 6.2 130 16:57 27.08.2019
2985 Clear 29 1017 45 10000 5.1 140 16:36 27.08.2019
2986 Clear 29 1018 45 10000 5.7 170 16:18 27.08.2019
2987 Clear 29 1018 42 10000 4.6 130 15:41 27.08.2019
2988 Clear 30 1018 42 10000 4.6 130 15:23 27.08.2019
2989 Clear 29 1018 48 10000 4.6 170 14:59 27.08.2019
2990 Clouds 28 1019 48 10000 5.1 140 14:41 27.08.2019
2991 Clouds 28 1019 48 10000 5.1 140 14:23 27.08.2019
2992 Clouds 28 1019 51 10000 5.7 170 13:43 27.08.2019
2993 Clouds 28 1019 51 10000 5.7 170 13:24 27.08.2019
2994 Clouds 28 1019 51 10000 5.1 120 12:56 27.08.2019
2995 Clouds 28 1019 54 10000 5.7 170 12:37 27.08.2019
2996 Clear 27 1019 54 10000 4.6 150 12:19 27.08.2019
2997 Clear 27 1019 57 10000 5.1 170 11:44 27.08.2019
2998 Clear 26 1019 57 10000 5.1 170 11:25 27.08.2019
2999 Clear 25 1019 60 10000 4.6 150 10:46 27.08.2019
3000 Clear 24 1019 60 10000 4.6 150 10:26 27.08.2019
3001 Clear 24 1019 64 10000 4.6 150 09:59 27.08.2019
3002 Clear 23 1019 64 10000 4.1 160 09:39 27.08.2019
3003 Clear 23 1019 64 10000 4.1 160 09:21 27.08.2019
3004 Clear 22 1019 68 10000 4.6 150 08:56 27.08.2019
3005 Clear 21 1019 68 10000 5.1 160 08:37 27.08.2019
3006 Clear 21 1019 68 10000 5.1 160 08:37 27.08.2019
3007 Clear 21 1019 68 10000 5.1 160 08:18 27.08.2019
3008 Clear 20 1019 68 10000 5.1 150 07:41 27.08.2019
3009 Clear 20 1019 68 10000 5.1 150 07:41 27.08.2019
3010 Clear 19 1019 68 10000 5.1 150 07:20 27.08.2019
3011 Clear 19 1019 73 10000 4.6 150 06:54 27.08.2019
3012 Clear 18 1018 73 10000 3.6 150 06:27 27.08.2019
3013 Clear 19 1018 73 10000 4.1 150 05:47 27.08.2019
3014 Clear 19 1018 73 10000 3.6 150 04:54 27.08.2019
3015 Clear 19 1018 68 10000 4.1 150 03:39 27.08.2019
3016 Clear 19 1019 68 10000 3.6 150 02:23 27.08.2019
3017 Clear 20 1019 69 10000 3.1 170 01:44 27.08.2019
3018 Clear 20 1019 69 10000 3.1 170 01:23 27.08.2019
3019 Clear 20 1019 73 10000 2.6 180 00:45 27.08.2019
3020 Clear 20 1019 73 10000 2.6 180 00:24 27.08.2019
3021 Clear 20 1019 73 10000 1 110 23:40 26.08.2019
3022 Clear 20 1019 73 10000 1 110 23:21 26.08.2019
3023 Clear 21 1019 73 10000 1 0 22:54 26.08.2019
3024 Clear 21 1019 78 10000 1 140 22:36 26.08.2019
3025 Clear 21 1019 78 10000 1 140 22:18 26.08.2019
3026 Clear 21 1019 83 10000 1 0 21:38 26.08.2019
3027 Clear 22 1019 73 10000 2.1 60 21:20 26.08.2019
3028 Clear 23 1019 78 10000 2.6 50 20:57 26.08.2019
3029 Clear 23 1019 78 10000 2.6 50 20:38 26.08.2019
3030 Clear 24 1019 73 10000 3.6 50 20:19 26.08.2019
3031 Clouds 25 1019 69 10000 3.6 40 19:44 26.08.2019
3032 Clouds 25 1019 69 10000 2.6 30 19:20 26.08.2019
3033 Thunderstorm 26 1019 61 10000 4.6 30 18:59 26.08.2019
3034 Thunderstorm 26 1019 61 10000 4.6 30 18:38 26.08.2019
3035 Thunderstorm 27 1018 48 10000 6.2 60 18:20 26.08.2019
3036 Thunderstorm 27 1018 42 10000 3.1 190 17:56 26.08.2019
3037 Thunderstorm 28 1018 42 10000 3.1 190 17:37 26.08.2019
3038 Clouds 29 1018 40 10000 2.6 170 17:18 26.08.2019
3039 Thunderstorm 28 1018 42 10000 5.7 150 16:55 26.08.2019
3040 Thunderstorm 29 1018 42 10000 5.7 150 16:37 26.08.2019
3041 Clouds 29 1018 38 10000 2.1 70 16:18 26.08.2019
3042 Clouds 29 1019 42 10000 4.1 110 15:41 26.08.2019
3043 Clouds 30 1019 38 10000 5.1 90 15:21 26.08.2019
3044 Clear 30 1019 40 10000 4.6 150 14:46 26.08.2019
3045 Clear 30 1020 42 10000 3.6 150 14:23 26.08.2019
3046 Clear 30 1020 40 10000 4.1 140 13:59 26.08.2019
3047 Clear 30 1020 40 10000 4.1 140 13:59 26.08.2019
3048 Clear 30 1020 40 10000 4.1 140 13:39 26.08.2019
3049 Clear 30 1020 42 10000 5.1 130 13:20 26.08.2019
3050 Clear 30 1020 42 10000 5.1 140 12:43 26.08.2019
3051 Clear 29 1020 45 10000 5.7 110 12:25 26.08.2019
3052 Clear 29 1020 42 10000 3.1 140 11:56 26.08.2019
3053 Clear 28 1020 42 10000 3.1 140 11:37 26.08.2019
3054 Clear 27 1020 51 10000 2.6 170 11:18 26.08.2019
3055 Clear 27 1021 57 10000 3.1 140 10:44 26.08.2019
3056 Clear 26 1021 61 10000 2.6 150 10:24 26.08.2019
3057 Clear 25 1021 64 10000 2.1 150 09:59 26.08.2019
3058 Clear 24 1021 64 10000 2.1 150 09:39 26.08.2019
3059 Clear 23 1021 73 10000 2.6 140 09:21 26.08.2019
3060 -273 0 0 0 0 0 08:55 26.08.2019
3061 Clear 20 1021 77 10000 2.6 140 08:37 26.08.2019
3062 Clear 19 1021 88 10000 0.5 0 08:18 26.08.2019
3063 Clear 19 1020 82 10000 1.5 150 07:42 26.08.2019
3064 Clear 17 1020 93 10000 0.5 0 07:23 26.08.2019
3065 Clear 17 1020 93 10000 1 0 06:49 26.08.2019
3066 -273 0 0 0 0 0 06:25 26.08.2019
3067 Clear 17 1020 93 10000 0.5 0 05:51 26.08.2019
3068 Clear 18 1020 82 10000 1 0 04:31 26.08.2019
3069 Clear 18 1020 77 10000 1 0 03:30 26.08.2019
3070 Clear 20 1021 73 10000 0.5 0 01:41 26.08.2019
3071 Clear 20 1021 73 10000 1.5 130 01:21 26.08.2019
3072 Clear 20 1021 68 10000 1.5 160 00:42 26.08.2019
3073 Clear 21 1021 68 10000 0.5 0 00:24 26.08.2019
3074 Clear 21 1021 68 10000 0.5 0 23:43 25.08.2019
3075 Clear 21 1021 68 10000 0.5 320 23:20 25.08.2019
3076 Clear 21 1021 64 10000 1 0 22:58 25.08.2019
3077 Clear 21 1021 64 10000 1 0 22:39 25.08.2019
3078 Clear 22 1021 64 10000 3.1 80 22:20 25.08.2019
3079 Clear 22 1021 60 10000 3.6 90 21:58 25.08.2019
3080 Clear 22 1021 60 10000 3.6 90 21:58 25.08.2019
3081 Clear 22 1021 60 10000 3.6 90 21:39 25.08.2019
3082 Clear 23 1021 64 10000 3.1 90 21:18 25.08.2019
3083 Clear 23 1020 61 10000 3.1 70 20:41 25.08.2019
3084 Clear 24 1020 57 10000 2.6 90 20:20 25.08.2019
3085 Clear 24 1020 57 10000 2.6 90 20:20 25.08.2019
3086 Clouds 24 1020 57 10000 2.6 90 19:59 25.08.2019
3087 Clouds 25 1020 57 10000 2.6 90 19:39 25.08.2019
3088 Clouds 26 1020 57 10000 3.1 100 19:20 25.08.2019
3089 Thunderstorm 26 1019 65 10000 3.6 130 18:58 25.08.2019
3090 Thunderstorm 26 1020 61 10000 3.1 0 18:40 25.08.2019
3091 Thunderstorm 28 1020 61 10000 3.1 0 18:21 25.08.2019
3092 Thunderstorm 28 1019 42 10000 5.7 50 17:55 25.08.2019
3093 Thunderstorm 29 1019 42 10000 5.7 50 17:36 25.08.2019
3094 Clouds 29 1019 38 10000 5.1 60 17:18 25.08.2019
3095 Clouds 30 1019 35 10000 4.6 90 16:39 25.08.2019
3096 Clear 31 1019 35 10000 4.1 160 16:21 25.08.2019
3097 Clear 31 1020 35 10000 4.6 150 15:44 25.08.2019
3098 Clear 30 1020 38 10000 4.6 130 15:26 25.08.2019
3099 Clear 30 1020 37 10000 5.1 120 14:55 25.08.2019
3100 Clear 31 1020 38 10000 5.1 110 14:37 25.08.2019
3101 Clear 31 1020 38 10000 5.1 110 14:19 25.08.2019
3102 Clear 30 1020 38 10000 4.6 140 13:43 25.08.2019
3103 Clear 30 1020 42 10000 4.6 120 13:21 25.08.2019
3104 Clear 30 1020 45 10000 4.6 90 12:54 25.08.2019
3105 Clear 29 1020 45 10000 4.6 90 12:36 25.08.2019
3106 Clear 29 1020 45 10000 4.6 90 12:36 25.08.2019
3107 Clear 29 1021 45 10000 4.1 100 12:18 25.08.2019
3108 Clear 29 1021 45 10000 5.7 100 11:54 25.08.2019
3109 Clear 28 1021 45 10000 5.7 100 11:36 25.08.2019
3110 Clear 27 1021 47 10000 5.1 110 11:18 25.08.2019
3111 Clear 27 1021 51 10000 4.6 130 10:40 25.08.2019
3112 Clear 26 1021 50 10000 4.1 130 10:20 25.08.2019
3113 Clear 25 1021 57 10000 3.1 100 09:56 25.08.2019
3114 Clear 24 1021 57 10000 3.1 100 09:37 25.08.2019
3115 Clear 23 1021 60 10000 2.1 90 09:19 25.08.2019
3116 Clear 22 1020 64 10000 2.6 120 08:42 25.08.2019
3117 Clear 20 1021 73 10000 2.6 80 08:21 25.08.2019
3118 Clear 19 1020 77 10000 3.1 100 07:38 25.08.2019
3119 Clear 18 1020 77 10000 3.6 90 07:19 25.08.2019
3120 Clear 17 1020 82 10000 2.6 100 06:22 25.08.2019
3121 Clear 18 1020 77 10000 1.5 140 04:45 25.08.2019
3122 Clear 18 1020 77 10000 2.6 90 03:36 25.08.2019
3123 Clear 18 1021 77 10000 3.1 110 02:40 25.08.2019
3124 Clear 19 1021 77 10000 0.5 0 01:35 25.08.2019
3125 Clear 19 984 86 0 1.37 115.199 00:40 25.08.2019
3126 Clear 19 1021 73 10000 2.6 110 00:21 25.08.2019
3127 Clear 20 1021 68 10000 2.1 100 23:52 24.08.2019
3128 Clear 20 1021 68 10000 2.1 60 23:23 24.08.2019
3129 Clouds 20 985 82 0 1.42 98.393 22:56 24.08.2019
3130 Clear 20 1021 68 10000 2.6 60 22:38 24.08.2019
3131 Clear 20 1021 68 10000 3.1 60 22:19 24.08.2019
3132 Clear 20 1021 68 10000 3.1 60 22:19 24.08.2019
3133 Clouds 20 985 79 0 1.42 98.393 21:56 24.08.2019
3134 Clear 21 1021 64 10000 2.6 60 21:38 24.08.2019
3135 Clear 22 1021 64 10000 2.6 60 21:19 24.08.2019
3136 Clear 22 1021 60 10000 3.1 60 20:55 24.08.2019
3137 Clear 23 1021 60 10000 3.1 60 20:37 24.08.2019
3138 Clear 24 1021 57 10000 3.1 80 20:18 24.08.2019
3139 Clear 24 1021 57 10000 3.1 80 20:18 24.08.2019
3140 Clear 24 1021 54 10000 4.1 90 19:57 24.08.2019
3141 Clear 25 1021 54 10000 4.1 90 19:37 24.08.2019
3142 Clear 26 1021 54 10000 5.7 90 19:18 24.08.2019
3143 Clear 26 1021 51 10000 6.2 90 18:42 24.08.2019
3144 Clear 27 1021 51 10000 5.1 100 18:23 24.08.2019
3145 Clear 27 1022 51 10000 5.1 80 17:45 24.08.2019
3146 Clear 28 1022 51 10000 5.1 90 17:25 24.08.2019
3147 Clear 27 1022 47 10000 4.1 60 16:55 24.08.2019
3148 Clear 27 1022 47 10000 4.1 60 16:36 24.08.2019
3149 Clear 27 1022 47 10000 4.6 60 16:18 24.08.2019
3150 Clouds 27 1022 47 10000 5.1 70 15:41 24.08.2019
3151 Clouds 27 1022 50 10000 3.6 100 15:23 24.08.2019
3152 Clouds 27 1023 47 10000 4.6 80 14:55 24.08.2019
3153 Clouds 27 1023 47 10000 4.6 80 14:37 24.08.2019
3154 Clouds 27 1023 47 10000 4.6 60 14:18 24.08.2019
3155 Clouds 27 1023 47 10000 4.6 60 13:42 24.08.2019
3156 Clouds 26 1023 47 10000 4.6 70 13:22 24.08.2019
3157 Clouds 26 1023 50 10000 4.6 60 12:58 24.08.2019
3158 Clouds 26 1023 50 10000 4.6 60 12:39 24.08.2019
3159 Clouds 26 1023 50 10000 4.6 60 12:20 24.08.2019
3160 Clouds 25 1023 50 10000 4.1 60 11:45 24.08.2019
3161 Clouds 25 1024 57 10000 2.6 50 11:24 24.08.2019
3162 Clear 24 1024 60 10000 2.1 40 10:57 24.08.2019
3163 Clear 23 1024 60 10000 2.1 40 10:38 24.08.2019
3164 Clear 22 1024 64 10000 2.1 80 10:19 24.08.2019
3165 Clear 21 1024 64 10000 2.1 70 09:40 24.08.2019
3166 Clear 19 1024 72 10000 1 0 09:18 24.08.2019
3167 Clear 17 1024 82 10000 1 0 08:42 24.08.2019
3168 Clear 16 1024 82 10000 1 0 08:23 24.08.2019
3169 Clear 14 1024 93 10000 1 210 07:50 24.08.2019
3170 Clear 14 1024 100 10000 1.5 210 07:29 24.08.2019
3171 Clear 13 1024 93 10000 0.5 0 06:31 24.08.2019
3172 Clear 12 1024 93 10000 1 190 05:59 24.08.2019
3173 Clear 12 1024 93 10000 1 190 05:35 24.08.2019
3174 Clear 13 1024 82 10000 1 130 03:40 24.08.2019
3175 Clear 13 1024 82 10000 1 100 02:41 24.08.2019
3176 Clear 14 987 87 0 0.75 151.267 01:54 24.08.2019
3177 Clear 15 1025 72 10000 0.5 0 01:24 24.08.2019
3178 Clear 15 1025 77 10000 0.5 180 00:46 24.08.2019
3179 Clear 15 1025 68 10000 0.5 340 00:22 24.08.2019
3180 Clear 16 1025 63 10000 0.5 200 23:45 23.08.2019
3181 Clear 16 1025 63 10000 1.5 100 23:20 23.08.2019
3182 Clear 17 1025 60 10000 2.6 90 22:44 23.08.2019
3183 Clear 17 1025 56 10000 2.6 90 22:25 23.08.2019
3184 Clear 18 1025 49 10000 2.1 90 21:55 23.08.2019
3185 Clear 19 1025 49 10000 2.1 90 21:37 23.08.2019
3186 Clear 19 1025 56 10000 2.1 60 21:19 23.08.2019
3187 Clear 20 1025 53 10000 2.1 60 20:51 23.08.2019
3188 Clear 21 1025 53 10000 2.1 60 20:33 23.08.2019
3189 Clear 22 1024 44 10000 4.1 60 19:46 23.08.2019
3190 Clear 24 1025 41 10000 3.6 70 19:19 23.08.2019
3191 Clear 24 1025 41 10000 3.6 80 18:55 23.08.2019
3192 Clear 25 1025 41 10000 3.6 80 18:37 23.08.2019
3193 Clear 26 1025 39 10000 3.1 70 18:19 23.08.2019
3194 Clear 26 1025 39 10000 4.1 50 17:42 23.08.2019
3195 Clear 27 1025 39 10000 4.1 60 17:24 23.08.2019
3196 Clear 27 1025 34 10000 2.1 0 16:56 23.08.2019
3197 Clear 27 1025 34 10000 2.1 0 16:38 23.08.2019
3198 Clear 27 1025 36 10000 4.1 60 16:20 23.08.2019
3199 Clear 27 1025 36 10000 2.6 0 15:40 23.08.2019
3200 Clear 27 1026 36 10000 4.1 0 15:22 23.08.2019
3201 Clear 26 1026 39 10000 3.6 30 14:57 23.08.2019
3202 Clear 26 1026 39 10000 3.6 30 14:39 23.08.2019
3203 Clear 26 1026 41 10000 3.1 50 14:20 23.08.2019
3204 Clear 26 1026 44 10000 2.6 50 13:54 23.08.2019
3205 Clear 25 1026 44 10000 2.6 50 13:36 23.08.2019
3206 Clear 25 1026 44 10000 2.6 50 13:36 23.08.2019
3207 Clear 26 1027 41 10000 2.6 0 13:18 23.08.2019
3208 Clear 25 1027 41 10000 1 0 12:41 23.08.2019
3209 Clear 25 1027 44 10000 1 0 12:22 23.08.2019
3210 Clouds 25 1027 47 10000 1.5 0 11:58 23.08.2019
3211 Clouds 24 1027 47 10000 1.5 0 11:39 23.08.2019
3212 Clouds 23 1027 46 10000 1.5 210 11:20 23.08.2019
3213 Clear 23 1027 49 10000 1.5 0 10:57 23.08.2019
3214 Clear 23 1027 49 10000 1.5 0 10:39 23.08.2019
3215 Clear 22 1027 49 10000 1 0 10:20 23.08.2019
3216 Clear 20 1027 64 10000 1 0 09:44 23.08.2019
3217 Clear 19 1027 72 10000 1 0 09:25 23.08.2019
3218 Fog 18 1027 77 10000 0.5 0 08:57 23.08.2019
3219 Fog 16 1027 77 10000 0.5 0 08:37 23.08.2019
3220 Fog 15 1027 82 10000 1 0 08:18 23.08.2019
3221 Fog 13 1027 93 10000 1.5 150 07:41 23.08.2019
3222 Fog 13 1027 93 10000 1.5 160 07:23 23.08.2019
3223 Fog 12 1027 93 10000 1 160 06:44 23.08.2019
3224 Fog 10 1027 93 10000 0.5 160 06:23 23.08.2019
3225 Clear 11 1026 93 10000 1 150 05:46 23.08.2019
3226 Clear 11 1026 93 10000 1 140 05:27 23.08.2019
3227 Clear 11 1026 93 10000 1 180 04:19 23.08.2019
3228 Clear 12 1026 87 10000 2.6 160 02:49 23.08.2019
3229 Clear 12 1026 82 10000 3.1 160 02:22 23.08.2019
3230 Clear 13 1026 77 10000 3.6 160 01:38 23.08.2019
3231 Clear 14 1027 72 10000 2.1 150 00:44 23.08.2019
3232 Clear 14 1027 72 10000 1 160 00:19 23.08.2019
3233 Clear 15 1027 72 10000 0.5 0 23:45 22.08.2019
3234 Clear 15 1026 72 10000 1.5 110 23:23 22.08.2019
3235 -273 0 0 0 0 0 22:55 22.08.2019
3236 Clear 16 1026 68 10000 2.1 110 22:37 22.08.2019
3237 Clear 16 1026 63 10000 1.5 100 22:19 22.08.2019
3238 Clear 16 1026 63 10000 1.5 100 22:19 22.08.2019
3239 Clear 17 1026 63 10000 2.1 80 21:55 22.08.2019
3240 Clear 17 1026 63 10000 2.1 80 21:36 22.08.2019
3241 Clear 18 1026 60 10000 2.6 70 21:18 22.08.2019
3242 Clear 19 1026 60 10000 3.6 70 20:54 22.08.2019
3243 Clear 19 1026 60 10000 3.6 70 20:54 22.08.2019
3244 Clear 20 1026 60 10000 3.6 70 20:36 22.08.2019
3245 Clear 21 1025 53 10000 3.1 70 20:18 22.08.2019
3246 Clear 20 1025 53 10000 4.6 70 19:40 22.08.2019
3247 Clear 22 1025 49 10000 4.1 60 19:21 22.08.2019
3248 Clear 23 1025 44 10000 5.1 90 18:59 22.08.2019
3249 Clear 23 1025 44 10000 5.1 90 18:40 22.08.2019
3250 Clear 24 1025 41 10000 3.1 60 18:20 22.08.2019
3251 Clear 25 1025 44 10000 3.6 110 17:58 22.08.2019
3252 Clear 25 1025 44 10000 3.6 110 17:58 22.08.2019
3253 Clear 25 1025 44 10000 3.6 110 17:39 22.08.2019
3254 Clear 25 1026 41 10000 3.6 90 17:20 22.08.2019
3255 Clear 25 1026 41 10000 3.6 110 16:57 22.08.2019
3256 Clear 25 1026 41 10000 3.6 110 16:38 22.08.2019
3257 Clear 25 1026 41 10000 4.6 60 16:20 22.08.2019
3258 Clear 25 1026 41 10000 4.6 60 16:20 22.08.2019
3259 Clear 25 1026 41 10000 4.6 60 16:20 22.08.2019
3260 Clear 25 1026 41 10000 5.1 50 15:55 22.08.2019
3261 Clear 25 1026 41 10000 5.1 50 15:55 22.08.2019
3262 Clear 24 1026 41 10000 5.1 50 15:36 22.08.2019
3263 Clear 24 1026 36 10000 3.6 110 15:18 22.08.2019
3264 Clear 24 1026 36 10000 3.6 110 15:18 22.08.2019
3265 Clear 24 1026 38 10000 4.1 60 14:41 22.08.2019
3266 Clear 24 1027 38 10000 4.6 80 14:22 22.08.2019
3267 Clear 24 1027 38 10000 4.1 80 13:59 22.08.2019
3268 Clear 24 1027 38 10000 4.1 80 13:40 22.08.2019
3269 Clear 24 1027 33 10000 4.6 60 13:21 22.08.2019
3270 Clear 23 1027 38 10000 4.1 80 12:57 22.08.2019
3271 Clear 23 1027 38 10000 4.1 80 12:38 22.08.2019
3272 Clear 23 1028 40 10000 4.1 90 12:19 22.08.2019
3273 Clouds 23 1028 40 10000 5.1 80 11:42 22.08.2019
3274 Clouds 22 1028 40 10000 5.1 80 11:42 22.08.2019
3275 Clouds 23 1028 43 10000 4.1 110 11:21 22.08.2019
3276 Clear 22 1028 52 10000 3.1 120 10:58 22.08.2019
3277 Clear 21 1028 52 10000 3.1 120 10:40 22.08.2019
3278 Clear 20 1028 56 10000 1.5 80 10:22 22.08.2019
3279 Clear 19 1028 68 10000 0.5 0 09:57 22.08.2019
3280 Clear 18 1028 68 10000 0.5 0 09:39 22.08.2019
3281 Clear 17 1028 72 10000 0.5 0 09:20 22.08.2019
3282 Clear 16 1028 77 10000 0.5 0 08:56 22.08.2019
3283 Clear 14 1028 77 10000 0.5 0 08:38 22.08.2019
3284 Clear 13 1028 93 10000 1 0 08:20 22.08.2019
3285 Clear 12 1028 93 10000 1 140 07:40 22.08.2019
3286 Clear 12 1028 93 10000 1 140 07:20 22.08.2019
3287 Clear 12 1028 93 10000 1 0 06:52 22.08.2019
3288 Clear 9 1028 93 10000 0.5 180 06:24 22.08.2019
3289 Clear 10 1028 93 10000 0.5 0 05:45 22.08.2019
3290 Clear 10 1028 87 10000 1.3 131.186 04:38 22.08.2019
3291 Clear 11 1028 87 10000 1 0 02:50 22.08.2019
3292 Clear 11 1028 87 10000 1 0 02:50 22.08.2019
3293 Clear 11 1028 82 10000 1.5 170 02:32 22.08.2019
3294 Clear 11 1028 76 10000 1.5 190 01:25 22.08.2019
3295 Clear 12 1028 76 10000 1 190 00:45 22.08.2019
3296 Clear 12 991 80 0 1.45 185.298 00:27 22.08.2019
3297 Clear 12 991 80 0 1.45 185.298 23:54 21.08.2019
3298 Clear 12 991 80 0 1.45 185.298 23:36 21.08.2019
3299 Clear 12 991 79 0 1.45 185.298 23:18 21.08.2019
3300 Clear 13 991 75 0 1.45 185.298 22:55 21.08.2019
3301 Clear 13 991 76 0 1.45 185.298 22:36 21.08.2019
3302 Clear 14 991 74 0 1.45 185.298 22:18 21.08.2019
3303 Clear 14 991 73 0 1.45 185.298 21:55 21.08.2019
3304 Clear 14 991 73 0 1.45 185.298 21:55 21.08.2019
3305 Clear 15 991 67 0 0.59 190.602 21:36 21.08.2019
3306 Clouds 15 1028 68 0 1.16 352.942 21:18 21.08.2019
3307 Clear 17 1028 49 10000 1 300 20:42 21.08.2019
3308 Clouds 17 991 64 0 1.16 352.942 20:24 21.08.2019
3309 Clear 19 1028 46 10000 1.5 350 19:56 21.08.2019
3310 Clear 20 1028 46 10000 1.5 350 19:38 21.08.2019
3311 Clear 21 1028 43 10000 2.1 350 19:20 21.08.2019
3312 Clear 21 1028 43 10000 1.5 320 18:55 21.08.2019
3313 Clear 21 1028 43 10000 1.5 320 18:37 21.08.2019
3314 Clear 22 1028 43 10000 2.1 340 18:19 21.08.2019
3315 Clear 22 1028 46 10000 2.1 300 17:42 21.08.2019
3316 Clear 22 1028 46 10000 2.1 340 17:20 21.08.2019
3317 Clear 22 1028 46 10000 2.6 330 16:54 21.08.2019
3318 Clear 22 1028 46 10000 2.6 330 16:36 21.08.2019
3319 Clear 23 1028 43 10000 2.6 300 16:18 21.08.2019
3320 Clouds 22 1028 49 10000 3.6 300 15:42 21.08.2019
3321 Clouds 22 1028 49 10000 3.6 310 15:22 21.08.2019
3322 Clouds 22 1028 49 10000 3.1 310 14:59 21.08.2019
3323 Clouds 22 1028 49 10000 3.1 310 14:39 21.08.2019
3324 Clouds 22 1028 52 10000 2.6 310 14:21 21.08.2019
3325 Clouds 21 1028 56 10000 3.1 280 13:58 21.08.2019
3326 Clouds 21 1028 56 10000 3.1 280 13:40 21.08.2019
3327 Clouds 21 1028 56 10000 3.6 0 13:19 21.08.2019
3328 Clouds 21 1028 63 10000 3.6 260 12:57 21.08.2019
3329 Clouds 20 1028 63 10000 3.6 260 12:38 21.08.2019
3330 Clouds 20 1028 63 10000 3.6 270 12:18 21.08.2019
3331 Clouds 20 1028 68 10000 4.1 260 11:43 21.08.2019
3332 Clouds 19 1028 68 10000 4.6 290 11:23 21.08.2019
3333 Clouds 19 1028 77 10000 4.1 290 10:58 21.08.2019
3334 Clouds 18 1028 77 10000 4.1 290 10:38 21.08.2019
3335 Clouds 18 1028 77 10000 4.1 290 10:20 21.08.2019
3336 Clouds 17 1028 82 10000 4.1 270 09:58 21.08.2019
3337 Clouds 16 1028 82 10000 4.1 270 09:40 21.08.2019
3338 Clear 15 1028 82 10000 2.6 260 09:21 21.08.2019
3339 Clear 15 1028 87 10000 2.6 230 08:49 21.08.2019
3340 Clear 15 1027 87 10000 3.1 220 08:25 21.08.2019
3341 Clear 14 1027 93 10000 3.1 220 07:45 21.08.2019
3342 Rain 13 1027 100 10000 2.1 240 07:26 21.08.2019
3343 Rain 13 1027 100 10000 1.5 200 06:51 21.08.2019
3344 Rain 13 1027 100 10000 1.5 200 06:33 21.08.2019
3345 Rain 13 1026 93 10000 2.1 240 05:57 21.08.2019
3346 Rain 13 1026 93 10000 1.5 230 05:28 21.08.2019
3347 Rain 14 1026 93 10000 1.5 230 04:42 21.08.2019
3348 Rain 14 1026 93 10000 1.5 230 04:42 21.08.2019
3349 Rain 14 1025 93 10000 3.6 280 02:44 21.08.2019
3350 Rain 14 1025 87 10000 2.6 260 01:34 21.08.2019
3351 Rain 14 1025 93 10000 2.6 280 00:42 21.08.2019
3352 Rain 15 1024 93 10000 3.1 290 00:21 21.08.2019
3353 Rain 15 1024 87 10000 3.6 290 23:45 20.08.2019
3354 Rain 15 1024 87 10000 3.6 290 23:20 20.08.2019
3355 Rain 15 1023 82 10000 2.1 270 22:59 20.08.2019
3356 Rain 16 1023 82 10000 2.1 270 22:40 20.08.2019
3357 Rain 16 1023 77 10000 4.1 290 22:22 20.08.2019
3358 Rain 16 1023 77 10000 2.6 330 21:58 20.08.2019
3359 Rain 17 1023 77 10000 2.6 330 21:39 20.08.2019
3360 Rain 17 1023 77 10000 2.6 330 21:39 20.08.2019
3361 Rain 17 1023 68 10000 4.1 310 21:20 20.08.2019
3362 Rain 17 1022 60 10000 6.2 320 20:59 20.08.2019
3363 Rain 17 1022 60 10000 6.2 320 20:59 20.08.2019
3364 Rain 17 1022 60 10000 6.2 320 20:41 20.08.2019
3365 Clouds 18 1022 49 10000 1.5 330 20:23 20.08.2019
3366 Rain 19 985 69 0 3.93 322.888 19:41 20.08.2019
3367 Rain 20 1021 53 10000 1 0 19:22 20.08.2019
3368 Rain 20 984 67 0 3.93 322.888 18:58 20.08.2019
3369 Rain 21 984 67 0 3.93 322.888 18:40 20.08.2019
3370 Rain 21 984 67 0 3.93 322.888 18:40 20.08.2019
3371 Clear 21 1021 46 10000 3.1 350 18:19 20.08.2019
3372 Clear 22 1021 46 10000 3.1 350 17:58 20.08.2019
3373 Clear 22 1021 49 10000 3.6 340 17:39 20.08.2019
3374 Clear 22 1021 49 10000 3.6 340 17:20 20.08.2019
3375 Clear 23 1021 47 10000 2.6 340 16:46 20.08.2019
3376 Clear 23 1021 47 10000 2.6 340 16:28 20.08.2019
3377 Clear 23 1021 44 10000 2.1 350 15:59 20.08.2019
3378 Clear 23 1021 47 10000 2.6 340 15:40 20.08.2019
3379 Clear 24 1021 47 10000 2.6 340 15:18 20.08.2019
3380 Clouds 24 1021 47 10000 1.5 0 14:44 20.08.2019
3381 Clouds 24 1021 47 10000 1.5 0 14:22 20.08.2019
3382 Clouds 24 1021 47 10000 1.5 0 14:22 20.08.2019
3383 Clouds 24 1021 50 10000 1.5 0 13:59 20.08.2019
3384 Clouds 24 1021 50 0 2.6 0 13:40 20.08.2019
3385 Clouds 24 1021 50 0 2.6 0 13:21 20.08.2019
3386 Clouds 24 1021 53 10000 1.5 0 12:55 20.08.2019
3387 Clouds 24 1021 56 10000 2.1 30 12:36 20.08.2019
3388 Clouds 24 1021 56 10000 1.5 0 12:18 20.08.2019
3389 Clouds 23 1021 56 10000 1 0 11:42 20.08.2019
3390 Clouds 23 1021 56 10000 1 0 11:22 20.08.2019
3391 Clouds 23 1021 64 10000 1 0 10:58 20.08.2019
3392 Clouds 22 984 72 0 1.87 2.907 10:39 20.08.2019
3393 Clouds 22 984 72 0 1.87 2.907 10:39 20.08.2019
3394 Clouds 20 1021 77 10000 1.5 230 10:21 20.08.2019
3395 Clouds 20 1021 77 10000 2.6 220 09:59 20.08.2019
3396 Clear 19 1021 82 10000 1.5 200 09:40 20.08.2019
3397 Clear 18 1021 82 10000 1.5 200 09:21 20.08.2019
3398 Clear 16 1021 87 10000 2.1 140 08:42 20.08.2019
3399 Clear 16 1021 87 10000 2.1 140 08:24 20.08.2019
3400 Clear 15 1021 87 10000 1 0 07:58 20.08.2019
3401 Clear 15 1021 93 10000 1 0 07:39 20.08.2019
3402 Clear 15 1021 93 10000 1 0 07:20 20.08.2019
3403 Clear 14 1020 93 10000 1.5 160 06:46 20.08.2019
3404 Clear 14 1020 93 10000 1.5 160 06:21 20.08.2019
3405 Clear 14 1020 100 10000 1 160 05:47 20.08.2019
3406 Clear 14 1020 93 10000 0.5 150 04:30 20.08.2019
3407 Clear 14 1020 93 10000 1 0 02:51 20.08.2019
3408 Clear 14 1020 87 10000 1.5 120 02:18 20.08.2019
3409 Clear 15 1020 87 10000 2.1 150 01:21 20.08.2019
3410 Clear 15 1019 82 10000 0.5 0 00:45 20.08.2019
3411 Clear 15 1019 82 10000 0.5 0 00:25 20.08.2019
3412 Clear 16 1019 77 10000 3.6 160 23:50 19.08.2019
3413 Clear 16 1019 77 10000 3.6 170 23:19 19.08.2019
3414 Clear 16 1019 77 10000 3.1 170 22:59 19.08.2019
3415 Clear 16 1019 77 10000 3.1 180 22:41 19.08.2019
3416 Clear 17 1019 77 10000 3.1 180 22:21 19.08.2019
3417 Clear 17 1019 77 10000 2.6 170 21:58 19.08.2019
3418 Clouds 17 982 86 0 0.45 163 21:39 19.08.2019
3419 Clear 18 1019 72 10000 3.6 170 21:20 19.08.2019
3420 Clear 18 1018 68 10000 3.6 160 20:57 19.08.2019
3421 Clouds 19 982 80 0 0.89 117 20:38 19.08.2019
3422 Clear 20 1018 60 10000 0.5 0 20:19 19.08.2019
3423 Clouds 20 982 77 0 1.34 112 19:55 19.08.2019
3424 Clear 21 1018 46 10000 1 0 19:36 19.08.2019
3425 Clear 22 1018 49 10000 2.6 280 19:18 19.08.2019
3426 Clear 22 1018 47 10000 1.5 320 18:42 19.08.2019
3427 Clear 23 1018 47 10000 1.5 320 18:24 19.08.2019
3428 Clouds 23 1018 47 10000 3.6 240 17:58 19.08.2019
3429 Clouds 23 1018 53 10000 3.1 230 17:40 19.08.2019
3430 Clouds 23 1018 53 10000 3.1 230 17:19 19.08.2019
3431 Clouds 23 1018 53 10000 4.6 230 16:58 19.08.2019
3432 Clouds 23 1018 53 10000 4.6 230 16:37 19.08.2019
3433 Clouds 23 1018 53 10000 3.1 0 16:18 19.08.2019
3434 Clouds 22 1018 53 10000 3.6 260 15:45 19.08.2019
3435 Clouds 22 1018 56 10000 3.1 260 15:20 19.08.2019
3436 Clouds 22 1018 64 10000 2.1 240 14:58 19.08.2019
3437 Clouds 21 1018 64 10000 2.1 240 14:38 19.08.2019
3438 Clouds 20 1017 68 10000 2.6 280 14:20 19.08.2019
3439 Clouds 20 1017 72 10000 2.1 270 13:57 19.08.2019
3440 Clouds 20 1017 72 10000 2.1 270 13:57 19.08.2019
3441 Clouds 20 1017 72 10000 2.1 270 13:37 19.08.2019
3442 Clouds 20 1017 72 10000 2.1 270 13:37 19.08.2019
3443 Clouds 20 1017 72 10000 2.6 260 13:19 19.08.2019
3444 Clouds 19 1017 77 10000 2.1 280 12:44 19.08.2019
3445 Clouds 19 1017 88 10000 1 0 12:24 19.08.2019
3446 Clouds 19 1017 93 10000 2.6 320 11:59 19.08.2019
3447 Clouds 19 1017 93 10000 2.6 320 11:37 19.08.2019
3448 Clouds 19 1016 93 10000 2.6 350 11:19 19.08.2019
3449 Rain 18 1016 93 10000 2.6 300 10:40 19.08.2019
3450 Rain 18 1015 93 10000 1.5 310 10:20 19.08.2019
3451 Rain 18 1015 93 10000 1.5 310 10:20 19.08.2019
3452 Rain 18 1015 93 10000 1.5 310 10:19 19.08.2019
3453 Clouds 18 1015 93 10000 1.5 310 09:59 19.08.2019
3454 Clouds 18 1015 93 10000 1.5 310 09:41 19.08.2019
3455 Clouds 18 1015 93 10000 1 0 09:21 19.08.2019
3456 Clouds 18 1015 93 10000 1.5 170 08:55 19.08.2019
3457 Clouds 18 1015 93 10000 1.5 170 08:37 19.08.2019
3458 Rain 18 1015 93 10000 1.5 220 08:18 19.08.2019
3459 Rain 17 1015 93 10000 1.5 250 07:42 19.08.2019
3460 Clouds 17 1014 100 10000 1 0 07:24 19.08.2019
3461 Rain 17 1014 100 10000 1.5 250 06:45 19.08.2019
3462 Clouds 17 1014 100 10000 2.6 220 06:24 19.08.2019
3463 Clouds 16 1012 95 0 3.67 248.506 04:54 19.08.2019
3464 Clear 16 1013 93 10000 1 230 04:23 19.08.2019
3465 Clear 16 1012 93 10000 2.6 230 03:20 19.08.2019
3466 Clear 17 1011 93 10000 2.6 190 01:48 19.08.2019
3467 Clear 17 1011 93 10000 3.1 200 01:21 19.08.2019
3468 Rain 17 1011 93 10000 3.6 180 00:43 19.08.2019
3469 Rain 17 1011 100 10000 2.6 160 00:23 19.08.2019
3470 Rain 18 1012 100 10000 3.6 160 23:42 18.08.2019
3471 Rain 18 1011 100 10000 1 0 23:21 18.08.2019
3472 Rain 19 1011 100 1500 15.4 290 22:42 18.08.2019
3473 Thunderstorm 20 1008 77 10000 5.1 330 22:22 18.08.2019
3474 Clouds 21 1008 50 10000 2.1 290 21:59 18.08.2019
3475 Clouds 26 1008 50 10000 2.1 290 21:41 18.08.2019
3476 Clouds 27 1008 47 10000 2.1 250 21:22 18.08.2019
3477 Clear 28 1008 45 10000 3.6 280 20:59 18.08.2019
3478 Clear 28 1008 45 10000 3.6 280 20:41 18.08.2019
3479 Clear 29 1007 39 10000 3.6 250 20:23 18.08.2019
3480 Clear 30 1007 37 10000 4.6 240 19:54 18.08.2019
3481 Clear 30 1007 37 10000 4.6 240 19:36 18.08.2019
3482 Clear 30 1007 37 10000 5.1 240 19:18 18.08.2019
3483 Clear 31 1007 35 10000 5.7 240 18:41 18.08.2019
3484 Clear 31 1008 35 10000 6.7 220 18:23 18.08.2019
3485 Clear 31 1007 35 10000 6.7 240 17:57 18.08.2019
3486 Clear 31 1007 35 10000 6.7 240 17:39 18.08.2019
3487 Clear 31 1008 35 10000 6.7 230 17:19 18.08.2019
3488 Clear 31 1008 37 10000 5.7 240 16:56 18.08.2019
3489 Clear 31 1008 37 10000 5.7 240 16:38 18.08.2019
3490 Clear 31 1008 37 10000 7.7 260 16:19 18.08.2019
3491 Clear 30 1008 38 10000 7.7 230 15:55 18.08.2019
3492 Clear 30 1008 38 10000 7.7 230 15:37 18.08.2019
3493 Clear 29 1008 42 10000 4.6 240 15:19 18.08.2019
3494 Clear 29 1008 45 10000 4.6 250 14:40 18.08.2019
3495 Clouds 29 1008 45 10000 6.7 270 14:20 18.08.2019
3496 Clouds 29 1008 45 10000 5.1 250 13:59 18.08.2019
3497 Clouds 29 1008 45 10000 5.1 250 13:59 18.08.2019
3498 Clouds 28 1008 45 10000 5.1 250 13:41 18.08.2019
3499 Clouds 27 1008 51 10000 4.6 280 13:22 18.08.2019
3500 Clouds 26 1008 54 10000 4.6 280 12:58 18.08.2019
3501 Clouds 26 1008 54 10000 4.6 280 12:39 18.08.2019
3502 Clouds 25 1008 53 10000 3.6 260 12:20 18.08.2019
3503 Clear 23 1008 64 10000 3.6 190 11:43 18.08.2019
3504 Clear 23 1008 64 10000 3.6 190 11:43 18.08.2019
3505 Rain 22 1008 73 0 4.1 150 11:23 18.08.2019
3506 Clouds 20 1008 77 10000 3.6 140 10:59 18.08.2019
3507 Clouds 20 1008 77 10000 3.6 140 10:40 18.08.2019
3508 Clouds 19 1008 82 10000 3.1 140 10:19 18.08.2019
3509 Clouds 18 1009 88 10000 2.6 140 09:43 18.08.2019
3510 Clouds 19 1009 77 10000 2.6 150 09:20 18.08.2019
3511 Clouds 18 1009 82 10000 2.6 160 08:44 18.08.2019
3512 Clouds 18 1009 82 10000 2.6 150 08:25 18.08.2019
3513 Rain 17 1010 88 10000 4.1 200 07:58 18.08.2019
3514 Drizzle 18 1009 77 10000 3.6 180 07:30 18.08.2019
3515 Clouds 19 1009 72 10000 4.1 170 06:47 18.08.2019
3516 Rain 18 1010 77 10000 4.6 180 05:43 18.08.2019
3517 Clear 19 1010 68 10000 3.1 180 04:25 18.08.2019
3518 Clear 19 1011 68 10000 1.5 210 03:20 18.08.2019
3519 Clear 19 1011 68 10000 3.1 210 02:42 18.08.2019
3520 Clear 20 1011 64 10000 2.1 230 02:18 18.08.2019
3521 Clear 19 1011 68 10000 3.6 220 01:28 18.08.2019
3522 Clear 20 1011 64 10000 3.1 220 00:43 18.08.2019
3523 Clear 19 1011 68 10000 3.6 180 00:24 18.08.2019
3524 Clear 19 1011 68 10000 3.1 190 23:58 17.08.2019
3525 Clear 19 1011 68 10000 3.1 190 23:38 17.08.2019
3526 Clear 20 1011 64 10000 3.6 190 23:20 17.08.2019
3527 Clear 21 1011 60 10000 4.1 210 22:59 17.08.2019
3528 Clear 21 1011 60 10000 4.1 210 22:41 17.08.2019
3529 Clear 21 1011 60 10000 4.1 190 22:23 17.08.2019
3530 Clear 21 1011 60 10000 4.1 200 21:55 17.08.2019
3531 Clear 21 1011 60 10000 4.1 200 21:37 17.08.2019
3532 Clear 22 1011 56 10000 5.7 190 21:19 17.08.2019
3533 Clear 22 1011 56 10000 4.6 190 20:39 17.08.2019
3534 Clear 22 1011 53 10000 5.1 190 20:20 17.08.2019
3535 Clear 22 1011 53 10000 4.6 190 19:56 17.08.2019
3536 Clear 22 1011 53 10000 4.6 190 19:38 17.08.2019
3537 Clear 22 1011 49 10000 5.7 200 19:19 17.08.2019
3538 Clear 22 1012 49 10000 5.1 210 18:41 17.08.2019
3539 Clear 22 1012 49 10000 5.7 190 18:19 17.08.2019
3540 Clear 22 1012 49 10000 6.7 200 17:58 17.08.2019
3541 Clear 22 1012 49 10000 6.7 200 17:40 17.08.2019
3542 Clear 22 1012 49 10000 6.2 200 17:21 17.08.2019
3543 Clear 23 1011 46 10000 7.2 190 16:45 17.08.2019
3544 Clear 23 1012 44 10000 7.7 200 16:26 17.08.2019
3545 Clouds 23 1011 52 0 5.25 225.679 15:59 17.08.2019
3546 Clear 23 1012 44 10000 6.7 200 15:40 17.08.2019
3547 Clear 23 1012 44 10000 6.2 190 15:21 17.08.2019
3548 Clear 23 1012 44 10000 5.7 190 14:43 17.08.2019
3549 Clear 23 1012 44 10000 6.7 200 14:24 17.08.2019
3550 Clear 23 1013 46 10000 5.7 200 13:56 17.08.2019
3551 Clear 23 1013 46 10000 5.7 200 13:37 17.08.2019
3552 Clear 22 1013 46 10000 5.7 200 13:18 17.08.2019
3553 Clouds 22 1013 44 10000 6.7 190 12:42 17.08.2019
3554 Clouds 22 1013 49 10000 4.6 170 12:19 17.08.2019
3555 Clear 21 1014 56 10000 4.6 170 11:57 17.08.2019
3556 Clear 21 1014 56 10000 4.6 170 11:37 17.08.2019
3557 Clear 21 1013 52 10000 5.1 160 11:19 17.08.2019
3558 Clear 20 1013 56 10000 4.6 150 10:39 17.08.2019
3559 Clear 20 1013 59 10000 4.6 150 10:20 17.08.2019
3560 Clear 19 1013 59 10000 4.6 150 09:52 17.08.2019
3561 Clear 19 1013 59 10000 4.6 150 09:32 17.08.2019
3562 Clear 17 1014 67 10000 4.6 150 08:57 17.08.2019
3563 Clear 16 1014 72 10000 3.6 160 08:27 17.08.2019
3564 Clear 15 1014 72 10000 3.6 160 07:55 17.08.2019
3565 Clear 15 1014 72 10000 3.6 160 07:36 17.08.2019
3566 Clear 14 1014 72 10000 4.1 160 07:18 17.08.2019
3567 Clear 13 1014 82 10000 3.6 160 05:58 17.08.2019
3568 Clear 12 1015 76 10000 4.1 160 04:32 17.08.2019
3569 Clear 12 1015 76 10000 4.1 160 04:32 17.08.2019
3570 Clear 12 1015 76 10000 4.1 160 04:32 17.08.2019
3571 Clear 12 1015 76 10000 4.1 160 03:37 17.08.2019
3572 Clear 13 1015 72 10000 4.1 170 01:59 17.08.2019
3573 Clear 13 1015 72 10000 4.1 170 01:36 17.08.2019
3574 Clear 13 1016 72 10000 4.1 170 01:18 17.08.2019
3575 Clear 13 1016 72 10000 3.6 160 00:39 17.08.2019
3576 Clear 13 1016 63 10000 3.1 160 23:58 16.08.2019
3577 Clear 13 1016 63 10000 3.1 160 23:39 16.08.2019
3578 Clouds 13 979 78 0 2.56 193.141 23:20 16.08.2019
3579 Clear 14 1016 59 10000 3.1 160 22:42 16.08.2019
3580 Clouds 14 979 72 0 2.56 193.141 22:19 16.08.2019
3581 Clouds 15 1016 66 0 2.56 193.141 21:43 16.08.2019
3582 Clouds 16 980 68 0 0.45 141 21:22 16.08.2019
3583 Clouds 17 979 61 0 2.19 239.8 20:59 16.08.2019
3584 Clouds 17 979 62 0 2.19 239.8 20:41 16.08.2019
3585 Clear 19 1016 45 10000 1 0 20:19 16.08.2019
3586 Clear 20 1016 43 10000 2.1 280 19:56 16.08.2019
3587 Clear 20 1016 43 10000 2.1 280 19:38 16.08.2019
3588 Clear 21 1016 43 10000 1.5 280 19:19 16.08.2019
3589 Clear 22 1016 43 10000 3.1 280 18:41 16.08.2019
3590 Clear 23 1016 43 10000 2.6 260 18:22 16.08.2019
3591 Clear 23 1016 43 10000 3.6 260 17:48 16.08.2019
3592 Clear 22 1016 40 10000 3.1 290 17:28 16.08.2019
3593 Clear 23 1016 43 10000 4.1 300 16:58 16.08.2019
3594 Clear 23 1016 43 10000 4.1 300 16:39 16.08.2019
3595 Clear 23 1016 40 10000 4.6 290 16:18 16.08.2019
3596 Clouds 22 1016 43 10000 4.6 320 15:56 16.08.2019
3597 Clouds 22 1016 43 10000 4.6 320 15:56 16.08.2019
3598 Clouds 22 1016 43 10000 4.6 320 15:37 16.08.2019
3599 Clouds 22 1017 46 10000 5.1 270 15:19 16.08.2019
3600 Clouds 22 1017 46 10000 5.7 280 14:56 16.08.2019
3601 Clouds 21 1017 46 10000 5.7 280 14:37 16.08.2019
3602 Clouds 21 1017 43 10000 5.7 270 14:18 16.08.2019
3603 Clouds 21 1017 43 10000 5.7 270 14:18 16.08.2019
3604 Clouds 21 1017 59 10000 4.6 270 13:40 16.08.2019
3605 Clouds 21 1017 56 10000 6.2 270 13:21 16.08.2019
3606 Clouds 21 1017 60 10000 5.1 240 12:41 16.08.2019
3607 Clouds 21 1017 60 10000 5.1 240 12:41 16.08.2019
3608 Clouds 20 1017 68 10000 4.1 270 12:22 16.08.2019
3609 Clouds 19 1017 60 10000 4.1 260 11:58 16.08.2019
3610 Clouds 19 1017 60 10000 4.1 260 11:39 16.08.2019
3611 Clouds 19 1017 60 10000 4.1 260 11:39 16.08.2019
3612 Clouds 19 1017 68 10000 4.6 270 11:21 16.08.2019
3613 Clouds 19 1017 68 10000 4.1 300 10:43 16.08.2019
3614 Clouds 18 1017 77 10000 3.6 270 10:21 16.08.2019
3615 Clouds 18 1017 82 10000 3.6 280 09:55 16.08.2019
3616 Clouds 17 1017 82 10000 3.6 280 09:36 16.08.2019
3617 Clouds 17 1017 77 10000 4.1 270 09:18 16.08.2019
3618 Clouds 16 1017 82 10000 4.1 270 08:39 16.08.2019
3619 Clouds 16 1017 82 10000 3.1 260 08:20 16.08.2019
3620 Clear 16 1016 82 10000 2.6 280 07:52 16.08.2019
3621 Clear 15 1016 82 10000 3.1 260 07:29 16.08.2019
3622 Clear 15 1016 82 10000 2.6 260 06:55 16.08.2019
3623 Clear 15 1016 82 10000 3.1 260 06:19 16.08.2019
3624 Clouds 15 1016 82 10000 3.1 260 05:34 16.08.2019
3625 Clear 15 1015 82 10000 3.6 270 03:21 16.08.2019
3626 Clear 15 1014 77 10000 4.1 260 01:59 16.08.2019
3627 Clear 15 1014 77 10000 4.1 240 01:28 16.08.2019
3628 Clouds 16 1014 77 10000 2.6 230 00:57 16.08.2019
3629 Clouds 16 1014 77 10000 2.6 230 00:38 16.08.2019
3630 Clouds 16 1013 77 10000 3.1 230 00:18 16.08.2019
3631 Clouds 17 1013 77 10000 2.6 220 23:42 15.08.2019
3632 Clouds 17 1014 77 10000 3.1 230 23:20 15.08.2019
3633 Clouds 17 1013 68 10000 2.6 250 22:57 15.08.2019
3634 Clouds 17 1013 68 10000 2.6 250 22:39 15.08.2019
3635 Clouds 17 1013 68 10000 2.1 250 22:20 15.08.2019
3636 Clouds 18 1013 68 10000 3.6 250 21:40 15.08.2019
3637 Clouds 18 1013 60 10000 3.1 230 21:20 15.08.2019
3638 Clouds 18 1012 63 10000 3.1 170 20:59 15.08.2019
3639 Clouds 18 1012 63 10000 3.1 170 20:41 15.08.2019
3640 Clouds 19 1012 60 10000 3.6 200 20:21 15.08.2019
3641 Clouds 19 1012 60 10000 4.6 210 19:57 15.08.2019
3642 Clouds 19 1012 60 10000 4.6 210 19:38 15.08.2019
3643 Clouds 20 1012 52 10000 4.6 190 19:19 15.08.2019
3644 Clouds 20 1012 52 10000 5.7 190 18:46 15.08.2019
3645 Clear 20 1012 52 10000 5.1 190 18:23 15.08.2019
3646 Clear 20 1012 52 10000 5.1 190 18:23 15.08.2019
3647 Clear 21 1012 49 10000 5.7 190 17:57 15.08.2019
3648 Clear 21 1012 49 10000 5.7 190 17:57 15.08.2019
3649 Clear 21 1012 49 10000 5.7 190 17:37 15.08.2019
3650 Clear 21 1012 49 10000 6.7 190 17:19 15.08.2019
3651 Clear 21 1012 49 10000 5.7 200 16:48 15.08.2019
3652 Clear 21 1013 56 10000 5.1 190 16:28 15.08.2019
3653 Clear 21 1013 52 10000 6.2 180 15:59 15.08.2019
3654 Clear 20 1013 52 10000 6.2 180 15:38 15.08.2019
3655 Clear 20 1013 60 10000 4.1 170 15:19 15.08.2019
3656 Clear 20 1013 60 10000 4.1 170 15:19 15.08.2019
3657 Clear 20 1013 56 10000 5.1 180 14:55 15.08.2019
3658 Clear 20 1013 56 10000 5.1 180 14:36 15.08.2019
3659 Clear 20 1013 56 10000 5.1 190 14:18 15.08.2019
3660 Rain 20 1013 56 10000 5.7 200 13:55 15.08.2019
3661 Rain 20 1013 56 10000 5.7 200 13:36 15.08.2019
3662 Clear 20 1013 49 10000 4.6 220 13:18 15.08.2019
3663 Clear 21 1013 43 10000 3.6 200 12:40 15.08.2019
3664 Clear 21 1013 43 10000 5.7 220 12:20 15.08.2019
3665 Clear 21 1013 43 10000 4.1 0 11:57 15.08.2019
3666 Clear 21 1013 43 10000 4.1 0 11:37 15.08.2019
3667 Clouds 21 1014 46 10000 3.6 190 11:18 15.08.2019
3668 Clear 21 1014 49 10000 4.1 190 10:58 15.08.2019
3669 Clear 21 1014 49 10000 4.1 190 10:37 15.08.2019
3670 Clouds 20 1014 49 0 3.6 160 10:18 15.08.2019
3671 Clear 19 1014 55 10000 3.6 160 09:43 15.08.2019
3672 Clear 19 1015 59 10000 4.6 170 09:22 15.08.2019
3673 Clear 16 1015 63 10000 4.1 160 08:39 15.08.2019
3674 Clear 15 1015 71 10000 4.1 160 08:21 15.08.2019
3675 Clear 13 1015 76 10000 3.6 160 07:58 15.08.2019
3676 Clear 13 1015 76 10000 3.6 160 07:39 15.08.2019
3677 Clear 11 1015 81 10000 4.1 160 07:20 15.08.2019
3678 Clear 11 1015 87 10000 4.6 160 06:48 15.08.2019
3679 Clear 9 1015 81 10000 5.1 160 06:25 15.08.2019
3680 Clear 9 1015 87 10000 4.1 150 05:30 15.08.2019
3681 Clear 9 1016 81 10000 3.6 160 04:57 15.08.2019
3682 Clear 9 1016 76 10000 0.5 0 03:57 15.08.2019
3683 Clear 9 1017 76 10000 1 0 03:21 15.08.2019
3684 Clear 9 1017 76 10000 1.5 170 02:34 15.08.2019
3685 Clear 9 1017 71 10000 2.1 170 01:44 15.08.2019
3686 Clear 10 1017 62 10000 1.5 210 00:59 15.08.2019
3687 Clear 10 1017 62 10000 1.5 210 00:37 15.08.2019
3688 Clear 11 1017 66 10000 1.5 200 00:19 15.08.2019
3689 Clear 11 1017 66 10000 1.5 200 00:19 15.08.2019
3690 Clear 11 1017 58 10000 2.6 200 23:56 14.08.2019
3691 Clear 11 1017 58 10000 2.6 200 23:37 14.08.2019
3692 Clear 11 980 70 0 0.89 120 23:19 14.08.2019
3693 Clear 12 1017 70 0 2.47 208.373 22:42 14.08.2019
3694 Clear 12 980 66 0 2.47 208.373 22:23 14.08.2019
3695 Clear 13 1017 65 0 2.47 208.373 21:57 14.08.2019
3696 Clear 14 1017 42 10000 0.5 0 21:39 14.08.2019
3697 Clear 15 1017 39 10000 1 270 21:21 14.08.2019
3698 Clouds 15 1017 57 0 2.35 233.223 20:59 14.08.2019
3699 Clear 17 1017 37 10000 1.5 270 20:41 14.08.2019
3700 Clear 18 1017 34 10000 2.6 260 20:19 14.08.2019
3701 Clear 19 1017 34 10000 2.6 270 19:55 14.08.2019
3702 Clear 20 1017 34 10000 2.6 270 19:37 14.08.2019
3703 Clear 20 1017 34 10000 2.6 270 19:37 14.08.2019
3704 Clear 21 1017 32 10000 3.1 270 19:18 14.08.2019
3705 Clear 21 1017 32 10000 3.6 300 18:55 14.08.2019
3706 Clear 21 1017 32 10000 3.6 300 18:37 14.08.2019
3707 Clear 20 1017 34 10000 4.6 270 18:18 14.08.2019
3708 Clear 21 1017 35 10000 4.6 290 17:54 14.08.2019
3709 Clear 21 1017 35 10000 4.6 290 17:36 14.08.2019
3710 Clear 21 1017 35 10000 4.6 260 17:18 14.08.2019
3711 Clear 20 1017 37 10000 4.6 290 16:39 14.08.2019
3712 Clear 21 1017 32 10000 5.1 290 16:20 14.08.2019
3713 Clear 21 1017 37 10000 5.1 320 15:44 14.08.2019
3714 Clear 20 1017 37 10000 4.1 280 15:20 14.08.2019
3715 Clear 20 1018 42 10000 4.1 300 14:59 14.08.2019
3716 Clear 20 1018 42 10000 4.1 300 14:39 14.08.2019
3717 Clear 20 1018 40 10000 4.1 280 14:19 14.08.2019
3718 Clear 20 1018 45 10000 3.6 290 13:55 14.08.2019
3719 Clear 20 1018 45 10000 3.6 290 13:37 14.08.2019
3720 Clouds 19 1018 48 10000 4.1 270 13:18 14.08.2019
3721 Clouds 19 1018 45 10000 3.6 270 12:55 14.08.2019
3722 Clouds 19 1018 45 10000 3.6 270 12:36 14.08.2019
3723 Clouds 19 1018 48 10000 2.6 260 12:18 14.08.2019
3724 Clouds 19 1018 48 10000 2.6 260 12:18 14.08.2019
3725 Clouds 18 1018 52 10000 2.6 0 11:45 14.08.2019
3726 Clouds 17 1019 51 10000 2.1 0 11:23 14.08.2019
3727 Clouds 17 1019 55 10000 2.1 0 10:56 14.08.2019
3728 Clouds 17 1019 55 10000 2.1 0 10:37 14.08.2019
3729 Clouds 17 1019 55 10000 2.1 0 10:37 14.08.2019
3730 Clouds 16 1019 55 10000 1.5 300 10:19 14.08.2019
3731 Clear 16 1019 59 10000 2.6 300 09:42 14.08.2019
3732 Clear 15 1019 62 10000 1.5 300 09:21 14.08.2019
3733 Clear 14 1019 71 10000 1 0 08:43 14.08.2019
3734 Clear 13 1019 76 10000 1 230 08:25 14.08.2019
3735 Clear 13 1018 76 10000 1.5 220 07:56 14.08.2019
3736 Clear 13 1018 76 10000 1.5 220 07:37 14.08.2019
3737 Clear 11 1018 76 10000 2.1 220 06:51 14.08.2019
3738 Clear 11 1018 76 10000 1.5 220 06:28 14.08.2019
3739 Clear 12 1018 71 10000 1.5 300 05:33 14.08.2019
3740 Clear 12 1018 71 10000 1.5 300 05:33 14.08.2019
3741 Clear 14 1017 62 10000 1.5 270 03:58 14.08.2019
3742 Clear 14 1018 62 10000 1.5 290 02:39 14.08.2019
3743 Clear 14 1018 62 10000 1.5 300 02:18 14.08.2019
3744 Clear 15 1017 62 10000 2.1 300 01:30 14.08.2019
3745 Clear 16 1017 55 10000 2.1 270 00:38 14.08.2019
3746 Clear 16 1017 51 10000 1.5 260 23:43 13.08.2019
3747 Clear 16 1018 51 10000 1.5 240 23:20 13.08.2019
3748 Clear 16 1017 48 10000 1.5 270 22:57 13.08.2019
3749 Clear 16 1017 48 10000 1.5 270 22:38 13.08.2019
3750 Clear 16 1017 48 10000 1.5 290 22:20 13.08.2019
3751 Clear 17 1017 52 10000 1 290 21:56 13.08.2019
3752 Clear 17 1017 52 10000 1 290 21:56 13.08.2019
3753 Clear 17 1017 52 10000 1 290 21:36 13.08.2019
3754 Clear 17 1017 52 10000 2.1 310 21:18 13.08.2019
3755 Clear 18 1016 48 10000 3.6 310 20:44 13.08.2019
3756 Clear 19 1016 45 10000 2.6 300 20:20 13.08.2019
3757 Clear 19 1016 42 10000 4.1 310 19:58 13.08.2019
3758 Clear 20 1016 42 10000 4.1 310 19:40 13.08.2019
3759 Clear 20 1016 45 10000 5.1 300 19:21 13.08.2019
3760 Clear 21 1016 40 10000 3.1 290 18:42 13.08.2019
3761 Clear 21 1016 43 10000 4.6 280 18:23 13.08.2019
3762 Clear 21 1016 43 10000 5.1 290 17:58 13.08.2019
3763 Clear 21 1016 43 10000 5.1 290 17:39 13.08.2019
3764 Clouds 22 1016 43 10000 5.7 270 17:19 13.08.2019
3765 Clouds 22 1016 43 10000 6.2 280 16:56 13.08.2019
3766 Clouds 22 1016 43 10000 6.2 280 16:37 13.08.2019
3767 Clouds 22 1016 49 10000 5.7 310 16:19 13.08.2019
3768 Clear 22 1016 49 10000 5.7 300 15:39 13.08.2019
3769 Clear 22 1016 49 10000 5.7 310 15:20 13.08.2019
3770 Clear 22 1016 49 10000 5.1 270 14:58 13.08.2019
3771 Clear 22 1016 49 10000 5.1 270 14:38 13.08.2019
3772 Clear 22 1016 46 10000 6.7 260 14:18 13.08.2019
3773 Rain 22 1016 46 10000 6.2 270 13:42 13.08.2019
3774 Clouds 21 1016 46 10000 6.2 260 13:21 13.08.2019
3775 Clouds 21 1016 49 10000 5.7 240 12:59 13.08.2019
3776 Clouds 21 1016 49 10000 5.7 240 12:41 13.08.2019
3777 Clouds 21 1017 49 10000 5.1 260 12:22 13.08.2019
3778 Clouds 21 1017 49 10000 4.1 260 11:59 13.08.2019
3779 Clouds 21 1017 49 10000 4.1 260 11:38 13.08.2019
3780 Clouds 20 1017 55 10000 5.7 260 11:20 13.08.2019
3781 Clouds 20 1017 55 10000 5.1 290 10:56 13.08.2019
3782 Clouds 20 1017 55 10000 5.1 290 10:37 13.08.2019
3783 Clouds 20 1017 63 10000 3.6 270 10:19 13.08.2019
3784 Clouds 19 1017 63 10000 4.6 260 09:43 13.08.2019
3785 Clouds 18 1017 67 10000 4.1 260 09:23 13.08.2019
3786 Clouds 18 1017 67 10000 4.1 260 09:23 13.08.2019
3787 Clouds 17 1017 67 10000 4.1 270 08:44 13.08.2019
3788 Clouds 17 1016 77 10000 5.1 260 08:23 13.08.2019
3789 Clouds 17 1016 77 10000 5.1 260 08:23 13.08.2019
3790 Clouds 16 1016 77 10000 3.1 250 07:58 13.08.2019
3791 Clouds 15 1016 77 10000 3.1 250 07:38 13.08.2019
3792 Clouds 15 1016 77 10000 3.1 250 07:19 13.08.2019
3793 Clouds 14 1015 88 0 4.88 245.094 06:41 13.08.2019
3794 Clear 14 1015 72 10000 2.1 240 05:37 13.08.2019
3795 Clear 15 1015 72 10000 3.6 240 03:36 13.08.2019
3796 Clear 16 1015 82 10000 4.1 220 02:20 13.08.2019
3797 Clear 16 1015 77 10000 3.1 210 01:21 13.08.2019
3798 Clear 16 1015 82 10000 3.6 210 00:47 13.08.2019
3799 Clear 15 1015 87 10000 3.6 180 23:58 12.08.2019
3800 Clear 15 1015 87 10000 3.6 180 23:40 12.08.2019
3801 Clear 16 1015 87 10000 3.1 180 23:20 12.08.2019
3802 Clear 16 1015 82 10000 1.5 160 22:40 12.08.2019
3803 Clear 16 1015 77 10000 3.1 150 22:20 12.08.2019
3804 Clear 16 1015 72 10000 2.6 150 21:56 12.08.2019
3805 Clear 16 1015 72 10000 2.6 150 21:38 12.08.2019
3806 Clear 16 1015 68 10000 2.1 170 21:19 12.08.2019
3807 Clear 16 1015 68 10000 2.1 170 21:19 12.08.2019
3808 Clear 17 1015 63 10000 2.1 210 20:58 12.08.2019
3809 Clear 17 1015 63 10000 2.1 210 20:39 12.08.2019
3810 Clear 18 1015 63 10000 1.5 220 20:20 12.08.2019
3811 Clear 19 1015 56 10000 1.5 230 19:56 12.08.2019
3812 Clear 19 1015 56 10000 1.5 230 19:37 12.08.2019
3813 Clear 20 1014 52 10000 2.6 160 19:19 12.08.2019
3814 Clear 20 1015 56 10000 2.1 190 18:56 12.08.2019
3815 Clear 20 1015 56 10000 2.1 190 18:37 12.08.2019
3816 Clear 20 1014 56 10000 1.5 130 18:19 12.08.2019
3817 Clear 20 1015 56 10000 1.5 210 17:47 12.08.2019
3818 Clear 20 1015 56 10000 1.5 220 17:28 12.08.2019
3819 Clouds 20 1016 52 10000 2.1 260 16:58 12.08.2019
3820 Clouds 20 1016 52 10000 2.1 260 16:39 12.08.2019
3821 Clouds 20 1016 56 10000 2.6 270 16:20 12.08.2019
3822 Clouds 21 1016 52 10000 2.1 250 15:59 12.08.2019
3823 Clouds 20 1016 52 10000 2.1 250 15:41 12.08.2019
3824 Clouds 20 1016 52 10000 2.1 250 15:41 12.08.2019
3825 Clouds 21 1016 56 10000 3.1 250 15:21 12.08.2019
3826 -273 0 0 0 0 0 14:57 12.08.2019
3827 Clear 20 1016 59 10000 2.6 250 14:39 12.08.2019
3828 Clouds 20 1016 59 10000 2.6 270 14:20 12.08.2019
3829 Clouds 19 1017 59 10000 3.1 270 13:47 12.08.2019
3830 Clouds 19 1017 59 10000 3.6 270 13:24 12.08.2019
3831 Clouds 20 1017 63 10000 3.6 270 12:59 12.08.2019
3832 Clouds 20 1017 63 10000 3.6 270 12:41 12.08.2019
3833 Clouds 20 1017 59 10000 3.6 300 12:19 12.08.2019
3834 Clear 19 1016 63 10000 3.1 250 11:43 12.08.2019
3835 Clear 19 1016 63 10000 3.1 250 11:43 12.08.2019
3836 Clouds 19 1016 68 10000 3.1 250 11:25 12.08.2019
3837 Rain 18 1016 68 10000 3.6 290 10:54 12.08.2019
3838 Rain 18 1016 68 10000 3.6 290 10:36 12.08.2019
3839 -273 0 0 0 0 0 10:18 12.08.2019
3840 Rain 17 1016 72 10000 2.6 280 09:42 12.08.2019
3841 Clear 17 1016 72 10000 2.1 280 09:20 12.08.2019
3842 Clear 17 1016 72 10000 4.1 270 08:59 12.08.2019
3843 Clear 17 1016 72 10000 4.1 270 08:39 12.08.2019
3844 Clear 17 1016 72 10000 4.1 270 08:39 12.08.2019
3845 Clouds 16 1016 72 10000 3.6 270 08:21 12.08.2019
3846 Clouds 16 1016 72 10000 4.1 270 07:56 12.08.2019
3847 Clouds 16 1016 72 10000 4.1 270 07:34 12.08.2019
3848 Clouds 16 1015 72 10000 4.1 280 06:53 12.08.2019
3849 Clouds 16 1015 72 10000 3.6 270 05:53 12.08.2019
3850 Rain 17 1014 93 10000 3.1 250 03:47 12.08.2019
3851 Rain 17 1013 93 10000 1 0 02:42 12.08.2019
3852 Rain 18 1013 93 10000 1.5 160 01:42 12.08.2019
3853 Rain 18 1013 88 10000 4.1 160 01:18 12.08.2019
3854 Rain 18 1014 82 10000 5.7 180 00:54 12.08.2019
3855 Rain 19 1014 73 10000 3.6 160 00:36 12.08.2019
3856 Rain 19 1014 73 10000 3.6 160 00:18 12.08.2019
3857 Clouds 20 1013 60 10000 1.5 140 23:39 11.08.2019
3858 Rain 21 1013 56 10000 2.6 150 23:19 11.08.2019
3859 Clouds 20 1013 86 0 3.01 181.237 22:56 11.08.2019
3860 Clouds 20 1013 86 0 3.01 181.237 22:37 11.08.2019
3861 Clear 21 1013 50 10000 2.6 150 22:18 11.08.2019
3862 Clear 21 1013 49 10000 2.6 140 21:56 11.08.2019
3863 Clear 21 1013 49 10000 2.6 140 21:38 11.08.2019
3864 Clear 22 1013 47 10000 2.6 130 21:19 11.08.2019
3865 Clear 23 1012 41 10000 1.5 140 20:44 11.08.2019
3866 Clear 24 1013 39 10000 3.1 140 20:23 11.08.2019
3867 Clear 25 1013 36 10000 2.6 160 19:55 11.08.2019
3868 Clear 25 1013 36 10000 2.6 160 19:36 11.08.2019
3869 Clear 27 1013 39 10000 3.6 160 19:18 11.08.2019
3870 Clear 27 1013 34 10000 4.6 180 18:39 11.08.2019
3871 Clear 28 1013 32 10000 2.6 160 18:19 11.08.2019
3872 Clear 28 1014 34 10000 3.6 140 17:54 11.08.2019
3873 Clear 29 1013 38 0 2.86 173.948 17:36 11.08.2019
3874 Clear 29 1014 32 10000 4.6 170 17:18 11.08.2019
3875 Clear 28 1014 34 10000 2.1 0 16:40 11.08.2019
3876 Clear 29 1015 30 10000 4.6 0 16:22 11.08.2019
3877 Clear 28 978 43 0 0.89 202 15:59 11.08.2019
3878 Clear 28 1015 28 10000 3.1 210 15:41 11.08.2019
3879 Clear 28 1015 30 10000 4.6 210 15:22 11.08.2019
3880 Clear 28 1016 30 10000 3.1 0 14:56 11.08.2019
3881 Clear 28 1016 30 10000 3.1 0 14:37 11.08.2019
3882 Clear 27 1016 30 10000 5.7 210 14:19 11.08.2019
3883 Clear 27 1017 31 10000 4.6 240 13:43 11.08.2019
3884 Clear 27 1017 31 10000 3.6 220 13:24 11.08.2019
3885 Clear 26 1017 33 10000 3.6 220 12:46 11.08.2019
3886 Clear 26 1018 36 10000 2.1 0 12:22 11.08.2019
3887 Clear 25 1018 33 10000 4.1 200 11:42 11.08.2019
3888 Clear 25 1018 38 10000 3.1 0 11:23 11.08.2019
3889 Clear 25 1018 36 10000 4.1 200 10:59 11.08.2019
3890 Clear 24 1018 36 10000 4.1 200 10:40 11.08.2019
3891 Clouds 24 1018 43 10000 3.6 200 10:21 11.08.2019
3892 Clear 23 1018 53 10000 3.6 200 09:56 11.08.2019
3893 Clear 23 1018 53 10000 3.6 200 09:38 11.08.2019
3894 Clear 21 1018 56 10000 4.1 190 09:19 11.08.2019
3895 Clear 21 1018 56 10000 4.1 190 09:19 11.08.2019
3896 Clear 20 1018 60 10000 4.1 200 08:44 11.08.2019
3897 Clear 19 1018 63 10000 4.1 190 08:25 11.08.2019
3898 Clear 18 1018 68 10000 3.6 190 07:54 11.08.2019
3899 Clear 17 1018 68 10000 3.6 220 07:22 11.08.2019
3900 Clear 15 1018 68 10000 4.1 220 06:41 11.08.2019
3901 Clear 15 1018 63 10000 3.6 220 05:34 11.08.2019
3902 Clear 16 1017 68 10000 3.6 220 03:41 11.08.2019
3903 Clear 17 1017 68 10000 4.1 220 02:48 11.08.2019
3904 Clear 16 980 79 0 3.13 160 01:38 11.08.2019
3905 Clear 17 1017 64 10000 3.1 220 01:19 11.08.2019
3906 Clear 17 1017 64 10000 3.6 220 00:43 11.08.2019
3907 Clear 17 1016 64 10000 3.6 210 00:23 11.08.2019
3908 Clear 17 1016 63 10000 3.1 220 23:43 10.08.2019
3909 Clear 18 1016 63 10000 2.6 210 23:24 10.08.2019
3910 Clear 18 1016 60 10000 3.1 210 22:43 10.08.2019
3911 Clear 18 1016 56 10000 4.1 220 22:25 10.08.2019
3912 Clear 19 1016 56 10000 2.6 230 21:58 10.08.2019
3913 Clear 19 1016 56 10000 2.6 230 21:38 10.08.2019
3914 Clear 20 1015 53 10000 2.6 230 21:20 10.08.2019
3915 Clear 21 1015 46 10000 3.6 250 20:56 10.08.2019
3916 Clear 22 1015 46 10000 3.6 250 20:37 10.08.2019
3917 Clear 22 1014 47 10000 4.1 270 20:18 10.08.2019
3918 Clear 23 1014 47 10000 4.1 270 19:39 10.08.2019
3919 Clear 24 1014 50 10000 3.1 260 19:21 10.08.2019
3920 Clear 24 1014 50 10000 4.1 270 18:41 10.08.2019
3921 Clouds 24 1014 57 10000 2.6 280 18:23 10.08.2019
3922 Clouds 24 1014 60 10000 1.5 290 17:55 10.08.2019
3923 Clouds 24 1014 60 10000 1.5 290 17:36 10.08.2019
3924 Clouds 24 1014 60 10000 3.1 290 17:18 10.08.2019
3925 Clouds 24 1013 57 10000 5.1 240 16:42 10.08.2019
3926 Rain 24 1013 57 10000 5.7 230 16:20 10.08.2019
3927 Rain 24 1013 60 10000 5.7 230 15:43 10.08.2019
3928 Clouds 24 1013 57 10000 5.1 230 15:21 10.08.2019
3929 Clouds 24 1013 60 10000 4.6 230 14:43 10.08.2019
3930 Rain 23 1013 64 10000 5.7 230 14:19 10.08.2019
3931 Clouds 23 1013 64 10000 4.1 240 13:40 10.08.2019
3932 Clouds 23 1013 64 10000 5.7 250 13:19 10.08.2019
3933 Clouds 23 1013 64 10000 5.7 240 12:44 10.08.2019
3934 Clouds 24 1013 69 10000 4.1 240 12:24 10.08.2019
3935 Clouds 23 1013 78 10000 5.7 230 11:59 10.08.2019
3936 Clouds 23 1013 78 10000 5.7 230 11:40 10.08.2019
3937 Clouds 23 1013 78 10000 3.1 240 11:21 10.08.2019
3938 Clouds 23 1013 78 10000 3.1 230 10:55 10.08.2019
3939 Clouds 23 1013 78 10000 3.1 230 10:36 10.08.2019
3940 Clouds 22 1012 78 10000 3.1 240 10:18 10.08.2019
3941 Clouds 22 1012 78 10000 3.6 250 09:40 10.08.2019
3942 Clouds 22 1012 83 10000 2.1 230 09:22 10.08.2019
3943 Clear 21 1011 83 10000 2.6 230 08:41 10.08.2019
3944 Clear 21 1011 83 10000 2.1 210 08:20 10.08.2019
3945 Clear 20 1010 93 10000 2.1 210 07:54 10.08.2019
3946 Clear 20 1010 93 10000 2.1 210 07:54 10.08.2019
3947 Clear 20 1010 93 10000 4.6 180 07:29 10.08.2019
3948 Clear 19 1010 88 10000 4.6 180 06:49 10.08.2019
3949 Clear 19 1009 88 10000 3.6 160 06:28 10.08.2019
3950 Clear 19 1009 88 10000 3.1 170 05:26 10.08.2019
3951 Clear 19 1009 93 10000 4.6 170 04:37 10.08.2019
3952 Rain 19 1011 93 10000 5.1 180 02:58 10.08.2019
3953 Rain 19 1012 93 10000 4.1 220 02:27 10.08.2019
3954 Rain 20 1011 82 10000 2.1 210 01:43 10.08.2019
3955 Rain 20 1011 68 10000 4.1 260 01:23 10.08.2019
3956 Rain 21 1010 50 10000 1.5 240 00:49 10.08.2019
3957 Rain 21 975 61 0 4.73 197.137 00:26 10.08.2019
3958 Clear 22 1010 44 10000 2.6 150 23:59 09.08.2019
3959 Clear 22 1010 44 10000 2.6 150 23:38 09.08.2019
3960 Clear 22 1010 44 10000 2.1 150 23:19 09.08.2019
3961 Clear 23 1010 47 10000 3.1 140 22:41 09.08.2019
3962 Clear 22 1010 47 10000 2.6 140 22:23 09.08.2019
3963 Clear 23 1010 47 10000 2.1 130 21:59 09.08.2019
3964 Clear 23 1010 47 10000 2.1 130 21:39 09.08.2019
3965 Clear 24 1010 41 10000 2.6 100 21:21 09.08.2019
3966 Clear 24 1010 41 10000 2.6 100 21:21 09.08.2019
3967 Clear 24 1010 39 10000 2.6 70 20:56 09.08.2019
3968 Clear 25 1010 39 10000 2.6 70 20:38 09.08.2019
3969 Clear 25 1010 39 10000 2.1 80 20:18 09.08.2019
3970 Clear 26 1010 34 10000 3.1 110 19:43 09.08.2019
3971 Clear 27 1010 37 10000 3.1 100 19:22 09.08.2019
3972 Clear 27 1010 34 10000 2.1 100 18:55 09.08.2019
3973 Clear 28 1010 34 10000 2.1 100 18:36 09.08.2019
3974 Clear 29 1011 32 10000 2.6 150 18:18 09.08.2019
3975 Clear 29 1011 34 10000 2.6 160 17:42 09.08.2019
3976 Clear 29 1011 32 10000 1 0 17:23 09.08.2019
3977 -273 0 0 0 0 0 16:54 09.08.2019
3978 Clear 29 1012 30 10000 2.1 230 16:36 09.08.2019
3979 Clear 29 1012 32 10000 2.1 0 16:18 09.08.2019
3980 Clear 29 1012 32 10000 2.1 190 15:41 09.08.2019
3981 Clear 29 1012 32 10000 3.6 260 15:21 09.08.2019
3982 Clear 29 1012 34 10000 2.6 0 14:57 09.08.2019
3983 Clear 29 1012 34 10000 2.6 0 14:38 09.08.2019
3984 Clear 28 1013 36 10000 3.1 280 14:20 09.08.2019
3985 Clear 28 1013 34 10000 4.1 220 13:45 09.08.2019
3986 Clear 28 1013 36 10000 3.1 270 13:21 09.08.2019
3987 Clouds 28 976 48 0 0.89 201 12:56 09.08.2019
3988 Clear 27 1013 39 10000 3.6 240 12:37 09.08.2019
3989 Clear 27 1013 41 10000 3.6 280 12:18 09.08.2019
3990 Clouds 26 1013 44 10000 2.1 240 11:41 09.08.2019
3991 Clear 26 1013 50 10000 3.1 250 11:21 09.08.2019
3992 Clouds 25 977 56 0 0.89 228 10:57 09.08.2019
3993 Clear 25 1014 49 10000 2.6 220 10:38 09.08.2019
3994 Clear 24 1013 49 10000 2.6 210 10:20 09.08.2019
3995 Clear 23 1014 56 10000 2.6 190 09:41 09.08.2019
3996 Clear 22 1014 60 10000 2.6 190 09:19 09.08.2019
3997 Clear 20 1014 60 10000 2.6 170 08:45 09.08.2019
3998 Clear 18 1014 68 10000 3.6 180 08:25 09.08.2019
3999 Clear 17 1014 72 10000 2.6 190 07:59 09.08.2019
4000 Clear 17 1014 72 10000 2.6 190 07:41 09.08.2019
4001 Clear 16 1014 77 10000 2.6 180 07:21 09.08.2019
4002 Clear 15 1014 77 10000 2.6 190 06:50 09.08.2019
4003 Clear 14 1014 77 10000 3.1 200 06:22 09.08.2019
4004 Clear 14 1014 72 10000 2.1 220 05:45 09.08.2019
4005 Clear 16 1014 59 10000 2.6 220 02:30 09.08.2019
4006 Clear 16 1013 59 10000 2.6 230 01:30 09.08.2019
4007 Clear 16 1013 59 10000 3.1 240 00:43 09.08.2019
4008 Clear 17 1013 55 10000 3.1 230 00:24 09.08.2019
4009 Clear 18 1013 52 10000 2.6 240 23:57 08.08.2019
4010 Clear 18 1013 52 10000 2.6 240 23:37 08.08.2019
4011 Clear 18 1013 46 10000 2.1 240 23:19 08.08.2019
4012 Clear 18 1013 46 10000 2.6 250 22:56 08.08.2019
4013 Clear 19 1013 46 10000 2.6 250 22:36 08.08.2019
4014 Clear 19 1013 46 10000 2.1 240 22:18 08.08.2019
4015 Clear 19 1012 43 10000 2.1 250 21:43 08.08.2019
4016 Clear 21 1012 38 10000 2.1 260 21:24 08.08.2019
4017 Clear 21 1012 38 10000 3.1 280 20:59 08.08.2019
4018 Clear 22 1012 38 10000 3.1 280 20:41 08.08.2019
4019 Clear 22 1012 36 10000 3.6 290 20:20 08.08.2019
4020 Clear 23 1011 41 10000 5.1 260 19:56 08.08.2019
4021 Clear 24 1011 38 10000 4.6 250 19:36 08.08.2019
4022 Clear 24 1011 38 10000 4.6 250 19:18 08.08.2019
4023 Clear 25 1011 36 10000 5.7 260 18:41 08.08.2019
4024 Clear 25 1012 38 10000 5.1 250 18:20 08.08.2019
4025 Clear 25 1012 38 10000 4.6 260 17:42 08.08.2019
4026 Clear 25 1011 44 10000 6.7 230 17:24 08.08.2019
4027 Clear 26 1011 36 10000 5.7 250 16:59 08.08.2019
4028 Clear 26 1011 36 10000 5.7 250 16:41 08.08.2019
4029 Clear 26 1011 36 10000 5.1 250 16:23 08.08.2019
4030 Clear 26 1012 41 10000 5.1 240 15:57 08.08.2019
4031 Clear 26 1012 41 10000 5.1 240 15:38 08.08.2019
4032 Clear 26 1012 38 10000 5.1 240 15:20 08.08.2019
4033 Clear 26 1012 38 10000 5.1 240 15:20 08.08.2019
4034 Clear 25 1012 47 10000 5.1 230 14:40 08.08.2019
4035 Clear 25 1012 47 10000 3.6 270 14:22 08.08.2019
4036 Clear 25 1012 44 10000 3.6 0 13:57 08.08.2019
4037 Clear 24 1012 44 10000 3.6 0 13:36 08.08.2019
4038 Clear 24 1012 46 10000 4.1 280 13:18 08.08.2019
4039 Clouds 23 1012 49 10000 4.1 280 12:38 08.08.2019
4040 Clouds 23 1012 53 10000 4.1 270 12:19 08.08.2019
4041 Clouds 23 1012 53 10000 4.1 270 12:19 08.08.2019
4042 Clouds 23 1012 56 10000 4.6 250 11:47 08.08.2019
4043 Clouds 22 976 64 0 1.79 194 11:26 08.08.2019
4044 Clouds 22 976 64 0 1.79 194 11:26 08.08.2019
4045 Clouds 22 1012 64 10000 4.6 250 10:57 08.08.2019
4046 Clouds 22 1012 64 10000 4.6 250 10:39 08.08.2019
4047 Clouds 21 1012 68 10000 4.6 260 10:20 08.08.2019
4048 Clouds 20 1012 68 10000 4.6 270 09:43 08.08.2019
4049 Clouds 19 1012 72 10000 3.6 240 09:23 08.08.2019
4050 Clear 19 1012 77 10000 4.1 230 08:54 08.08.2019
4051 Clear 18 1012 77 10000 4.1 230 08:36 08.08.2019
4052 Clear 18 1012 77 10000 4.1 230 08:18 08.08.2019
4053 Clear 16 1011 82 10000 3.6 210 07:39 08.08.2019
4054 Clear 15 1011 87 10000 3.1 220 07:19 08.08.2019
4055 Clear 15 1011 82 10000 3.6 220 06:46 08.08.2019
4056 Clear 14 1011 87 10000 3.6 210 06:19 08.08.2019
4057 Clear 14 1011 93 10000 3.6 200 05:51 08.08.2019
4058 Clear 14 1011 87 10000 3.1 240 04:43 08.08.2019
4059 Clear 15 1010 87 10000 2.6 240 03:51 08.08.2019
4060 Clear 16 1010 88 10000 3.1 250 01:59 08.08.2019
4061 Clear 16 1010 88 10000 3.1 250 01:33 08.08.2019
4062 Clear 17 1009 88 10000 4.1 250 00:25 08.08.2019
4063 Clouds 17 1009 88 10000 3.6 250 23:46 07.08.2019
4064 Rain 17 1009 88 10000 3.6 250 23:19 07.08.2019
4065 Rain 17 1008 93 10000 3.1 230 22:55 07.08.2019
4066 Clouds 17 1008 93 10000 3.1 230 22:36 07.08.2019
4067 Clouds 17 1008 93 10000 3.1 230 22:36 07.08.2019
4068 Clouds 17 1008 93 10000 2.6 230 22:18 07.08.2019
4069 Rain 18 1007 93 10000 3.6 230 21:54 07.08.2019
4070 Rain 18 1007 93 10000 3.6 230 21:36 07.08.2019
4071 Rain 17 1008 93 10000 2.1 230 21:18 07.08.2019
4072 Rain 18 1008 93 10000 3.1 250 20:42 07.08.2019
4073 Rain 18 1008 100 10000 3.1 220 20:23 07.08.2019
4074 Rain 18 1007 93 10000 3.1 230 19:57 07.08.2019
4075 Rain 18 1007 93 10000 3.1 230 19:39 07.08.2019
4076 Rain 19 1007 88 9000 4.6 220 19:21 07.08.2019
4077 Rain 19 1007 88 10000 3.6 220 18:43 07.08.2019
4078 Rain 19 1007 88 10000 3.1 230 18:21 07.08.2019
4079 Rain 20 1007 88 10000 3.6 210 17:59 07.08.2019
4080 Clear 20 1007 88 10000 3.6 210 17:40 07.08.2019
4081 Rain 20 1007 94 10000 2.6 200 17:21 07.08.2019
4082 Rain 20 1007 94 10000 2.1 230 16:57 07.08.2019
4083 Rain 20 1007 94 10000 2.1 230 16:39 07.08.2019
4084 Rain 21 1008 88 10000 2.1 240 16:20 07.08.2019
4085 Rain 21 1007 77 10000 0.5 0 15:57 07.08.2019
4086 Rain 21 1007 77 10000 0.5 0 15:38 07.08.2019
4087 Rain 22 1008 73 10000 3.1 240 15:19 07.08.2019
4088 Rain 22 1008 77 10000 3.1 260 14:49 07.08.2019
4089 Rain 22 1008 77 10000 3.1 260 14:49 07.08.2019
4090 Rain 21 1008 88 10000 4.6 300 14:28 07.08.2019
4091 Rain 22 1008 64 10000 4.6 270 13:56 07.08.2019
4092 Rain 22 1008 64 10000 4.6 270 13:38 07.08.2019
4093 Rain 22 1008 57 10000 3.1 0 13:18 07.08.2019
4094 Rain 22 1008 56 10000 3.1 230 12:55 07.08.2019
4095 Rain 22 1008 56 10000 3.1 230 12:36 07.08.2019
4096 Clouds 22 1008 50 10000 4.1 210 12:18 07.08.2019
4097 Clouds 23 1008 53 10000 3.6 220 11:43 07.08.2019
4098 Clear 23 1008 57 10000 3.6 210 11:21 07.08.2019
4099 Clear 23 1008 64 10000 3.1 240 10:57 07.08.2019
4100 Clear 23 1008 64 10000 3.1 240 10:39 07.08.2019
4101 Clear 22 1008 64 10000 2.6 240 10:18 07.08.2019
4102 Clear 22 1008 68 10000 3.1 230 09:45 07.08.2019
4103 Clear 22 1008 68 10000 3.1 220 09:22 07.08.2019
4104 Clear 21 1008 72 10000 3.1 240 08:57 07.08.2019
4105 Clear 21 1008 72 10000 3.1 240 08:39 07.08.2019
4106 Clear 20 1008 72 10000 2.6 230 08:21 07.08.2019
4107 Clear 19 1008 77 10000 2.6 220 07:43 07.08.2019
4108 Clear 18 1008 77 10000 2.6 220 07:21 07.08.2019
4109 Clear 17 1008 82 10000 2.6 220 06:31 07.08.2019
4110 Clear 16 1008 88 10000 2.1 220 05:56 07.08.2019
4111 Clear 16 1008 88 10000 2.6 210 04:58 07.08.2019
4112 Clear 17 1009 77 10000 2.6 210 03:21 07.08.2019
4113 Clear 17 1009 77 10000 2.6 220 02:50 07.08.2019
4114 Clear 17 1009 77 10000 2.1 200 02:26 07.08.2019
4115 Clear 17 1009 72 10000 2.1 210 01:45 07.08.2019
4116 Clear 17 1009 72 10000 2.1 180 00:52 07.08.2019
4117 Clear 18 1009 68 10000 2.6 210 00:23 07.08.2019
4118 Clear 18 1009 72 10000 3.1 210 23:47 06.08.2019
4119 Clear 19 1009 68 10000 2.6 220 23:23 06.08.2019
4120 Clear 19 1009 68 10000 3.1 220 22:59 06.08.2019
4121 Clear 19 1009 68 10000 3.1 220 22:40 06.08.2019
4122 Clear 20 1009 64 10000 3.1 230 22:20 06.08.2019
4123 Clear 20 1010 60 10000 2.6 240 21:56 06.08.2019
4124 Clear 21 1009 56 10000 3.1 230 21:38 06.08.2019
4125 Clear 21 1009 56 10000 3.1 230 21:18 06.08.2019
4126 Clear 22 1009 56 10000 3.6 240 20:42 06.08.2019
4127 Clear 23 1009 53 10000 3.6 260 20:23 06.08.2019
4128 Clear 23 1009 57 10000 3.6 260 19:48 06.08.2019
4129 Clear 23 1009 53 10000 4.1 260 19:29 06.08.2019
4130 Clear 23 1009 50 10000 5.1 260 18:57 06.08.2019
4131 Clear 23 1009 50 10000 5.1 260 18:38 06.08.2019
4132 Clear 25 1009 47 10000 4.6 250 18:20 06.08.2019
4133 Clear 25 1010 47 10000 5.1 260 17:57 06.08.2019
4134 Clear 25 1010 47 10000 5.1 260 17:37 06.08.2019
4135 Clear 26 1010 44 10000 3.6 260 17:19 06.08.2019
4136 Clouds 26 1010 53 10000 2.6 270 16:44 06.08.2019
4137 Rain 26 1010 50 10000 5.7 280 16:25 06.08.2019
4138 Clear 26 1010 36 10000 4.1 280 15:59 06.08.2019
4139 Clear 27 1010 36 10000 4.1 280 15:40 06.08.2019
4140 Clear 28 1010 34 10000 4.1 290 15:21 06.08.2019
4141 Clear 28 1011 36 10000 5.7 240 14:58 06.08.2019
4142 Clear 28 1011 36 10000 5.7 240 14:37 06.08.2019
4143 Clear 28 1011 39 10000 4.6 250 14:19 06.08.2019
4144 Clear 28 1011 36 10000 4.1 0 13:45 06.08.2019
4145 Clear 28 1011 39 10000 4.1 270 13:26 06.08.2019
4146 Clouds 27 1011 47 10000 2.6 0 12:59 06.08.2019
4147 Clouds 27 1011 47 10000 2.6 0 12:40 06.08.2019
4148 Clouds 27 1011 47 10000 2.1 0 12:21 06.08.2019
4149 Clouds 26 1012 57 10000 2.1 0 11:45 06.08.2019
4150 Clouds 25 1012 57 10000 2.6 200 11:21 06.08.2019
4151 Clear 25 1012 60 10000 1.5 0 10:59 06.08.2019
4152 -273 0 0 0 0 0 10:40 06.08.2019
4153 Clear 24 1012 64 10000 1.5 260 10:21 06.08.2019
4154 Clear 22 1012 68 10000 2.6 270 09:43 06.08.2019
4155 Clear 21 1012 68 10000 2.6 270 09:23 06.08.2019
4156 Clear 21 1012 72 10000 2.1 240 08:55 06.08.2019
4157 Clear 21 1012 72 10000 2.1 240 08:36 06.08.2019
4158 Clear 20 1012 72 10000 2.1 220 08:18 06.08.2019
4159 Clear 17 1012 82 10000 2.1 210 07:31 06.08.2019
4160 Clear 16 1012 93 10000 2.1 200 06:45 06.08.2019
4161 Clear 16 1012 93 10000 2.1 200 06:45 06.08.2019
4162 Clear 15 1011 82 10000 2.1 200 06:26 06.08.2019
4163 Clear 15 1011 82 10000 3.1 220 05:46 06.08.2019
4164 Clear 17 1011 72 10000 3.1 220 02:59 06.08.2019
4165 Clear 17 1011 68 10000 3.1 230 01:36 06.08.2019
4166 Clear 18 1011 68 10000 3.6 220 00:59 06.08.2019
4167 Clear 18 1011 72 10000 3.6 210 00:26 06.08.2019
4168 Clear 18 1011 68 10000 4.1 170 23:21 05.08.2019
4169 Clear 19 1011 64 10000 3.1 160 22:59 05.08.2019
4170 Clear 19 1011 64 10000 3.1 160 22:40 05.08.2019
4171 Clear 19 1011 64 10000 3.6 160 22:22 05.08.2019
4172 Rain 19 1010 78 0 6.25 229.287 21:44 05.08.2019
4173 Clear 20 1011 64 10000 2.1 160 21:21 05.08.2019
4174 Clear 21 1011 60 10000 2.1 150 20:59 05.08.2019
4175 Clear 21 1011 60 10000 2.1 150 20:40 05.08.2019
4176 Clear 22 1011 53 10000 1.5 160 20:22 05.08.2019
4177 Clear 22 1011 53 10000 1.5 170 19:59 05.08.2019
4178 Clear 22 1011 53 10000 1.5 170 19:39 05.08.2019
4179 -273 0 0 0 0 0 19:20 05.08.2019
4180 Clear 23 1011 53 10000 2.1 160 19:20 05.08.2019
4181 Clear 23 1011 44 10000 1.5 170 18:43 05.08.2019
4182 Clear 23 1011 44 10000 1 0 18:22 05.08.2019
4183 Clear 23 1011 44 10000 2.1 220 17:58 05.08.2019
4184 Clear 23 1011 44 10000 2.1 220 17:40 05.08.2019
4185 Rain 23 1012 46 10000 0.5 0 17:22 05.08.2019
4186 Rain 23 1012 46 10000 0.5 0 17:22 05.08.2019
4187 Clear 23 1012 53 10000 1.5 260 16:44 05.08.2019
4188 Rain 23 1012 53 0 2.1 280 16:24 05.08.2019
4189 Clouds 23 1012 56 10000 2.1 270 15:44 05.08.2019
4190 Clouds 23 1012 56 10000 1.5 310 15:21 05.08.2019
4191 Clouds 23 1012 56 10000 1 0 14:55 05.08.2019
4192 Clouds 23 1012 56 10000 1 0 14:37 05.08.2019
4193 Clouds 23 1012 68 10000 1.5 320 14:19 05.08.2019
4194 Rain 24 1012 60 10000 6.2 320 13:40 05.08.2019
4195 Rain 24 1012 44 10000 2.1 310 13:20 05.08.2019
4196 Clear 25 1012 39 10000 2.1 0 12:44 05.08.2019
4197 Clear 25 1013 44 10000 1 0 12:20 05.08.2019
4198 Clear 25 1013 50 10000 1 0 11:45 05.08.2019
4199 Clear 25 1013 49 10000 1 0 11:26 05.08.2019
4200 Clear 25 1013 53 10000 1.5 170 10:51 05.08.2019
4201 Clear 24 1013 53 10000 1.5 170 10:33 05.08.2019
4202 Clear 22 1013 60 10000 1.5 100 09:59 05.08.2019
4203 Clear 21 1013 60 10000 1.5 100 09:40 05.08.2019
4204 Clear 20 1013 68 10000 1 0 09:21 05.08.2019
4205 Clear 18 1014 77 10000 1 0 08:47 05.08.2019
4206 Clear 17 1014 87 10000 1.5 190 08:25 05.08.2019
4207 Clear 16 1014 87 10000 1.5 160 07:54 05.08.2019
4208 Clear 15 1014 87 10000 1.5 160 07:31 05.08.2019
4209 Clear 13 1014 93 10000 1.5 150 06:59 05.08.2019
4210 Clear 12 1014 93 10000 1.5 160 06:29 05.08.2019
4211 Clear 12 1014 87 10000 2.1 150 05:41 05.08.2019
4212 Clear 12 1014 87 10000 1 160 05:18 05.08.2019
4213 Clouds 13 978 83 0 2.09 189.174 03:58 05.08.2019
4214 Clouds 13 1014 87 0 1.47 196.528 03:20 05.08.2019
4215 Clear 13 1015 77 10000 1.5 170 02:26 05.08.2019
4216 Clear 14 979 82 0 1.63 194.206 01:32 05.08.2019
4217 Clear 14 1015 84 0 1.63 194.206 00:41 05.08.2019
4218 Clouds 15 979 78 0 0.95 235.727 00:21 05.08.2019
4219 Clouds 15 979 78 0 0.95 235.727 23:56 04.08.2019
4220 Clouds 15 979 78 0 0.95 235.727 23:36 04.08.2019
4221 Clouds 15 979 77 0 0.95 235.727 23:18 04.08.2019
4222 Clouds 16 979 75 0 0.95 235.727 22:54 04.08.2019
4223 Clouds 16 979 71 0 0.95 235.727 22:36 04.08.2019
4224 Clouds 17 979 73 0 0.95 235.727 22:18 04.08.2019
4225 Clouds 18 1014 69 0 0.95 235.727 21:42 04.08.2019
4226 Clear 19 1015 52 10000 1 300 21:20 04.08.2019
4227 Clear 21 1015 49 10000 1.5 290 20:44 04.08.2019
4228 Clear 22 1014 46 10000 3.1 310 20:19 04.08.2019
4229 Clear 23 1014 43 10000 3.6 300 19:58 04.08.2019
4230 Clear 23 1014 43 10000 3.6 300 19:38 04.08.2019
4231 Clear 23 1014 44 0 4.1 310 19:19 04.08.2019
4232 Clear 24 1015 41 10000 4.1 310 18:42 04.08.2019
4233 Clear 25 1014 44 10000 3.1 310 18:20 04.08.2019
4234 Clear 25 1015 44 10000 3.1 300 17:45 04.08.2019
4235 Clear 25 1015 47 10000 3.6 300 17:25 04.08.2019
4236 Clouds 25 1015 44 10000 4.1 310 16:59 04.08.2019
4237 Clouds 25 1015 44 10000 4.1 310 16:39 04.08.2019
4238 Clouds 25 1015 49 10000 5.7 310 16:20 04.08.2019
4239 Clouds 25 1015 53 10000 5.1 310 15:43 04.08.2019
4240 Clouds 25 1015 49 10000 4.1 310 15:22 04.08.2019
4241 Clouds 24 1016 49 10000 3.1 310 14:45 04.08.2019
4242 Clouds 24 1016 50 10000 3.1 300 14:26 04.08.2019
4243 Clouds 24 1016 53 10000 4.1 290 13:56 04.08.2019
4244 Clouds 23 1016 53 10000 4.1 290 13:38 04.08.2019
4245 Clouds 23 1016 49 10000 4.1 290 13:20 04.08.2019
4246 Clouds 23 1017 53 10000 4.1 300 12:44 04.08.2019
4247 Clouds 23 1017 60 10000 3.6 320 12:25 04.08.2019
4248 Clouds 22 1017 64 10000 3.6 260 11:56 04.08.2019
4249 Clouds 22 1017 64 10000 3.6 260 11:37 04.08.2019
4250 Clouds 22 1017 72 10000 3.6 260 11:19 04.08.2019
4251 Clear 20 1017 72 10000 3.6 280 10:40 04.08.2019
4252 Clouds 19 1017 77 10000 3.6 270 10:20 04.08.2019
4253 Clear 19 1017 82 10000 3.6 270 09:44 04.08.2019
4254 Clear 18 1017 82 10000 4.1 260 09:22 04.08.2019
4255 Clear 17 1017 87 10000 3.1 270 08:45 04.08.2019
4256 Clear 17 1017 87 10000 2.6 240 08:26 04.08.2019
4257 Clear 15 1017 93 10000 2.1 220 07:52 04.08.2019
4258 Clear 13 1016 100 10000 2.6 220 06:57 04.08.2019
4259 Clear 13 1016 93 10000 3.1 210 06:28 04.08.2019
4260 Clear 13 1016 87 10000 1.5 220 04:29 04.08.2019
4261 Clear 14 1016 87 10000 2.6 230 02:43 04.08.2019
4262 Clear 14 1016 87 10000 3.6 220 01:39 04.08.2019
4263 Clear 15 1016 82 10000 3.1 220 01:18 04.08.2019
4264 Clear 15 1016 87 10000 3.1 230 00:41 04.08.2019
4265 Clear 15 1016 77 10000 2.6 240 00:19 04.08.2019
4266 Clear 15 979 92 0 1.26 237.927 23:41 03.08.2019
4267 Clear 16 979 89 0 1.26 237.927 23:19 03.08.2019
4268 Clouds 16 1016 72 10000 1.5 340 22:55 03.08.2019
4269 Clouds 16 1016 72 10000 1.5 340 22:37 03.08.2019
4270 Clouds 17 1015 72 10000 2.6 30 22:18 03.08.2019
4271 Clouds 17 1015 68 10000 2.6 290 21:37 03.08.2019
4272 Clouds 18 1015 63 10000 2.1 300 21:19 03.08.2019
4273 Clouds 19 1014 56 10000 2.6 290 20:42 03.08.2019
4274 Clouds 19 1014 56 10000 3.6 280 20:22 03.08.2019
4275 Clouds 21 1014 53 10000 3.1 280 19:43 03.08.2019
4276 Rain 21 1014 49 10000 3.1 300 19:24 03.08.2019
4277 Rain 22 1014 53 10000 2.6 330 18:56 03.08.2019
4278 Rain 22 1014 53 10000 3.6 300 18:27 03.08.2019
4279 Thunderstorm 23 1014 56 10000 4.1 270 17:50 03.08.2019
4280 Rain 23 1014 53 10000 4.1 280 17:22 03.08.2019
4281 Clouds 22 1014 56 10000 3.6 320 16:58 03.08.2019
4282 Clouds 22 1014 56 10000 3.6 320 16:37 03.08.2019
4283 Clouds 22 1014 60 10000 3.6 0 16:19 03.08.2019
4284 Clouds 21 1014 56 10000 4.1 300 15:45 03.08.2019
4285 Clouds 20 1014 64 10000 4.1 350 15:23 03.08.2019
4286 Clouds 20 1014 60 10000 4.1 10 14:43 03.08.2019
4287 Thunderstorm 20 1014 60 10000 3.1 300 14:22 03.08.2019
4288 Rain 21 1014 64 10000 3.1 280 13:53 03.08.2019
4289 Clouds 21 1014 68 10000 3.1 250 13:26 03.08.2019
4290 Clouds 20 1015 72 10000 2.6 260 12:59 03.08.2019
4291 Clouds 20 1015 72 10000 2.6 260 12:40 03.08.2019
4292 Rain 20 978 80 0 0.89 232 12:22 03.08.2019
4293 Rain 19 1015 87 10000 2.1 220 11:49 03.08.2019
4294 Rain 18 1015 87 10000 2.6 240 11:28 03.08.2019
4295 Rain 18 1014 87 10000 2.1 230 10:46 03.08.2019
4296 Rain 17 1014 87 10000 1 0 10:24 03.08.2019
4297 Rain 16 1014 87 10000 2.6 230 09:45 03.08.2019
4298 Rain 16 1014 93 10000 2.1 300 09:24 03.08.2019
4299 Rain 16 1014 82 10000 2.6 270 08:56 03.08.2019
4300 Clouds 16 1014 87 10000 2.6 230 08:21 03.08.2019
4301 Clouds 15 1013 87 10000 2.1 210 07:38 03.08.2019
4302 Clear 14 1013 93 10000 1 0 06:47 03.08.2019
4303 Clear 13 1013 93 10000 0.5 0 05:47 03.08.2019
4304 Clear 14 1014 87 10000 1.5 290 02:43 03.08.2019
4305 Clear 15 1013 82 10000 0.5 0 01:54 03.08.2019
4306 Clear 15 1013 77 10000 2.1 220 00:57 03.08.2019
4307 Clear 16 1013 77 10000 2.6 210 00:29 03.08.2019
4308 Clear 16 1014 77 10000 2.6 220 23:41 02.08.2019
4309 Clear 16 1014 72 10000 3.1 240 23:20 02.08.2019
4310 Clouds 17 1014 72 10000 3.1 230 22:57 02.08.2019
4311 Clouds 17 1014 72 10000 3.1 230 22:39 02.08.2019
4312 Clouds 17 1014 60 10000 1.5 240 22:20 02.08.2019
4313 Clear 17 1013 60 10000 1.5 60 21:55 02.08.2019
4314 Clear 18 1013 60 10000 1.5 60 21:37 02.08.2019
4315 Clear 19 1013 60 10000 1.5 60 21:18 02.08.2019
4316 Clear 19 1013 60 10000 1.5 60 21:18 02.08.2019
4317 Clear 19 1013 56 10000 1.5 50 20:42 02.08.2019
4318 Clear 21 1013 52 10000 2.6 40 20:21 02.08.2019
4319 Clear 21 1013 49 10000 3.1 30 19:49 02.08.2019
4320 Clear 22 1013 46 10000 3.6 50 19:29 02.08.2019
4321 Clear 23 1013 49 10000 4.6 40 18:47 02.08.2019
4322 Clear 24 1013 46 10000 3.6 20 18:29 02.08.2019
4323 Clouds 24 1013 46 10000 4.1 40 17:56 02.08.2019
4324 Clouds 24 1013 46 10000 4.1 40 17:38 02.08.2019
4325 Clouds 24 1013 43 10000 4.6 30 17:18 02.08.2019
4326 Clear 25 1013 41 10000 4.6 20 16:39 02.08.2019
4327 Clear 25 1013 41 10000 2.1 0 16:20 02.08.2019
4328 Clear 25 1014 41 10000 2.1 340 15:45 02.08.2019
4329 Clear 25 1014 41 10000 2.6 0 15:20 02.08.2019
4330 Clear 25 1014 40 10000 2.6 30 14:57 02.08.2019
4331 Clear 24 1014 40 10000 2.6 30 14:39 02.08.2019
4332 Clear 24 1014 41 10000 2.1 330 14:18 02.08.2019
4333 Clear 24 1014 36 10000 2.6 10 13:42 02.08.2019
4334 Clear 24 1014 43 10000 2.1 0 13:19 02.08.2019
4335 Clouds 24 1015 44 10000 1 0 12:41 02.08.2019
4336 Clouds 24 1015 44 10000 2.1 0 12:19 02.08.2019
4337 Clear 23 1015 46 10000 2.1 0 11:40 02.08.2019
4338 Clear 22 1015 52 10000 1.5 0 11:22 02.08.2019
4339 Clear 21 1015 60 10000 1.5 0 10:44 02.08.2019
4340 Clouds 21 1015 60 10000 0.5 0 10:24 02.08.2019
4341 Clouds 20 1015 60 10000 0.5 0 09:55 02.08.2019
4342 Clouds 20 1015 60 10000 0.5 0 09:36 02.08.2019
4343 Clouds 19 1015 63 10000 1 0 09:18 02.08.2019
4344 Clouds 17 1015 72 10000 1 0 08:40 02.08.2019
4345 Clear 16 1015 77 10000 1 0 08:18 02.08.2019
4346 Clear 15 1015 82 10000 2.1 190 07:40 02.08.2019
4347 Clear 14 1015 82 10000 2.6 200 07:21 02.08.2019
4348 Clear 14 1015 87 10000 1.5 180 06:31 02.08.2019
4349 Clear 12 1015 87 10000 1 0 05:43 02.08.2019
4350 Clear 13 1016 82 10000 1.5 200 03:34 02.08.2019
4351 Clear 13 1016 77 10000 2.1 140 02:38 02.08.2019
4352 Clear 14 1016 72 10000 0.5 0 01:38 02.08.2019
4353 Clear 15 1016 68 10000 1 0 00:32 02.08.2019
4354 Clear 16 1016 68 10000 1.5 80 23:44 01.08.2019
4355 Clear 17 1016 68 10000 1.5 70 23:26 01.08.2019
4356 Clear 17 980 76 0 1.52 226.867 22:45 01.08.2019
4357 Clear 18 980 73 0 1.52 226.867 22:25 01.08.2019
4358 Clear 19 1016 60 10000 2.1 30 21:59 01.08.2019
4359 Clear 19 1016 60 10000 2.1 30 21:41 01.08.2019
4360 Clear 20 1016 52 10000 2.1 20 21:22 01.08.2019
4361 Clear 21 1015 49 10000 3.6 360 20:47 01.08.2019
4362 Clear 22 1015 40 10000 2.6 300 20:23 01.08.2019
4363 Clouds 23 1015 50 0 2.91 295.429 19:58 01.08.2019
4364 Clear 23 1015 36 10000 2.6 290 19:37 01.08.2019
4365 Clear 24 1015 38 10000 3.1 300 19:18 01.08.2019
4366 Clear 24 1015 38 10000 3.1 300 19:18 01.08.2019
4367 Clear 24 1015 38 10000 3.6 290 18:43 01.08.2019
4368 Clouds 25 979 49 0 0.89 227 18:24 01.08.2019
4369 Clear 24 1016 41 10000 2.6 280 17:49 01.08.2019
4370 Clear 25 1016 41 10000 2.6 300 17:30 01.08.2019
4371 Clear 25 1016 43 10000 3.1 300 16:45 01.08.2019
4372 Clear 25 1016 41 10000 3.6 280 16:23 01.08.2019
4373 Clear 25 1016 41 10000 4.1 0 15:54 01.08.2019
4374 Clear 25 1016 41 10000 4.1 0 15:36 01.08.2019
4375 Clear 25 1016 38 10000 4.1 300 15:18 01.08.2019
4376 Clouds 25 1016 47 10000 4.6 300 14:41 01.08.2019
4377 Clouds 25 1017 47 10000 4.6 310 14:19 01.08.2019
4378 Clouds 24 1017 49 10000 4.6 320 13:57 01.08.2019
4379 Clouds 24 1017 49 10000 4.6 320 13:39 01.08.2019
4380 Clouds 24 1017 56 10000 4.6 340 13:20 01.08.2019
4381 Clouds 24 1017 60 10000 4.1 310 12:43 01.08.2019
4382 Clouds 24 1017 60 10000 4.1 320 12:25 01.08.2019
4383 Clouds 22 1017 64 10000 3.6 300 11:43 01.08.2019
4384 Clear 22 1017 72 10000 3.6 310 11:24 01.08.2019
4385 Clouds 22 981 70 0 2.98 313.544 10:54 01.08.2019
4386 Clouds 21 1018 77 10000 4.6 310 10:36 01.08.2019
4387 Clouds 21 1018 77 10000 4.6 310 10:36 01.08.2019
4388 Clouds 21 1017 77 10000 3.1 280 10:18 01.08.2019
4389 Clear 20 1017 72 10000 3.1 280 09:43 01.08.2019
4390 Clear 19 1017 77 10000 2.6 250 09:23 01.08.2019
4391 Clear 17 1017 88 10000 3.1 270 08:47 01.08.2019
4392 Clouds 17 1018 100 10000 2.1 270 08:21 01.08.2019
4393 Clouds 15 1018 100 6000 1.5 240 07:51 01.08.2019
4394 Mist 15 1017 100 3000 1 210 07:28 01.08.2019
4395 Rain 14 1017 100 500 1.5 210 06:49 01.08.2019
4396 Rain 14 1017 100 300 3.1 200 06:29 01.08.2019
4397 Clouds 14 1017 93 10000 1 0 05:30 01.08.2019
4398 Clear 15 1017 93 10000 2.1 50 02:35 01.08.2019
4399 Clear 16 1017 100 10000 2.1 220 00:51 01.08.2019
4400 Clear 16 1017 100 10000 1.5 220 00:26 01.08.2019
4401 Clear 16 1017 93 10000 1 0 23:55 31.07.2019
4402 Clear 16 1017 93 10000 1 0 23:36 31.07.2019
4403 Clear 15 1017 93 10000 1.5 150 23:18 31.07.2019
4404 Clear 15 1017 93 10000 3.1 200 22:42 31.07.2019
4405 Clouds 16 1017 87 10000 1 0 22:23 31.07.2019
4406 Clouds 17 1016 88 10000 2.6 90 21:40 31.07.2019
4407 Rain 17 1016 88 10000 3.1 50 21:22 31.07.2019
4408 Rain 18 1016 82 10000 2.1 360 20:49 31.07.2019
4409 Rain 19 1016 77 10000 5.1 330 20:23 31.07.2019
4410 Clouds 20 1016 64 10000 1.5 310 19:48 31.07.2019
4411 Clouds 20 1015 64 10000 2.1 320 19:29 31.07.2019
4412 Clouds 21 1016 64 10000 1 0 18:57 31.07.2019
4413 Clouds 21 1016 64 10000 1 0 18:37 31.07.2019
4414 Clouds 21 1015 60 10000 2.1 220 18:18 31.07.2019
4415 Rain 22 1015 68 10000 1 0 17:44 31.07.2019
4416 Clouds 22 1016 73 10000 2.1 260 17:20 31.07.2019
4417 Clouds 22 1016 73 10000 2.1 270 16:52 31.07.2019
4418 Clouds 22 1016 73 10000 2.1 270 16:26 31.07.2019
4419 Clouds 22 1016 77 10000 2.6 270 15:58 31.07.2019
4420 Clouds 22 1016 77 10000 2.6 270 15:38 31.07.2019
4421 Clouds 21 1016 73 10000 2.1 300 15:20 31.07.2019
4422 Rain 22 1016 73 10000 3.1 320 14:42 31.07.2019
4423 Clouds 22 1016 73 10000 3.6 340 14:19 31.07.2019
4424 Clouds 21 1016 77 10000 3.1 300 13:55 31.07.2019
4425 Clouds 21 1016 77 10000 3.1 300 13:37 31.07.2019
4426 Rain 21 1016 77 10000 4.6 270 13:18 31.07.2019
4427 Rain 21 1016 73 10000 6.2 280 12:41 31.07.2019
4428 Clouds 22 1015 69 10000 6.2 290 12:23 31.07.2019
4429 Clouds 23 1015 60 10000 6.7 270 11:40 31.07.2019
4430 Clouds 23 1015 53 10000 5.7 280 11:21 31.07.2019
4431 Clouds 24 1015 60 10000 4.1 270 10:56 31.07.2019
4432 Clouds 24 1015 60 10000 4.1 270 10:38 31.07.2019
4433 Clouds 24 1015 69 10000 3.1 300 10:19 31.07.2019
4434 Clear 24 1014 69 10000 2.6 310 09:43 31.07.2019
4435 Clouds 23 1014 73 10000 3.1 300 09:23 31.07.2019
4436 Clear 22 1014 73 10000 2.1 300 08:44 31.07.2019
4437 Clear 21 1014 73 10000 1.5 270 08:24 31.07.2019
4438 Clear 20 1013 77 10000 1.5 250 07:50 31.07.2019
4439 Clear 19 1013 82 10000 0.5 0 07:31 31.07.2019
4440 Clear 17 1013 88 10000 1 270 05:24 31.07.2019
4441 Clear 18 1013 82 10000 1.5 210 04:21 31.07.2019
4442 Clear 20 1013 78 10000 1 350 00:41 31.07.2019
4443 Clear 20 1013 73 10000 1.5 20 23:51 30.07.2019
4444 Clear 21 1012 69 10000 1 350 23:30 30.07.2019
4445 Clear 22 1012 64 10000 1.5 360 22:59 30.07.2019
4446 Rain 21 977 77 0 1.71 281.277 22:41 30.07.2019
4447 Clear 22 1012 60 10000 1 330 22:21 30.07.2019
4448 Clear 23 1012 57 10000 1.5 330 21:38 30.07.2019
4449 Clear 24 1011 53 10000 2.1 340 21:19 30.07.2019
4450 Clear 24 1011 53 10000 2.6 340 20:57 30.07.2019
4451 Clear 25 1011 53 10000 2.6 340 20:38 30.07.2019
4452 Clear 26 1011 50 10000 4.1 340 20:19 30.07.2019
4453 Clear 26 1011 47 10000 3.6 310 19:49 30.07.2019
4454 Clear 27 1011 44 10000 4.1 310 19:29 30.07.2019
4455 Clear 27 1011 44 10000 5.1 290 18:48 30.07.2019
4456 Clouds 27 1011 47 10000 3.6 300 18:27 30.07.2019
4457 Clouds 28 1011 45 10000 4.6 320 17:58 30.07.2019
4458 Clouds 28 1011 45 10000 4.6 320 17:40 30.07.2019
4459 Clouds 28 1011 48 10000 4.1 300 17:18 30.07.2019
4460 Clouds 28 1011 51 10000 4.1 310 16:46 30.07.2019
4461 Clouds 28 1011 54 10000 4.6 270 16:19 30.07.2019
4462 Clouds 28 1011 51 10000 4.6 280 15:44 30.07.2019
4463 Clouds 28 1011 54 10000 4.6 280 15:22 30.07.2019
4464 Clouds 28 1011 54 10000 4.6 290 14:46 30.07.2019
4465 Clouds 28 1012 54 10000 4.6 280 14:27 30.07.2019
4466 Clouds 28 1012 54 10000 4.1 280 13:59 30.07.2019
4467 Clouds 27 1012 54 10000 4.1 280 13:39 30.07.2019
4468 Clouds 27 1012 57 10000 4.6 280 13:21 30.07.2019
4469 Clouds 26 1012 57 10000 4.1 280 12:46 30.07.2019
4470 Clouds 26 1012 61 10000 4.6 290 12:28 30.07.2019
4471 Clouds 26 1012 61 10000 4.1 300 11:58 30.07.2019
4472 Clouds 26 1012 61 10000 4.1 300 11:38 30.07.2019
4473 Clouds 25 1012 65 10000 4.6 270 11:18 30.07.2019
4474 Clouds 24 1012 64 10000 4.1 270 10:42 30.07.2019
4475 Clouds 24 1012 69 10000 4.1 270 10:21 30.07.2019
4476 Clouds 23 1012 73 10000 4.1 250 09:48 30.07.2019
4477 Clouds 22 1012 78 10000 3.6 260 09:30 30.07.2019
4478 Clouds 21 1012 78 10000 4.6 260 08:47 30.07.2019
4479 Clouds 21 1012 83 8000 4.1 260 08:28 30.07.2019
4480 Clouds 20 1011 83 7000 4.1 260 07:47 30.07.2019
4481 Clouds 20 1011 83 7000 4.1 260 07:47 30.07.2019
4482 Clouds 20 1011 88 7000 3.1 260 07:28 30.07.2019
4483 Clouds 20 1011 88 8000 3.1 270 06:47 30.07.2019
4484 Clouds 19 1011 88 8000 2.6 260 05:56 30.07.2019
4485 Clouds 19 1011 88 9000 3.1 260 05:32 30.07.2019
4486 Clear 20 1010 83 10000 2.6 280 01:41 30.07.2019
4487 Clear 20 1010 77 10000 2.6 280 01:19 30.07.2019
4488 Clouds 21 1010 73 10000 3.1 290 00:21 30.07.2019
4489 Clouds 21 1010 69 10000 2.1 0 23:45 29.07.2019
4490 Clouds 22 1010 69 10000 2.6 20 23:26 29.07.2019
4491 Clouds 22 1010 64 10000 3.6 300 22:57 29.07.2019
4492 Clouds 22 1010 64 10000 3.6 300 22:38 29.07.2019
4493 Clouds 22 1010 64 10000 3.6 290 22:20 29.07.2019
4494 Clouds 22 1010 61 10000 3.1 280 21:57 29.07.2019
4495 Clouds 22 1010 61 10000 3.1 280 21:38 29.07.2019
4496 Clouds 24 1010 57 10000 4.6 290 21:20 29.07.2019
4497 Clear 25 1009 57 10000 4.1 280 20:48 29.07.2019
4498 Clear 25 1009 54 10000 4.6 290 20:25 29.07.2019
4499 Clouds 25 1008 54 10000 5.1 300 19:57 29.07.2019
4500 Clouds 25 1008 54 10000 5.1 300 19:37 29.07.2019
4501 Clouds 25 1008 51 10000 5.7 300 19:19 29.07.2019
4502 Clouds 26 1008 51 10000 6.2 310 18:42 29.07.2019
4503 Rain 29 1008 48 10000 7.2 310 18:22 29.07.2019
4504 Clear 30 1008 45 10000 6.7 300 17:53 29.07.2019
4505 Clear 29 1008 45 10000 6.7 300 17:35 29.07.2019
4506 Clear 31 1007 42 10000 4.6 290 16:59 29.07.2019
4507 Clear 30 1007 42 10000 4.6 290 16:40 29.07.2019
4508 Clear 30 1007 42 10000 5.1 330 16:22 29.07.2019
4509 Clear 30 1007 45 10000 4.1 310 15:52 29.07.2019
4510 Clear 30 1007 45 10000 4.1 310 15:52 29.07.2019
4511 Clear 30 1007 45 10000 4.1 310 15:52 29.07.2019
4512 Clear 30 1007 45 10000 4.1 310 15:33 29.07.2019
4513 Clouds 30 1008 45 10000 3.1 260 14:56 29.07.2019
4514 Clouds 30 1008 45 10000 3.1 260 14:56 29.07.2019
4515 Clouds 30 1008 45 10000 3.1 260 14:37 29.07.2019
4516 Clouds 30 1008 48 10000 3.1 280 14:19 29.07.2019
4517 Clouds 30 1008 51 10000 3.6 320 13:42 29.07.2019
4518 Clouds 29 1008 54 10000 3.6 300 13:23 29.07.2019
4519 Clear 28 1008 57 10000 3.6 280 12:42 29.07.2019
4520 Clear 28 1008 65 10000 3.6 300 12:24 29.07.2019
4521 Clear 26 1008 61 10000 3.6 280 11:44 29.07.2019
4522 Clear 25 1008 64 10000 2.6 290 11:22 29.07.2019
4523 Clear 26 1008 64 10000 3.6 280 10:56 29.07.2019
4524 Clear 25 1008 64 10000 3.6 280 10:38 29.07.2019
4525 Clear 25 1008 64 10000 2.1 260 10:19 29.07.2019
4526 Clear 24 1008 69 10000 3.1 270 09:38 29.07.2019
4527 Clear 23 1008 73 10000 3.6 270 09:19 29.07.2019
4528 Clear 22 1007 73 10000 3.6 260 08:41 29.07.2019
4529 Clear 22 1007 73 10000 3.1 250 08:20 29.07.2019
4530 Clear 21 1007 73 10000 2.1 250 07:45 29.07.2019
4531 Clear 20 1007 77 10000 1.5 280 07:23 29.07.2019
4532 Clear 18 1006 88 10000 2.1 250 05:50 29.07.2019
4533 Clear 18 1006 82 10000 2.6 210 04:54 29.07.2019
4534 Clear 19 1005 83 10000 0.5 0 02:28 29.07.2019
4535 Clear 19 1005 77 10000 1 90 01:46 29.07.2019
4536 Clear 19 1005 78 10000 1 0 01:24 29.07.2019
4537 Clear 20 1004 83 10000 1 190 00:52 29.07.2019
4538 Clear 20 1004 83 10000 0.5 0 00:23 29.07.2019
4539 Clear 21 1004 78 10000 0.5 0 23:41 28.07.2019
4540 Clear 21 1004 78 10000 1 0 23:19 28.07.2019
4541 Clear 21 1004 78 10000 1.5 100 22:43 28.07.2019
4542 Clouds 21 1004 78 10000 2.1 80 22:24 28.07.2019
4543 Rain 22 1004 89 0 0.69 251.382 21:50 28.07.2019
4544 Rain 24 1003 54 10000 1.5 120 21:20 28.07.2019
4545 Clouds 24 1002 47 10000 1 0 20:49 28.07.2019
4546 Clouds 25 1002 47 10000 1 0 20:30 28.07.2019
4547 Clear 26 1002 47 10000 2.1 130 19:57 28.07.2019
4548 Clear 27 1002 45 10000 2.6 140 19:38 28.07.2019
4549 Clear 27 1002 45 10000 2.6 140 19:20 28.07.2019
4550 Clear 27 1002 45 10000 3.1 150 18:45 28.07.2019
4551 Clear 28 1001 45 10000 4.1 170 18:25 28.07.2019
4552 Clear 28 1001 42 10000 3.6 130 17:56 28.07.2019
4553 Clear 29 1001 42 10000 3.6 130 17:37 28.07.2019
4554 Clear 29 1001 42 10000 4.1 130 17:19 28.07.2019
4555 Clear 28 1001 45 10000 5.7 110 16:41 28.07.2019
4556 Clear 29 1001 45 10000 5.1 110 16:22 28.07.2019
4557 Clouds 28 1002 48 10000 5.1 120 15:44 28.07.2019
4558 Clouds 28 1002 47 10000 3.6 110 15:25 28.07.2019
4559 Clouds 27 1002 45 10000 3.6 110 14:40 28.07.2019
4560 Clouds 27 1002 51 10000 3.6 120 14:20 28.07.2019
4561 Clouds 27 1002 47 10000 4.6 150 13:56 28.07.2019
4562 Clouds 27 1002 47 10000 4.6 150 13:38 28.07.2019
4563 Clouds 27 1002 50 10000 6.2 180 13:19 28.07.2019
4564 Clouds 26 1002 53 10000 5.7 160 12:42 28.07.2019
4565 Clouds 26 1002 57 10000 4.6 160 12:24 28.07.2019
4566 Clouds 25 1001 60 10000 4.6 140 11:50 28.07.2019
4567 Clouds 25 1001 64 10000 5.1 130 11:29 28.07.2019
4568 Clouds 24 1001 64 10000 5.7 120 10:58 28.07.2019
4569 Clouds 24 1001 64 10000 5.7 120 10:38 28.07.2019
4570 Clouds 24 1001 68 10000 3.6 140 10:18 28.07.2019
4571 Clear 23 1001 68 10000 4.1 140 09:40 28.07.2019
4572 Clear 23 1001 68 10000 5.7 140 09:21 28.07.2019
4573 Clear 22 1001 73 10000 3.6 140 08:42 28.07.2019
4574 Clear 21 1001 73 10000 3.1 140 08:21 28.07.2019
4575 Clear 20 1001 82 10000 3.1 140 07:42 28.07.2019
4576 Clear 19 1001 77 10000 2.6 120 07:22 28.07.2019
4577 Clear 17 1001 82 10000 3.1 130 06:35 28.07.2019
4578 Clear 17 1001 82 10000 1.5 130 05:20 28.07.2019
4579 Clear 19 1002 77 10000 1.5 140 02:39 28.07.2019
4580 Clear 19 1002 72 10000 2.6 100 01:43 28.07.2019
4581 -273 0 0 0 0 0 00:56 28.07.2019
4582 Clear 19 1002 68 10000 3.1 100 00:37 28.07.2019
4583 Clear 21 1002 60 10000 2.6 110 23:53 27.07.2019
4584 Clear 21 1002 56 10000 3.1 120 23:28 27.07.2019
4585 Clear 22 1002 53 10000 3.1 80 22:47 27.07.2019
4586 Clouds 22 1003 44 10000 3.1 90 22:28 27.07.2019
4587 Clear 23 1003 38 10000 3.6 100 21:59 27.07.2019
4588 Clear 23 1003 38 10000 3.6 100 21:38 27.07.2019
4589 Clear 24 1003 36 10000 3.6 70 21:19 27.07.2019
4590 Clear 25 1002 36 10000 4.1 60 20:45 27.07.2019
4591 Clear 26 1002 34 10000 5.1 70 20:22 27.07.2019
4592 Clear 27 1002 32 10000 5.7 80 19:41 27.07.2019
4593 Clear 27 1002 32 10000 5.7 60 19:22 27.07.2019
4594 Clear 28 1002 30 10000 5.1 70 18:49 27.07.2019
4595 Clear 28 1003 30 10000 5.7 50 18:30 27.07.2019
4596 Clear 29 1003 30 10000 5.7 60 17:52 27.07.2019
4597 Clear 29 1003 30 10000 5.7 60 17:32 27.07.2019
4598 Clear 29 1003 30 10000 5.7 60 17:32 27.07.2019
4599 Clear 29 1004 32 10000 5.7 100 16:57 27.07.2019
4600 Clear 29 1004 32 10000 5.7 100 16:38 27.07.2019
4601 Clear 29 1004 32 10000 5.7 80 16:19 27.07.2019
4602 Clear 29 1004 32 10000 5.1 70 15:44 27.07.2019
4603 Clear 29 1004 34 10000 7.2 50 15:19 27.07.2019
4604 Clear 29 1005 32 10000 6.7 70 14:48 27.07.2019
4605 Clear 29 1005 34 10000 6.2 60 14:29 27.07.2019
4606 Clear 28 1006 36 10000 6.7 60 13:52 27.07.2019
4607 Clear 28 1006 36 10000 6.2 80 13:25 27.07.2019
4608 Clear 28 1006 39 10000 6.7 90 12:57 27.07.2019
4609 Clear 27 1006 39 10000 6.7 90 12:37 27.07.2019
4610 Clear 27 1006 39 10000 6.7 60 12:19 27.07.2019
4611 Clear 27 1007 41 10000 7.7 60 11:41 27.07.2019
4612 Clear 26 1007 47 10000 6.7 60 11:23 27.07.2019
4613 Clear 25 1007 49 10000 6.2 50 10:41 27.07.2019
4614 Clear 25 1007 53 10000 5.1 60 10:23 27.07.2019
4615 Clear 24 1007 56 10000 4.6 50 09:43 27.07.2019
4616 Clear 22 1007 56 10000 3.6 50 09:23 27.07.2019
4617 Clear 21 1007 60 10000 3.6 50 08:52 27.07.2019
4618 Clear 21 1007 60 10000 3.6 50 08:33 27.07.2019
4619 Clear 19 1007 68 10000 3.1 40 07:58 27.07.2019
4620 Clear 18 1007 68 10000 3.1 40 07:40 27.07.2019
4621 Clear 17 1007 68 10000 1.5 50 07:20 27.07.2019
4622 Clear 17 1007 68 10000 1.5 80 06:49 27.07.2019
4623 Clear 17 1007 68 10000 1.5 80 06:49 27.07.2019
4624 Clear 16 1007 72 10000 1.5 90 06:21 27.07.2019
4625 Clear 16 1007 72 10000 3.6 60 05:35 27.07.2019
4626 Clear 16 1008 68 10000 2.1 60 04:41 27.07.2019
4627 Clear 17 1008 63 10000 2.1 70 03:46 27.07.2019
4628 Clear 18 1008 56 10000 2.6 80 02:43 27.07.2019
4629 Clear 18 1009 52 10000 3.1 80 01:57 27.07.2019
4630 Clear 18 1009 52 10000 3.1 80 01:57 27.07.2019
4631 Clear 19 1009 52 10000 2.6 80 01:32 27.07.2019
4632 Clear 19 1009 46 10000 2.1 90 00:41 27.07.2019
4633 Clear 20 1009 46 10000 1.5 80 00:22 27.07.2019
4634 Clear 20 1009 43 10000 2.1 80 23:44 26.07.2019
4635 Clear 20 1009 43 10000 1.5 70 23:26 26.07.2019
4636 Clear 21 1010 40 10000 2.1 70 22:43 26.07.2019
4637 Clear 22 1010 38 10000 2.6 60 22:25 26.07.2019
4638 Clear 23 1010 33 10000 2.6 70 21:52 26.07.2019
4639 Clear 25 1010 31 10000 2.6 80 21:21 26.07.2019
4640 Clear 26 1009 32 10000 3.6 70 20:58 26.07.2019
4641 Clear 27 1009 32 10000 3.6 70 20:39 26.07.2019
4642 Clear 28 1009 30 10000 4.6 70 20:21 26.07.2019
4643 Clear 29 1010 32 10000 5.1 60 19:41 26.07.2019
4644 Clear 29 1010 32 10000 5.7 70 19:22 26.07.2019
4645 Clear 29 1010 30 10000 5.1 50 18:44 26.07.2019
4646 Clear 31 1010 30 10000 5.7 60 18:21 26.07.2019
4647 Clear 30 1010 30 10000 4.6 50 17:58 26.07.2019
4648 Clear 31 1010 30 10000 4.6 50 17:38 26.07.2019
4649 Clear 31 1011 28 10000 3.6 50 17:18 26.07.2019
4650 Clear 31 1011 27 10000 3.6 30 16:55 26.07.2019
4651 Clear 31 1011 27 10000 3.6 30 16:37 26.07.2019
4652 Clear 31 1011 25 10000 4.1 70 16:18 26.07.2019
4653 Clear 31 1012 27 10000 3.6 80 15:45 26.07.2019
4654 Clear 31 1012 30 10000 3.6 70 15:22 26.07.2019
4655 Clear 31 1012 32 10000 4.1 10 14:54 26.07.2019
4656 Clear 31 1012 32 10000 4.1 10 14:36 26.07.2019
4657 Clear 31 1013 39 10000 4.6 70 14:18 26.07.2019
4658 Clear 30 1013 42 10000 4.1 30 13:39 26.07.2019
4659 Clear 30 1013 42 10000 5.7 50 13:21 26.07.2019
4660 Clear 30 1013 45 10000 4.6 40 12:43 26.07.2019
4661 Clear 29 1014 47 10000 5.1 40 12:19 26.07.2019
4662 Clear 28 1014 50 10000 6.2 50 11:39 26.07.2019
4663 Clear 28 1014 50 10000 6.2 50 11:19 26.07.2019
4664 Clear 28 1014 53 10000 4.6 60 10:52 26.07.2019
4665 Clear 27 1014 53 10000 4.6 60 10:34 26.07.2019
4666 Clear 26 1014 57 10000 3.1 70 09:55 26.07.2019
4667 Clear 25 1014 57 10000 3.1 70 09:34 26.07.2019
4668 Clear 23 1014 64 10000 2.1 50 08:43 26.07.2019
4669 Clear 22 1014 68 10000 1.5 90 08:22 26.07.2019
4670 Clear 21 1014 72 10000 1.5 60 07:59 26.07.2019
4671 Clear 20 1015 77 10000 1.5 40 07:29 26.07.2019
4672 Clear 18 1014 77 10000 1.5 30 06:53 26.07.2019
4673 Clear 17 1014 77 10000 1 350 05:23 26.07.2019
4674 Clear 17 1015 64 10000 1.5 330 04:28 26.07.2019
4675 Clear 18 1015 56 10000 0.5 0 03:43 26.07.2019
4676 Clear 20 1016 49 10000 1 0 01:43 26.07.2019
4677 Clear 21 1016 49 10000 3.1 60 00:47 26.07.2019
4678 Clear 22 1016 47 10000 2.1 80 00:23 26.07.2019
4679 Clear 23 1016 41 10000 2.6 40 23:25 25.07.2019
4680 Clear 23 1016 34 10000 3.1 40 22:59 25.07.2019
4681 Clear 23 1016 34 10000 3.1 40 22:59 25.07.2019
4682 Clear 23 1016 34 10000 3.1 40 22:40 25.07.2019
4683 Clear 24 1016 34 10000 3.1 30 22:21 25.07.2019
4684 Clouds 24 1016 66 0 0.45 13 21:46 25.07.2019
4685 Clear 26 1016 32 10000 3.1 30 21:23 25.07.2019
4686 Clear 29 1016 27 10000 3.1 30 20:49 25.07.2019
4687 Clear 30 1016 27 10000 3.1 30 20:30 25.07.2019
4688 Clear 31 1016 22 10000 3.1 30 19:55 25.07.2019
4689 Clear 30 1016 22 10000 3.1 30 19:37 25.07.2019
4690 Clear 32 1016 21 10000 5.1 20 19:19 25.07.2019
4691 Clear 32 1016 19 10000 3.6 30 18:40 25.07.2019
4692 Clear 34 1016 20 10000 4.1 20 18:22 25.07.2019
4693 Clear 34 1016 20 10000 3.6 50 17:48 25.07.2019
4694 Clear 35 1016 23 10000 4.6 30 17:30 25.07.2019
4695 Clear 35 1016 23 10000 2.1 0 16:56 25.07.2019
4696 Clear 35 1016 23 10000 2.1 0 16:37 25.07.2019
4697 Clear 35 1016 22 10000 1.5 0 16:18 25.07.2019
4698 Clear 35 1017 24 10000 1 0 15:42 25.07.2019
4699 Clear 35 1017 24 10000 2.1 360 15:19 25.07.2019
4700 Clouds 35 1015 29 0 2.3 12.234 14:42 25.07.2019
4701 Clear 34 1017 21 10000 2.1 0 14:23 25.07.2019
4702 Clear 34 1018 27 10000 2.1 0 13:45 25.07.2019
4703 Clear 33 1018 29 10000 2.6 0 13:26 25.07.2019
4704 Clear 33 1018 27 10000 1.5 0 12:58 25.07.2019
4705 Clear 33 1018 29 10000 1.5 0 12:29 25.07.2019
4706 Clear 32 1018 33 10000 1.5 0 11:47 25.07.2019
4707 Clear 32 1018 37 10000 1.5 0 11:25 25.07.2019
4708 Clear 31 1018 39 10000 1.5 0 10:59 25.07.2019
4709 Clear 30 1018 39 10000 1.5 0 10:40 25.07.2019
4710 Clear 29 1019 42 10000 1.5 40 10:22 25.07.2019
4711 Clear 28 1018 47 10000 1.5 0 09:44 25.07.2019
4712 Clear 26 1019 57 10000 1.5 150 09:25 25.07.2019
4713 Clear 24 1019 53 10000 1 0 08:44 25.07.2019
4714 Clear 23 1018 60 10000 1 0 08:20 25.07.2019
4715 Clear 21 1018 72 10000 1.5 170 07:36 25.07.2019
4716 Clear 19 1018 77 10000 1 0 06:44 25.07.2019
4717 Clear 17 1018 82 10000 1 0 05:48 25.07.2019
4718 Clear 17 1018 77 10000 1.5 130 05:30 25.07.2019
4719 Clear 17 1018 77 10000 1 0 04:39 25.07.2019
4720 Clear 19 1018 56 10000 2.6 160 02:21 25.07.2019
4721 Clear 19 1018 49 10000 1 0 01:21 25.07.2019
4722 Clear 21 1018 44 10000 3.1 80 00:22 25.07.2019
4723 Clear 21 1018 41 10000 2.1 100 23:52 24.07.2019
4724 Clear 21 1018 41 10000 2.1 100 23:31 24.07.2019
4725 Clear 22 1018 44 10000 2.1 60 22:58 24.07.2019
4726 Clear 22 1018 44 10000 2.1 60 22:40 24.07.2019
4727 Clear 23 1017 39 10000 2.1 50 22:21 24.07.2019
4728 Clear 25 1017 36 10000 2.1 60 21:43 24.07.2019
4729 Clear 26 1017 32 10000 2.6 50 21:23 24.07.2019
4730 Clear 28 1017 32 10000 2.1 70 20:59 24.07.2019
4731 Clear 29 1017 32 10000 2.1 70 20:39 24.07.2019
4732 Clear 30 1017 27 10000 2.6 60 20:20 24.07.2019
4733 Clear 30 1017 25 10000 3.1 60 19:56 24.07.2019
4734 Clear 30 1017 25 10000 3.1 60 19:38 24.07.2019
4735 Clear 31 1017 25 10000 2.1 0 19:19 24.07.2019
4736 Clear 32 1017 27 10000 1.5 150 18:42 24.07.2019
4737 Clear 32 1017 27 10000 2.1 0 18:23 24.07.2019
4738 Clear 33 1017 24 10000 2.1 300 17:44 24.07.2019
4739 Clear 33 1017 27 10000 2.1 0 17:20 24.07.2019
4740 Clear 33 1017 27 10000 2.6 340 16:42 24.07.2019
4741 Clear 33 1017 25 10000 2.6 0 16:22 24.07.2019
4742 Clear 33 1017 25 10000 2.6 0 16:22 24.07.2019
4743 Clear 33 1017 27 10000 1.5 0 15:58 24.07.2019
4744 Clear 33 1017 27 10000 1.5 0 15:36 24.07.2019
4745 Clear 33 1018 27 10000 2.1 0 15:18 24.07.2019
4746 Clear 32 1018 27 10000 3.1 60 14:43 24.07.2019
4747 Clear 32 1018 28 10000 2.1 0 14:19 24.07.2019
4748 Clear 32 1018 30 10000 2.1 0 13:39 24.07.2019
4749 Clear 32 1018 28 10000 3.1 340 13:19 24.07.2019
4750 Clear 32 1018 30 10000 2.1 0 12:51 24.07.2019
4751 Clear 32 1018 30 10000 2.1 0 12:51 24.07.2019
4752 Clear 31 1018 30 10000 2.1 0 12:33 24.07.2019
4753 Clear 30 1019 39 10000 2.1 0 11:41 24.07.2019
4754 Clear 30 983 48 0 1.87 42.741 11:21 24.07.2019
4755 Clear 29 1019 47 10000 2.1 150 10:47 24.07.2019
4756 Clear 29 983 55 0 1.87 42.741 10:26 24.07.2019
4757 Clear 28 1018 54 0 1.87 42.741 09:59 24.07.2019
4758 Clear 27 1019 57 10000 1 0 09:41 24.07.2019
4759 Clear 25 1019 64 10000 1 0 09:21 24.07.2019
4760 Clear 23 1019 68 10000 1.5 220 08:42 24.07.2019
4761 Clear 21 1019 82 10000 2.1 210 07:52 24.07.2019
4762 Clear 19 1019 82 10000 2.1 210 07:31 24.07.2019
4763 Clear 17 1019 88 10000 2.6 160 06:56 24.07.2019
4764 Clear 16 1019 82 10000 1 150 06:28 24.07.2019
4765 Clear 15 1019 88 10000 1 0 04:56 24.07.2019
4766 Clear 18 1020 64 10000 1 0 01:49 24.07.2019
4767 Clear 18 1019 77 0 1.52 187.289 00:58 24.07.2019
4768 Clear 18 984 71 0 1.52 187.289 00:39 24.07.2019
4769 Clear 20 1020 53 10000 2.1 90 23:54 23.07.2019
4770 Clear 20 1020 53 10000 1.5 90 23:27 23.07.2019
4771 Clear 21 1020 47 10000 1.5 110 22:59 23.07.2019
4772 Clear 21 1020 47 10000 1.5 110 22:38 23.07.2019
4773 Clear 22 1020 47 10000 1.5 100 22:19 23.07.2019
4774 Clear 23 1020 41 10000 1.5 40 21:45 23.07.2019
4775 Clear 24 1020 39 10000 1.5 20 21:27 23.07.2019
4776 Clear 27 1020 37 10000 1.5 350 20:49 23.07.2019
4777 Clear 28 1020 35 10000 2.1 330 20:30 23.07.2019
4778 Clear 29 1020 32 10000 2.1 350 19:44 23.07.2019
4779 Clear 29 1020 30 10000 3.1 350 19:24 23.07.2019
4780 Clear 30 1020 33 10000 3.6 340 18:59 23.07.2019
4781 Clear 30 1020 33 10000 3.6 340 18:40 23.07.2019
4782 Clear 30 1020 33 10000 3.6 340 18:40 23.07.2019
4783 Clear 31 1020 33 10000 2.6 340 18:20 23.07.2019
4784 Clear 31 1020 33 10000 4.1 340 17:43 23.07.2019
4785 Clear 31 1020 33 10000 3.6 340 17:23 23.07.2019
4786 Clear 31 1020 35 10000 3.1 340 16:49 23.07.2019
4787 Clear 31 1021 37 10000 3.6 310 16:27 23.07.2019
4788 Clear 31 1021 37 10000 5.1 310 15:57 23.07.2019
4789 Clear 31 1021 37 10000 5.1 310 15:38 23.07.2019
4790 Clear 31 1021 37 10000 3.6 0 15:20 23.07.2019
4791 Clear 30 1021 42 10000 3.6 310 14:37 23.07.2019
4792 Clear 30 1021 45 10000 5.1 290 14:18 23.07.2019
4793 Clear 30 1021 45 10000 4.6 320 13:56 23.07.2019
4794 Clear 30 1021 45 10000 4.6 320 13:38 23.07.2019
4795 Clear 29 1022 45 0 4.1 310 13:19 23.07.2019
4796 Clouds 29 1022 50 10000 4.1 310 12:44 23.07.2019
4797 Clear 28 985 55 0 0.89 243 12:25 23.07.2019
4798 Clouds 27 1022 53 10000 3.6 320 11:45 23.07.2019
4799 Clouds 27 1022 53 10000 4.1 320 11:26 23.07.2019
4800 Clear 26 986 62 0 0.45 223 10:52 23.07.2019
4801 Clear 26 1023 57 10000 4.1 330 10:26 23.07.2019
4802 Clear 25 1023 56 10000 3.1 310 09:44 23.07.2019
4803 Clear 24 1023 56 10000 3.6 310 09:24 23.07.2019
4804 Clear 23 1023 60 10000 3.1 300 08:57 23.07.2019
4805 Clear 23 1023 60 10000 3.1 300 08:38 23.07.2019
4806 Clear 22 1023 56 10000 2.6 260 08:19 23.07.2019
4807 Clear 20 1023 64 10000 2.6 260 07:51 23.07.2019
4808 Clear 20 1023 64 10000 2.6 260 07:33 23.07.2019
4809 Clear 17 1022 72 10000 2.1 240 06:38 23.07.2019
4810 Clear 16 1022 72 10000 2.6 230 05:34 23.07.2019
4811 Clear 19 1023 60 10000 0.5 0 01:58 23.07.2019
4812 Clear 19 1022 60 10000 1 0 01:27 23.07.2019
4813 Clear 20 1023 53 10000 2.1 20 00:30 23.07.2019
4814 Clear 20 1023 53 10000 1 310 23:41 22.07.2019
4815 Clear 21 1022 53 10000 1.5 300 23:21 22.07.2019
4816 Clouds 21 986 61 0 3.12 263.907 22:58 22.07.2019
4817 Clouds 21 986 59 0 3.12 263.907 22:40 22.07.2019
4818 Clear 22 1022 46 10000 1 0 22:20 22.07.2019
4819 Clear 22 1022 46 10000 1 0 22:20 22.07.2019
4820 Clear 22 1022 46 10000 1.5 290 21:42 22.07.2019
4821 Clear 23 1022 44 10000 1 280 21:21 22.07.2019
4822 Clear 24 1022 44 10000 1 0 20:48 22.07.2019
4823 Clear 25 1022 38 10000 1.5 290 20:29 22.07.2019
4824 Clear 25 1022 38 10000 2.1 300 19:55 22.07.2019
4825 Clear 25 1022 38 10000 2.1 300 19:37 22.07.2019
4826 Clear 26 1022 38 10000 2.6 300 19:18 22.07.2019
4827 Clear 26 1022 36 10000 3.1 310 18:41 22.07.2019
4828 Clear 26 1022 34 10000 3.6 300 18:23 22.07.2019
4829 Clear 27 1022 36 10000 4.1 300 17:43 22.07.2019
4830 Clear 27 1022 39 10000 2.6 300 17:25 22.07.2019
4831 Clouds 27 1021 45 0 4.2 290.901 16:54 22.07.2019
4832 Clear 27 1022 41 10000 2.1 300 16:36 22.07.2019
4833 Clear 27 1022 41 10000 3.1 310 16:18 22.07.2019
4834 Clear 27 1022 36 10000 3.6 300 15:43 22.07.2019
4835 Clear 27 1023 36 10000 4.6 300 15:19 22.07.2019
4836 Clear 27 1023 41 10000 3.6 290 14:44 22.07.2019
4837 Clear 27 1023 44 10000 3.6 290 14:22 22.07.2019
4838 Clear 26 1023 41 10000 3.6 240 13:50 22.07.2019
4839 Clear 26 1023 44 10000 3.6 300 13:30 22.07.2019
4840 Clear 26 1023 47 10000 2.6 270 12:51 22.07.2019
4841 Clear 26 1023 47 10000 2.6 270 12:31 22.07.2019
4842 Clouds 25 1024 50 10000 3.1 300 11:55 22.07.2019
4843 Clouds 25 1024 50 10000 3.1 300 11:36 22.07.2019
4844 Clouds 25 1024 49 10000 2.6 0 11:18 22.07.2019
4845 Clouds 24 987 56 0 2.37 273.487 10:37 22.07.2019
4846 Clouds 24 987 57 0 0.45 125 10:18 22.07.2019
4847 Clear 22 1024 60 10000 2.1 260 09:39 22.07.2019
4848 Clouds 22 987 67 0 1.51 230.772 09:20 22.07.2019
4849 Clear 19 1024 72 10000 2.1 220 08:38 22.07.2019
4850 Clear 19 1024 72 10000 2.1 210 08:20 22.07.2019
4851 Clear 17 1024 82 10000 1.5 220 07:52 22.07.2019
4852 Clear 16 1023 87 10000 2.1 220 07:27 22.07.2019
4853 Clear 14 1023 87 10000 2.1 230 05:30 22.07.2019
4854 Clear 14 1023 82 10000 2.6 220 03:45 22.07.2019
4855 Clear 15 1023 68 10000 2.1 230 01:44 22.07.2019
4856 Clouds 16 1023 82 0 2.07 235.957 00:50 22.07.2019
4857 Clouds 16 1023 82 0 2.07 235.957 00:50 22.07.2019
4858 Clouds 16 986 81 0 1.44 247.027 00:22 22.07.2019
4859 Clouds 16 1022 77 0 1.44 247.027 23:50 21.07.2019
4860 Clouds 17 986 79 0 1.44 247.027 23:23 21.07.2019
4861 Clear 18 1022 60 10000 0.5 310 22:41 21.07.2019
4862 Clouds 19 1021 70 0 1.44 247.027 22:21 21.07.2019
4863 Clear 20 1021 53 10000 1 330 21:55 21.07.2019
4864 Clear 20 1021 53 10000 1 330 21:36 21.07.2019
4865 Clear 21 1021 49 10000 1.5 340 21:18 21.07.2019
4866 Clear 23 1021 47 10000 2.1 320 20:41 21.07.2019
4867 Clear 24 1020 50 10000 2.1 340 20:23 21.07.2019
4868 Clear 25 1020 47 10000 3.6 330 19:53 21.07.2019
4869 Clear 25 1020 41 10000 3.6 300 19:30 21.07.2019
4870 Clear 26 1020 47 10000 3.6 290 18:59 21.07.2019
4871 Clear 26 1020 47 10000 3.6 290 18:41 21.07.2019
4872 Clear 26 1020 41 10000 3.6 350 18:22 21.07.2019
4873 Clear 27 1020 47 10000 4.6 330 17:41 21.07.2019
4874 Clear 26 1019 44 10000 4.6 330 17:19 21.07.2019
4875 Clear 26 1019 44 10000 4.6 310 16:43 21.07.2019
4876 Clear 26 1019 47 10000 4.1 330 16:25 21.07.2019
4877 Clear 26 1019 41 10000 4.6 260 15:47 21.07.2019
4878 Clear 26 1019 50 10000 4.6 280 15:24 21.07.2019
4879 Clouds 26 1019 47 10000 4.6 270 14:58 21.07.2019
4880 Clouds 26 1019 47 10000 4.6 270 14:39 21.07.2019
4881 Clouds 25 1019 53 10000 3.1 0 14:18 21.07.2019
4882 Clouds 25 1019 57 10000 2.6 290 13:42 21.07.2019
4883 Clouds 25 1019 60 10000 3.6 310 13:24 21.07.2019
4884 Clouds 24 1019 64 10000 3.6 270 12:42 21.07.2019
4885 Clouds 24 1019 64 10000 3.6 290 12:24 21.07.2019
4886 Clouds 22 1019 73 10000 4.1 310 11:46 21.07.2019
4887 Clouds 22 1019 77 10000 3.6 290 11:28 21.07.2019
4888 Clouds 22 1019 77 10000 4.1 290 10:55 21.07.2019
4889 Clouds 21 1019 77 10000 4.1 290 10:37 21.07.2019
4890 Clouds 21 1019 77 10000 3.6 300 10:18 21.07.2019
4891 Clouds 20 1018 77 10000 3.1 280 09:36 21.07.2019
4892 Clouds 19 1018 82 10000 3.1 250 08:52 21.07.2019
4893 Clouds 19 1018 82 10000 3.1 250 08:34 21.07.2019
4894 Clouds 18 1017 100 10000 3.1 220 07:59 21.07.2019
4895 Clouds 18 1017 100 10000 3.1 220 07:32 21.07.2019
4896 Clouds 17 1016 93 10000 2.6 220 06:38 21.07.2019
4897 Clear 16 1015 93 10000 1.5 170 04:23 21.07.2019
4898 Clouds 17 1015 93 10000 2.1 180 01:57 21.07.2019
4899 Rain 18 1016 93 10000 2.6 320 00:51 21.07.2019
4900 Rain 18 1016 93 6000 5.1 330 00:24 21.07.2019
4901 Rain 19 1014 68 10000 6.7 320 23:57 20.07.2019
4902 Thunderstorm 20 1014 68 10000 6.7 320 23:37 20.07.2019
4903 Clear 21 1012 50 10000 2.6 170 23:18 20.07.2019
4904 Clear 21 1012 50 10000 2.6 170 23:18 20.07.2019
4905 Rain 21 1012 84 0 7.64 236.322 22:42 20.07.2019
4906 Clear 23 1012 50 10000 3.1 150 22:20 20.07.2019
4907 Clear 23 1012 47 10000 2.6 150 21:44 20.07.2019
4908 Clear 25 1012 44 10000 0.5 0 21:24 20.07.2019
4909 Clear 26 1012 39 10000 1 0 20:44 20.07.2019
4910 Clear 27 1012 39 10000 0.5 0 20:23 20.07.2019
4911 Clear 28 1012 39 10000 1.5 140 19:59 20.07.2019
4912 Clear 28 1012 39 10000 1.5 140 19:38 20.07.2019
4913 Clear 29 1012 35 10000 1 0 19:19 20.07.2019
4914 Clear 29 1012 33 10000 2.6 170 18:40 20.07.2019
4915 Clear 30 1012 33 10000 2.6 130 18:19 20.07.2019
4916 Clear 30 1013 33 10000 3.1 140 17:48 20.07.2019
4917 Clear 30 1013 33 10000 2.1 110 17:20 20.07.2019
4918 Clear 30 1013 33 10000 2.1 110 17:20 20.07.2019
4919 Clear 30 1013 35 10000 3.6 0 16:43 20.07.2019
4920 Clear 30 1014 35 10000 1.5 0 16:24 20.07.2019
4921 Clear 30 1014 35 10000 2.6 0 15:57 20.07.2019
4922 Clear 30 1014 35 10000 2.6 0 15:38 20.07.2019
4923 Clear 30 1014 37 10000 3.1 260 15:19 20.07.2019
4924 Clear 29 1014 37 10000 3.1 170 14:43 20.07.2019
4925 Clear 29 1015 39 10000 2.1 0 14:21 20.07.2019
4926 Clear 28 1015 44 10000 3.6 140 13:39 20.07.2019
4927 Clear 28 1015 44 10000 2.1 0 13:20 20.07.2019
4928 Clouds 27 1015 41 10000 2.6 0 12:54 20.07.2019
4929 Clear 27 1015 41 10000 2.1 160 12:21 20.07.2019
4930 Clouds 27 979 57 0 0.45 114 11:56 20.07.2019
4931 Clear 26 1016 47 10000 1.5 0 11:24 20.07.2019
4932 Clouds 25 979 56 0 2.18 182.793 10:55 20.07.2019
4933 Clouds 25 979 58 0 2.24 113 10:36 20.07.2019
4934 Clouds 24 1015 59 0 2.18 182.793 10:18 20.07.2019
4935 Clear 23 1016 64 10000 2.1 170 09:44 20.07.2019
4936 Clear 22 1016 68 10000 2.6 190 09:18 20.07.2019
4937 Clear 20 1016 77 10000 3.1 180 08:44 20.07.2019
4938 Clear 19 1016 82 10000 2.1 180 08:20 20.07.2019
4939 Clear 17 1016 82 10000 1.5 160 07:21 20.07.2019
4940 Clear 15 1016 82 10000 1.5 150 06:41 20.07.2019
4941 Clear 15 1016 87 10000 2.1 210 04:31 20.07.2019
4942 Clear 15 1016 82 10000 2.6 210 03:40 20.07.2019
4943 Clear 16 1015 77 10000 1.5 170 01:21 20.07.2019
4944 Clear 16 1015 77 10000 1.5 170 01:21 20.07.2019
4945 Clouds 16 979 89 0 3.3 232.943 00:47 20.07.2019
4946 Clear 17 1015 77 10000 1.5 190 00:21 20.07.2019
4947 Clear 18 1015 77 10000 2.1 160 23:45 19.07.2019
4948 Rain 18 979 86 0 3.37 231.226 23:26 19.07.2019
4949 Rain 18 979 85 0 3.37 231.226 22:50 19.07.2019
4950 Rain 19 979 84 0 3.37 231.226 22:26 19.07.2019
4951 Rain 19 979 82 0 3.37 231.226 21:59 19.07.2019
4952 Clouds 20 1015 64 10000 1 250 21:39 19.07.2019
4953 Clouds 20 1015 64 10000 1 250 21:21 19.07.2019
4954 Clouds 21 1015 64 10000 1.5 270 20:42 19.07.2019
4955 Clouds 21 1015 60 10000 1.5 310 20:23 19.07.2019
4956 Clouds 22 1015 60 10000 2.6 280 19:37 19.07.2019
4957 Clouds 23 1015 56 10000 4.6 240 18:47 19.07.2019
4958 Clouds 23 1015 53 10000 4.6 240 18:25 19.07.2019
4959 Clouds 23 1015 64 10000 3.1 240 17:58 19.07.2019
4960 Clouds 23 1015 64 10000 3.1 240 17:40 19.07.2019
4961 Clouds 23 1015 64 10000 2.6 250 17:21 19.07.2019
4962 Clouds 23 1015 64 10000 2.1 270 16:47 19.07.2019
4963 Clear 22 1015 64 10000 3.1 260 16:24 19.07.2019
4964 Rain 22 1015 72 10000 3.1 240 15:47 19.07.2019
4965 Rain 22 1014 70 0 4.28 248.373 15:29 19.07.2019
4966 Rain 22 979 75 0 0.89 260 14:55 19.07.2019
4967 Rain 21 1015 68 10000 4.1 270 14:37 19.07.2019
4968 Rain 21 1015 56 10000 4.1 270 14:19 19.07.2019
4969 Clear 21 1015 56 10000 5.1 250 13:42 19.07.2019
4970 Rain 21 1015 56 10000 5.1 220 13:22 19.07.2019
4971 Rain 21 1015 64 10000 3.1 220 12:49 19.07.2019
4972 Clear 21 1015 72 10000 2.6 230 12:29 19.07.2019
4973 Rain 22 1014 69 0 6.85 267.055 11:47 19.07.2019
4974 Rain 21 1015 77 10000 3.1 260 11:20 19.07.2019
4975 Rain 21 1015 68 10000 3.6 260 10:58 19.07.2019
4976 Rain 21 1015 68 10000 3.6 260 10:39 19.07.2019
4977 Rain 21 1014 68 10000 4.6 270 10:18 19.07.2019
4978 Clouds 20 1014 56 10000 3.6 260 09:43 19.07.2019
4979 Clear 20 1014 60 10000 2.6 220 09:22 19.07.2019
4980 Clear 19 1014 60 10000 3.1 220 08:50 19.07.2019
4981 Clear 19 1013 56 10000 3.1 210 08:28 19.07.2019
4982 Clear 18 1013 63 10000 2.1 150 07:34 19.07.2019
4983 Rain 16 1013 72 10000 2.1 210 06:47 19.07.2019
4984 Clear 16 1013 67 10000 3.6 200 05:39 19.07.2019
4985 Clear 16 1013 68 10000 2.1 200 01:56 19.07.2019
4986 Clouds 16 1012 79 0 3.21 188.506 00:58 19.07.2019
4987 Clear 16 1012 60 10000 1 0 00:25 19.07.2019
4988 Clear 17 1012 56 10000 2.1 230 23:42 18.07.2019
4989 Clear 18 1012 49 10000 2.1 200 23:23 18.07.2019
4990 Clouds 18 976 71 0 2.18 215.259 22:58 18.07.2019
4991 Clouds 18 976 72 0 2.18 215.259 22:39 18.07.2019
4992 Clouds 18 976 68 0 2.18 215.259 22:18 18.07.2019
4993 Clouds 19 1013 85 0 2.18 215.259 21:40 18.07.2019
4994 Clear 21 1012 40 10000 1.5 150 21:20 18.07.2019
4995 Clear 22 1011 38 10000 1.5 140 20:49 18.07.2019
4996 Clear 23 1011 36 10000 1.5 130 20:27 18.07.2019
4997 Clear 24 1011 33 10000 1.5 120 19:52 18.07.2019
4998 Clear 25 1011 33 10000 1.5 120 19:30 18.07.2019
4999 Clear 26 1011 31 10000 2.6 110 18:57 18.07.2019
5000 Clear 26 1011 31 10000 2.6 110 18:37 18.07.2019
5001 Clear 26 1011 31 10000 1.5 0 18:19 18.07.2019
5002 Clear 26 1011 31 10000 2.6 50 17:42 18.07.2019
5003 Clear 26 1011 32 10000 2.1 0 17:23 18.07.2019
5004 Clear 27 1012 31 10000 2.6 0 16:54 18.07.2019
5005 Clear 27 1012 34 10000 2.1 0 16:29 18.07.2019
5006 Clear 26 1012 33 10000 3.1 0 15:58 18.07.2019
5007 Clear 26 1012 33 10000 3.1 0 15:39 18.07.2019
5008 Clear 26 1012 31 10000 2.1 170 15:20 18.07.2019
5009 Clear 26 1012 33 10000 2.6 0 14:43 18.07.2019
5010 Clear 25 1012 36 10000 2.1 70 14:25 18.07.2019
5011 Clear 26 1012 33 10000 1.5 0 13:46 18.07.2019
5012 Rain 26 1012 42 0 0.45 164 13:22 18.07.2019
5013 Clear 25 1013 33 10000 1.5 0 12:49 18.07.2019
5014 Clear 24 1013 35 10000 2.1 0 12:21 18.07.2019
5015 Clouds 24 1012 43 0 0.45 182 11:57 18.07.2019
5016 Clear 24 1013 40 10000 1.5 0 11:39 18.07.2019
5017 Clouds 23 1013 46 10000 2.6 120 11:20 18.07.2019
5018 Clouds 23 1013 49 10000 1.5 0 10:41 18.07.2019
5019 Clear 21 1013 52 10000 1 0 09:50 18.07.2019
5020 Clear 20 1013 59 10000 1.5 220 09:26 18.07.2019
5021 Clear 18 1013 67 10000 1 0 08:51 18.07.2019
5022 Clear 16 1013 72 0 1.5 170 08:23 18.07.2019
5023 Clear 15 1013 82 10000 2.6 180 07:55 18.07.2019
5024 Clear 14 1013 82 10000 2.1 180 07:34 18.07.2019
5025 Clear 12 1013 87 10000 1.5 170 06:46 18.07.2019
5026 Clear 10 1013 93 10000 2.1 190 06:19 18.07.2019
5027 Clear 10 976 89 0 1.56 210.522 03:29 18.07.2019
5028 Clear 12 1013 76 10000 1.5 160 01:52 18.07.2019
5029 Clouds 12 977 85 0 1.57 225.875 01:33 18.07.2019
5030 Clouds 13 977 82 0 2.03 239.283 23:57 17.07.2019
5031 Clouds 14 976 78 0 2.03 239.283 23:21 17.07.2019
5032 Clouds 14 1013 75 0 2.03 239.283 22:59 17.07.2019
5033 Clouds 14 977 77 0 2.03 239.283 22:41 17.07.2019
5034 Clouds 15 977 75 0 2.03 239.283 22:21 17.07.2019
5035 Clouds 15 977 71 0 2.03 239.283 21:56 17.07.2019
5036 Clouds 16 977 71 0 2.03 239.283 21:37 17.07.2019
5037 Clear 17 1013 48 10000 1.5 30 21:19 17.07.2019
5038 Clear 19 1013 45 10000 1.5 30 20:41 17.07.2019
5039 Clear 20 1013 45 10000 2.1 40 20:21 17.07.2019
5040 Clear 20 1013 43 10000 2.1 10 19:59 17.07.2019
5041 Clear 21 1013 43 10000 2.1 10 19:40 17.07.2019
5042 Clear 21 1013 40 10000 3.1 20 19:19 17.07.2019
5043 Clear 22 1013 40 10000 2.1 0 18:43 17.07.2019
5044 Clear 22 1013 40 10000 2.1 0 18:21 17.07.2019
5045 Clear 22 1014 37 10000 2.6 0 17:56 17.07.2019
5046 Clear 22 1014 37 10000 2.6 0 17:56 17.07.2019
5047 Clear 22 1014 37 10000 2.6 0 17:38 17.07.2019
5048 Clear 22 1014 37 10000 2.6 0 17:19 17.07.2019
5049 Clear 22 1014 43 10000 2.6 280 16:40 17.07.2019
5050 Clear 22 1014 43 10000 2.6 280 16:19 17.07.2019
5051 Clouds 21 1014 46 10000 3.6 340 15:51 17.07.2019
5052 Clouds 21 1014 46 10000 3.6 340 15:29 17.07.2019
5053 Clouds 21 1014 45 10000 3.1 0 14:56 17.07.2019
5054 Clouds 20 1015 49 10000 2.6 230 14:38 17.07.2019
5055 Clouds 20 1015 49 10000 2.6 230 14:19 17.07.2019
5056 Clouds 21 1015 49 10000 3.1 300 13:48 17.07.2019
5057 Clouds 20 1015 52 10000 3.1 0 13:30 17.07.2019
5058 Clouds 20 1015 55 10000 3.1 0 12:44 17.07.2019
5059 Clouds 19 1015 55 10000 3.1 0 12:24 17.07.2019
5060 Clouds 19 1015 59 10000 2.1 310 11:59 17.07.2019
5061 Clouds 18 1015 63 10000 3.1 320 11:39 17.07.2019
5062 Clouds 17 1015 63 10000 3.1 320 11:19 17.07.2019
5063 Clouds 17 1015 77 10000 3.1 310 10:43 17.07.2019
5064 Clouds 16 1015 77 10000 3.1 310 10:20 17.07.2019
5065 Clouds 16 1015 77 10000 2.6 330 09:45 17.07.2019
5066 Clouds 16 1015 77 10000 2.6 330 09:26 17.07.2019
5067 Clouds 15 1015 87 10000 2.6 340 08:44 17.07.2019
5068 Clouds 15 1015 87 10000 2.6 340 08:23 17.07.2019
5069 Clouds 14 1015 87 10000 2.6 300 07:55 17.07.2019
5070 Clouds 14 1015 87 10000 2.6 300 07:36 17.07.2019
5071 Clouds 14 1015 87 10000 2.6 300 07:18 17.07.2019
5072 Clouds 14 1015 87 10000 2.6 290 06:41 17.07.2019
5073 Clouds 14 1015 87 10000 2.6 290 06:22 17.07.2019
5074 Clouds 14 1015 87 10000 2.6 290 05:33 17.07.2019
5075 Clouds 14 1015 87 10000 3.1 290 04:57 17.07.2019
5076 Clouds 14 1015 93 10000 3.1 290 03:52 17.07.2019
5077 Clouds 13 1016 87 10000 2.6 280 02:43 17.07.2019
5078 Clouds 13 1016 87 10000 2.6 290 01:42 17.07.2019
5079 Clouds 13 1016 87 10000 2.6 290 01:22 17.07.2019
5080 Clear 14 1016 82 10000 2.6 280 00:42 17.07.2019
5081 Clear 14 1016 82 10000 2.6 280 00:22 17.07.2019
5082 Clouds 14 1015 77 10000 2.1 300 23:45 16.07.2019
5083 Clouds 15 1015 77 10000 2.1 300 23:24 16.07.2019
5084 Clouds 15 1015 77 10000 2.1 300 23:24 16.07.2019
5085 Clouds 15 1015 72 10000 1.5 290 22:57 16.07.2019
5086 Clouds 16 1015 72 10000 2.1 290 22:39 16.07.2019
5087 Clouds 16 1015 72 10000 2.1 290 22:18 16.07.2019
5088 Clouds 16 1015 67 10000 2.6 330 21:41 16.07.2019
5089 Clouds 17 1015 67 10000 2.6 330 21:20 16.07.2019
5090 Clouds 18 1015 59 10000 4.1 340 20:41 16.07.2019
5091 Clouds 18 1015 59 10000 4.1 340 20:23 16.07.2019
5092 Clouds 19 1015 55 10000 4.6 310 19:55 16.07.2019
5093 Clouds 19 1015 52 10000 3.6 290 19:37 16.07.2019
5094 Clouds 19 1015 52 10000 3.6 290 19:19 16.07.2019
5095 Clouds 19 1015 55 10000 4.1 270 18:44 16.07.2019
5096 Clouds 19 1015 59 10000 4.6 280 18:21 16.07.2019
5097 Clouds 19 1015 55 10000 4.1 270 18:21 16.07.2019
5098 Clouds 19 1015 59 10000 4.6 280 17:55 16.07.2019
5099 Clouds 19 1015 59 10000 4.6 280 17:55 16.07.2019
5100 Clouds 19 1015 59 10000 5.1 290 17:36 16.07.2019
5101 Clouds 19 1015 59 10000 5.1 290 16:59 16.07.2019
5102 Clouds 19 1015 59 10000 5.1 270 16:38 16.07.2019
5103 Clouds 19 1015 59 10000 5.1 270 16:18 16.07.2019
5104 Clouds 18 1015 63 10000 4.6 280 15:40 16.07.2019
5105 Clouds 18 1015 63 10000 4.6 280 15:21 16.07.2019
5106 Clouds 18 1015 59 10000 5.1 270 14:58 16.07.2019
5107 Clouds 17 1016 67 10000 5.1 270 14:39 16.07.2019
5108 Clouds 17 1016 67 10000 5.1 270 14:20 16.07.2019
5109 Clouds 16 1016 72 10000 4.6 270 13:44 16.07.2019
5110 Clouds 16 1016 72 10000 4.6 270 13:44 16.07.2019
5111 Clouds 16 1016 72 10000 4.6 270 13:21 16.07.2019
5112 Clouds 15 1016 71 10000 4.1 280 12:45 16.07.2019
5113 Clouds 14 1016 71 10000 4.1 290 12:21 16.07.2019
5114 Clouds 14 1016 71 10000 4.1 290 11:58 16.07.2019
5115 Clouds 14 1016 76 10000 4.1 280 11:40 16.07.2019
5116 Clouds 14 1016 76 10000 4.1 280 11:40 16.07.2019
5117 Clouds 14 1016 76 10000 4.1 280 11:22 16.07.2019
5118 Clouds 14 1016 82 10000 4.6 270 10:45 16.07.2019
5119 Clouds 14 1016 82 10000 4.6 270 10:45 16.07.2019
5120 Clouds 14 1016 82 10000 4.6 270 10:22 16.07.2019
5121 Clouds 14 1016 76 10000 4.6 290 09:58 16.07.2019
5122 Clouds 13 1016 76 10000 4.1 290 09:40 16.07.2019
5123 Clouds 13 1016 76 10000 4.1 290 09:18 16.07.2019
5124 Clouds 13 1015 76 10000 3.6 270 08:42 16.07.2019
5125 Clouds 13 1015 76 10000 3.6 270 08:20 16.07.2019
5126 Clouds 13 1015 76 10000 3.6 260 07:42 16.07.2019
5127 Clouds 13 1015 76 10000 3.6 260 07:24 16.07.2019
5128 Clouds 13 1015 76 10000 3.6 260 06:47 16.07.2019
5129 Clouds 13 1015 76 10000 3.1 250 06:27 16.07.2019
5130 Clouds 13 1015 76 10000 3.1 250 05:37 16.07.2019
5131 Clouds 13 1015 76 10000 3.1 250 05:18 16.07.2019
5132 Clouds 13 1016 76 10000 2.1 260 03:57 16.07.2019
5133 Clouds 13 1016 76 10000 2.1 260 03:21 16.07.2019
5134 Clouds 13 1016 76 10000 2.1 280 02:31 16.07.2019
5135 Clouds 14 1016 76 10000 2.1 280 01:49 16.07.2019
5136 Clouds 14 1016 76 10000 2.1 330 00:49 16.07.2019
5137 Clouds 13 1016 76 10000 2.1 330 00:22 16.07.2019
5138 Clouds 13 1016 76 10000 2.6 330 23:53 15.07.2019
5139 Clouds 14 1016 72 10000 2.6 340 23:34 15.07.2019
5140 Clouds 14 1016 67 10000 2.6 320 22:55 15.07.2019
5141 Clouds 14 1016 67 10000 1 0 22:36 15.07.2019
5142 Clouds 14 979 92 0 1.79 272.598 22:18 15.07.2019
5143 Clouds 14 979 92 0 1.79 272.598 22:18 15.07.2019
5144 Clouds 15 979 85 0 1.79 272.598 21:42 15.07.2019
5145 Clouds 16 1016 67 10000 2.1 280 21:20 15.07.2019
5146 Clouds 16 1016 67 10000 1.5 270 20:57 15.07.2019
5147 Clouds 17 1016 67 10000 2.6 290 20:39 15.07.2019
5148 Clouds 17 1016 67 10000 2.6 300 20:21 15.07.2019
5149 Clouds 18 1016 67 10000 3.6 290 19:44 15.07.2019
5150 Clouds 18 1016 67 10000 3.6 290 19:22 15.07.2019
5151 Clouds 18 1016 67 10000 2.6 310 18:57 15.07.2019
5152 Clouds 18 1016 67 10000 2.6 310 18:57 15.07.2019
5153 Clouds 18 1016 67 10000 3.6 310 18:38 15.07.2019
5154 Clouds 18 1016 67 10000 3.6 310 18:19 15.07.2019
5155 Clouds 18 1016 63 10000 3.6 310 17:55 15.07.2019
5156 Clouds 18 1016 59 10000 3.1 310 17:36 15.07.2019
5157 Clouds 18 1016 59 10000 3.1 310 17:18 15.07.2019
5158 Clouds 18 1017 67 10000 3.6 300 16:39 15.07.2019
5159 Clouds 18 1017 67 10000 3.6 300 16:20 15.07.2019
5160 Clouds 18 1017 67 10000 3.1 310 15:57 15.07.2019
5161 Clouds 18 1017 63 10000 3.1 310 15:37 15.07.2019
5162 Clouds 18 1017 63 10000 3.1 310 15:19 15.07.2019
5163 Rain 18 1016 72 0 2.81 311.583 14:45 15.07.2019
5164 Clouds 17 1017 72 10000 3.1 290 14:25 15.07.2019
5165 Clouds 17 1017 72 10000 2.6 280 13:55 15.07.2019
5166 Rain 17 980 80 0 2.81 311.583 13:36 15.07.2019
5167 Clouds 17 980 78 0 0.45 107 13:18 15.07.2019
5168 Clouds 17 1017 72 10000 2.6 290 12:41 15.07.2019
5169 Clouds 17 1017 72 10000 2.6 290 12:21 15.07.2019
5170 Clouds 17 1018 72 10000 2.6 280 11:43 15.07.2019
5171 Clouds 17 1018 72 10000 2.6 280 11:25 15.07.2019
5172 Clouds 16 1018 77 10000 2.6 290 10:48 15.07.2019
5173 Clouds 16 1018 82 10000 2.1 280 10:29 15.07.2019
5174 Clouds 16 1017 82 10000 2.1 290 09:54 15.07.2019
5175 Clouds 15 1017 87 10000 1.5 300 09:36 15.07.2019
5176 Clouds 15 1017 87 10000 2.1 290 09:18 15.07.2019
5177 Clouds 15 1017 87 10000 2.1 290 08:41 15.07.2019
5178 Clouds 15 1017 87 10000 2.1 290 08:41 15.07.2019
5179 Clouds 14 1017 87 10000 2.1 290 08:23 15.07.2019
5180 Clouds 14 1017 87 10000 2.1 290 08:23 15.07.2019
5181 Clouds 14 1017 87 10000 1.5 300 07:41 15.07.2019
5182 Clouds 14 1017 87 10000 1.5 300 07:20 15.07.2019
5183 Clouds 13 1017 93 10000 2.1 290 06:39 15.07.2019
5184 Clouds 13 1017 93 10000 1.5 300 05:50 15.07.2019
5185 Clouds 13 1017 93 10000 1.5 270 05:30 15.07.2019
5186 Clouds 13 1017 93 10000 1.5 290 04:43 15.07.2019
5187 Clouds 13 1017 93 10000 1.5 260 03:51 15.07.2019
5188 Clear 13 1017 93 10000 1.5 270 02:47 15.07.2019
5189 Clear 13 1017 87 10000 2.1 360 01:53 15.07.2019
5190 Clear 14 1017 87 10000 2.1 340 01:28 15.07.2019
5191 Clear 14 1017 87 10000 2.1 320 00:53 15.07.2019
5192 Clear 15 1017 87 10000 1.5 280 00:23 15.07.2019
5193 Clear 15 1017 82 10000 2.1 310 23:57 14.07.2019
5194 Clear 15 1017 82 10000 2.1 310 23:39 14.07.2019
5195 Clear 15 1017 82 10000 2.1 310 23:18 14.07.2019
5196 Clouds 15 1017 77 10000 3.1 330 22:57 14.07.2019
5197 Clouds 16 1017 72 10000 3.6 320 22:37 14.07.2019
5198 Clouds 16 1017 72 10000 3.6 320 22:18 14.07.2019
5199 Clouds 17 1016 72 10000 4.1 320 21:42 14.07.2019
5200 Clouds 17 1016 72 10000 4.1 320 21:19 14.07.2019
5201 Clouds 17 1016 68 10000 4.1 320 20:57 14.07.2019
5202 Clouds 18 1016 68 10000 4.6 300 20:37 14.07.2019
5203 Clouds 18 1016 68 10000 4.6 300 20:19 14.07.2019
5204 Clouds 18 1016 68 10000 3.6 310 19:45 14.07.2019
5205 Clouds 18 1016 68 10000 3.6 310 19:27 14.07.2019
5206 Clouds 19 1016 64 10000 5.1 300 18:58 14.07.2019
5207 Clouds 19 1016 68 10000 3.6 290 18:39 14.07.2019
5208 Clouds 19 1016 68 10000 3.6 290 18:21 14.07.2019
5209 Rain 19 1016 68 10000 4.1 300 17:53 14.07.2019
5210 Clouds 19 1016 68 10000 5.1 300 17:22 14.07.2019
5211 Clouds 18 1016 72 10000 5.1 270 16:52 14.07.2019
5212 Clouds 18 1016 68 10000 4.6 300 16:24 14.07.2019
5213 Clouds 18 1016 77 10000 4.1 290 15:56 14.07.2019
5214 Clouds 18 1016 72 10000 5.1 280 15:34 14.07.2019
5215 Clouds 18 1016 77 10000 4.1 290 14:56 14.07.2019
5216 Clouds 17 1016 82 7000 4.1 310 14:37 14.07.2019
5217 Clouds 17 1016 82 7000 4.1 310 14:18 14.07.2019
5218 Clouds 17 1016 88 7000 3.6 290 13:44 14.07.2019
5219 Clouds 16 1016 88 7000 3.6 290 13:21 14.07.2019
5220 Clouds 16 1017 87 7000 3.6 300 12:43 14.07.2019
5221 Clouds 16 1017 87 7000 3.6 300 12:22 14.07.2019
5222 Clouds 16 1017 93 7000 3.1 310 11:57 14.07.2019
5223 Clouds 15 1017 100 6000 3.1 330 11:38 14.07.2019
5224 Clouds 15 1016 93 6000 2.6 320 11:19 14.07.2019
5225 Clouds 16 1016 93 6000 2.6 330 10:42 14.07.2019
5226 Clouds 16 1016 93 6000 2.6 330 10:20 14.07.2019
5227 Mist 15 1016 100 5000 3.6 340 09:44 14.07.2019
5228 Mist 15 1016 100 5000 3.6 340 09:25 14.07.2019
5229 Drizzle 15 1015 93 5000 3.1 310 08:45 14.07.2019
5230 Drizzle 15 1015 93 5000 3.1 310 08:22 14.07.2019
5231 Clouds 15 1015 93 6000 3.6 290 07:41 14.07.2019
5232 Rain 15 1015 93 6000 3.6 290 07:19 14.07.2019
5233 Mist 15 1015 100 5000 2.1 290 05:45 14.07.2019
5234 Rain 15 1015 93 10000 2.1 270 03:50 14.07.2019
5235 Clouds 15 1015 93 10000 2.1 270 03:32 14.07.2019
5236 Clouds 15 1015 93 10000 2.6 270 02:52 14.07.2019
5237 Clouds 14 1015 93 10000 2.1 270 02:22 14.07.2019
5238 Clear 14 1015 93 10000 3.1 250 01:34 14.07.2019
5239 Clear 14 1015 87 10000 2.6 240 00:59 14.07.2019
5240 Clear 14 1015 87 10000 2.1 240 00:40 14.07.2019
5241 Clear 14 1015 87 10000 2.1 240 00:20 14.07.2019
5242 Clear 14 1015 87 10000 2.1 240 00:20 14.07.2019
5243 Clear 14 1015 93 10000 1 0 23:56 13.07.2019
5244 Clear 14 1015 87 10000 1.5 270 23:37 13.07.2019
5245 Clear 14 1015 93 10000 2.6 240 23:19 13.07.2019
5246 Clear 14 1015 93 10000 1.5 230 22:40 13.07.2019
5247 Clear 14 1015 93 10000 1.5 230 22:21 13.07.2019
5248 Clear 15 1014 93 10000 1 0 21:45 13.07.2019
5249 Clear 15 1014 93 10000 1 0 21:20 13.07.2019
5250 Rain 15 1013 93 10000 3.1 220 20:51 13.07.2019
5251 Rain 15 1013 93 10000 3.1 220 20:32 13.07.2019
5252 Rain 15 1014 93 10000 2.6 240 19:50 13.07.2019
5253 Rain 16 1014 87 10000 2.6 260 19:29 13.07.2019
5254 Rain 17 1013 87 10000 2.1 270 18:46 13.07.2019
5255 Rain 19 1013 87 10000 2.1 270 18:24 13.07.2019
5256 Thunderstorm 19 1013 87 10000 3.6 310 17:56 13.07.2019
5257 Rain 19 1013 93 10000 2.1 280 17:37 13.07.2019
5258 Rain 19 1013 93 10000 2.1 280 17:18 13.07.2019
5259 Thunderstorm 21 1012 72 10000 3.6 270 16:42 13.07.2019
5260 Thunderstorm 22 1012 72 10000 3.6 270 16:23 13.07.2019
5261 Rain 21 1012 72 10000 3.6 310 15:46 13.07.2019
5262 Rain 20 1012 72 10000 3.6 310 15:23 13.07.2019
5263 Clouds 21 1012 68 10000 5.7 300 14:46 13.07.2019
5264 Clouds 20 1012 68 10000 5.7 300 14:26 13.07.2019
5265 Clouds 20 1012 72 10000 5.7 290 13:58 13.07.2019
5266 Clouds 20 1012 82 10000 5.7 290 13:39 13.07.2019
5267 Clouds 19 1012 82 10000 5.7 290 13:18 13.07.2019
5268 Rain 18 1012 93 10000 5.1 310 12:40 13.07.2019
5269 Rain 17 1012 93 10000 5.1 310 12:22 13.07.2019
5270 Rain 17 1012 93 9000 5.1 310 11:52 13.07.2019
5271 Rain 17 1012 87 8000 5.1 320 11:20 13.07.2019
5272 Rain 16 1012 87 10000 4.6 300 10:55 13.07.2019
5273 Clouds 17 1012 87 10000 4.1 310 10:37 13.07.2019
5274 Clouds 16 1012 87 10000 4.1 310 10:18 13.07.2019
5275 Clouds 16 1011 93 9000 3.1 280 09:41 13.07.2019
5276 Clouds 16 1011 93 9000 3.1 280 09:21 13.07.2019
5277 Mist 16 1011 93 5000 3.6 280 08:46 13.07.2019
5278 Mist 15 1011 93 5000 3.6 280 08:26 13.07.2019
5279 Clouds 15 1011 100 6000 2.6 280 07:31 13.07.2019
5280 Clouds 15 1011 100 8000 2.6 280 06:54 13.07.2019
5281 Clouds 15 1010 93 9000 2.1 260 06:27 13.07.2019
5282 Clouds 14 1010 93 10000 2.1 260 05:37 13.07.2019
5283 Clouds 14 1010 93 10000 2.6 260 04:36 13.07.2019
5284 Clouds 14 1010 93 10000 2.6 260 04:18 13.07.2019
5285 Clear 14 1010 93 10000 2.6 250 03:40 13.07.2019
5286 Clouds 14 1010 82 10000 2.6 240 02:28 13.07.2019
5287 Clear 14 1010 87 10000 2.1 240 01:44 13.07.2019
5288 Clear 14 1010 87 10000 2.1 240 01:20 13.07.2019
5289 Clouds 14 1010 87 10000 3.1 230 00:58 13.07.2019
5290 Clouds 14 1010 87 10000 2.6 230 00:20 13.07.2019
5291 Clouds 14 1010 87 10000 2.1 240 23:49 12.07.2019
5292 Clear 14 1010 87 10000 2.1 240 23:30 12.07.2019
5293 Clouds 15 1010 87 10000 1.5 220 22:57 12.07.2019
5294 Clouds 15 1010 93 10000 1.5 170 22:38 12.07.2019
5295 Clouds 15 1010 93 10000 1.5 170 22:20 12.07.2019
5296 Thunderstorm 15 1010 87 10000 1 0 21:41 12.07.2019
5297 Thunderstorm 16 1010 87 10000 1 0 21:19 12.07.2019
5298 Rain 16 1010 93 10000 1.5 150 20:44 12.07.2019
5299 Rain 17 1010 93 10000 1.5 150 20:23 12.07.2019
5300 Thunderstorm 18 1010 88 7000 5.1 0 19:43 12.07.2019
5301 Thunderstorm 19 1010 88 7000 5.1 0 19:25 12.07.2019
5302 Thunderstorm 20 1009 64 10000 3.6 90 18:56 12.07.2019
5303 Clouds 20 1009 60 10000 4.6 60 18:36 12.07.2019
5304 Clouds 21 1009 60 10000 4.6 60 18:18 12.07.2019
5305 Clear 23 1009 44 10000 3.1 300 17:42 12.07.2019
5306 Clear 22 1009 44 10000 3.1 300 17:23 12.07.2019
5307 Clouds 23 1009 46 10000 3.6 290 16:37 12.07.2019
5308 Clouds 24 1009 46 10000 3.6 290 16:19 12.07.2019
5309 Clouds 24 1010 56 10000 3.6 310 15:40 12.07.2019
5310 Clouds 23 1010 56 10000 3.6 310 15:20 12.07.2019
5311 Clouds 23 1010 56 10000 3.1 280 14:46 12.07.2019
5312 Clouds 23 1010 56 10000 3.1 280 14:46 12.07.2019
5313 Clouds 23 1010 60 10000 4.1 310 14:22 12.07.2019
5314 Clouds 23 1010 60 10000 4.1 310 14:22 12.07.2019
5315 Clouds 22 1010 60 10000 3.6 260 13:54 12.07.2019
5316 Clouds 22 1011 68 10000 3.6 270 13:34 12.07.2019
5317 Clouds 21 1011 72 10000 3.1 0 12:55 12.07.2019
5318 Clouds 20 1011 72 10000 3.6 280 12:37 12.07.2019
5319 Clouds 20 1011 72 10000 3.6 280 12:18 12.07.2019
5320 Clouds 19 1011 82 10000 3.1 270 11:43 12.07.2019
5321 Clouds 18 1011 82 10000 3.1 270 11:20 12.07.2019
5322 Clouds 17 1011 93 10000 2.6 260 10:43 12.07.2019
5323 Clouds 17 1011 93 10000 2.6 260 10:23 12.07.2019
5324 Rain 16 1011 93 10000 3.1 220 09:54 12.07.2019
5325 Rain 16 1011 100 10000 1.5 270 09:30 12.07.2019
5326 Rain 16 1011 100 9000 2.6 230 08:58 12.07.2019
5327 Rain 15 1011 100 10000 2.1 230 08:39 12.07.2019
5328 Rain 15 1011 100 10000 2.1 230 08:18 12.07.2019
5329 Rain 15 1011 100 10000 1.5 260 07:40 12.07.2019
5330 Rain 15 1011 100 10000 1.5 260 07:22 12.07.2019
5331 Rain 15 1011 93 10000 1 260 06:29 12.07.2019
5332 Rain 15 1011 100 10000 1.5 230 05:47 12.07.2019
5333 Rain 15 1012 100 10000 1.5 270 03:22 12.07.2019
5334 Rain 16 1012 82 10000 3.1 240 01:41 12.07.2019
5335 Rain 16 1012 82 10000 2.6 240 00:58 12.07.2019
5336 Clouds 17 1012 72 10000 3.1 250 00:27 12.07.2019
5337 Clouds 17 1012 68 10000 3.1 250 23:49 11.07.2019
5338 Clouds 18 1012 59 10000 1.5 300 23:26 11.07.2019
5339 Clear 18 1012 52 10000 2.1 250 22:58 11.07.2019
5340 Clear 18 1012 52 10000 0.5 280 22:39 11.07.2019
5341 Clear 18 1012 52 10000 0.5 280 22:21 11.07.2019
5342 Clear 18 1012 49 10000 1 300 21:41 11.07.2019
5343 Clear 19 1012 46 10000 0.5 0 21:19 11.07.2019
5344 Clear 20 1012 46 10000 0.5 0 20:55 11.07.2019
5345 Clear 20 1012 43 10000 0.5 0 20:37 11.07.2019
5346 Clear 21 1012 43 10000 1 0 20:18 11.07.2019
5347 Clear 21 1012 43 10000 1 0 19:44 11.07.2019
5348 Clear 21 1012 43 10000 1 0 19:24 11.07.2019
5349 Clear 22 1012 43 10000 0.5 0 18:53 11.07.2019
5350 Clear 22 1012 43 10000 0.5 0 18:33 11.07.2019
5351 Clear 22 1012 43 10000 1.5 0 17:59 11.07.2019
5352 Clear 22 1012 43 10000 1 0 17:40 11.07.2019
5353 Clear 22 1012 43 10000 1 0 17:22 11.07.2019
5354 Clear 23 1012 43 10000 2.1 0 16:49 11.07.2019
5355 Clear 22 1012 43 10000 2.1 0 16:23 11.07.2019
5356 Clear 22 1013 43 10000 1.5 0 15:54 11.07.2019
5357 Clear 22 1013 40 10000 3.1 0 15:36 11.07.2019
5358 Clear 22 1013 40 10000 3.1 0 15:18 11.07.2019
5359 Clouds 23 1013 43 10000 2.1 0 14:43 11.07.2019
5360 Clouds 22 1013 43 10000 2.1 0 14:21 11.07.2019
5361 Clouds 22 1014 43 10000 2.6 0 13:47 11.07.2019
5362 Clouds 22 1014 43 10000 2.6 0 13:28 11.07.2019
5363 Clouds 22 1014 45 10000 2.1 0 12:45 11.07.2019
5364 Clouds 21 1014 45 10000 2.1 0 12:27 11.07.2019
5365 Clouds 21 977 58 0 3.5 272.935 11:58 11.07.2019
5366 Clouds 20 1014 52 10000 2.1 260 11:39 11.07.2019
5367 Clouds 20 1014 52 10000 2.1 260 11:21 11.07.2019
5368 Clouds 20 1014 63 0 3.5 272.935 10:45 11.07.2019
5369 Clouds 19 1014 59 10000 2.1 220 10:19 11.07.2019
5370 Clouds 19 1015 63 10000 2.6 230 09:47 11.07.2019
5371 Clouds 18 1015 63 10000 2.6 230 09:28 11.07.2019
5372 Clouds 16 1015 63 10000 2.1 230 08:52 11.07.2019
5373 Clouds 16 1015 71 10000 2.1 290 08:26 11.07.2019
5374 Clear 14 1015 71 10000 1.5 270 07:53 11.07.2019
5375 Clear 14 1015 71 10000 1.5 230 07:34 11.07.2019
5376 Clear 12 1015 81 10000 1 230 06:41 11.07.2019
5377 Clear 11 1015 81 10000 1.5 230 05:53 11.07.2019
5378 Clear 10 1015 81 10000 1.5 230 05:30 11.07.2019
5379 Clear 10 1015 81 10000 2.1 220 04:55 11.07.2019
5380 Clouds 11 979 84 0 1.75 235.456 02:41 11.07.2019
5381 Clouds 11 979 82 0 1.75 235.456 01:38 11.07.2019
5382 Clear 12 1016 62 10000 1.5 310 00:30 11.07.2019
5383 Clear 14 1016 55 10000 2.1 310 23:38 10.07.2019
5384 Clear 14 1016 55 10000 2.1 310 23:20 10.07.2019
5385 Clear 14 1016 48 10000 3.1 280 22:48 10.07.2019
5386 Clear 14 979 68 0 2.56 259.103 22:22 10.07.2019
5387 Clear 16 1016 45 10000 2.6 280 21:48 10.07.2019
5388 Clear 18 1016 45 10000 2.6 280 21:28 10.07.2019
5389 Clear 19 1016 40 10000 3.1 280 20:58 10.07.2019
5390 Clear 19 1016 40 10000 4.6 280 20:39 10.07.2019
5391 Clear 20 1016 37 10000 2.6 270 20:19 10.07.2019
5392 Clear 20 1016 37 10000 2.6 270 19:54 10.07.2019
5393 Clear 20 1016 35 10000 5.1 280 19:22 10.07.2019
5394 Clear 21 1016 33 10000 3.6 290 18:59 10.07.2019
5395 Clear 21 1016 35 10000 3.1 300 18:41 10.07.2019
5396 Clear 21 1016 35 10000 3.1 300 18:22 10.07.2019
5397 Clear 21 1016 40 10000 4.1 280 17:42 10.07.2019
5398 Clear 21 1016 40 10000 4.1 280 17:22 10.07.2019
5399 Clear 22 1017 40 10000 4.1 290 16:38 10.07.2019
5400 Clear 22 1017 40 10000 4.6 280 16:19 10.07.2019
5401 Clouds 21 1017 45 10000 5.1 290 15:46 10.07.2019
5402 Clouds 21 1017 45 10000 5.1 290 15:22 10.07.2019
5403 Clouds 20 1018 48 10000 5.1 280 14:43 10.07.2019
5404 Clouds 20 1018 48 10000 5.1 280 14:24 10.07.2019
5405 Clouds 20 1018 45 10000 4.6 270 13:53 10.07.2019
5406 Clouds 20 1018 46 0 5.4 282.479 13:19 10.07.2019
5407 Clouds 19 1018 51 10000 4.6 270 12:58 10.07.2019
5408 Clouds 18 1018 55 10000 4.6 300 12:39 10.07.2019
5409 Clouds 18 1018 55 10000 4.6 300 12:19 10.07.2019
5410 Clouds 17 1019 54 10000 5.1 290 11:47 10.07.2019
5411 Clouds 16 1019 54 10000 5.1 290 11:21 10.07.2019
5412 Clouds 15 1019 62 10000 3.6 320 10:52 10.07.2019
5413 Clouds 15 1019 67 10000 4.1 300 10:23 10.07.2019
5414 Clouds 14 1019 76 10000 4.1 310 09:45 10.07.2019
5415 Clouds 14 1019 76 10000 4.1 310 09:21 10.07.2019
5416 Clouds 14 1019 76 10000 3.6 290 08:57 10.07.2019
5417 Clouds 13 1019 76 10000 3.1 290 08:38 10.07.2019
5418 Clouds 13 1019 76 10000 3.1 290 08:20 10.07.2019
5419 Clear 12 1018 81 10000 3.1 260 07:42 10.07.2019
5420 Clear 12 1018 81 10000 3.1 260 07:22 10.07.2019
5421 Clouds 10 1018 81 10000 2.6 270 06:33 10.07.2019
5422 Clouds 10 1018 76 10000 2.6 290 05:40 10.07.2019
5423 Clouds 10 1018 76 10000 3.1 290 04:30 10.07.2019
5424 Clear 12 1018 66 10000 2.1 270 01:59 10.07.2019
5425 Clear 12 1018 66 10000 2.1 280 00:43 10.07.2019
5426 Clear 12 1018 66 10000 2.1 270 23:42 09.07.2019
5427 Clear 13 1018 66 10000 2.1 270 23:23 09.07.2019
5428 Clouds 13 1018 62 10000 1 280 22:57 09.07.2019
5429 Clouds 13 1018 62 10000 1.5 280 22:37 09.07.2019
5430 Clouds 13 1018 62 10000 1.5 280 22:19 09.07.2019
5431 Clouds 13 1017 67 10000 1.5 280 21:45 09.07.2019
5432 Clouds 14 1017 67 10000 1.5 280 21:25 09.07.2019
5433 Clouds 14 1017 62 10000 3.1 320 20:45 09.07.2019
5434 Clouds 15 1017 62 10000 3.1 320 20:26 09.07.2019
5435 Clouds 15 1017 58 10000 4.1 310 19:56 09.07.2019
5436 Clouds 15 1017 58 10000 3.6 290 19:36 09.07.2019
5437 Clouds 15 1017 58 10000 3.6 290 19:18 09.07.2019
5438 Clouds 15 1017 54 10000 5.1 300 18:38 09.07.2019
5439 Clouds 15 1017 54 10000 5.1 300 18:19 09.07.2019
5440 Clouds 16 1018 54 10000 4.6 290 17:43 09.07.2019
5441 Clouds 15 1018 54 10000 4.6 290 17:21 09.07.2019
5442 Clouds 16 1018 58 10000 4.6 300 16:58 09.07.2019
5443 Clouds 15 1017 54 10000 5.1 290 16:39 09.07.2019
5444 Clouds 15 1017 54 10000 5.1 290 16:21 09.07.2019
5445 Clouds 15 1018 67 10000 3.6 260 15:41 09.07.2019
5446 Clouds 15 1018 67 10000 3.6 260 15:22 09.07.2019
5447 Clouds 15 1018 67 10000 4.1 250 14:43 09.07.2019
5448 Clouds 15 1018 67 10000 4.1 250 14:23 09.07.2019
5449 Clouds 15 1018 71 10000 3.6 250 13:47 09.07.2019
5450 Clouds 14 1018 76 10000 3.6 250 13:28 09.07.2019
5451 Clouds 14 1018 87 10000 3.6 240 12:59 09.07.2019
5452 Rain 14 1018 81 10000 4.1 220 12:38 09.07.2019
5453 Rain 14 1018 81 10000 4.1 220 12:19 09.07.2019
5454 Clouds 14 1018 67 10000 3.1 270 11:42 09.07.2019
5455 Clouds 14 1018 67 10000 3.1 270 11:22 09.07.2019
5456 Clouds 14 1018 71 10000 4.1 260 10:59 09.07.2019
5457 Clouds 13 1018 71 10000 3.6 270 10:40 09.07.2019
5458 Rain 13 1018 76 10000 2.6 280 10:21 09.07.2019
5459 Clouds 13 1018 76 10000 3.1 300 09:38 09.07.2019
5460 Clouds 13 1018 76 10000 3.1 300 09:20 09.07.2019
5461 Clouds 13 1017 76 10000 2.6 290 08:44 09.07.2019
5462 Clouds 12 1017 76 10000 2.6 300 08:19 09.07.2019
5463 Clear 12 1017 54 10000 2.6 210 03:49 05.07.2019
5464 Clear 12 1017 54 10000 2.6 210 03:21 05.07.2019
5465 Clear 12 1018 54 10000 3.6 220 02:52 05.07.2019
5466 Clear 12 1018 51 10000 2.6 220 02:26 05.07.2019
5467 Clouds 12 981 66 0 3.19 230.553 01:36 05.07.2019
5468 Clouds 13 981 64 0 3.09 232.689 00:52 05.07.2019
5469 Clouds 13 981 63 0 3.09 232.689 00:32 05.07.2019
5470 Clear 14 1018 33 10000 1 250 23:47 04.07.2019
5471 Clear 14 1018 36 10000 1.5 290 23:19 04.07.2019
5472 Clouds 14 982 57 0 2.13 219.013 22:43 04.07.2019
5473 Clouds 15 982 59 0 2.13 219.013 22:24 04.07.2019
5474 Clear 16 1019 29 10000 0.5 280 21:55 04.07.2019
5475 Clear 17 1019 32 10000 1 310 21:36 04.07.2019
5476 Clear 18 1019 32 10000 1 310 21:18 04.07.2019
5477 Clear 20 1019 26 10000 3.1 300 20:38 04.07.2019
5478 Clear 21 1019 26 10000 3.1 300 20:20 04.07.2019
5479 Clear 22 1019 26 10000 3.6 290 19:56 04.07.2019
5480 Clear 21 1020 64 10000 4.1 310 19:38 04.07.2019
5481 Clear 22 1020 24 10000 4.1 310 19:19 04.07.2019
5482 Clear 22 1020 24 10000 4.1 290 18:41 04.07.2019
5483 Clear 23 1020 24 10000 4.1 290 18:23 04.07.2019
5484 Clear 23 1021 24 10000 4.1 340 17:44 04.07.2019
5485 Clouds 23 1020 31 0 3.77 302.741 17:19 04.07.2019
5486 Clear 23 1022 30 10000 4.6 310 15:58 04.07.2019
5487 Clear 23 1022 26 10000 2.6 0 15:40 04.07.2019
5488 Clear 22 1022 26 10000 2.6 0 15:22 04.07.2019
5489 Clear 22 1022 48 10000 3.6 0 14:55 04.07.2019
5490 Clear 22 1023 32 10000 3.1 0 14:37 04.07.2019
5491 Clear 22 1023 32 10000 3.1 0 14:18 04.07.2019
5492 Clear 21 1023 34 10000 3.6 340 13:42 04.07.2019
5493 Clear 21 1023 34 10000 3.6 340 13:23 04.07.2019
5494 Clear 21 1024 36 10000 3.1 0 12:57 04.07.2019
5495 Clouds 20 1024 39 10000 2.6 240 12:37 04.07.2019
5496 Clouds 20 1024 39 10000 2.6 240 12:37 04.07.2019
5497 Clouds 19 1024 42 10000 4.1 290 12:19 04.07.2019
5498 Clear 19 987 48 0 2.98 301.446 11:39 04.07.2019
5499 Clouds 18 1024 44 10000 3.1 0 11:19 04.07.2019
5500 Clouds 18 1024 44 10000 3.1 0 11:19 04.07.2019
5501 Clouds 17 1024 51 10000 3.1 270 10:40 04.07.2019
5502 Clouds 17 1024 51 10000 3.1 270 10:22 04.07.2019
5503 Clear 16 1024 54 10000 2.6 320 09:45 04.07.2019
5504 Clear 15 1024 54 10000 2.6 320 09:26 04.07.2019
5505 Clear 15 1024 58 10000 2.1 0 08:57 04.07.2019
5506 Clear 14 1024 62 10000 3.1 340 08:29 04.07.2019
5507 Clear 12 1024 66 10000 3.1 310 07:47 04.07.2019
5508 Clear 12 1024 66 10000 3.1 310 07:47 04.07.2019
5509 Clear 11 1024 71 10000 2.1 270 07:23 04.07.2019
5510 Clear 10 1024 71 10000 1.5 290 06:56 04.07.2019
5511 Clear 8 1023 76 10000 2.1 300 05:55 04.07.2019
5512 Clear 8 1023 71 10000 2.1 320 05:36 04.07.2019
5513 Clear 8 1023 66 10000 2.1 280 03:48 04.07.2019
5514 Clear 10 1023 62 10000 1 190 01:46 04.07.2019
5515 Clear 10 1023 62 10000 1 190 01:26 04.07.2019
5516 Clear 10 986 75 0 2.92 248.724 00:39 04.07.2019
5517 Clear 11 1022 50 10000 1.5 350 23:52 03.07.2019
5518 Clear 12 1022 47 10000 2.1 340 23:20 03.07.2019
5519 Clear 12 1022 47 10000 1 330 22:56 03.07.2019
5520 Clear 13 1022 41 10000 1.5 340 22:37 03.07.2019
5521 Clear 13 986 65 0 1.96 261.948 22:18 03.07.2019
5522 Clear 14 1022 41 10000 1.5 320 21:50 03.07.2019
5523 Clear 15 1022 36 10000 2.6 330 21:31 03.07.2019
5524 Clear 18 1022 32 10000 3.1 310 20:47 03.07.2019
5525 Clear 18 1022 32 10000 3.1 310 20:29 03.07.2019
5526 Clear 18 1022 32 10000 3.1 310 20:29 03.07.2019
5527 Clear 19 1022 34 10000 3.6 330 19:59 03.07.2019
5528 Clear 20 1022 30 10000 5.1 330 19:40 03.07.2019
5529 Clear 20 1022 30 10000 3.1 330 18:58 03.07.2019
5530 Clear 20 1022 29 10000 5.1 340 18:39 03.07.2019
5531 Clear 21 1022 29 10000 5.1 340 18:20 03.07.2019
5532 Clear 21 1022 32 10000 5.1 310 17:49 03.07.2019
5533 Clear 21 1022 30 10000 3.6 320 17:19 03.07.2019
5534 Clear 21 1022 32 10000 4.1 330 16:57 03.07.2019
5535 Clear 21 1022 32 10000 4.1 330 16:57 03.07.2019
5536 Clear 21 1022 32 10000 5.1 320 16:39 03.07.2019
5537 Clear 21 1022 32 10000 5.1 320 16:18 03.07.2019
5538 Clear 21 1022 32 10000 4.1 330 15:42 03.07.2019
5539 Clear 21 1022 32 10000 4.1 330 15:24 03.07.2019
5540 Clear 21 1023 30 10000 5.7 310 14:43 03.07.2019
5541 Clear 21 1023 30 10000 5.7 310 14:22 03.07.2019
5542 Clear 20 1023 36 10000 4.6 0 13:46 03.07.2019
5543 Clear 20 1023 36 10000 4.6 0 13:27 03.07.2019
5544 Clear 19 1023 36 10000 4.6 0 12:52 03.07.2019
5545 Clear 19 1023 42 10000 4.6 300 12:19 03.07.2019
5546 Clouds 19 1023 39 10000 4.6 310 11:54 03.07.2019
5547 Clouds 18 1023 39 10000 4.1 290 11:36 03.07.2019
5548 Clouds 19 1023 39 10000 4.1 290 11:18 03.07.2019
5549 Clouds 18 1023 51 10000 3.6 300 10:38 03.07.2019
5550 Clouds 17 1023 51 10000 3.6 300 10:20 03.07.2019
5551 Clear 16 986 64 0 3.41 319.133 09:41 03.07.2019
5552 Clear 15 1023 54 10000 3.1 350 09:20 03.07.2019
5553 Clear 15 1023 54 10000 3.1 350 08:52 03.07.2019
5554 Clear 14 1023 58 10000 3.6 350 08:31 03.07.2019
5555 Clear 13 1023 62 10000 3.1 330 07:49 03.07.2019
5556 Clear 12 1023 66 10000 2.6 320 07:31 03.07.2019
5557 Clear 11 1022 76 10000 2.6 310 06:35 03.07.2019
5558 Clear 9 1022 71 10000 2.1 320 05:39 03.07.2019
5559 Clear 8 1022 71 10000 2.1 310 04:52 03.07.2019
5560 Clear 10 1022 58 10000 2.1 290 03:28 03.07.2019
5561 Clear 11 1022 54 10000 2.1 320 02:37 03.07.2019
5562 Clear 11 985 72 0 1.89 247.985 01:22 03.07.2019
5563 Clear 12 1021 50 10000 1 290 00:55 03.07.2019
5564 Clear 12 1021 50 10000 1 290 00:36 03.07.2019
5565 Clear 14 1021 44 10000 1.5 340 23:46 02.07.2019
5566 Clear 15 1021 44 10000 2.1 350 23:21 02.07.2019
5567 Clear 15 1021 44 10000 2.1 350 22:59 02.07.2019
5568 Clear 14 1020 41 10000 3.1 350 22:40 02.07.2019
5569 Clear 14 1020 41 10000 3.1 350 22:40 02.07.2019
5570 Clear 15 1020 41 10000 2.6 310 22:22 02.07.2019
5571 Clear 16 1020 41 10000 2.6 310 21:56 02.07.2019
5572 Clear 17 1020 36 10000 2.6 330 21:37 02.07.2019
5573 Clear 18 1020 34 10000 3.6 330 21:18 02.07.2019
5574 Clear 19 1019 32 10000 4.1 330 20:41 02.07.2019
5575 Clear 20 1019 34 10000 5.7 320 20:23 02.07.2019
5576 Clear 20 1019 34 10000 5.7 320 19:57 02.07.2019
5577 Clear 21 1019 32 10000 6.2 310 19:38 02.07.2019
5578 Clear 21 1019 35 10000 5.7 310 19:20 02.07.2019
5579 Clear 21 1019 35 10000 4.1 320 18:45 02.07.2019
5580 Clear 22 1019 35 10000 5.1 310 18:18 02.07.2019
5581 Clear 22 1019 37 10000 5.7 300 17:40 02.07.2019
5582 Clear 22 1019 37 10000 5.7 300 17:20 02.07.2019
5583 Clear 22 1019 37 10000 5.7 300 17:20 02.07.2019
5584 Clear 22 1020 37 10000 4.6 300 16:46 02.07.2019
5585 Clear 22 1020 37 10000 4.6 300 16:46 02.07.2019
5586 Clear 22 1020 37 10000 4.6 300 16:28 02.07.2019
5587 Clear 22 1020 40 10000 5.7 300 15:44 02.07.2019
5588 Clear 22 1019 43 10000 5.1 300 15:24 02.07.2019
5589 Clear 22 1019 43 10000 5.1 300 14:51 02.07.2019
5590 Clear 22 1019 40 10000 4.6 290 14:33 02.07.2019
5591 Clear 23 1019 40 10000 5.1 290 13:47 02.07.2019
5592 Clear 22 1019 40 10000 5.7 280 13:23 02.07.2019
5593 Clear 22 1019 40 10000 5.7 280 12:59 02.07.2019
5594 Clear 22 1020 40 10000 5.1 300 12:41 02.07.2019
5595 Clouds 21 1020 45 10000 5.1 310 12:18 02.07.2019
5596 Clouds 21 1020 42 10000 5.1 290 11:42 02.07.2019
5597 Clouds 20 1020 48 10000 4.6 300 11:21 02.07.2019
5598 Clouds 20 1020 52 10000 5.7 300 10:46 02.07.2019
5599 Clouds 20 1020 52 10000 5.7 300 10:25 02.07.2019
5600 Clouds 19 1020 48 10000 4.6 300 09:46 02.07.2019
5601 Clouds 18 1019 55 10000 4.1 300 09:22 02.07.2019
5602 Clouds 18 1019 59 10000 3.6 300 08:43 02.07.2019
5603 Clouds 18 1019 59 10000 3.6 300 08:23 02.07.2019
5604 Clouds 17 1019 59 10000 3.6 300 07:54 02.07.2019
5605 Clear 16 1019 63 10000 1.5 260 07:21 02.07.2019
5606 Clear 15 1019 67 10000 1 0 06:51 02.07.2019
5607 Clear 15 1019 67 10000 1 0 06:30 02.07.2019
5608 Clear 15 1018 67 10000 1.5 320 04:58 02.07.2019
5609 Clear 19 1017 52 10000 2.6 290 02:26 02.07.2019
5610 Clear 20 1016 49 10000 2.6 310 00:23 02.07.2019
5611 Clear 21 1016 49 10000 2.1 300 23:24 01.07.2019
5612 Clear 20 1015 40 10000 3.1 330 22:48 01.07.2019
5613 Clear 21 1015 40 10000 3.1 330 22:28 01.07.2019
5614 Clear 22 1014 36 10000 4.1 320 21:49 01.07.2019
5615 Clear 24 1014 36 10000 4.1 320 21:28 01.07.2019
5616 Clear 25 1014 29 10000 5.1 290 20:57 01.07.2019
5617 Clear 25 1013 27 10000 5.7 300 20:39 01.07.2019
5618 Clear 26 1013 27 10000 5.7 300 20:19 01.07.2019
5619 Clear 27 1013 28 10000 5.7 300 19:42 01.07.2019
5620 Clear 27 1013 30 10000 5.1 280 19:24 01.07.2019
5621 Clear 27 1013 30 10000 5.1 280 18:56 01.07.2019
5622 Clear 28 1013 34 10000 3.6 270 18:37 01.07.2019
5623 Clear 28 1013 34 10000 3.6 270 18:19 01.07.2019
5624 Clear 29 1013 32 10000 5.1 290 17:42 01.07.2019
5625 Clear 29 1013 32 10000 5.1 290 17:23 01.07.2019
5626 Clear 29 1014 34 10000 5.7 270 16:48 01.07.2019
5627 Clear 29 1013 34 10000 5.7 310 16:27 01.07.2019
5628 Clear 29 1014 34 10000 4.6 310 15:56 01.07.2019
5629 Clear 29 1014 34 10000 4.6 310 15:38 01.07.2019
5630 Clear 29 1014 39 10000 5.1 300 15:20 01.07.2019
5631 Clear 28 1014 36 10000 3.1 0 14:43 01.07.2019
5632 Clear 28 1015 39 10000 2.1 0 14:20 01.07.2019
5633 Clear 27 1015 38 10000 3.1 300 13:44 01.07.2019
5634 Clouds 26 1015 38 10000 2.6 310 13:23 01.07.2019
5635 Clouds 26 1015 38 10000 2.1 0 12:56 01.07.2019
5636 Clouds 26 1015 38 10000 2.1 0 12:37 01.07.2019
5637 Clear 25 1015 36 10000 1.5 0 12:18 01.07.2019
5638 Clouds 25 1015 36 10000 3.1 350 11:43 01.07.2019
5639 Clouds 24 1016 38 10000 3.1 340 11:21 01.07.2019
5640 Clouds 24 1016 43 10000 3.6 360 10:47 01.07.2019
5641 Clouds 23 1016 38 10000 3.6 340 10:24 01.07.2019
5642 Clouds 23 1015 40 10000 2.6 360 09:58 01.07.2019
5643 Clouds 23 1015 40 10000 2.6 360 09:40 01.07.2019
5644 Clouds 23 1015 37 10000 2.6 10 09:21 01.07.2019
5645 Clouds 22 1015 40 10000 3.1 350 08:37 01.07.2019
5646 Clear 21 1015 43 10000 2.1 310 07:48 01.07.2019
5647 Clear 21 1014 43 10000 1 0 07:27 01.07.2019
5648 Clear 20 1014 56 10000 1.5 10 06:27 01.07.2019
5649 Clear 22 1013 41 10000 2.6 240 01:43 01.07.2019
5650 Clear 22 1013 36 10000 3.1 230 00:49 01.07.2019
5651 Clear 22 1013 36 10000 3.6 200 00:29 01.07.2019
5652 Clear 23 1013 32 10000 3.1 210 23:56 30.06.2019
5653 Clear 24 1012 30 10000 2.6 220 23:22 30.06.2019
5654 Clear 23 1011 52 0 4.19 208.267 22:52 30.06.2019
5655 Clear 23 978 50 0 4.19 208.267 22:21 30.06.2019
5656 Clear 25 1012 22 10000 2.1 230 21:42 30.06.2019
5657 Clear 28 1012 19 10000 2.1 230 21:22 30.06.2019
5658 Clear 29 1012 16 10000 2.1 240 20:58 30.06.2019
5659 Clear 31 1012 16 10000 2.1 240 20:39 30.06.2019
5660 Clear 33 1012 14 10000 2.6 240 20:21 30.06.2019
5661 Clear 33 1012 12 10000 3.6 250 19:45 30.06.2019
5662 Clear 34 1012 11 10000 4.1 270 19:25 30.06.2019
5663 Clear 36 1012 11 10000 4.6 270 18:39 30.06.2019
5664 Clear 37 1012 13 10000 5.1 290 18:20 30.06.2019
5665 Clear 37 1012 13 10000 5.1 290 18:20 30.06.2019
5666 Clear 37 1013 14 10000 5.1 250 17:40 30.06.2019
5667 Clear 37 1013 12 10000 5.1 260 17:19 30.06.2019
5668 Clear 37 1013 13 10000 4.6 260 16:51 30.06.2019
5669 Clear 37 1013 14 10000 3.6 240 16:32 30.06.2019
5670 Clear 36 1013 15 10000 4.1 240 15:39 30.06.2019
5671 Clear 36 1013 14 10000 3.1 0 15:19 30.06.2019
5672 Clear 36 1013 14 10000 3.6 0 14:57 30.06.2019
5673 Clear 36 1013 14 10000 3.6 0 14:57 30.06.2019
5674 Clear 36 1013 14 10000 3.6 0 14:38 30.06.2019
5675 Clear 35 1014 16 10000 4.6 180 13:57 30.06.2019
5676 Clear 35 1014 16 10000 4.6 180 13:38 30.06.2019
5677 Clear 34 1014 17 10000 3.6 160 13:19 30.06.2019
5678 Clear 33 1015 19 10000 3.6 180 12:45 30.06.2019
5679 Clear 33 1015 22 10000 3.6 220 12:24 30.06.2019
5680 Clear 32 1015 25 10000 4.1 160 11:47 30.06.2019
5681 Clear 31 1016 25 10000 3.6 190 11:22 30.06.2019
5682 Clear 30 1016 26 10000 3.1 200 10:56 30.06.2019
5683 Clear 30 1016 26 10000 3.1 200 10:38 30.06.2019
5684 Clear 29 1016 30 10000 4.6 190 10:19 30.06.2019
5685 Clear 28 1016 34 10000 4.6 190 09:43 30.06.2019
5686 Clear 27 1016 36 10000 4.6 180 09:23 30.06.2019
5687 Clear 25 1017 41 10000 4.1 170 08:58 30.06.2019
5688 Clear 23 1017 46 10000 4.6 170 08:32 30.06.2019
5689 Clear 22 1017 52 10000 4.1 170 07:58 30.06.2019
5690 Clear 20 1017 56 10000 3.6 160 07:29 30.06.2019
5691 Clear 19 1017 63 10000 3.6 160 06:51 30.06.2019
5692 Clear 16 1017 49 10000 4.1 150 05:34 30.06.2019
5693 Clear 17 1017 63 10000 4.6 160 02:59 30.06.2019
5694 Clear 16 1018 49 10000 3.6 150 01:30 30.06.2019
5695 Clear 18 1018 46 10000 3.6 150 00:38 30.06.2019
5696 Clear 18 1018 46 10000 3.1 150 23:56 29.06.2019
5697 Clear 18 982 64 0 0.45 190 23:25 29.06.2019
5698 Clear 19 1017 66 0 3.48 181.319 22:59 29.06.2019
5699 Clear 19 983 66 0 3.48 181.319 22:40 29.06.2019
5700 Clear 20 983 64 0 3.48 181.319 22:21 29.06.2019
5701 Clear 22 1018 34 10000 2.1 140 21:51 29.06.2019
5702 Clear 25 1018 30 10000 1.5 140 21:23 29.06.2019
5703 Clear 26 1018 26 10000 2.1 130 20:45 29.06.2019
5704 Clear 27 1019 21 10000 2.6 110 20:27 29.06.2019
5705 Clear 29 1019 20 10000 2.6 110 19:48 29.06.2019
5706 Clear 29 1019 22 10000 1.5 180 19:25 29.06.2019
5707 Clear 29 1019 20 10000 1 0 18:54 29.06.2019
5708 Clear 30 1019 22 10000 1 0 18:27 29.06.2019
5709 Clear 30 1020 23 10000 2.1 200 17:57 29.06.2019
5710 Clear 30 1020 23 10000 2.1 200 17:37 29.06.2019
5711 Clear 29 1020 25 10000 2.1 0 17:19 29.06.2019
5712 Clear 30 1020 25 10000 1.5 0 16:42 29.06.2019
5713 Clear 29 1021 24 10000 2.1 150 15:59 29.06.2019
5714 Clear 29 1021 25 10000 2.1 0 15:31 29.06.2019
5715 Clear 28 1021 26 10000 1.5 0 14:46 29.06.2019
5716 Clear 28 1021 26 10000 1.5 0 14:27 29.06.2019
5717 Clear 28 1022 26 10000 2.6 70 13:54 29.06.2019
5718 Clear 27 1022 27 10000 1.5 0 13:27 29.06.2019
5719 Clear 27 1022 29 10000 1 0 12:59 29.06.2019
5720 Clear 26 1022 29 10000 1 0 12:38 29.06.2019
5721 Clear 25 1022 31 10000 1.5 0 12:20 29.06.2019
5722 Clear 25 1022 36 10000 1 0 11:42 29.06.2019
5723 Clear 25 1022 38 10000 2.6 0 11:23 29.06.2019
5724 Clear 24 1023 38 10000 1.5 0 10:49 29.06.2019
5725 Clear 23 1023 40 10000 1.5 0 10:21 29.06.2019
5726 Clear 23 1023 49 10000 2.1 170 09:55 29.06.2019
5727 Clear 19 1023 59 10000 1.5 220 08:55 29.06.2019
5728 Clear 18 1023 67 10000 2.1 210 08:31 29.06.2019
5729 Clear 16 1023 72 10000 2.1 200 07:45 29.06.2019
5730 Clear 13 1023 82 10000 1.5 200 06:55 29.06.2019
5731 Clear 12 1023 87 10000 1.5 170 06:36 29.06.2019
5732 Clear 11 1023 87 10000 1.5 170 06:18 29.06.2019
5733 Clear 12 987 84 0 1.34 221.314 01:43 29.06.2019
5734 Clear 13 1023 59 10000 0.5 0 00:51 29.06.2019
5735 Clear 14 1023 55 10000 1.5 300 23:53 28.06.2019
5736 Clear 15 1023 52 10000 1.5 280 23:21 28.06.2019
5737 Clear 15 1023 55 10000 2.1 280 22:47 28.06.2019
5738 Clear 15 987 75 0 1.19 200.184 22:22 28.06.2019
5739 Clear 17 1023 45 10000 1.5 300 21:45 28.06.2019
5740 Clear 19 1023 40 10000 1.5 300 21:20 28.06.2019
5741 Clear 20 1023 40 10000 2.1 300 20:43 28.06.2019
5742 Clear 21 1023 35 10000 2.6 300 20:20 28.06.2019
5743 Clear 22 1023 35 10000 2.6 350 19:42 28.06.2019
5744 Clear 23 1023 33 10000 3.1 310 19:24 28.06.2019
5745 Clear 23 1023 33 10000 3.1 300 18:42 28.06.2019
5746 Clear 23 1023 33 10000 3.1 300 18:22 28.06.2019
5747 Clear 24 1023 35 10000 3.1 330 17:54 28.06.2019
5748 Clear 23 1023 35 10000 3.6 300 17:29 28.06.2019
5749 Clear 23 1023 37 10000 2.6 0 16:47 28.06.2019
5750 Clear 23 1024 40 10000 3.1 0 16:23 28.06.2019
5751 Clouds 23 1024 40 10000 3.6 300 15:48 28.06.2019
5752 Clouds 22 1024 45 10000 4.1 270 15:19 28.06.2019
5753 Clouds 22 1024 43 10000 3.1 340 14:42 28.06.2019
5754 Clouds 21 1024 52 10000 3.6 260 14:22 28.06.2019
5755 Clouds 20 1024 49 10000 3.1 300 13:50 28.06.2019
5756 Clouds 20 1024 55 10000 3.1 300 13:30 28.06.2019
5757 Clouds 20 1025 55 10000 4.1 320 12:58 28.06.2019
5758 Clouds 19 1025 55 10000 4.1 320 12:40 28.06.2019
5759 Clouds 18 1025 63 10000 2.1 0 11:50 28.06.2019
5760 Clouds 18 1025 63 10000 3.1 300 11:22 28.06.2019
5761 Clouds 17 1025 72 10000 2.6 0 10:44 28.06.2019
5762 Clouds 17 1025 67 10000 2.1 320 10:21 28.06.2019
5763 Clouds 16 1025 72 10000 2.1 300 09:48 28.06.2019
5764 Clouds 16 1025 72 10000 2.6 310 09:29 28.06.2019
5765 Clouds 15 1025 77 0 2.6 320 08:47 28.06.2019
5766 Clouds 15 1025 76 10000 2.6 310 08:26 28.06.2019
5767 Clouds 15 1025 76 10000 3.1 310 07:46 28.06.2019
5768 Clouds 14 1024 82 10000 3.1 310 06:58 28.06.2019
5769 Clouds 14 1024 82 10000 2.6 310 06:21 28.06.2019
5770 Clear 16 1024 67 10000 3.1 330 01:23 28.06.2019
5771 Clear 17 1024 63 10000 3.1 330 00:39 28.06.2019
5772 Clear 18 1023 55 10000 2.6 340 23:51 27.06.2019
5773 Clear 18 1023 52 10000 2.6 320 23:26 27.06.2019
5774 Clear 18 1022 49 10000 2.1 340 22:56 27.06.2019
5775 Clear 18 1022 49 10000 2.1 340 22:37 27.06.2019
5776 Clear 19 1022 49 10000 2.6 310 22:18 27.06.2019
5777 Clear 19 1022 43 10000 2.6 310 21:48 27.06.2019
5778 Clear 21 1022 37 10000 3.1 310 21:29 27.06.2019
5779 Clear 22 1022 35 10000 3.6 310 20:57 27.06.2019
5780 Clear 23 1022 35 10000 3.6 310 20:39 27.06.2019
5781 Clear 23 1022 29 10000 4.6 310 20:19 27.06.2019
5782 Clear 24 1021 29 10000 5.7 320 19:44 27.06.2019
5783 Clear 25 1022 27 10000 4.6 310 19:25 27.06.2019
5784 Clear 25 1022 25 10000 6.2 320 18:43 27.06.2019
5785 Clear 26 1022 26 10000 5.7 320 18:21 27.06.2019
5786 Clear 26 1022 26 10000 5.7 320 17:45 27.06.2019
5787 Clear 26 1022 26 10000 6.7 330 17:22 27.06.2019
5788 Clear 26 1022 26 10000 5.7 330 16:41 27.06.2019
5789 Clear 26 1022 26 10000 5.7 300 16:20 27.06.2019
5790 Clear 26 1023 25 10000 6.2 290 15:58 27.06.2019
5791 Clear 26 1023 25 10000 6.2 290 15:40 27.06.2019
5792 Clear 25 1023 29 10000 6.2 300 14:59 27.06.2019
5793 Clear 25 1023 29 10000 6.2 300 14:40 27.06.2019
5794 Clear 25 1023 29 10000 5.1 290 14:22 27.06.2019
5795 Clear 25 1023 31 10000 5.7 320 13:44 27.06.2019
5796 Clear 25 1024 35 10000 4.1 310 13:26 27.06.2019
5797 Clear 24 1024 35 10000 4.6 300 12:49 27.06.2019
5798 Clear 23 1024 43 10000 4.1 290 12:31 27.06.2019
5799 Clear 23 1024 49 10000 4.1 310 11:55 27.06.2019
5800 Clear 22 1024 49 10000 4.1 310 11:36 27.06.2019
5801 Clouds 22 1024 49 10000 4.1 0 11:18 27.06.2019
5802 Clouds 21 1024 52 10000 4.1 310 10:42 27.06.2019
5803 Clouds 21 1024 55 10000 5.1 310 10:20 27.06.2019
5804 Clouds 20 1024 63 10000 4.6 290 09:50 27.06.2019
5805 Clouds 20 1024 68 10000 4.6 340 09:22 27.06.2019
5806 Clouds 19 1024 72 10000 5.1 300 08:52 27.06.2019
5807 Clouds 18 1024 72 10000 5.1 330 08:30 27.06.2019
5808 Clouds 18 1024 72 10000 4.6 320 07:49 27.06.2019
5809 Clouds 18 1024 72 10000 4.6 320 07:49 27.06.2019
5810 Clouds 18 1023 72 10000 5.1 320 07:25 27.06.2019
5811 Clear 19 1023 63 10000 4.6 320 06:39 27.06.2019
5812 Clear 21 1022 46 10000 4.1 320 04:24 27.06.2019
5813 Clear 23 1022 53 10000 4.6 320 02:44 27.06.2019
5814 Clear 24 1022 61 10000 4.1 320 01:48 27.06.2019
5815 Clear 24 1022 54 10000 3.1 310 00:56 27.06.2019
5816 Clear 25 1021 51 10000 2.6 320 00:36 27.06.2019
5817 Clear 25 1021 51 10000 2.6 320 00:18 27.06.2019
5818 Clear 26 1021 48 10000 3.6 310 23:38 26.06.2019
5819 Clear 26 1021 51 10000 2.6 290 23:19 26.06.2019
5820 Clear 27 1020 48 10000 2.6 310 22:41 26.06.2019
5821 Clear 27 986 67 0 2.24 215 22:23 26.06.2019
5822 Clear 28 1020 42 10000 3.1 310 21:55 26.06.2019
5823 Clear 28 1020 42 10000 3.1 310 21:37 26.06.2019
5824 Clear 30 1020 40 10000 3.1 320 21:19 26.06.2019
5825 Clear 31 1020 40 10000 3.1 320 20:43 26.06.2019
5826 Clear 32 1019 38 10000 3.6 310 20:25 26.06.2019
5827 Clear 33 1019 34 10000 3.6 290 19:48 26.06.2019
5828 Rain 34 1018 45 0 4.2 316.418 19:30 26.06.2019
5829 Clear 35 1020 30 10000 5.1 280 18:55 26.06.2019
5830 Clear 35 1020 30 10000 5.1 280 18:55 26.06.2019
5831 Clear 35 1020 30 10000 5.1 280 18:37 26.06.2019
5832 Clear 35 1020 28 10000 4.1 280 18:18 26.06.2019
5833 Clear 35 1020 28 10000 5.1 260 17:43 26.06.2019
5834 Clear 36 1020 26 10000 4.6 280 17:23 26.06.2019
5835 Clear 36 1020 25 10000 5.1 290 16:51 26.06.2019
5836 Clear 36 1020 26 10000 5.1 260 16:28 26.06.2019
5837 Clear 36 1021 28 10000 4.6 280 15:51 26.06.2019
5838 Clear 36 1021 26 10000 5.1 300 15:28 26.06.2019
5839 Clear 35 1021 30 10000 5.1 260 14:42 26.06.2019
5840 Clear 35 1021 30 10000 3.6 290 14:21 26.06.2019
5841 Clear 35 1021 28 10000 5.7 270 13:46 26.06.2019
5842 Clear 35 1022 30 10000 6.2 270 13:21 26.06.2019
5843 Clear 34 1022 32 10000 5.1 270 12:57 26.06.2019
5844 Clear 34 1022 32 10000 5.1 270 12:57 26.06.2019
5845 Clear 34 1022 32 10000 5.1 270 12:39 26.06.2019
5846 Clear 34 1022 32 10000 4.6 290 12:19 26.06.2019
5847 Clear 33 1022 36 10000 4.1 270 11:25 26.06.2019
5848 Clear 32 1022 35 10000 3.6 270 10:56 26.06.2019
5849 Clear 31 1022 35 10000 3.6 270 10:38 26.06.2019
5850 Clear 31 1022 43 10000 3.1 240 10:19 26.06.2019
5851 Clear 29 1021 54 10000 3.1 230 09:30 26.06.2019
5852 Clear 29 1021 57 10000 3.6 200 08:57 26.06.2019
5853 Clear 26 1021 65 10000 2.6 200 08:23 26.06.2019
5854 Clear 25 1021 69 10000 2.6 180 07:59 26.06.2019
5855 Clear 25 1021 69 10000 2.6 180 07:41 26.06.2019
5856 Clear 22 1021 78 10000 2.1 160 06:33 26.06.2019
5857 Clear 21 1021 69 10000 4.1 160 03:33 26.06.2019
5858 Clear 22 1021 61 10000 3.1 160 00:41 26.06.2019
5859 Clear 22 1021 57 10000 2.6 160 00:18 26.06.2019
5860 Clear 23 1021 61 10000 3.1 150 23:39 25.06.2019
5861 Clear 23 1021 54 10000 3.1 150 23:20 25.06.2019
5862 Clouds 23 1019 90 0 4.24 170.487 22:42 25.06.2019
5863 Clouds 24 986 73 0 1.34 120 22:23 25.06.2019
5864 Clear 26 1021 48 10000 3.1 130 21:47 25.06.2019
5865 Clear 27 1021 45 10000 2.1 130 21:27 25.06.2019
5866 Clear 28 1021 45 10000 3.1 130 20:59 25.06.2019
5867 Clear 29 1021 45 10000 3.1 130 20:37 25.06.2019
5868 Clear 30 1021 40 10000 3.1 140 20:18 25.06.2019
5869 Clear 31 1021 35 10000 4.6 140 19:45 25.06.2019
5870 Clear 31 1021 33 10000 4.6 140 19:22 25.06.2019
5871 Clear 32 1021 33 10000 4.6 140 18:43 25.06.2019
5872 Clear 32 1021 31 10000 4.6 150 18:25 25.06.2019
5873 Clear 32 1021 31 10000 4.6 150 18:25 25.06.2019
5874 -273 0 0 0 0 0 17:49 25.06.2019
5875 -273 0 0 0 0 0 17:49 25.06.2019
5876 -273 0 0 0 0 0 17:28 25.06.2019
5877 -273 0 0 0 0 0 17:28 25.06.2019
5878 Clear 32 1022 27 10000 4.6 150 16:55 25.06.2019
5879 Clear 32 1022 27 10000 4.6 150 16:37 25.06.2019
5880 Clear 32 1022 29 10000 5.1 150 16:19 25.06.2019
5881 Clear 32 1022 29 10000 4.6 0 15:40 25.06.2019
5882 Clear 32 1022 31 10000 3.1 120 15:21 25.06.2019
5883 Clear 32 1022 29 10000 3.6 150 14:53 25.06.2019
5884 Clear 31 1022 30 10000 4.1 150 14:33 25.06.2019
5885 Clear 31 1023 30 10000 4.6 120 13:45 25.06.2019
5886 Clear 31 1023 27 10000 5.1 100 13:26 25.06.2019
5887 Clear 30 1023 26 10000 4.1 130 12:43 25.06.2019
5888 Clear 29 1023 28 10000 4.1 110 12:25 25.06.2019
5889 Clear 29 1023 30 10000 4.1 0 11:48 25.06.2019
5890 Clear 28 1023 32 10000 3.6 100 11:26 25.06.2019
5891 Clear 28 1023 39 10000 3.1 150 10:59 25.06.2019
5892 Clear 27 1023 39 10000 3.1 150 10:39 25.06.2019
5893 Clear 27 1023 42 10000 3.1 150 10:21 25.06.2019
5894 Clear 26 1023 44 10000 4.1 150 09:55 25.06.2019
5895 Clear 26 1023 44 10000 4.1 150 09:37 25.06.2019
5896 Clear 25 1023 47 10000 3.6 150 09:18 25.06.2019
5897 Clear 24 1023 53 10000 3.6 140 08:37 25.06.2019
5898 Clear 22 1023 56 10000 3.6 140 08:19 25.06.2019
5899 Clear 21 1023 60 10000 3.1 150 07:39 25.06.2019
5900 Clear 19 1023 68 10000 4.1 150 06:52 25.06.2019
5901 Clear 17 1023 82 10000 2.6 160 06:28 25.06.2019
5902 Clear 17 1023 72 10000 2.6 170 02:45 25.06.2019
5903 Clear 18 1023 64 10000 1.5 180 01:40 25.06.2019
5904 Clear 18 1023 64 10000 1.5 140 00:36 25.06.2019
5905 Clear 19 1023 60 10000 1.5 130 23:56 24.06.2019
5906 Clear 19 1023 60 10000 1.5 130 23:37 24.06.2019
5907 Clear 19 1023 60 10000 1.5 130 23:37 24.06.2019
5908 Clear 20 1023 53 10000 2.1 120 23:19 24.06.2019
5909 Clear 19 1021 87 0 2.21 136.415 22:40 24.06.2019
5910 Clear 20 1021 85 0 2.21 136.415 22:19 24.06.2019
5911 Clear 20 1021 85 0 2.21 136.415 22:19 24.06.2019
5912 Clear 22 1023 44 10000 2.6 80 21:39 24.06.2019
5913 Clear 24 1023 41 10000 3.1 80 21:19 24.06.2019
5914 Clear 25 1022 36 10000 3.1 80 20:56 24.06.2019
5915 Clear 25 1022 36 10000 3.1 80 20:38 24.06.2019
5916 Clear 26 1022 34 10000 4.1 80 20:20 24.06.2019
5917 Clear 27 1022 30 10000 4.1 80 19:44 24.06.2019
5918 Clear 27 1022 30 10000 4.1 90 19:21 24.06.2019
5919 Clear 28 1022 26 10000 3.1 80 18:45 24.06.2019
5920 Clear 28 1022 28 10000 3.6 80 18:26 24.06.2019
5921 Clear 28 1023 26 10000 4.1 90 17:47 24.06.2019
5922 Clear 28 1023 26 10000 3.1 90 17:27 24.06.2019
5923 Clear 29 1023 25 10000 4.1 100 16:48 24.06.2019
5924 Clear 28 1023 24 10000 3.1 110 16:21 24.06.2019
5925 Clear 28 1023 24 10000 4.6 50 15:56 24.06.2019
5926 Clear 28 1023 24 10000 4.6 50 15:38 24.06.2019
5927 Clear 28 1023 24 10000 4.1 90 15:19 24.06.2019
5928 Clear 28 1023 22 10000 4.1 90 14:33 24.06.2019
5929 Clear 27 1024 24 10000 3.1 100 13:50 24.06.2019
5930 Clear 27 1024 24 10000 4.1 100 13:24 24.06.2019
5931 Clear 26 1024 20 10000 4.6 90 12:44 24.06.2019
5932 Clear 25 1024 20 10000 5.7 90 12:22 24.06.2019
5933 Clear 25 1024 22 10000 5.1 70 11:56 24.06.2019
5934 Clear 25 1024 22 10000 5.1 70 11:37 24.06.2019
5935 Clear 25 1024 25 10000 6.2 90 11:18 24.06.2019
5936 Clear 24 1024 25 10000 7.7 60 10:42 24.06.2019
5937 Clear 24 1024 28 10000 5.1 70 10:20 24.06.2019
5938 Clear 23 1024 31 10000 5.1 70 09:48 24.06.2019
5939 Clear 22 1024 35 10000 4.1 100 09:20 24.06.2019
5940 Clear 21 1024 46 10000 2.1 100 08:51 24.06.2019
5941 Clear 20 1024 55 10000 1.5 160 08:25 24.06.2019
5942 Clear 17 1024 63 10000 1 0 07:44 24.06.2019
5943 Clear 17 1024 67 10000 2.1 140 07:25 24.06.2019
5944 Clear 14 1024 72 10000 0.5 0 06:31 24.06.2019
5945 Clear 12 1024 76 10000 1 60 05:57 24.06.2019
5946 Clear 12 1023 89 0 1.44 114.096 04:59 24.06.2019
5947 Clear 12 1023 88 0 1.44 114.096 04:23 24.06.2019
5948 Clear 14 1023 63 10000 2.1 140 02:55 24.06.2019
5949 Clear 14 1023 63 10000 1.5 130 02:20 24.06.2019
5950 Clear 14 1022 83 0 2.29 123.794 01:49 24.06.2019
5951 Clear 15 1022 82 0 2.02 109.692 01:21 24.06.2019
5952 Clear 15 986 74 0 2.02 109.692 00:39 24.06.2019
5953 Clear 16 1022 78 0 3.75 108.251 00:19 24.06.2019
5954 Clear 17 1022 52 10000 2.1 100 23:44 23.06.2019
5955 Clear 17 1022 52 10000 1 100 23:22 23.06.2019
5956 Clear 18 1022 49 10000 1 110 22:43 23.06.2019
5957 Clear 18 1021 67 0 3.75 108.251 22:20 23.06.2019
5958 Clear 19 1020 86 0 3.75 108.251 21:56 23.06.2019
5959 Clear 21 1021 43 10000 1.5 120 21:36 23.06.2019
5960 Clear 22 1021 41 10000 2.1 110 21:18 23.06.2019
5961 Clear 23 1021 41 10000 3.1 90 20:40 23.06.2019
5962 Clear 24 1021 36 10000 3.6 70 20:22 23.06.2019
5963 Clear 24 1021 36 10000 4.6 100 19:44 23.06.2019
5964 Clear 25 1021 34 10000 5.7 90 19:21 23.06.2019
5965 Clear 25 1021 38 10000 5.7 90 18:54 23.06.2019
5966 Clear 25 1021 38 10000 5.7 90 18:54 23.06.2019
5967 Clear 26 1021 36 10000 5.7 80 18:24 23.06.2019
5968 Clear 26 1021 39 10000 5.1 90 17:50 23.06.2019
5969 Clear 26 1021 34 10000 5.1 80 17:26 23.06.2019
5970 Clear 26 1021 34 10000 4.1 0 16:55 23.06.2019
5971 Clear 26 1021 34 10000 4.1 0 16:37 23.06.2019
5972 Clear 26 1021 36 10000 5.1 80 16:18 23.06.2019
5973 Clear 26 1021 38 10000 4.6 70 15:40 23.06.2019
5974 Clear 26 1021 38 10000 6.7 80 15:21 23.06.2019
5975 Clear 26 1021 38 10000 5.7 90 14:41 23.06.2019
5976 Clear 25 1021 38 10000 6.7 100 14:22 23.06.2019
5977 Clear 25 1022 38 10000 7.7 90 13:58 23.06.2019
5978 Clear 25 1022 38 10000 7.7 90 13:40 23.06.2019
5979 Clouds 25 1022 38 10000 7.7 90 13:19 23.06.2019
5980 Clear 25 1021 41 10000 7.7 90 12:44 23.06.2019
5981 Clear 25 1021 44 10000 7.2 90 12:22 23.06.2019
5982 Clear 24 1021 44 10000 7.2 70 11:55 23.06.2019
5983 Clear 24 1021 44 10000 7.2 70 11:37 23.06.2019
5984 Clouds 24 1021 44 10000 6.7 50 11:19 23.06.2019
5985 Clear 23 1021 46 10000 5.1 70 10:43 23.06.2019
5986 Clear 22 1021 49 10000 5.7 50 10:18 23.06.2019
5987 Clear 21 1021 52 10000 4.6 80 09:42 23.06.2019
5988 Clear 20 1021 56 10000 4.6 50 09:21 23.06.2019
5989 Clear 19 1021 59 10000 4.1 60 08:45 23.06.2019
5990 Clear 19 1021 59 10000 4.1 60 08:27 23.06.2019
5991 Clear 17 1021 67 10000 3.1 50 07:54 23.06.2019
5992 Clear 16 1021 72 10000 2.1 20 07:21 23.06.2019
5993 Clear 16 1021 72 10000 2.1 20 06:54 23.06.2019
5994 Clear 14 1020 76 10000 2.1 10 05:55 23.06.2019
5995 Clear 14 1020 72 10000 1.5 340 04:38 23.06.2019
5996 Clear 16 1020 52 10000 4.6 80 01:57 23.06.2019
5997 Clear 16 1020 52 10000 4.6 80 01:36 23.06.2019
5998 Clear 17 1020 52 10000 3.1 70 00:36 23.06.2019
5999 Clear 17 1020 52 10000 3.1 60 23:57 22.06.2019
6000 Clear 17 1020 52 10000 3.1 60 23:38 22.06.2019
6001 Clear 18 1019 49 10000 2.6 70 23:19 22.06.2019
6002 Clear 18 1019 52 10000 2.6 60 22:44 22.06.2019
6003 Clear 19 1019 46 10000 2.6 50 22:19 22.06.2019
6004 Clear 20 1019 43 10000 2.6 80 21:39 22.06.2019
6005 Clear 21 1019 43 10000 3.6 80 21:20 22.06.2019
6006 Clear 22 1019 43 10000 3.1 90 20:51 22.06.2019
6007 Clear 22 1018 41 10000 4.6 80 20:25 22.06.2019
6008 Clear 23 1019 41 10000 4.6 90 19:50 22.06.2019
6009 Clear 23 1019 38 10000 6.2 90 19:28 22.06.2019
6010 Clear 23 1019 38 10000 6.2 90 18:59 22.06.2019
6011 Clear 24 1019 38 10000 6.2 90 18:40 22.06.2019
6012 Clear 24 1019 38 10000 6.2 90 18:19 22.06.2019
6013 Clear 24 1019 38 10000 6.7 70 17:38 22.06.2019
6014 Clear 24 1019 38 10000 6.7 70 17:38 22.06.2019
6015 Clear 24 1019 34 10000 5.7 90 17:19 22.06.2019
6016 Clear 25 1019 32 10000 7.2 90 16:39 22.06.2019
6017 Clear 25 1020 34 10000 6.2 80 16:21 22.06.2019
6018 Clear 25 1019 34 10000 6.7 80 15:42 22.06.2019
6019 Clear 25 1020 31 10000 7.2 120 15:24 22.06.2019
6020 Clear 25 1020 34 10000 6.7 80 14:50 22.06.2019
6021 Clear 25 1020 41 10000 6.7 90 14:29 22.06.2019
6022 Clear 25 1021 36 10000 6.7 110 13:55 22.06.2019
6023 Clear 25 1021 36 10000 6.7 110 13:36 22.06.2019
6024 Clouds 25 1021 39 10000 6.7 100 13:18 22.06.2019
6025 Clouds 25 1021 47 10000 5.7 80 12:41 22.06.2019
6026 Clouds 24 1021 53 10000 6.7 90 11:59 22.06.2019
6027 Clouds 24 1021 53 10000 6.7 90 11:40 22.06.2019
6028 Clouds 23 1021 53 10000 6.2 80 10:58 22.06.2019
6029 Clouds 23 1021 49 10000 5.7 90 10:22 22.06.2019
6030 Clear 22 1021 64 10000 3.6 80 09:56 22.06.2019
6031 Clear 21 1021 68 10000 2.6 100 09:29 22.06.2019
6032 Clear 19 1021 72 10000 1.5 90 08:46 22.06.2019
6033 Clear 18 1021 72 10000 1 0 08:28 22.06.2019
6034 Clear 16 1021 77 10000 0.5 0 07:44 22.06.2019
6035 Clear 15 1021 82 10000 0.5 0 07:18 22.06.2019
6036 Clear 15 1021 87 10000 1 0 06:35 22.06.2019
6037 Clear 14 1020 82 10000 1.5 300 03:42 22.06.2019
6038 Clear 14 1020 77 10000 2.1 20 02:21 22.06.2019
6039 Clear 16 1020 68 10000 2.1 40 00:52 22.06.2019
6040 Clear 16 1020 63 10000 1 40 00:29 22.06.2019
6041 Clear 17 1020 63 10000 1 70 23:49 21.06.2019
6042 Clear 17 1019 63 10000 1.5 60 23:23 21.06.2019
6043 Rain 17 1019 78 0 1.47 310.656 22:56 21.06.2019
6044 Clear 18 1019 60 10000 2.1 340 22:32 21.06.2019
6045 Clear 19 1018 60 10000 1.5 350 21:58 21.06.2019
6046 Clear 19 1018 60 10000 1.5 350 21:38 21.06.2019
6047 Clear 20 1018 56 10000 1.5 350 21:19 21.06.2019
6048 Clear 21 1018 53 10000 2.1 340 20:47 21.06.2019
6049 Clear 22 1018 49 10000 2.1 320 20:25 21.06.2019
6050 Clouds 23 1018 46 10000 3.1 340 19:46 21.06.2019
6051 Clouds 23 1017 46 10000 3.6 350 19:21 21.06.2019
6052 Clouds 23 1017 46 10000 3.1 330 18:40 21.06.2019
6053 Clouds 24 1017 49 10000 3.1 310 18:22 21.06.2019
6054 Clouds 24 1017 47 10000 3.6 310 17:31 21.06.2019
6055 Clouds 24 1017 53 10000 3.1 310 16:56 21.06.2019
6056 Clouds 23 1017 53 10000 3.1 310 16:36 21.06.2019
6057 Clouds 24 1017 56 10000 3.6 310 16:18 21.06.2019
6058 Clouds 23 1018 60 10000 3.6 320 15:37 21.06.2019
6059 Clouds 23 1018 56 10000 4.1 310 14:57 21.06.2019
6060 Clouds 23 1018 56 10000 4.1 310 14:38 21.06.2019
6061 Clouds 23 1018 53 10000 3.6 300 14:20 21.06.2019
6062 Clouds 23 1018 60 10000 5.1 300 13:39 21.06.2019
6063 Clouds 23 1018 60 10000 3.6 270 13:21 21.06.2019
6064 Clouds 23 1018 60 10000 3.1 270 12:50 21.06.2019
6065 Clouds 22 1018 56 10000 3.1 280 12:23 21.06.2019
6066 Clouds 21 1018 68 10000 4.1 250 11:55 21.06.2019
6067 Clouds 21 1018 68 10000 4.1 250 11:37 21.06.2019
6068 Clouds 21 1018 72 10000 4.1 290 11:19 21.06.2019
6069 Clouds 21 1017 72 10000 3.1 270 10:42 21.06.2019
6070 Clouds 20 1017 77 10000 4.1 300 10:20 21.06.2019
6071 Clouds 20 1017 77 10000 4.1 300 10:20 21.06.2019
6072 Clouds 19 1017 77 10000 2.6 310 09:43 21.06.2019
6073 Clouds 19 1017 77 10000 3.6 310 09:23 21.06.2019
6074 Clouds 19 1017 82 10000 3.1 270 08:56 21.06.2019
6075 Clouds 18 1017 82 10000 3.1 270 08:37 21.06.2019
6076 Clouds 18 1016 82 10000 3.1 290 08:19 21.06.2019
6077 Clouds 17 1016 82 10000 2.1 270 07:44 21.06.2019
6078 Clouds 17 1016 88 10000 2.6 270 07:19 21.06.2019
6079 Clear 16 1015 93 10000 2.6 250 06:29 21.06.2019
6080 Clear 15 1015 93 10000 3.1 260 05:48 21.06.2019
6081 Clear 15 1015 100 10000 2.6 220 04:49 21.06.2019
6082 Clouds 16 1014 100 10000 1.5 190 03:48 21.06.2019
6083 Clear 16 1015 93 10000 1 0 03:28 21.06.2019
6084 Clouds 16 1015 88 10000 1 0 02:34 21.06.2019
6085 Clear 17 1014 88 10000 2.1 140 01:32 21.06.2019
6086 Rain 17 1014 88 10000 1.5 330 00:46 21.06.2019
6087 Rain 18 1014 93 10000 2.6 210 23:59 20.06.2019
6088 Rain 18 1014 93 10000 2.6 210 23:40 20.06.2019
6089 Rain 19 1013 82 8000 5.7 170 23:20 20.06.2019
6090 Rain 19 1013 64 10000 2.1 20 22:44 20.06.2019
6091 Clouds 20 1013 68 10000 1.5 40 22:23 20.06.2019
6092 Clouds 20 1012 64 10000 2.1 60 21:57 20.06.2019
6093 Clouds 21 1012 64 10000 2.1 60 21:38 20.06.2019
6094 Clouds 22 1012 60 10000 2.6 40 21:19 20.06.2019
6095 Clouds 23 1012 64 10000 3.6 10 20:46 20.06.2019
6096 Clouds 24 1012 57 10000 3.1 20 20:25 20.06.2019
6097 Clear 24 1011 50 10000 1.5 240 19:55 20.06.2019
6098 Clear 25 1011 50 10000 1.5 240 19:36 20.06.2019
6099 Clear 25 1011 50 10000 2.1 240 19:18 20.06.2019
6100 Clouds 25 1011 47 10000 2.6 210 18:42 20.06.2019
6101 Clouds 26 1011 47 10000 3.1 190 18:23 20.06.2019
6102 Clear 26 1011 47 10000 2.1 190 17:49 20.06.2019
6103 Clouds 26 1011 53 10000 2.6 200 17:31 20.06.2019
6104 Rain 24 1012 50 10000 2.6 170 16:48 20.06.2019
6105 Rain 24 1012 53 10000 0.5 0 16:20 20.06.2019
6106 Rain 24 1012 53 10000 1 0 15:58 20.06.2019
6107 Thunderstorm 25 1012 53 10000 1 0 15:40 20.06.2019
6108 Rain 25 1012 60 10000 2.6 260 15:22 20.06.2019
6109 Clouds 26 1012 53 10000 2.6 270 14:46 20.06.2019
6110 Clouds 27 1012 50 10000 3.6 280 14:23 20.06.2019
6111 Clouds 26 1012 47 10000 3.1 280 13:41 20.06.2019
6112 Clear 26 1012 57 10000 3.1 260 13:20 20.06.2019
6113 Clear 25 1012 57 10000 4.1 230 12:49 20.06.2019
6114 Clouds 24 977 68 0 0.89 340 12:24 20.06.2019
6115 Clouds 24 976 75 0 0.89 201 11:55 20.06.2019
6116 Clouds 23 976 76 0 4.14 269.862 11:37 20.06.2019
6117 Clouds 23 1012 68 10000 1.5 0 11:18 20.06.2019
6118 Clouds 21 1012 77 10000 2.6 290 10:41 20.06.2019
6119 Clouds 22 1012 77 10000 2.6 290 10:21 20.06.2019
6120 Clouds 22 1011 72 10000 2.1 260 09:40 20.06.2019
6121 Clouds 20 1012 77 10000 2.1 240 09:22 20.06.2019
6122 Clouds 20 1011 72 10000 5.1 290 08:47 20.06.2019
6123 Clouds 20 1011 68 10000 6.7 240 08:27 20.06.2019
6124 Rain 20 1011 68 10000 5.1 220 07:54 20.06.2019
6125 Clouds 19 1010 72 10000 2.1 270 07:30 20.06.2019
6126 Clouds 18 1009 77 10000 2.6 150 06:43 20.06.2019
6127 Clear 17 1009 77 10000 2.1 180 06:18 20.06.2019
6128 Clear 17 1009 63 10000 2.1 170 03:37 20.06.2019
6129 Clear 20 1009 49 10000 3.1 160 00:43 20.06.2019
6130 Clear 21 1009 49 10000 3.6 160 00:24 20.06.2019
6131 Clear 21 1009 53 10000 4.1 160 23:42 19.06.2019
6132 Clear 21 1009 56 10000 5.1 170 23:24 19.06.2019
6133 Clear 21 1009 53 10000 5.1 170 22:48 19.06.2019
6134 Clear 21 1009 47 10000 4.6 160 22:24 19.06.2019
6135 Clear 22 1009 50 10000 4.1 150 21:55 19.06.2019
6136 Clear 23 1009 50 10000 4.1 150 21:37 19.06.2019
6137 Clear 23 1009 50 10000 4.1 150 21:37 19.06.2019
6138 Clear 24 1009 50 10000 4.1 170 21:18 19.06.2019
6139 Clear 26 1009 47 10000 4.1 160 20:39 19.06.2019
6140 Clear 26 1009 44 10000 3.6 160 20:20 19.06.2019
6141 Clear 27 1009 47 10000 3.6 160 19:43 19.06.2019
6142 Clear 27 1009 44 10000 4.1 170 19:24 19.06.2019
6143 Clear 28 1009 42 10000 3.6 170 18:55 19.06.2019
6144 Clouds 28 1009 37 10000 4.6 170 18:23 19.06.2019
6145 Clouds 29 1009 37 10000 5.1 200 17:43 19.06.2019
6146 Clouds 28 1009 37 10000 5.1 220 17:24 19.06.2019
6147 Clouds 28 1009 37 10000 5.1 220 17:24 19.06.2019
6148 Clouds 28 1010 35 10000 4.1 220 16:56 19.06.2019
6149 Clouds 28 1010 35 10000 4.1 220 16:36 19.06.2019
6150 Clouds 28 1010 35 10000 3.6 220 16:18 19.06.2019
6151 Clear 29 1010 32 10000 2.6 240 15:42 19.06.2019
6152 Clouds 29 1010 37 10000 2.6 230 15:20 19.06.2019
6153 Clouds 29 1010 48 10000 2.6 200 14:42 19.06.2019
6154 Clouds 29 1010 32 10000 4.6 160 14:23 19.06.2019
6155 Clouds 29 1010 30 10000 4.6 190 13:44 19.06.2019
6156 Clouds 29 1010 33 10000 4.1 200 13:25 19.06.2019
6157 Clear 29 1011 30 10000 4.1 190 12:48 19.06.2019
6158 Clear 29 1011 32 10000 3.6 150 12:22 19.06.2019
6159 Clear 29 1011 39 10000 2.6 140 11:58 19.06.2019
6160 Clear 28 1011 39 10000 2.6 140 11:39 19.06.2019
6161 Clouds 28 1011 45 10000 3.6 150 11:20 19.06.2019
6162 Clouds 28 1011 47 10000 3.1 130 10:47 19.06.2019
6163 Clouds 27 1011 47 10000 3.6 150 10:28 19.06.2019
6164 Clouds 26 1012 54 10000 4.1 160 09:56 19.06.2019
6165 Clouds 26 1012 54 10000 4.1 160 09:37 19.06.2019
6166 Clouds 25 1012 53 10000 3.1 130 09:18 19.06.2019
6167 Clouds 23 1012 64 10000 3.1 150 08:43 19.06.2019
6168 Clouds 22 1012 64 10000 2.1 140 08:25 19.06.2019
6169 Clouds 20 1012 68 10000 2.6 150 07:43 19.06.2019
6170 Clouds 20 1012 64 10000 3.6 150 07:23 19.06.2019
6171 Clear 19 1012 68 10000 3.6 150 06:42 19.06.2019
6172 Clear 18 1012 68 10000 4.1 150 06:19 19.06.2019
6173 Clear 17 1012 72 10000 4.1 150 05:41 19.06.2019
6174 Clear 16 1013 68 10000 3.6 150 03:58 19.06.2019
6175 Clear 17 1013 64 10000 3.1 150 02:52 19.06.2019
6176 Clear 17 1013 64 10000 3.1 160 01:47 19.06.2019
6177 Clear 17 1014 68 10000 3.1 150 00:56 19.06.2019
6178 Clear 18 1014 68 10000 3.1 150 00:38 19.06.2019
6179 Clear 18 1014 68 10000 2.6 150 00:19 19.06.2019
6180 Clear 18 1014 68 10000 2.6 140 23:46 18.06.2019
6181 Clear 19 1014 64 10000 2.6 130 23:25 18.06.2019
6182 Clear 20 1014 60 10000 2.6 130 22:43 18.06.2019
6183 Clear 20 1014 56 10000 2.6 120 22:24 18.06.2019
6184 Clear 20 979 68 0 0.89 114 21:56 18.06.2019
6185 Clear 21 1014 56 10000 2.6 110 21:37 18.06.2019
6186 Clear 22 1014 50 10000 3.1 100 21:19 18.06.2019
6187 Clear 24 1014 47 10000 4.1 100 20:42 18.06.2019
6188 Clear 25 1014 41 10000 4.1 100 20:24 18.06.2019
6189 Clear 26 1014 41 10000 3.6 100 19:41 18.06.2019
6190 Clear 26 1014 41 10000 4.1 90 19:23 18.06.2019
6191 Clear 27 1015 32 10000 3.6 110 18:56 18.06.2019
6192 Clear 27 1015 32 10000 3.6 110 18:28 18.06.2019
6193 Clear 27 1015 30 10000 5.1 90 17:59 18.06.2019
6194 Clear 28 1015 30 10000 5.1 90 17:38 18.06.2019
6195 Clear 28 1015 30 10000 2.1 120 17:19 18.06.2019
6196 Clear 28 1015 28 10000 3.1 0 16:43 18.06.2019
6197 Clear 28 1016 30 10000 2.6 0 16:24 18.06.2019
6198 Clear 27 1016 30 10000 4.1 180 15:43 18.06.2019
6199 Clear 27 1016 30 10000 2.1 0 15:24 18.06.2019
6200 Clear 28 1016 28 10000 3.6 170 14:58 18.06.2019
6201 Clear 27 1016 28 10000 3.6 170 14:40 18.06.2019
6202 Clear 27 1017 30 10000 4.1 150 14:20 18.06.2019
6203 Clear 27 1017 32 10000 4.1 140 13:52 18.06.2019
6204 Clear 27 1017 31 10000 5.1 140 13:31 18.06.2019
6205 Clear 26 1018 34 10000 5.1 110 12:48 18.06.2019
6206 Clear 27 1018 36 10000 4.1 150 12:30 18.06.2019
6207 Clear 26 1018 38 10000 3.6 130 11:59 18.06.2019
6208 Clear 26 1018 38 10000 3.6 130 11:40 18.06.2019
6209 Clear 25 1018 36 10000 4.1 120 11:20 18.06.2019
6210 Clear 25 1018 38 10000 4.1 140 10:56 18.06.2019
6211 Clear 25 1018 38 10000 4.1 140 10:36 18.06.2019
6212 Clear 24 1019 41 10000 3.6 140 10:18 18.06.2019
6213 Clear 23 1019 43 10000 3.1 140 09:37 18.06.2019
6214 Clouds 22 1019 49 10000 3.6 130 09:18 18.06.2019
6215 Clouds 21 1019 46 10000 3.1 130 08:43 18.06.2019
6216 Clouds 20 1019 56 10000 3.1 140 08:21 18.06.2019
6217 Clear 18 1019 59 10000 2.1 140 07:40 18.06.2019
6218 Clear 18 1019 63 10000 1.5 90 07:19 18.06.2019
6219 Clear 14 1019 72 10000 0.5 120 05:39 18.06.2019
6220 Clear 14 1019 72 10000 1.5 150 04:24 18.06.2019
6221 Clear 15 1019 63 10000 2.1 160 02:52 18.06.2019
6222 Clear 15 1020 67 10000 1 0 01:54 18.06.2019
6223 Clear 16 1020 68 10000 0.5 0 01:24 18.06.2019
6224 Clear 16 1020 63 10000 2.6 100 00:54 18.06.2019
6225 Clear 16 1020 63 10000 2.6 90 00:26 18.06.2019
6226 Clear 17 1020 60 10000 2.6 100 23:41 17.06.2019
6227 Clear 18 1020 56 10000 2.1 100 23:20 17.06.2019
6228 Clear 18 1020 52 10000 1.5 120 22:56 17.06.2019
6229 Clear 18 1020 52 10000 1.5 120 22:37 17.06.2019
6230 Clear 18 984 71 0 2.4 140.403 22:18 17.06.2019
6231 Clear 20 1019 46 10000 2.1 100 21:42 17.06.2019
6232 Clear 22 1019 43 10000 2.1 100 21:21 17.06.2019
6233 Clear 23 1019 41 10000 2.6 100 20:37 17.06.2019
6234 Clear 23 1019 41 10000 2.6 100 20:37 17.06.2019
6235 Clear 24 1019 38 10000 3.6 90 20:19 17.06.2019
6236 Clear 24 1020 33 10000 4.1 110 19:43 17.06.2019
6237 Clear 24 1020 31 10000 4.1 110 19:24 17.06.2019
6238 Clear 25 1020 31 10000 3.6 90 18:58 17.06.2019
6239 Clear 25 1020 31 10000 3.6 90 18:38 17.06.2019
6240 Clear 25 1020 31 10000 3.1 90 18:18 17.06.2019
6241 Clear 25 1020 31 10000 3.1 90 18:18 17.06.2019
6242 Clear 26 1021 31 10000 4.1 110 17:47 17.06.2019
6243 Clear 26 1021 31 10000 4.1 110 17:29 17.06.2019
6244 Clear 26 1021 31 10000 3.1 0 16:55 17.06.2019
6245 Clear 26 1021 31 10000 2.6 130 16:37 17.06.2019
6246 Clear 26 1021 31 10000 2.6 130 16:19 17.06.2019
6247 Clear 26 1021 36 10000 3.6 50 15:43 17.06.2019
6248 Clear 25 1021 36 10000 3.6 50 15:20 17.06.2019
6249 Clear 25 1021 36 10000 3.6 50 15:20 17.06.2019
6250 Clear 25 1022 36 10000 3.6 100 14:55 17.06.2019
6251 Clear 25 1022 36 10000 2.1 0 14:36 17.06.2019
6252 Clear 25 1022 36 10000 2.1 0 14:36 17.06.2019
6253 Clear 25 1022 41 10000 2.6 90 14:18 17.06.2019
6254 Clear 25 1022 41 10000 4.1 50 13:40 17.06.2019
6255 Clear 25 1022 40 10000 3.6 70 13:20 17.06.2019
6256 Clear 24 1022 46 10000 2.1 150 12:40 17.06.2019
6257 Clear 23 1022 46 10000 2.1 0 12:19 17.06.2019
6258 Clear 23 1022 46 10000 2.1 0 12:19 17.06.2019
6259 Clouds 23 1022 46 10000 2.6 80 11:43 17.06.2019
6260 Clouds 23 1022 46 10000 2.6 80 11:25 17.06.2019
6261 Clouds 22 1023 49 10000 2.1 130 10:48 17.06.2019
6262 Clouds 22 1023 49 10000 2.1 130 10:29 17.06.2019
6263 Clear 22 1023 56 10000 1.5 0 09:56 17.06.2019
6264 Clear 21 986 63 0 2.46 72.493 09:35 17.06.2019
6265 Clear 19 1023 59 10000 1 0 08:58 17.06.2019
6266 Clear 19 1023 68 10000 1 0 08:38 17.06.2019
6267 Clear 18 1023 77 10000 0.5 0 08:20 17.06.2019
6268 Clear 16 1023 82 10000 0.5 0 07:40 17.06.2019
6269 Clear 15 1023 82 10000 1 120 07:20 17.06.2019
6270 Clear 13 1023 87 10000 1.5 140 06:29 17.06.2019
6271 Clear 12 1023 87 10000 2.6 200 05:31 17.06.2019
6272 Clear 13 1022 82 10000 1.5 150 04:33 17.06.2019
6273 Clear 14 1022 82 10000 0.71 187.563 03:33 17.06.2019
6274 Clear 14 1022 72 10000 1 140 02:50 17.06.2019
6275 Clear 14 1022 72 10000 1 140 02:32 17.06.2019
6276 Clear 14 1022 72 10000 1 140 02:32 17.06.2019
6277 Clear 14 1022 72 10000 1 190 01:39 17.06.2019
6278 Clear 15 1022 72 10000 1.5 170 00:59 17.06.2019
6279 Clear 15 1022 72 10000 1 320 00:41 17.06.2019
6280 Clear 16 1022 72 10000 1 320 00:21 17.06.2019
6281 Clear 16 1022 72 10000 1.5 300 23:40 16.06.2019
6282 Clear 16 1022 67 10000 1 320 23:21 16.06.2019
6283 Clear 16 1022 67 10000 1 320 22:55 16.06.2019
6284 Clear 16 1022 67 10000 1.5 320 22:36 16.06.2019
6285 Clear 17 1022 67 10000 1.5 320 22:18 16.06.2019
6286 Clear 18 1022 55 10000 1 0 21:41 16.06.2019
6287 Clear 18 1022 55 10000 1 0 21:22 16.06.2019
6288 Clear 19 1021 55 10000 1 0 20:59 16.06.2019
6289 Clear 19 1021 59 10000 2.1 350 20:37 16.06.2019
6290 Clear 19 1021 59 10000 2.1 350 20:18 16.06.2019
6291 Clear 19 1021 59 10000 2.1 350 20:18 16.06.2019
6292 Clear 21 1021 56 10000 3.1 310 19:42 16.06.2019
6293 Clear 21 1021 56 10000 3.1 310 19:22 16.06.2019
6294 Clear 21 1021 56 10000 3.1 310 18:59 16.06.2019
6295 Clouds 21 1021 56 10000 3.1 300 18:40 16.06.2019
6296 Clouds 21 1021 56 10000 3.1 300 18:20 16.06.2019
6297 Clouds 21 1021 52 10000 3.6 340 17:48 16.06.2019
6298 Clouds 22 1021 52 10000 3.6 340 17:24 16.06.2019
6299 Clouds 22 1021 56 10000 4.1 320 16:57 16.06.2019
6300 Clouds 22 1021 56 10000 5.1 310 16:39 16.06.2019
6301 Clouds 22 1021 49 10000 4.1 340 16:21 16.06.2019
6302 Clouds 22 1020 46 10000 3.6 310 15:45 16.06.2019
6303 Clouds 21 1020 46 10000 3.6 310 15:26 16.06.2019
6304 Clear 21 1021 52 10000 3.6 300 14:56 16.06.2019
6305 Clouds 20 1021 56 10000 3.6 320 14:36 16.06.2019
6306 Clouds 20 1021 68 10000 1.5 320 14:18 16.06.2019
6307 Clouds 20 1021 68 10000 3.1 320 13:44 16.06.2019
6308 Clouds 19 1021 68 10000 3.1 320 13:24 16.06.2019
6309 Rain 19 1020 82 0 2.1 320 12:43 16.06.2019
6310 Rain 18 1020 82 0 2.1 320 12:22 16.06.2019
6311 Rain 18 1020 77 10000 2.1 260 11:56 16.06.2019
6312 Rain 17 1021 82 10000 2.6 260 11:37 16.06.2019
6313 Rain 17 1021 82 10000 2.6 260 11:18 16.06.2019
6314 Rain 17 1020 87 10000 3.6 260 10:44 16.06.2019
6315 Rain 16 1020 87 10000 3.6 260 10:19 16.06.2019
6316 Clear 17 1020 82 10000 3.1 290 09:42 16.06.2019
6317 Clear 17 1020 82 10000 3.1 290 09:23 16.06.2019
6318 Clear 17 1018 82 10000 3.6 300 08:46 16.06.2019
6319 Clear 17 1018 82 10000 3.6 300 08:20 16.06.2019
6320 Clear 17 1018 77 10000 3.1 310 07:45 16.06.2019
6321 Clear 17 1018 77 10000 3.1 310 07:27 16.06.2019
6322 Clear 17 1018 77 10000 1.5 270 06:53 16.06.2019
6323 Clear 16 1017 77 10000 2.1 320 05:56 16.06.2019
6324 Clear 16 1017 77 10000 2.1 300 05:22 16.06.2019
6325 Clear 16 1017 77 10000 2.6 320 04:21 16.06.2019
6326 Clear 17 1017 77 10000 2.6 320 03:42 16.06.2019
6327 Clear 18 1016 77 10000 2.6 320 03:22 16.06.2019
6328 Clouds 18 1016 72 10000 3.1 320 01:49 16.06.2019
6329 Clouds 18 1016 68 10000 4.6 320 01:30 16.06.2019
6330 Clouds 19 981 81 0 0.89 275 00:44 16.06.2019
6331 Clouds 20 1015 68 10000 4.1 310 00:25 16.06.2019
6332 Clear 20 1015 64 10000 3.6 320 23:58 15.06.2019
6333 Clear 20 1014 60 10000 3.1 280 23:39 15.06.2019
6334 Clear 20 1014 56 10000 2.6 270 23:20 15.06.2019
6335 Clear 21 1014 53 10000 2.6 270 22:44 15.06.2019
6336 Clear 21 1013 53 10000 3.1 280 22:25 15.06.2019
6337 Clear 22 1013 50 10000 4.6 290 21:45 15.06.2019
6338 Clear 23 1013 50 10000 4.6 290 21:21 15.06.2019
6339 Clear 24 1013 44 10000 4.1 290 20:46 15.06.2019
6340 Clear 24 1013 44 10000 4.1 290 20:23 15.06.2019
6341 Clear 25 1013 41 10000 5.7 290 19:53 15.06.2019
6342 Clear 25 1012 44 10000 5.1 300 19:29 15.06.2019
6343 Clear 25 1012 47 10000 7.2 310 18:59 15.06.2019
6344 Clouds 25 1012 47 10000 6.2 300 18:37 15.06.2019
6345 Clouds 26 1012 48 10000 6.2 310 18:18 15.06.2019
6346 Clouds 27 1011 42 10000 5.1 270 17:41 15.06.2019
6347 Clouds 27 1011 42 10000 5.1 270 17:21 15.06.2019
6348 Thunderstorm 27 1011 35 10000 4.6 270 16:44 15.06.2019
6349 Thunderstorm 27 1011 35 10000 4.6 270 16:18 15.06.2019
6350 Thunderstorm 29 1011 33 10000 6.2 270 15:42 15.06.2019
6351 Thunderstorm 30 1011 33 10000 6.2 270 15:22 15.06.2019
6352 Clear 30 1011 35 10000 4.1 260 14:39 15.06.2019
6353 Clear 31 1011 35 10000 4.1 260 14:18 15.06.2019
6354 Clear 31 1011 35 10000 4.1 250 13:55 15.06.2019
6355 Clear 31 1010 38 10000 4.6 270 13:36 15.06.2019
6356 Clear 31 1010 37 10000 4.1 240 13:18 15.06.2019
6357 Clear 31 1010 35 10000 5.1 240 12:42 15.06.2019
6358 Clear 30 1010 45 10000 4.6 210 12:23 15.06.2019
6359 Clear 30 1010 51 10000 3.6 200 11:48 15.06.2019
6360 Clear 29 1010 51 10000 3.6 200 11:29 15.06.2019
6361 Clouds 29 1009 59 0 4.62 250.313 10:46 15.06.2019
6362 Clear 28 1010 57 10000 3.6 160 10:25 15.06.2019
6363 Clear 27 1009 61 10000 4.6 160 09:48 15.06.2019
6364 Clear 27 1009 61 10000 4.6 160 09:48 15.06.2019
6365 Clear 26 1010 61 10000 5.7 150 09:27 15.06.2019
6366 Clear 26 1009 61 10000 5.1 150 08:56 15.06.2019
6367 Clear 25 1009 65 10000 5.1 140 08:38 15.06.2019
6368 Clear 25 1009 65 10000 5.1 140 08:18 15.06.2019
6369 Clear 25 1009 65 10000 5.1 140 08:18 15.06.2019
6370 Clear 23 1009 69 10000 4.6 130 07:26 15.06.2019
6371 Clear 23 1009 69 10000 4.6 130 07:26 15.06.2019
6372 Clear 23 1009 69 10000 4.6 130 07:26 15.06.2019
6373 Clear 22 1010 78 10000 4.6 90 06:48 15.06.2019
6374 Clear 22 1010 78 10000 4.6 90 06:28 15.06.2019
6375 Clear 21 1010 73 10000 3.1 80 05:39 15.06.2019
6376 Clear 21 1011 73 10000 4.1 70 04:56 15.06.2019
6377 Clear 21 1011 73 10000 5.1 90 04:26 15.06.2019
6378 Clear 21 1012 69 10000 5.1 90 03:23 15.06.2019
6379 Clear 21 1013 69 10000 3.6 90 02:37 15.06.2019
6380 Clear 20 1013 68 10000 4.1 80 01:57 15.06.2019
6381 Clouds 20 1014 68 10000 3.1 80 01:24 15.06.2019
6382 Clear 20 1015 68 10000 1.5 60 00:42 15.06.2019
6383 Clear 20 1015 68 10000 1.5 60 00:24 15.06.2019
6384 Clear 21 1015 64 10000 3.1 50 23:50 14.06.2019
6385 Clear 21 1015 64 10000 3.1 50 23:20 14.06.2019
6386 Clear 21 1015 60 10000 3.6 60 22:42 14.06.2019
6387 Clear 22 1015 60 10000 3.6 60 22:21 14.06.2019
6388 Clouds 22 980 76 0 3.59 101.272 21:49 14.06.2019
6389 Clear 23 1015 57 10000 4.1 100 21:29 14.06.2019
6390 Clear 24 1015 61 10000 5.1 80 20:58 14.06.2019
6391 Clear 24 1016 57 10000 3.6 80 20:39 14.06.2019
6392 Clear 25 1016 54 10000 3.6 70 20:18 14.06.2019
6393 Clear 26 1016 51 10000 4.6 80 19:42 14.06.2019
6394 Clear 26 1016 45 10000 3.6 70 19:22 14.06.2019
6395 Clear 27 1016 45 10000 3.6 70 18:55 14.06.2019
6396 Clear 27 1016 32 10000 4.6 70 18:37 14.06.2019
6397 Clear 28 1017 28 10000 2.6 100 18:19 14.06.2019
6398 Clear 28 1017 26 10000 3.1 170 17:46 14.06.2019
6399 Clear 28 1017 26 10000 3.1 170 17:25 14.06.2019
6400 Clear 29 1017 27 10000 3.1 160 16:54 14.06.2019
6401 Clear 29 1017 25 10000 2.6 0 16:29 14.06.2019
6402 Clear 29 1018 26 10000 4.6 110 15:59 14.06.2019
6403 Clear 29 1018 28 10000 4.1 130 15:39 14.06.2019
6404 Clear 29 1018 28 10000 4.1 130 15:20 14.06.2019
6405 Clear 29 1018 30 10000 3.1 0 14:52 14.06.2019
6406 Clear 29 1018 32 10000 4.6 120 14:32 14.06.2019
6407 Clear 29 1018 32 10000 4.6 120 14:32 14.06.2019
6408 Clear 28 1018 28 10000 4.1 150 13:54 14.06.2019
6409 Clear 28 1019 26 10000 3.6 140 13:36 14.06.2019
6410 Clear 28 1019 22 10000 4.1 140 13:18 14.06.2019
6411 Clear 28 1019 22 10000 4.1 140 13:18 14.06.2019
6412 Clear 28 1019 32 10000 3.6 160 12:41 14.06.2019
6413 Clear 27 1019 32 10000 3.6 160 12:22 14.06.2019
6414 Clear 27 1019 44 10000 3.1 150 11:46 14.06.2019
6415 Clear 26 1019 44 10000 3.1 150 11:24 14.06.2019
6416 Clouds 26 1019 50 10000 2.6 130 10:50 14.06.2019
6417 Clear 25 1019 57 10000 2.6 130 10:24 14.06.2019
6418 Clear 24 1019 60 10000 1.5 0 09:58 14.06.2019
6419 Clear 24 983 72 0 4.48 108.989 09:39 14.06.2019
6420 Clear 22 983 79 0 2.28 133.113 09:20 14.06.2019
6421 Clear 20 1019 82 10000 2.1 200 08:45 14.06.2019
6422 Clear 19 1019 82 10000 2.1 200 08:18 14.06.2019
6423 Clear 18 1019 88 10000 3.1 190 07:48 14.06.2019
6424 Clear 16 1019 93 10000 2.1 180 07:20 14.06.2019
6425 Clear 14 1019 93 10000 1.5 160 06:31 14.06.2019
6426 Fog 13 1018 93 10000 1 160 05:55 14.06.2019
6427 Clear 13 1018 87 10000 1 150 05:00 14.06.2019
6428 Clear 13 1018 93 10000 1.5 200 04:37 14.06.2019
6429 Clear 14 1018 93 10000 1.5 0 03:51 14.06.2019
6430 Clear 14 1017 93 10000 1 140 03:25 14.06.2019
6431 Clear 14 1017 93 10000 1 140 03:25 14.06.2019
6432 Clear 14 1017 87 10000 1 0 02:48 14.06.2019
6433 Clear 15 1017 87 10000 1 0 02:25 14.06.2019
6434 Clear 15 1016 87 0 2.31 167.964 00:51 14.06.2019
6435 Clear 16 1016 77 10000 2.1 140 00:23 14.06.2019
6436 Clear 16 1016 77 10000 1.5 150 23:57 13.06.2019
6437 Clear 16 980 84 0 0.45 119 23:39 13.06.2019
6438 Clear 16 980 85 0 1.78 147.023 23:39 13.06.2019
6439 Clear 17 1016 64 10000 1.5 150 23:20 13.06.2019
6440 Clear 17 981 80 0 1.78 147.023 22:39 13.06.2019
6441 Clear 17 980 78 0 1.78 147.023 22:21 13.06.2019
6442 Clear 19 1015 64 10000 2.1 140 21:40 13.06.2019
6443 Clear 20 1015 64 10000 2.1 140 21:20 13.06.2019
6444 Clear 21 1014 60 10000 2.6 100 20:57 13.06.2019
6445 Clear 21 1014 60 10000 2.6 100 20:57 13.06.2019
6446 Clear 21 1014 53 10000 2.1 110 20:38 13.06.2019
6447 Clear 22 1014 53 10000 2.1 110 20:19 13.06.2019
6448 Clouds 22 1014 53 10000 2.6 80 19:41 13.06.2019
6449 Clouds 23 1015 50 10000 3.1 110 19:22 13.06.2019
6450 Clouds 23 1015 50 10000 3.1 110 18:58 13.06.2019
6451 Clouds 23 1015 47 10000 1 0 18:40 13.06.2019
6452 Clouds 24 1015 50 10000 1.5 270 18:21 13.06.2019
6453 Clouds 24 1015 49 10000 1.5 0 17:43 13.06.2019
6454 Clouds 24 1015 49 10000 1.5 0 17:20 13.06.2019
6455 Clouds 24 1015 49 10000 1.5 0 16:53 13.06.2019
6456 Clouds 23 1015 49 10000 1.5 30 16:22 13.06.2019
6457 Clouds 24 1015 49 10000 1.5 0 15:59 13.06.2019
6458 Clouds 23 1015 53 10000 2.1 0 15:40 13.06.2019
6459 Clouds 23 1015 53 10000 2.1 0 15:19 13.06.2019
6460 Clouds 23 1015 49 10000 2.6 40 14:48 13.06.2019
6461 Clouds 22 1015 49 10000 2.6 40 14:29 13.06.2019
6462 Clouds 22 1016 56 10000 2.1 0 13:47 13.06.2019
6463 Clouds 22 1016 56 10000 2.1 0 13:22 13.06.2019
6464 Clouds 21 1016 56 10000 2.1 0 12:59 13.06.2019
6465 Clouds 21 1016 64 10000 2.1 0 12:39 13.06.2019
6466 Clouds 21 1016 64 10000 2.1 0 12:21 13.06.2019
6467 Clouds 19 1016 68 10000 1 0 11:44 13.06.2019
6468 Clouds 19 1016 68 10000 1 0 11:25 13.06.2019
6469 Clouds 19 1016 77 10000 3.1 310 10:49 13.06.2019
6470 Clouds 18 1016 82 10000 2.6 360 10:29 13.06.2019
6471 Clouds 17 1016 77 10000 2.1 290 09:53 13.06.2019
6472 Clouds 17 1016 82 10000 2.1 330 09:33 13.06.2019
6473 Rain 16 1016 82 10000 2.6 290 08:57 13.06.2019
6474 Rain 16 1016 82 10000 2.6 290 08:56 13.06.2019
6475 Rain 16 1016 82 10000 2.6 290 08:56 13.06.2019
6476 Clear 16 1015 82 10000 2.1 360 08:38 13.06.2019
6477 Clear 16 1016 87 10000 0.5 310 08:19 13.06.2019
6478 Clear 15 1016 87 10000 2.6 220 07:39 13.06.2019
6479 Clear 15 1016 87 10000 2.6 220 07:21 13.06.2019
6480 Clouds 15 1014 93 10000 1 0 06:40 13.06.2019
6481 Clouds 14 1014 93 10000 1 0 06:22 13.06.2019
6482 Clouds 14 1014 87 10000 2.1 300 05:52 13.06.2019
6483 Clouds 14 1014 87 10000 2.1 300 05:34 13.06.2019
6484 Clouds 14 1014 93 10000 2.6 260 03:50 13.06.2019
6485 Rain 15 1014 87 10000 1.5 220 02:22 13.06.2019
6486 Clouds 16 1013 93 10000 3.1 300 00:44 13.06.2019
6487 Rain 17 1012 93 10000 1 0 23:47 12.06.2019
6488 Rain 17 1012 93 10000 1 0 23:21 12.06.2019
6489 Clouds 17 1011 93 10000 1 0 22:42 12.06.2019
6490 Clouds 18 1011 93 10000 1 0 22:24 12.06.2019
6491 Thunderstorm 18 1011 82 10000 1.5 270 21:48 12.06.2019
6492 Thunderstorm 18 1011 82 10000 1.5 270 21:29 12.06.2019
6493 Rain 18 1011 88 10000 2.6 240 20:57 12.06.2019
6494 Clouds 19 1010 93 10000 2.6 300 20:37 12.06.2019
6495 Clouds 19 1010 93 10000 2.6 300 20:19 12.06.2019
6496 Thunderstorm 19 1010 88 8000 5.7 280 19:42 12.06.2019
6497 Thunderstorm 19 1010 88 8000 5.7 280 19:22 12.06.2019
6498 Rain 20 1009 93 6000 6.7 270 18:55 12.06.2019
6499 Rain 21 1008 77 10000 6.2 230 18:37 12.06.2019
6500 Rain 23 1008 60 10000 9.8 250 18:18 12.06.2019
6501 Rain 26 1005 42 10000 4.1 140 17:43 12.06.2019
6502 Clouds 26 1005 42 10000 4.1 140 17:20 12.06.2019
6503 Clouds 27 1005 35 10000 6.2 140 16:42 12.06.2019
6504 Clouds 31 1005 35 10000 6.2 140 16:23 12.06.2019
6505 Clear 31 1005 33 10000 5.7 150 15:52 12.06.2019
6506 Clear 31 1005 38 10000 5.7 150 15:32 12.06.2019
6507 Clear 32 1006 38 10000 6.2 160 14:46 12.06.2019
6508 Clear 32 1006 38 10000 6.2 160 14:27 12.06.2019
6509 Clear 31 1006 40 10000 5.7 140 13:44 12.06.2019
6510 Clear 31 1006 40 10000 5.7 140 13:21 12.06.2019
6511 Clear 30 1007 45 10000 5.7 120 12:59 12.06.2019
6512 Clear 30 1007 45 10000 5.1 130 12:39 12.06.2019
6513 Clear 30 1007 45 10000 5.1 130 12:39 12.06.2019
6514 Clear 29 1007 51 10000 4.6 150 12:19 12.06.2019
6515 Clear 29 1007 51 10000 4.6 150 12:19 12.06.2019
6516 Clear 29 1007 51 10000 4.6 150 12:19 12.06.2019
6517 Clear 28 1007 57 10000 4.6 130 11:47 12.06.2019
6518 Clear 28 1007 57 10000 4.6 130 11:28 12.06.2019
6519 Clear 27 1007 65 10000 5.1 140 10:52 12.06.2019
6520 Clear 26 1008 73 10000 3.6 130 10:34 12.06.2019
6521 Clouds 25 1008 78 10000 2.6 110 09:58 12.06.2019
6522 Clouds 24 1008 78 10000 1 0 09:40 12.06.2019
6523 Clouds 23 1008 82 10000 1.5 30 09:18 12.06.2019
6524 Clouds 22 1008 88 10000 1.5 50 08:26 12.06.2019
6525 Clouds 21 1009 93 10000 1 0 07:52 12.06.2019
6526 Clouds 20 1009 93 10000 0.5 0 06:55 12.06.2019
6527 Clouds 19 1009 100 10000 1 0 06:29 12.06.2019
6528 Clouds 19 1009 100 10000 1.5 230 05:25 12.06.2019
6529 Fog 21 1008 94 9000 1 0 02:20 12.06.2019
6530 Clear 21 1008 78 10000 2.1 90 00:46 12.06.2019
6531 Clear 23 1007 88 10000 2.6 200 23:54 11.06.2019
6532 Clear 23 1007 88 10000 2.6 200 23:35 11.06.2019
6533 Clear 23 1008 83 10000 2.6 90 22:57 11.06.2019
6534 Clouds 22 1008 88 10000 3.6 100 22:38 11.06.2019
6535 Thunderstorm 22 1008 88 10000 2.6 90 22:18 11.06.2019
6536 Thunderstorm 22 1008 88 10000 2.6 90 22:18 11.06.2019
6537 Thunderstorm 23 1009 83 10000 3.6 90 21:41 11.06.2019
6538 Thunderstorm 23 1009 83 10000 3.6 90 21:23 11.06.2019
6539 Rain 23 1009 83 10000 1.5 30 20:58 11.06.2019
6540 Rain 23 1009 83 10000 1.5 30 20:58 11.06.2019
6541 Rain 24 973 88 0 2.82 72.769 20:39 11.06.2019
6542 Rain 25 1008 57 10000 2.6 50 20:21 11.06.2019
6543 Clouds 26 1008 65 10000 4.1 40 19:51 11.06.2019
6544 Clouds 26 1008 65 10000 4.1 40 19:28 11.06.2019
6545 -273 0 0 0 0 0 19:28 11.06.2019
6546 Thunderstorm 27 1008 65 10000 3.1 350 18:49 11.06.2019
6547 Thunderstorm 27 1008 65 10000 3.1 350 18:49 11.06.2019
6548 Clouds 27 1009 65 10000 3.6 340 18:20 11.06.2019
6549 Clouds 27 1009 58 10000 2.1 20 17:41 11.06.2019
6550 Clouds 27 1009 58 10000 2.1 20 17:21 11.06.2019
6551 Clouds 28 1010 61 10000 2.6 320 16:46 11.06.2019
6552 Clear 27 1010 57 10000 1.5 0 16:24 11.06.2019
6553 Clear 27 1010 57 10000 1.5 0 15:59 11.06.2019
6554 Clouds 27 1010 61 10000 2.1 360 15:41 11.06.2019
6555 Clouds 27 1010 61 10000 2.1 360 15:19 11.06.2019
6556 Clouds 26 1010 69 10000 1.5 350 14:41 11.06.2019
6557 Clouds 26 1010 69 10000 1.5 350 14:20 11.06.2019
6558 Clouds 26 1011 64 10000 1.5 0 13:50 11.06.2019
6559 Clouds 25 1011 69 0 2.1 310 13:23 11.06.2019
6560 Clouds 24 1011 77 10000 2.1 0 12:43 11.06.2019
6561 Clouds 24 1011 77 10000 2.1 0 12:22 11.06.2019
6562 Clouds 23 1011 77 10000 3.6 260 11:58 11.06.2019
6563 Clouds 23 1011 82 10000 3.6 260 11:38 11.06.2019
6564 Clouds 22 1011 82 10000 2.1 260 11:19 11.06.2019
6565 Clouds 22 1011 88 10000 3.1 280 10:43 11.06.2019
6566 Clouds 21 1011 88 10000 3.1 280 10:24 11.06.2019
6567 Clear 21 1010 88 10000 3.1 310 09:46 11.06.2019
6568 Clear 20 1010 88 10000 3.1 310 09:23 11.06.2019
6569 Clear 19 1009 88 10000 1.5 330 08:44 11.06.2019
6570 Clear 19 1009 88 10000 1.5 330 08:24 11.06.2019
6571 Clear 17 1009 93 10000 1.5 120 07:37 11.06.2019
6572 Clear 17 1009 100 10000 1.5 160 06:56 11.06.2019
6573 Clear 16 1009 100 10000 1.5 160 06:30 11.06.2019
6574 Clouds 16 1009 93 0 1 0 04:53 11.06.2019
6575 Clear 16 1009 100 10000 1.5 300 02:54 11.06.2019
6576 Thunderstorm 17 1011 88 10000 0.5 0 01:33 11.06.2019
6577 Thunderstorm 19 1011 93 10000 3.6 150 00:46 11.06.2019
6578 Rain 20 1011 73 10000 6.2 260 23:47 10.06.2019
6579 Thunderstorm 20 1011 73 10000 6.2 260 23:25 10.06.2019
6580 Rain 21 1009 69 10000 2.6 90 22:56 10.06.2019
6581 Clear 21 1010 64 10000 3.1 70 22:37 10.06.2019
6582 Clear 21 1010 64 10000 2.1 60 22:19 10.06.2019
6583 Clear 22 1010 61 10000 1 90 21:40 10.06.2019
6584 Clear 23 1010 61 10000 1 90 21:22 10.06.2019
6585 Clear 24 1010 54 10000 2.1 60 20:46 10.06.2019
6586 Clear 24 1010 54 10000 2.1 60 20:25 10.06.2019
6587 Clear 25 1011 47 10000 2.6 60 19:56 10.06.2019
6588 Clear 26 1011 44 10000 2.1 100 19:36 10.06.2019
6589 Clear 26 1011 48 10000 2.1 100 19:18 10.06.2019
6590 Clear 27 1011 48 10000 2.1 100 18:55 10.06.2019
6591 Clear 27 1011 54 10000 3.1 140 18:37 10.06.2019
6592 Clear 27 1011 50 10000 3.1 110 18:18 10.06.2019
6593 Clear 27 1012 50 10000 2.6 110 17:39 10.06.2019
6594 Clear 27 1012 44 10000 4.6 90 17:20 10.06.2019
6595 Clear 27 1012 47 10000 2.6 90 16:45 10.06.2019
6596 Clear 27 1012 47 10000 2.6 90 16:27 10.06.2019
6597 Clear 27 1013 54 10000 1.5 70 15:43 10.06.2019
6598 Clear 26 1013 54 10000 1.5 70 15:24 10.06.2019
6599 Clear 27 1013 57 10000 1.5 0 14:59 10.06.2019
6600 Clear 26 1013 57 10000 2.6 120 14:38 10.06.2019
6601 Clear 26 1013 57 10000 2.6 120 14:20 10.06.2019
6602 Clear 25 1014 60 10000 2.1 0 13:43 10.06.2019
6603 Clear 24 1014 60 10000 2.1 0 13:22 10.06.2019
6604 Clear 24 1014 57 10000 1.5 160 12:45 10.06.2019
6605 Clear 24 1014 57 10000 1.5 160 12:27 10.06.2019
6606 Clouds 24 1014 53 10000 2.1 0 11:48 10.06.2019
6607 Clouds 25 1014 53 10000 2.1 0 11:29 10.06.2019
6608 Clear 25 1014 53 10000 2.6 0 10:58 10.06.2019
6609 Clear 24 1014 57 10000 2.1 160 10:38 10.06.2019
6610 Clear 24 1014 56 10000 3.6 180 10:18 10.06.2019
6611 Clear 24 1014 56 10000 3.6 150 09:47 10.06.2019
6612 Clear 23 1014 56 10000 3.6 150 09:28 10.06.2019
6613 Clear 22 1014 64 10000 4.6 150 08:46 10.06.2019
6614 Clear 22 1014 64 10000 4.6 150 08:26 10.06.2019
6615 Clear 20 1015 64 10000 4.6 140 07:26 10.06.2019
6616 Clear 19 1016 60 10000 4.1 150 04:42 10.06.2019
6617 Clear 18 1018 63 10000 2.1 100 02:19 10.06.2019
6618 Clear 18 1018 60 10000 1.5 90 01:32 10.06.2019
6619 Clear 18 1018 60 10000 2.1 100 00:59 10.06.2019
6620 Clear 19 1019 56 10000 2.1 100 00:31 10.06.2019
6621 Clear 19 1018 56 10000 2.6 80 23:45 09.06.2019
6622 Clear 19 1018 56 10000 2.6 80 23:21 09.06.2019
6623 Clouds 19 982 68 0 3.3 113.347 22:45 09.06.2019
6624 Clear 19 1019 49 10000 3.1 70 22:26 09.06.2019
6625 Clouds 19 983 66 0 3.3 113.347 21:47 09.06.2019
6626 Clear 20 1020 46 10000 4.1 90 21:28 09.06.2019
6627 Clear 21 1020 43 10000 4.1 90 20:58 09.06.2019
6628 Clear 21 1020 40 10000 4.6 80 20:40 09.06.2019
6629 Clear 22 1020 40 10000 4.6 80 20:21 09.06.2019
6630 Clear 22 1020 38 10000 4.6 80 19:42 09.06.2019
6631 Clear 23 1020 33 10000 4.6 70 19:18 09.06.2019
6632 Clear 23 1021 33 10000 5.7 60 18:43 09.06.2019
6633 Clear 24 1021 33 10000 5.7 60 18:25 09.06.2019
6634 Clear 24 1021 31 10000 5.1 60 17:53 09.06.2019
6635 Clear 25 1021 29 10000 5.7 70 17:30 09.06.2019
6636 Clear 25 1022 29 10000 5.7 90 16:58 09.06.2019
6637 Clear 25 1022 29 10000 5.1 70 16:39 09.06.2019
6638 Clear 25 1022 27 10000 4.6 100 16:20 09.06.2019
6639 Clear 25 1023 27 10000 2.6 0 15:50 09.06.2019
6640 Clear 25 1023 27 10000 2.6 0 15:29 09.06.2019
6641 Clear 25 1023 27 10000 3.6 0 14:55 09.06.2019
6642 Clear 25 1024 25 10000 2.6 0 14:36 09.06.2019
6643 Clear 25 1024 22 10000 3.6 90 14:18 09.06.2019
6644 Clear 25 1024 23 10000 3.6 0 13:44 09.06.2019
6645 Clear 24 1025 27 10000 3.1 0 12:56 09.06.2019
6646 Clear 24 1025 31 10000 2.1 0 12:35 09.06.2019
6647 Clear 23 1025 31 10000 1.5 0 11:58 09.06.2019
6648 Clear 23 1025 30 10000 2.1 0 11:36 09.06.2019
6649 Clear 22 1026 35 10000 1.5 0 11:18 09.06.2019
6650 Clear 22 1026 35 10000 2.1 0 10:43 09.06.2019
6651 Clear 22 1026 35 10000 2.1 0 10:43 09.06.2019
6652 Clear 21 1026 37 10000 1.5 0 10:20 09.06.2019
6653 Clouds 20 988 53 0 1.34 109 09:39 09.06.2019
6654 Clear 19 1026 55 10000 1.5 0 09:20 09.06.2019
6655 Clear 16 1026 62 10000 2.1 190 08:45 09.06.2019
6656 Clear 14 1026 66 10000 2.1 160 07:57 09.06.2019
6657 Clear 11 1026 87 10000 2.1 180 06:48 09.06.2019
6658 Clear 9 1026 87 10000 2.1 180 06:29 09.06.2019
6659 Clear 9 1026 71 10000 2.6 180 03:25 09.06.2019
6660 Clear 10 1025 62 10000 2.6 220 01:38 09.06.2019
6661 Clear 10 1025 62 10000 1.5 160 01:19 09.06.2019
6662 Clear 11 1025 58 10000 1.5 200 00:45 09.06.2019
6663 Clear 11 988 68 0 3.63 219.899 23:43 08.06.2019
6664 Clear 12 988 72 0 3.63 219.899 23:24 08.06.2019
6665 Clear 13 1024 48 10000 2.1 150 22:56 08.06.2019
6666 Clear 13 988 68 0 3.63 219.899 22:38 08.06.2019
6667 Clear 14 1023 45 10000 1.5 260 22:19 08.06.2019
6668 Clear 15 1023 60 0 3.63 219.899 21:50 08.06.2019
6669 Clear 16 1023 42 10000 2.1 270 21:26 08.06.2019
6670 Clear 18 1023 34 10000 3.1 280 20:47 08.06.2019
6671 Clear 19 1023 34 10000 3.1 280 20:26 08.06.2019
6672 Clear 20 1022 30 10000 4.1 280 19:59 08.06.2019
6673 Clear 20 1022 30 10000 4.6 270 19:39 08.06.2019
6674 Clear 21 1022 30 10000 4.6 270 19:19 08.06.2019
6675 Clear 21 1022 28 10000 4.6 260 18:52 08.06.2019
6676 Clear 21 1022 30 10000 5.7 230 18:33 08.06.2019
6677 Clear 22 1023 28 10000 6.2 260 17:49 08.06.2019
6678 Clear 22 1023 30 10000 5.7 250 17:49 08.06.2019
6679 Clear 22 1023 28 10000 6.2 260 17:25 08.06.2019
6680 Clear 22 1022 28 10000 7.7 250 16:58 08.06.2019
6681 Clear 22 1022 32 10000 7.2 240 16:38 08.06.2019
6682 Clear 22 1022 37 10000 5.1 220 15:57 08.06.2019
6683 Clear 22 1022 42 10000 5.7 250 15:36 08.06.2019
6684 Clear 20 1022 40 10000 6.7 230 14:50 08.06.2019
6685 Clear 20 1022 39 10000 7.7 250 14:31 08.06.2019
6686 Clear 20 1022 39 10000 6.2 250 13:56 08.06.2019
6687 Clear 19 1022 51 10000 4.1 240 13:24 08.06.2019
6688 Clear 17 1022 51 10000 3.1 240 12:45 08.06.2019
6689 Clear 17 1022 55 10000 4.1 260 12:19 08.06.2019
6690 Clear 18 1022 55 10000 4.6 260